<?xml version='1.0' encoding='UTF-8'?><gpx version="1.1" creator="JPX - https://github.com/jenetics/jpx" xmlns="http://www.topografix.com/GPX/1/1"><trk><trkseg><trkpt lat="42.5221548" lon="14.1525661"><ele>1.9999999999999998</ele><time>2026-05-02T06:13:24.757Z</time></trkpt><trkpt lat="42.5221427" lon="14.152466"><ele>2.0</ele><time>2026-05-02T06:13:28.756Z</time></trkpt><trkpt lat="42.5221012" lon="14.1523764"><ele>2.0</ele><time>2026-05-02T06:13:32.757Z</time></trkpt><trkpt lat="42.5220786" lon="14.152295"><ele>2.0</ele><time>2026-05-02T06:13:35.756Z</time></trkpt><trkpt lat="42.5220245" lon="14.152183"><ele>1.9999999999999998</ele><time>2026-05-02T06:13:38.756Z</time></trkpt><trkpt lat="42.5219683" lon="14.1520824"><ele>2.0</ele><time>2026-05-02T06:13:40.756Z</time></trkpt><trkpt lat="42.5219013" lon="14.1519961"><ele>1.7142857142857142</ele><time>2026-05-02T06:13:42.757Z</time></trkpt><trkpt lat="42.521824" lon="14.1519833"><ele>1.4285714285714284</ele><time>2026-05-02T06:13:44.756Z</time></trkpt><trkpt lat="42.5217727" lon="14.1520624"><ele>1.1428571428571428</ele><time>2026-05-02T06:13:46.757Z</time></trkpt><trkpt lat="42.5217858" lon="14.1521559"><ele>0.8571428571428571</ele><time>2026-05-02T06:13:48.757Z</time></trkpt><trkpt lat="42.5218255" lon="14.1522342"><ele>0.5714285714285714</ele><time>2026-05-02T06:13:50.757Z</time></trkpt><trkpt lat="42.5218595" lon="14.1523144"><ele>0.2857142857142857</ele><time>2026-05-02T06:13:52.757Z</time></trkpt><trkpt lat="42.5218916" lon="14.1523884"><ele>0.0</ele><time>2026-05-02T06:13:54.756Z</time></trkpt><trkpt lat="42.5219341" lon="14.1524842"><ele>-0.2</ele><time>2026-05-02T06:13:57.757Z</time></trkpt><trkpt lat="42.5219728" lon="14.1525553"><ele>-0.4</ele><time>2026-05-02T06:14:36.756Z</time></trkpt><trkpt lat="42.5220056" lon="14.1526307"><ele>-0.6000000000000001</ele><time>2026-05-02T06:14:38.756Z</time></trkpt><trkpt lat="42.5220933" lon="14.1528081"><ele>-0.8</ele><time>2026-05-02T06:14:40.757Z</time></trkpt><trkpt lat="42.5221413" lon="14.1529116"><ele>-1.0</ele><time>2026-05-02T06:14:41.756Z</time></trkpt><trkpt lat="42.522186" lon="14.1530121"><ele>-0.49999999999999994</ele><time>2026-05-02T06:14:42.756Z</time></trkpt><trkpt lat="42.5222215" lon="14.1530958"><ele>0.0</ele><time>2026-05-02T06:14:43.757Z</time></trkpt><trkpt lat="42.5222763" lon="14.1532158"><ele>0.5</ele><time>2026-05-02T06:14:45.756Z</time></trkpt><trkpt lat="42.5223044" lon="14.1533183"><ele>1.0</ele><time>2026-05-02T06:14:47.757Z</time></trkpt><trkpt lat="42.5222336" lon="14.153415"><ele>1.4999999999999998</ele><time>2026-05-02T06:14:49.756Z</time></trkpt><trkpt lat="42.5221756" lon="14.1534586"><ele>2.0</ele><time>2026-05-02T06:14:50.757Z</time></trkpt><trkpt lat="42.522119" lon="14.1535039"><ele>1.6</ele><time>2026-05-02T06:14:51.756Z</time></trkpt><trkpt lat="42.5220581" lon="14.1535525"><ele>1.2000000000000002</ele><time>2026-05-02T06:14:52.756Z</time></trkpt><trkpt lat="42.5219718" lon="14.1535968"><ele>0.8</ele><time>2026-05-02T06:14:54.756Z</time></trkpt><trkpt lat="42.5218905" lon="14.1535698"><ele>0.4</ele><time>2026-05-02T06:14:56.756Z</time></trkpt><trkpt lat="42.5218166" lon="14.1534136"><ele>0.0</ele><time>2026-05-02T06:14:58.735Z</time></trkpt><trkpt lat="42.5217793" lon="14.1533167"><ele>0.0</ele><time>2026-05-02T06:14:59.732Z</time></trkpt><trkpt lat="42.5217439" lon="14.1532157"><ele>0.0</ele><time>2026-05-02T06:15:00.731Z</time></trkpt><trkpt lat="42.5217083" lon="14.1531105"><ele>0.0</ele><time>2026-05-02T06:15:01.73Z</time></trkpt><trkpt lat="42.5216773" lon="14.1530179"><ele>0.0</ele><time>2026-05-02T06:15:02.73Z</time></trkpt><trkpt lat="42.5216314" lon="14.1528769"><ele>0.0</ele><time>2026-05-02T06:15:04.732Z</time></trkpt><trkpt lat="42.5215833" lon="14.1527336"><ele>0.0</ele><time>2026-05-02T06:15:06.733Z</time></trkpt><trkpt lat="42.5215565" lon="14.1526477"><ele>0.0</ele><time>2026-05-02T06:15:07.733Z</time></trkpt><trkpt lat="42.5215255" lon="14.1525544"><ele>0.0</ele><time>2026-05-02T06:15:08.733Z</time></trkpt><trkpt lat="42.5214891" lon="14.1524438"><ele>0.0</ele><time>2026-05-02T06:15:09.733Z</time></trkpt><trkpt lat="42.5214448" lon="14.152318"><ele>0.0</ele><time>2026-05-02T06:15:10.733Z</time></trkpt><trkpt lat="42.5213985" lon="14.1521817"><ele>0.0</ele><time>2026-05-02T06:15:11.732Z</time></trkpt><trkpt lat="42.5213508" lon="14.1520457"><ele>0.0</ele><time>2026-05-02T06:15:12.733Z</time></trkpt><trkpt lat="42.5213035" lon="14.1519131"><ele>0.0</ele><time>2026-05-02T06:15:13.733Z</time></trkpt><trkpt lat="42.5212583" lon="14.15178"><ele>0.0</ele><time>2026-05-02T06:15:14.733Z</time></trkpt><trkpt lat="42.521211" lon="14.1516433"><ele>0.0</ele><time>2026-05-02T06:15:15.733Z</time></trkpt><trkpt lat="42.5211652" lon="14.1515081"><ele>0.0</ele><time>2026-05-02T06:15:16.732Z</time></trkpt><trkpt lat="42.5211197" lon="14.1513738"><ele>0.4</ele><time>2026-05-02T06:15:17.732Z</time></trkpt><trkpt lat="42.5210726" lon="14.151238"><ele>0.8</ele><time>2026-05-02T06:15:18.733Z</time></trkpt><trkpt lat="42.5210256" lon="14.1511046"><ele>1.2000000000000002</ele><time>2026-05-02T06:15:19.732Z</time></trkpt><trkpt lat="42.52098" lon="14.1509702"><ele>1.6</ele><time>2026-05-02T06:15:20.733Z</time></trkpt><trkpt lat="42.5209325" lon="14.1508295"><ele>2.0</ele><time>2026-05-02T06:15:21.732Z</time></trkpt><trkpt lat="42.5208899" lon="14.150706"><ele>2.2</ele><time>2026-05-02T06:15:22.733Z</time></trkpt><trkpt lat="42.5208481" lon="14.1505827"><ele>2.4000000000000004</ele><time>2026-05-02T06:15:23.733Z</time></trkpt><trkpt lat="42.5208087" lon="14.1504696"><ele>2.5999999999999996</ele><time>2026-05-02T06:15:24.733Z</time></trkpt><trkpt lat="42.5207699" lon="14.1503562"><ele>2.8</ele><time>2026-05-02T06:15:25.733Z</time></trkpt><trkpt lat="42.5207285" lon="14.1502353"><ele>3.0</ele><time>2026-05-02T06:15:26.732Z</time></trkpt><trkpt lat="42.5206858" lon="14.1501124"><ele>3.0</ele><time>2026-05-02T06:15:27.733Z</time></trkpt><trkpt lat="42.5206432" lon="14.1499885"><ele>3.0</ele><time>2026-05-02T06:15:28.732Z</time></trkpt><trkpt lat="42.5206021" lon="14.14987"><ele>3.0</ele><time>2026-05-02T06:15:29.733Z</time></trkpt><trkpt lat="42.5205545" lon="14.149734"><ele>3.0</ele><time>2026-05-02T06:15:30.733Z</time></trkpt><trkpt lat="42.5205103" lon="14.1496046"><ele>3.0</ele><time>2026-05-02T06:15:31.732Z</time></trkpt><trkpt lat="42.5204663" lon="14.1494756"><ele>2.8</ele><time>2026-05-02T06:15:32.733Z</time></trkpt><trkpt lat="42.5204217" lon="14.1493448"><ele>2.5999999999999996</ele><time>2026-05-02T06:15:33.733Z</time></trkpt><trkpt lat="42.5203779" lon="14.1492154"><ele>2.4000000000000004</ele><time>2026-05-02T06:15:34.733Z</time></trkpt><trkpt lat="42.5203337" lon="14.1490854"><ele>2.2</ele><time>2026-05-02T06:15:35.733Z</time></trkpt><trkpt lat="42.5202896" lon="14.1489549"><ele>2.0</ele><time>2026-05-02T06:15:36.733Z</time></trkpt><trkpt lat="42.5202456" lon="14.1488235"><ele>2.0</ele><time>2026-05-02T06:15:37.733Z</time></trkpt><trkpt lat="42.520201" lon="14.1486947"><ele>2.0</ele><time>2026-05-02T06:15:38.733Z</time></trkpt><trkpt lat="42.5201561" lon="14.1485687"><ele>2.0</ele><time>2026-05-02T06:15:39.732Z</time></trkpt><trkpt lat="42.5201089" lon="14.1484409"><ele>2.0</ele><time>2026-05-02T06:15:40.733Z</time></trkpt><trkpt lat="42.5200594" lon="14.1483169"><ele>2.0</ele><time>2026-05-02T06:15:41.733Z</time></trkpt><trkpt lat="42.5200071" lon="14.1481944"><ele>1.6</ele><time>2026-05-02T06:15:42.732Z</time></trkpt><trkpt lat="42.5199506" lon="14.1480763"><ele>1.2000000000000002</ele><time>2026-05-02T06:15:43.733Z</time></trkpt><trkpt lat="42.5198894" lon="14.1479601"><ele>0.8</ele><time>2026-05-02T06:15:44.733Z</time></trkpt><trkpt lat="42.5198327" lon="14.147856"><ele>0.4</ele><time>2026-05-02T06:15:45.732Z</time></trkpt><trkpt lat="42.5197682" lon="14.1477428"><ele>0.0</ele><time>2026-05-02T06:15:46.732Z</time></trkpt><trkpt lat="42.519707" lon="14.1476397"><ele>0.0</ele><time>2026-05-02T06:15:47.732Z</time></trkpt><trkpt lat="42.5196484" lon="14.1475398"><ele>0.0</ele><time>2026-05-02T06:15:48.733Z</time></trkpt><trkpt lat="42.5195948" lon="14.1474433"><ele>0.0</ele><time>2026-05-02T06:15:49.732Z</time></trkpt><trkpt lat="42.5195495" lon="14.1473405"><ele>0.0</ele><time>2026-05-02T06:15:50.733Z</time></trkpt><trkpt lat="42.519512" lon="14.1472053"><ele>0.0</ele><time>2026-05-02T06:15:51.733Z</time></trkpt><trkpt lat="42.5194902" lon="14.1470769"><ele>0.6</ele><time>2026-05-02T06:15:52.733Z</time></trkpt><trkpt lat="42.5194833" lon="14.1469287"><ele>1.2</ele><time>2026-05-02T06:15:53.732Z</time></trkpt><trkpt lat="42.5194813" lon="14.1467765"><ele>1.7999999999999998</ele><time>2026-05-02T06:15:54.733Z</time></trkpt><trkpt lat="42.519482" lon="14.1466353"><ele>2.4</ele><time>2026-05-02T06:15:55.732Z</time></trkpt><trkpt lat="42.51949" lon="14.1465172"><ele>3.0</ele><time>2026-05-02T06:15:56.733Z</time></trkpt><trkpt lat="42.5195254" lon="14.1463845"><ele>3.0</ele><time>2026-05-02T06:15:58.733Z</time></trkpt><trkpt lat="42.5195631" lon="14.1462667"><ele>3.0</ele><time>2026-05-02T06:16:00.733Z</time></trkpt><trkpt lat="42.5196231" lon="14.1461435"><ele>3.0</ele><time>2026-05-02T06:16:02.732Z</time></trkpt><trkpt lat="42.5196852" lon="14.1460366"><ele>3.0</ele><time>2026-05-02T06:16:04.733Z</time></trkpt><trkpt lat="42.5197608" lon="14.1459434"><ele>3.0</ele><time>2026-05-02T06:16:06.732Z</time></trkpt><trkpt lat="42.5198111" lon="14.145887"><ele>3.0</ele><time>2026-05-02T06:16:07.732Z</time></trkpt><trkpt lat="42.5198712" lon="14.1458201"><ele>3.0</ele><time>2026-05-02T06:16:08.733Z</time></trkpt><trkpt lat="42.5199366" lon="14.1457409"><ele>3.0</ele><time>2026-05-02T06:16:09.732Z</time></trkpt><trkpt lat="42.5200014" lon="14.1456642"><ele>3.0</ele><time>2026-05-02T06:16:10.733Z</time></trkpt><trkpt lat="42.5200588" lon="14.1455982"><ele>3.0</ele><time>2026-05-02T06:16:11.733Z</time></trkpt><trkpt lat="42.5201126" lon="14.1455407"><ele>3.0</ele><time>2026-05-02T06:16:12.733Z</time></trkpt><trkpt lat="42.5201648" lon="14.145489"><ele>2.8333333333333335</ele><time>2026-05-02T06:16:13.733Z</time></trkpt><trkpt lat="42.5202159" lon="14.1454383"><ele>2.6666666666666665</ele><time>2026-05-02T06:16:14.732Z</time></trkpt><trkpt lat="42.520283" lon="14.1453778"><ele>2.5</ele><time>2026-05-02T06:16:16.733Z</time></trkpt><trkpt lat="42.5202894" lon="14.1452918"><ele>2.333333333333333</ele><time>2026-05-02T06:16:44.732Z</time></trkpt><trkpt lat="42.5202042" lon="14.1453688"><ele>2.1666666666666665</ele><time>2026-05-02T06:16:46.733Z</time></trkpt><trkpt lat="42.5201459" lon="14.1454455"><ele>2.0</ele><time>2026-05-02T06:16:47.733Z</time></trkpt><trkpt lat="42.5200692" lon="14.1455348"><ele>2.0</ele><time>2026-05-02T06:16:48.733Z</time></trkpt><trkpt lat="42.5199916" lon="14.1456196"><ele>2.0</ele><time>2026-05-02T06:16:49.733Z</time></trkpt><trkpt lat="42.5199045" lon="14.1457144"><ele>2.0</ele><time>2026-05-02T06:16:50.733Z</time></trkpt><trkpt lat="42.5198245" lon="14.1457887"><ele>2.0</ele><time>2026-05-02T06:16:51.732Z</time></trkpt><trkpt lat="42.5197456" lon="14.145824"><ele>2.0</ele><time>2026-05-02T06:16:52.732Z</time></trkpt><trkpt lat="42.5196705" lon="14.1458268"><ele>2.2</ele><time>2026-05-02T06:16:53.733Z</time></trkpt><trkpt lat="42.5195877" lon="14.1457974"><ele>2.4000000000000004</ele><time>2026-05-02T06:16:54.733Z</time></trkpt><trkpt lat="42.5195031" lon="14.1457461"><ele>2.5999999999999996</ele><time>2026-05-02T06:16:55.733Z</time></trkpt><trkpt lat="42.519412" lon="14.1456821"><ele>2.8</ele><time>2026-05-02T06:16:56.732Z</time></trkpt><trkpt lat="42.5193168" lon="14.1456172"><ele>3.0</ele><time>2026-05-02T06:16:57.733Z</time></trkpt><trkpt lat="42.5192164" lon="14.1455522"><ele>3.0</ele><time>2026-05-02T06:16:58.733Z</time></trkpt><trkpt lat="42.5191132" lon="14.1454877"><ele>3.0</ele><time>2026-05-02T06:16:59.732Z</time></trkpt><trkpt lat="42.5190145" lon="14.1454559"><ele>3.0</ele><time>2026-05-02T06:17:00.757Z</time></trkpt><trkpt lat="42.5189129" lon="14.1453844"><ele>3.0</ele><time>2026-05-02T06:17:01.757Z</time></trkpt><trkpt lat="42.5188063" lon="14.1453027"><ele>3.0</ele><time>2026-05-02T06:17:02.756Z</time></trkpt><trkpt lat="42.5186963" lon="14.1452232"><ele>3.0</ele><time>2026-05-02T06:17:03.757Z</time></trkpt><trkpt lat="42.5185846" lon="14.1451432"><ele>3.0</ele><time>2026-05-02T06:17:04.757Z</time></trkpt><trkpt lat="42.5184728" lon="14.145062"><ele>3.0</ele><time>2026-05-02T06:17:05.757Z</time></trkpt><trkpt lat="42.5183606" lon="14.1449799"><ele>3.0</ele><time>2026-05-02T06:17:06.757Z</time></trkpt><trkpt lat="42.5182498" lon="14.1448957"><ele>3.0</ele><time>2026-05-02T06:17:07.757Z</time></trkpt><trkpt lat="42.5181385" lon="14.1448173"><ele>3.0</ele><time>2026-05-02T06:17:08.757Z</time></trkpt><trkpt lat="42.5180304" lon="14.1447432"><ele>3.0</ele><time>2026-05-02T06:17:09.757Z</time></trkpt><trkpt lat="42.5179237" lon="14.1446717"><ele>3.0</ele><time>2026-05-02T06:17:10.756Z</time></trkpt><trkpt lat="42.5178203" lon="14.1446019"><ele>3.0</ele><time>2026-05-02T06:17:11.756Z</time></trkpt><trkpt lat="42.5177169" lon="14.1445347"><ele>3.0</ele><time>2026-05-02T06:17:12.757Z</time></trkpt><trkpt lat="42.5176188" lon="14.1444697"><ele>3.0</ele><time>2026-05-02T06:17:13.757Z</time></trkpt><trkpt lat="42.5175289" lon="14.1444064"><ele>3.0</ele><time>2026-05-02T06:17:14.757Z</time></trkpt><trkpt lat="42.5174549" lon="14.1443513"><ele>3.0</ele><time>2026-05-02T06:17:15.757Z</time></trkpt><trkpt lat="42.5173801" lon="14.1442986"><ele>3.0</ele><time>2026-05-02T06:17:16.757Z</time></trkpt><trkpt lat="42.5172958" lon="14.1442432"><ele>3.0</ele><time>2026-05-02T06:17:17.757Z</time></trkpt><trkpt lat="42.5172007" lon="14.1441729"><ele>3.0</ele><time>2026-05-02T06:17:18.756Z</time></trkpt><trkpt lat="42.5170959" lon="14.1440979"><ele>3.0</ele><time>2026-05-02T06:17:19.757Z</time></trkpt><trkpt lat="42.5169916" lon="14.1440208"><ele>3.75</ele><time>2026-05-02T06:17:20.757Z</time></trkpt><trkpt lat="42.5168804" lon="14.1439414"><ele>4.5</ele><time>2026-05-02T06:17:21.757Z</time></trkpt><trkpt lat="42.516768" lon="14.1438587"><ele>5.25</ele><time>2026-05-02T06:17:22.757Z</time></trkpt><trkpt lat="42.5166559" lon="14.1437764"><ele>6.0</ele><time>2026-05-02T06:17:23.756Z</time></trkpt><trkpt lat="42.5165413" lon="14.1436937"><ele>6.0</ele><time>2026-05-02T06:17:24.757Z</time></trkpt><trkpt lat="42.5164317" lon="14.143613"><ele>6.0</ele><time>2026-05-02T06:17:25.756Z</time></trkpt><trkpt lat="42.5163406" lon="14.1435466"><ele>6.0</ele><time>2026-05-02T06:17:26.757Z</time></trkpt><trkpt lat="42.5162762" lon="14.1434925"><ele>6.0</ele><time>2026-05-02T06:17:27.757Z</time></trkpt><trkpt lat="42.5161701" lon="14.1434165"><ele>6.0</ele><time>2026-05-02T06:17:29.757Z</time></trkpt><trkpt lat="42.516075" lon="14.1433591"><ele>5.666666666666667</ele><time>2026-05-02T06:17:31.756Z</time></trkpt><trkpt lat="42.5159738" lon="14.1432872"><ele>5.333333333333333</ele><time>2026-05-02T06:17:33.757Z</time></trkpt><trkpt lat="42.5159136" lon="14.143246"><ele>5.0</ele><time>2026-05-02T06:17:34.756Z</time></trkpt><trkpt lat="42.5158531" lon="14.143202"><ele>4.666666666666666</ele><time>2026-05-02T06:17:35.757Z</time></trkpt><trkpt lat="42.5157873" lon="14.1431599"><ele>4.333333333333333</ele><time>2026-05-02T06:17:36.757Z</time></trkpt><trkpt lat="42.5157197" lon="14.1431162"><ele>4.0</ele><time>2026-05-02T06:17:37.756Z</time></trkpt><trkpt lat="42.5156519" lon="14.1430717"><ele>3.833333333333333</ele><time>2026-05-02T06:17:38.757Z</time></trkpt><trkpt lat="42.5155845" lon="14.1430225"><ele>3.6666666666666665</ele><time>2026-05-02T06:17:39.757Z</time></trkpt><trkpt lat="42.5155183" lon="14.1429774"><ele>3.5</ele><time>2026-05-02T06:17:40.756Z</time></trkpt><trkpt lat="42.5154518" lon="14.14293"><ele>3.333333333333333</ele><time>2026-05-02T06:17:41.757Z</time></trkpt><trkpt lat="42.515383" lon="14.142884"><ele>3.1666666666666665</ele><time>2026-05-02T06:17:42.756Z</time></trkpt><trkpt lat="42.5153146" lon="14.1428365"><ele>3.0</ele><time>2026-05-02T06:17:43.757Z</time></trkpt><trkpt lat="42.5152441" lon="14.1427901"><ele>2.8333333333333335</ele><time>2026-05-02T06:17:44.757Z</time></trkpt><trkpt lat="42.5151809" lon="14.1427421"><ele>2.6666666666666665</ele><time>2026-05-02T06:17:45.757Z</time></trkpt><trkpt lat="42.5151156" lon="14.1426931"><ele>2.5</ele><time>2026-05-02T06:17:46.757Z</time></trkpt><trkpt lat="42.5150445" lon="14.1426392"><ele>2.333333333333333</ele><time>2026-05-02T06:17:47.757Z</time></trkpt><trkpt lat="42.514974" lon="14.1425858"><ele>2.1666666666666665</ele><time>2026-05-02T06:17:48.756Z</time></trkpt><trkpt lat="42.5149073" lon="14.1425353"><ele>2.0</ele><time>2026-05-02T06:17:49.756Z</time></trkpt><trkpt lat="42.5148475" lon="14.14249"><ele>2.0</ele><time>2026-05-02T06:17:50.757Z</time></trkpt><trkpt lat="42.5147902" lon="14.1424476"><ele>2.0</ele><time>2026-05-02T06:17:51.757Z</time></trkpt><trkpt lat="42.514682" lon="14.1423657"><ele>2.0</ele><time>2026-05-02T06:17:53.757Z</time></trkpt><trkpt lat="42.5145681" lon="14.1422894"><ele>2.0</ele><time>2026-05-02T06:17:55.757Z</time></trkpt><trkpt lat="42.514511" lon="14.1422514"><ele>2.0</ele><time>2026-05-02T06:17:56.757Z</time></trkpt><trkpt lat="42.5143945" lon="14.1421575"><ele>2.25</ele><time>2026-05-02T06:17:58.756Z</time></trkpt><trkpt lat="42.5143207" lon="14.1420966"><ele>2.5</ele><time>2026-05-02T06:17:59.757Z</time></trkpt><trkpt lat="42.5142386" lon="14.1420316"><ele>2.75</ele><time>2026-05-02T06:18:00.757Z</time></trkpt><trkpt lat="42.5141257" lon="14.1419608"><ele>3.0</ele><time>2026-05-02T06:18:01.757Z</time></trkpt><trkpt lat="42.5139642" lon="14.1418618"><ele>3.0</ele><time>2026-05-02T06:18:02.757Z</time></trkpt><trkpt lat="42.5137967" lon="14.1417379"><ele>3.0</ele><time>2026-05-02T06:18:03.757Z</time></trkpt><trkpt lat="42.51363" lon="14.1416041"><ele>3.0</ele><time>2026-05-02T06:18:04.757Z</time></trkpt><trkpt lat="42.5134865" lon="14.141492"><ele>3.5999999999999996</ele><time>2026-05-02T06:18:05.756Z</time></trkpt><trkpt lat="42.513363" lon="14.1413981"><ele>4.199999999999999</ele><time>2026-05-02T06:18:06.757Z</time></trkpt><trkpt lat="42.5132629" lon="14.1413197"><ele>4.8</ele><time>2026-05-02T06:18:07.756Z</time></trkpt><trkpt lat="42.513196" lon="14.1412624"><ele>5.3999999999999995</ele><time>2026-05-02T06:18:08.757Z</time></trkpt><trkpt lat="42.5131277" lon="14.1412017"><ele>6.0</ele><time>2026-05-02T06:18:09.756Z</time></trkpt><trkpt lat="42.5130575" lon="14.141123"><ele>6.0</ele><time>2026-05-02T06:18:10.757Z</time></trkpt><trkpt lat="42.5129901" lon="14.141018"><ele>6.0</ele><time>2026-05-02T06:18:11.757Z</time></trkpt><trkpt lat="42.5129321" lon="14.1408876"><ele>6.0</ele><time>2026-05-02T06:18:12.756Z</time></trkpt><trkpt lat="42.5128889" lon="14.1407442"><ele>6.0</ele><time>2026-05-02T06:18:13.757Z</time></trkpt><trkpt lat="42.5128623" lon="14.1405913"><ele>6.0</ele><time>2026-05-02T06:18:14.756Z</time></trkpt><trkpt lat="42.5128582" lon="14.1404327"><ele>6.0</ele><time>2026-05-02T06:18:15.756Z</time></trkpt><trkpt lat="42.5128745" lon="14.1402761"><ele>6.0</ele><time>2026-05-02T06:18:16.756Z</time></trkpt><trkpt lat="42.5129056" lon="14.1401311"><ele>6.0</ele><time>2026-05-02T06:18:17.756Z</time></trkpt><trkpt lat="42.512946" lon="14.139992"><ele>6.0</ele><time>2026-05-02T06:18:18.757Z</time></trkpt><trkpt lat="42.5129907" lon="14.1398356"><ele>6.333333333333334</ele><time>2026-05-02T06:18:19.756Z</time></trkpt><trkpt lat="42.5130482" lon="14.1396572"><ele>6.666666666666667</ele><time>2026-05-02T06:18:20.757Z</time></trkpt><trkpt lat="42.5131208" lon="14.1394701"><ele>7.0</ele><time>2026-05-02T06:18:21.757Z</time></trkpt><trkpt lat="42.5131992" lon="14.1392921"><ele>7.0</ele><time>2026-05-02T06:18:22.757Z</time></trkpt><trkpt lat="42.5132715" lon="14.1391246"><ele>7.0</ele><time>2026-05-02T06:18:23.757Z</time></trkpt><trkpt lat="42.5133469" lon="14.1389469"><ele>7.0</ele><time>2026-05-02T06:18:24.757Z</time></trkpt><trkpt lat="42.513418" lon="14.138769"><ele>7.0</ele><time>2026-05-02T06:18:25.756Z</time></trkpt><trkpt lat="42.513484" lon="14.1386034"><ele>6.75</ele><time>2026-05-02T06:18:26.756Z</time></trkpt><trkpt lat="42.5135424" lon="14.1384506"><ele>6.5</ele><time>2026-05-02T06:18:27.757Z</time></trkpt><trkpt lat="42.5135994" lon="14.1383106"><ele>6.25</ele><time>2026-05-02T06:18:28.757Z</time></trkpt><trkpt lat="42.5136532" lon="14.1381822"><ele>6.0</ele><time>2026-05-02T06:18:29.756Z</time></trkpt><trkpt lat="42.5137027" lon="14.1380567"><ele>6.0</ele><time>2026-05-02T06:18:30.756Z</time></trkpt><trkpt lat="42.5137504" lon="14.1379398"><ele>6.0</ele><time>2026-05-02T06:18:31.757Z</time></trkpt><trkpt lat="42.5137874" lon="14.13784"><ele>6.0</ele><time>2026-05-02T06:18:32.757Z</time></trkpt><trkpt lat="42.513822" lon="14.1377555"><ele>6.0</ele><time>2026-05-02T06:18:33.756Z</time></trkpt><trkpt lat="42.513859" lon="14.1376859"><ele>6.0</ele><time>2026-05-02T06:18:34.756Z</time></trkpt><trkpt lat="42.5139147" lon="14.1375722"><ele>6.0</ele><time>2026-05-02T06:18:36.757Z</time></trkpt><trkpt lat="42.5139184" lon="14.1374566"><ele>5.6</ele><time>2026-05-02T06:18:38.756Z</time></trkpt><trkpt lat="42.5138456" lon="14.1373696"><ele>5.199999999999999</ele><time>2026-05-02T06:18:40.757Z</time></trkpt><trkpt lat="42.5137513" lon="14.1373036"><ele>4.800000000000001</ele><time>2026-05-02T06:18:42.757Z</time></trkpt><trkpt lat="42.5136666" lon="14.1371698"><ele>4.4</ele><time>2026-05-02T06:18:44.756Z</time></trkpt><trkpt lat="42.5136287" lon="14.1370844"><ele>4.0</ele><time>2026-05-02T06:18:45.757Z</time></trkpt><trkpt lat="42.5135923" lon="14.1369855"><ele>4.0</ele><time>2026-05-02T06:18:46.756Z</time></trkpt><trkpt lat="42.5135563" lon="14.13687"><ele>4.0</ele><time>2026-05-02T06:18:47.756Z</time></trkpt><trkpt lat="42.5135206" lon="14.1367423"><ele>4.0</ele><time>2026-05-02T06:18:48.757Z</time></trkpt><trkpt lat="42.5134852" lon="14.1366087"><ele>4.0</ele><time>2026-05-02T06:18:49.757Z</time></trkpt><trkpt lat="42.5134511" lon="14.1364611"><ele>4.0</ele><time>2026-05-02T06:18:50.756Z</time></trkpt><trkpt lat="42.5134132" lon="14.1363034"><ele>3.75</ele><time>2026-05-02T06:18:51.757Z</time></trkpt><trkpt lat="42.5133712" lon="14.1361402"><ele>3.5</ele><time>2026-05-02T06:18:52.756Z</time></trkpt><trkpt lat="42.5133205" lon="14.1359739"><ele>3.25</ele><time>2026-05-02T06:18:53.757Z</time></trkpt><trkpt lat="42.513258" lon="14.13581"><ele>3.0</ele><time>2026-05-02T06:18:54.756Z</time></trkpt><trkpt lat="42.5131855" lon="14.1356488"><ele>3.0</ele><time>2026-05-02T06:18:55.756Z</time></trkpt><trkpt lat="42.5131026" lon="14.1354897"><ele>3.0</ele><time>2026-05-02T06:18:56.756Z</time></trkpt><trkpt lat="42.5130088" lon="14.1353435"><ele>3.0</ele><time>2026-05-02T06:18:57.757Z</time></trkpt><trkpt lat="42.5129029" lon="14.1352131"><ele>3.0</ele><time>2026-05-02T06:18:58.756Z</time></trkpt><trkpt lat="42.5127863" lon="14.1350995"><ele>3.0</ele><time>2026-05-02T06:18:59.757Z</time></trkpt><trkpt lat="42.5126607" lon="14.1349985"><ele>3.0</ele><time>2026-05-02T06:19:00.756Z</time></trkpt><trkpt lat="42.5125323" lon="14.134903"><ele>3.0</ele><time>2026-05-02T06:19:01.756Z</time></trkpt><trkpt lat="42.5124036" lon="14.1348112"><ele>3.0</ele><time>2026-05-02T06:19:02.756Z</time></trkpt><trkpt lat="42.5122835" lon="14.1347353"><ele>2.6</ele><time>2026-05-02T06:19:03.757Z</time></trkpt><trkpt lat="42.5121741" lon="14.1346619"><ele>2.1999999999999997</ele><time>2026-05-02T06:19:04.756Z</time></trkpt><trkpt lat="42.5120777" lon="14.1345864"><ele>1.8</ele><time>2026-05-02T06:19:05.757Z</time></trkpt><trkpt lat="42.5119914" lon="14.1345187"><ele>1.4</ele><time>2026-05-02T06:19:06.757Z</time></trkpt><trkpt lat="42.5119046" lon="14.1344454"><ele>1.0</ele><time>2026-05-02T06:19:07.757Z</time></trkpt><trkpt lat="42.5118151" lon="14.1343615"><ele>2.0</ele><time>2026-05-02T06:19:08.756Z</time></trkpt><trkpt lat="42.5117271" lon="14.1342555"><ele>3.0</ele><time>2026-05-02T06:19:09.756Z</time></trkpt><trkpt lat="42.5116469" lon="14.1341248"><ele>4.0</ele><time>2026-05-02T06:19:10.757Z</time></trkpt><trkpt lat="42.5115732" lon="14.1339772"><ele>5.0</ele><time>2026-05-02T06:19:11.757Z</time></trkpt><trkpt lat="42.511499" lon="14.1338198"><ele>5.0</ele><time>2026-05-02T06:19:12.757Z</time></trkpt><trkpt lat="42.5114182" lon="14.1336583"><ele>5.0</ele><time>2026-05-02T06:19:13.756Z</time></trkpt><trkpt lat="42.5113289" lon="14.133498"><ele>5.0</ele><time>2026-05-02T06:19:14.756Z</time></trkpt><trkpt lat="42.5112306" lon="14.1333389"><ele>5.0</ele><time>2026-05-02T06:19:15.757Z</time></trkpt><trkpt lat="42.511131" lon="14.1331718"><ele>5.333333333333334</ele><time>2026-05-02T06:19:16.757Z</time></trkpt><trkpt lat="42.5110284" lon="14.133002"><ele>5.666666666666667</ele><time>2026-05-02T06:19:17.757Z</time></trkpt><trkpt lat="42.5109293" lon="14.132826"><ele>6.0</ele><time>2026-05-02T06:19:18.757Z</time></trkpt><trkpt lat="42.5108346" lon="14.1326462"><ele>6.0</ele><time>2026-05-02T06:19:19.757Z</time></trkpt><trkpt lat="42.5107426" lon="14.1324663"><ele>6.0</ele><time>2026-05-02T06:19:20.757Z</time></trkpt><trkpt lat="42.5106486" lon="14.1322875"><ele>6.0</ele><time>2026-05-02T06:19:21.756Z</time></trkpt><trkpt lat="42.510554" lon="14.1321129"><ele>6.0</ele><time>2026-05-02T06:19:22.756Z</time></trkpt><trkpt lat="42.5104575" lon="14.1319429"><ele>6.0</ele><time>2026-05-02T06:19:23.756Z</time></trkpt><trkpt lat="42.5103635" lon="14.1317715"><ele>6.0</ele><time>2026-05-02T06:19:24.757Z</time></trkpt><trkpt lat="42.5102717" lon="14.1316041"><ele>5.666666666666667</ele><time>2026-05-02T06:19:25.756Z</time></trkpt><trkpt lat="42.5101794" lon="14.1314395"><ele>5.333333333333334</ele><time>2026-05-02T06:19:26.756Z</time></trkpt><trkpt lat="42.5100877" lon="14.1312793"><ele>5.0</ele><time>2026-05-02T06:19:27.757Z</time></trkpt><trkpt lat="42.5099936" lon="14.1311235"><ele>5.0</ele><time>2026-05-02T06:19:28.756Z</time></trkpt><trkpt lat="42.5098929" lon="14.1309662"><ele>5.0</ele><time>2026-05-02T06:19:29.757Z</time></trkpt><trkpt lat="42.509791" lon="14.1308136"><ele>5.0</ele><time>2026-05-02T06:19:30.756Z</time></trkpt><trkpt lat="42.5096917" lon="14.1306695"><ele>5.5</ele><time>2026-05-02T06:19:31.756Z</time></trkpt><trkpt lat="42.5095971" lon="14.1305359"><ele>6.0</ele><time>2026-05-02T06:19:32.757Z</time></trkpt><trkpt lat="42.5095111" lon="14.1304132"><ele>6.5</ele><time>2026-05-02T06:19:33.757Z</time></trkpt><trkpt lat="42.509428" lon="14.1302889"><ele>7.0</ele><time>2026-05-02T06:19:34.756Z</time></trkpt><trkpt lat="42.5093484" lon="14.1301736"><ele>7.0</ele><time>2026-05-02T06:19:35.756Z</time></trkpt><trkpt lat="42.5092789" lon="14.1300648"><ele>6.999999999999999</ele><time>2026-05-02T06:19:36.757Z</time></trkpt><trkpt lat="42.5092107" lon="14.1299647"><ele>6.999999999999999</ele><time>2026-05-02T06:19:37.757Z</time></trkpt><trkpt lat="42.5091509" lon="14.1298797"><ele>7.0</ele><time>2026-05-02T06:19:38.756Z</time></trkpt><trkpt lat="42.5091043" lon="14.1298045"><ele>7.0</ele><time>2026-05-02T06:19:39.757Z</time></trkpt><trkpt lat="42.5090607" lon="14.1296636"><ele>6.5</ele><time>2026-05-02T06:19:41.757Z</time></trkpt><trkpt lat="42.5090361" lon="14.129515"><ele>6.0</ele><time>2026-05-02T06:19:43.757Z</time></trkpt><trkpt lat="42.5089663" lon="14.1293883"><ele>5.5</ele><time>2026-05-02T06:19:45.757Z</time></trkpt><trkpt lat="42.5088425" lon="14.1293079"><ele>5.0</ele><time>2026-05-02T06:19:47.757Z</time></trkpt><trkpt lat="42.5087633" lon="14.129241"><ele>5.25</ele><time>2026-05-02T06:19:48.757Z</time></trkpt><trkpt lat="42.5086816" lon="14.1291175"><ele>5.5</ele><time>2026-05-02T06:19:49.756Z</time></trkpt><trkpt lat="42.508601" lon="14.1289659"><ele>5.75</ele><time>2026-05-02T06:19:50.757Z</time></trkpt><trkpt lat="42.5085155" lon="14.1288"><ele>6.0</ele><time>2026-05-02T06:19:51.757Z</time></trkpt><trkpt lat="42.5084182" lon="14.1286222"><ele>6.0</ele><time>2026-05-02T06:19:52.757Z</time></trkpt><trkpt lat="42.5083124" lon="14.1284346"><ele>6.0</ele><time>2026-05-02T06:19:53.756Z</time></trkpt><trkpt lat="42.5082022" lon="14.1282326"><ele>6.0</ele><time>2026-05-02T06:19:54.756Z</time></trkpt><trkpt lat="42.5080876" lon="14.1280239"><ele>5.666666666666667</ele><time>2026-05-02T06:19:55.757Z</time></trkpt><trkpt lat="42.5079693" lon="14.1278092"><ele>5.333333333333334</ele><time>2026-05-02T06:19:56.757Z</time></trkpt><trkpt lat="42.5078455" lon="14.127588"><ele>5.0</ele><time>2026-05-02T06:19:57.756Z</time></trkpt><trkpt lat="42.5077209" lon="14.127362"><ele>6.0</ele><time>2026-05-02T06:19:58.757Z</time></trkpt><trkpt lat="42.5075947" lon="14.1271371"><ele>7.0</ele><time>2026-05-02T06:19:59.757Z</time></trkpt><trkpt lat="42.5074648" lon="14.1269056"><ele>8.0</ele><time>2026-05-02T06:20:00.756Z</time></trkpt><trkpt lat="42.5073323" lon="14.1266734"><ele>7.666666666666666</ele><time>2026-05-02T06:20:01.757Z</time></trkpt><trkpt lat="42.5071983" lon="14.1264394"><ele>7.333333333333334</ele><time>2026-05-02T06:20:02.756Z</time></trkpt><trkpt lat="42.5070621" lon="14.1262074"><ele>7.0</ele><time>2026-05-02T06:20:03.757Z</time></trkpt><trkpt lat="42.5069249" lon="14.1259846"><ele>7.0</ele><time>2026-05-02T06:20:04.757Z</time></trkpt><trkpt lat="42.5067825" lon="14.1257664"><ele>7.0</ele><time>2026-05-02T06:20:05.757Z</time></trkpt><trkpt lat="42.5066339" lon="14.1255505"><ele>7.0</ele><time>2026-05-02T06:20:06.757Z</time></trkpt><trkpt lat="42.5064789" lon="14.1253361"><ele>7.5</ele><time>2026-05-02T06:20:07.757Z</time></trkpt><trkpt lat="42.5063174" lon="14.1251221"><ele>8.0</ele><time>2026-05-02T06:20:08.757Z</time></trkpt><trkpt lat="42.5061517" lon="14.1249088"><ele>8.5</ele><time>2026-05-02T06:20:09.756Z</time></trkpt><trkpt lat="42.5059845" lon="14.1247028"><ele>9.0</ele><time>2026-05-02T06:20:10.756Z</time></trkpt><trkpt lat="42.5058125" lon="14.1245022"><ele>9.0</ele><time>2026-05-02T06:20:11.756Z</time></trkpt><trkpt lat="42.5056369" lon="14.124308"><ele>9.0</ele><time>2026-05-02T06:20:12.757Z</time></trkpt><trkpt lat="42.5054588" lon="14.124119"><ele>8.0</ele><time>2026-05-02T06:20:13.757Z</time></trkpt><trkpt lat="42.5052757" lon="14.1239376"><ele>7.0</ele><time>2026-05-02T06:20:14.756Z</time></trkpt><trkpt lat="42.5050921" lon="14.1237596"><ele>7.0</ele><time>2026-05-02T06:20:15.756Z</time></trkpt><trkpt lat="42.5049066" lon="14.1235868"><ele>7.0</ele><time>2026-05-02T06:20:16.757Z</time></trkpt><trkpt lat="42.5047199" lon="14.1234134"><ele>8.5</ele><time>2026-05-02T06:20:17.757Z</time></trkpt><trkpt lat="42.5045339" lon="14.1232351"><ele>10.0</ele><time>2026-05-02T06:20:18.757Z</time></trkpt><trkpt lat="42.5043489" lon="14.123064"><ele>10.0</ele><time>2026-05-02T06:20:19.757Z</time></trkpt><trkpt lat="42.504164" lon="14.1228944"><ele>10.0</ele><time>2026-05-02T06:20:20.757Z</time></trkpt><trkpt lat="42.5039796" lon="14.1227234"><ele>10.0</ele><time>2026-05-02T06:20:21.757Z</time></trkpt><trkpt lat="42.5037986" lon="14.1225537"><ele>9.666666666666668</ele><time>2026-05-02T06:20:22.756Z</time></trkpt><trkpt lat="42.5036189" lon="14.122389"><ele>9.333333333333334</ele><time>2026-05-02T06:20:23.757Z</time></trkpt><trkpt lat="42.5034511" lon="14.1222348"><ele>9.0</ele><time>2026-05-02T06:20:24.756Z</time></trkpt><trkpt lat="42.5032958" lon="14.1220953"><ele>9.0</ele><time>2026-05-02T06:20:25.756Z</time></trkpt><trkpt lat="42.5031578" lon="14.1219731"><ele>9.0</ele><time>2026-05-02T06:20:26.757Z</time></trkpt><trkpt lat="42.50304" lon="14.1218617"><ele>9.0</ele><time>2026-05-02T06:20:27.756Z</time></trkpt><trkpt lat="42.5029466" lon="14.1217581"><ele>9.0</ele><time>2026-05-02T06:20:28.757Z</time></trkpt><trkpt lat="42.5028763" lon="14.1216538"><ele>8.833333333333334</ele><time>2026-05-02T06:20:29.757Z</time></trkpt><trkpt lat="42.5028283" lon="14.1215444"><ele>8.666666666666666</ele><time>2026-05-02T06:20:30.757Z</time></trkpt><trkpt lat="42.502791" lon="14.1214379"><ele>8.5</ele><time>2026-05-02T06:20:31.757Z</time></trkpt><trkpt lat="42.5027463" lon="14.1213622"><ele>8.333333333333332</ele><time>2026-05-02T06:20:32.756Z</time></trkpt><trkpt lat="42.5026876" lon="14.121316"><ele>8.166666666666666</ele><time>2026-05-02T06:20:33.756Z</time></trkpt><trkpt lat="42.5026153" lon="14.1212953"><ele>8.0</ele><time>2026-05-02T06:20:34.757Z</time></trkpt><trkpt lat="42.5025282" lon="14.1212958"><ele>8.0</ele><time>2026-05-02T06:20:35.757Z</time></trkpt><trkpt lat="42.5024295" lon="14.1212928"><ele>8.0</ele><time>2026-05-02T06:20:36.756Z</time></trkpt><trkpt lat="42.5023257" lon="14.1212631"><ele>8.0</ele><time>2026-05-02T06:20:37.756Z</time></trkpt><trkpt lat="42.5022143" lon="14.1212071"><ele>8.0</ele><time>2026-05-02T06:20:38.756Z</time></trkpt><trkpt lat="42.5020919" lon="14.1211357"><ele>8.666666666666666</ele><time>2026-05-02T06:20:39.756Z</time></trkpt><trkpt lat="42.501959" lon="14.12106"><ele>9.333333333333334</ele><time>2026-05-02T06:20:40.757Z</time></trkpt><trkpt lat="42.5018197" lon="14.1209862"><ele>10.0</ele><time>2026-05-02T06:20:41.757Z</time></trkpt><trkpt lat="42.5016677" lon="14.1209136"><ele>10.0</ele><time>2026-05-02T06:20:42.757Z</time></trkpt><trkpt lat="42.5015046" lon="14.1208476"><ele>10.0</ele><time>2026-05-02T06:20:43.757Z</time></trkpt><trkpt lat="42.5013455" lon="14.120798"><ele>10.0</ele><time>2026-05-02T06:20:44.757Z</time></trkpt><trkpt lat="42.5011971" lon="14.1207515"><ele>10.25</ele><time>2026-05-02T06:20:45.757Z</time></trkpt><trkpt lat="42.5010578" lon="14.1206975"><ele>10.5</ele><time>2026-05-02T06:20:46.757Z</time></trkpt><trkpt lat="42.500922" lon="14.1206311"><ele>10.75</ele><time>2026-05-02T06:20:47.757Z</time></trkpt><trkpt lat="42.5007813" lon="14.120547"><ele>11.0</ele><time>2026-05-02T06:20:48.756Z</time></trkpt><trkpt lat="42.5006364" lon="14.1204502"><ele>11.0</ele><time>2026-05-02T06:20:49.757Z</time></trkpt><trkpt lat="42.5004883" lon="14.1203449"><ele>11.0</ele><time>2026-05-02T06:20:50.756Z</time></trkpt><trkpt lat="42.5003375" lon="14.1202398"><ele>11.0</ele><time>2026-05-02T06:20:51.756Z</time></trkpt><trkpt lat="42.5001848" lon="14.120135"><ele>10.75</ele><time>2026-05-02T06:20:52.756Z</time></trkpt><trkpt lat="42.5000462" lon="14.1200433"><ele>10.5</ele><time>2026-05-02T06:20:53.757Z</time></trkpt><trkpt lat="42.4999238" lon="14.1199588"><ele>10.25</ele><time>2026-05-02T06:20:54.757Z</time></trkpt><trkpt lat="42.4998221" lon="14.1198943"><ele>10.0</ele><time>2026-05-02T06:20:55.757Z</time></trkpt><trkpt lat="42.4997405" lon="14.1198709"><ele>10.0</ele><time>2026-05-02T06:20:56.757Z</time></trkpt><trkpt lat="42.4996723" lon="14.1198804"><ele>10.0</ele><time>2026-05-02T06:20:57.757Z</time></trkpt><trkpt lat="42.4996166" lon="14.1199209"><ele>10.0</ele><time>2026-05-02T06:20:58.757Z</time></trkpt><trkpt lat="42.499554" lon="14.1199958"><ele>10.0</ele><time>2026-05-02T06:20:59.756Z</time></trkpt><trkpt lat="42.4994842" lon="14.1200903"><ele>10.0</ele><time>2026-05-02T06:21:00.756Z</time></trkpt><trkpt lat="42.4994038" lon="14.1202044"><ele>10.0</ele><time>2026-05-02T06:21:01.756Z</time></trkpt><trkpt lat="42.4993125" lon="14.1203296"><ele>11.666666666666668</ele><time>2026-05-02T06:21:02.757Z</time></trkpt><trkpt lat="42.4992047" lon="14.1204736"><ele>13.333333333333334</ele><time>2026-05-02T06:21:03.756Z</time></trkpt><trkpt lat="42.4990969" lon="14.1206116"><ele>15.0</ele><time>2026-05-02T06:21:04.756Z</time></trkpt><trkpt lat="42.4989864" lon="14.1207504"><ele>15.0</ele><time>2026-05-02T06:21:05.757Z</time></trkpt><trkpt lat="42.4988756" lon="14.1208865"><ele>15.0</ele><time>2026-05-02T06:21:06.756Z</time></trkpt><trkpt lat="42.4987645" lon="14.1210233"><ele>15.0</ele><time>2026-05-02T06:21:07.756Z</time></trkpt><trkpt lat="42.4986563" lon="14.1211605"><ele>15.0</ele><time>2026-05-02T06:21:08.757Z</time></trkpt><trkpt lat="42.4985456" lon="14.1212975"><ele>15.0</ele><time>2026-05-02T06:21:09.757Z</time></trkpt><trkpt lat="42.4984327" lon="14.1214263"><ele>15.0</ele><time>2026-05-02T06:21:10.756Z</time></trkpt><trkpt lat="42.4983123" lon="14.1215332"><ele>15.0</ele><time>2026-05-02T06:21:11.756Z</time></trkpt><trkpt lat="42.4981989" lon="14.1216193"><ele>15.0</ele><time>2026-05-02T06:21:12.757Z</time></trkpt><trkpt lat="42.4980973" lon="14.1217084"><ele>15.0</ele><time>2026-05-02T06:21:13.756Z</time></trkpt><trkpt lat="42.4980071" lon="14.1218193"><ele>15.0</ele><time>2026-05-02T06:21:14.756Z</time></trkpt><trkpt lat="42.4979225" lon="14.1219523"><ele>15.0</ele><time>2026-05-02T06:21:15.757Z</time></trkpt><trkpt lat="42.4978325" lon="14.1220951"><ele>15.0</ele><time>2026-05-02T06:21:16.756Z</time></trkpt><trkpt lat="42.497733" lon="14.1222468"><ele>14.666666666666668</ele><time>2026-05-02T06:21:17.756Z</time></trkpt><trkpt lat="42.4976323" lon="14.1224058"><ele>14.333333333333334</ele><time>2026-05-02T06:21:18.756Z</time></trkpt><trkpt lat="42.4975232" lon="14.1225715"><ele>14.0</ele><time>2026-05-02T06:21:19.757Z</time></trkpt><trkpt lat="42.4974122" lon="14.1227488"><ele>14.0</ele><time>2026-05-02T06:21:20.756Z</time></trkpt><trkpt lat="42.497301" lon="14.1229303"><ele>14.0</ele><time>2026-05-02T06:21:21.756Z</time></trkpt><trkpt lat="42.4971947" lon="14.1230977"><ele>14.0</ele><time>2026-05-02T06:21:22.757Z</time></trkpt><trkpt lat="42.4970896" lon="14.1232577"><ele>14.5</ele><time>2026-05-02T06:21:23.757Z</time></trkpt><trkpt lat="42.4969867" lon="14.1234076"><ele>15.0</ele><time>2026-05-02T06:21:24.757Z</time></trkpt><trkpt lat="42.4968881" lon="14.123541"><ele>15.5</ele><time>2026-05-02T06:21:25.756Z</time></trkpt><trkpt lat="42.4967975" lon="14.1236504"><ele>16.0</ele><time>2026-05-02T06:21:26.756Z</time></trkpt><trkpt lat="42.4967061" lon="14.12374"><ele>16.0</ele><time>2026-05-02T06:21:27.756Z</time></trkpt><trkpt lat="42.4966086" lon="14.1238281"><ele>16.0</ele><time>2026-05-02T06:21:28.757Z</time></trkpt><trkpt lat="42.4965065" lon="14.1239235"><ele>16.0</ele><time>2026-05-02T06:21:29.756Z</time></trkpt><trkpt lat="42.4964024" lon="14.1240242"><ele>16.0</ele><time>2026-05-02T06:21:30.757Z</time></trkpt><trkpt lat="42.4962973" lon="14.1241296"><ele>15.833333333333332</ele><time>2026-05-02T06:21:31.757Z</time></trkpt><trkpt lat="42.4962023" lon="14.1242265"><ele>15.666666666666666</ele><time>2026-05-02T06:21:32.757Z</time></trkpt><trkpt lat="42.4961181" lon="14.1243101"><ele>15.5</ele><time>2026-05-02T06:21:33.757Z</time></trkpt><trkpt lat="42.4960444" lon="14.1243734"><ele>15.333333333333332</ele><time>2026-05-02T06:21:34.757Z</time></trkpt><trkpt lat="42.4959842" lon="14.1244117"><ele>15.166666666666666</ele><time>2026-05-02T06:21:35.757Z</time></trkpt><trkpt lat="42.4959231" lon="14.1244411"><ele>15.0</ele><time>2026-05-02T06:21:36.757Z</time></trkpt><trkpt lat="42.4958565" lon="14.1244867"><ele>15.0</ele><time>2026-05-02T06:21:37.757Z</time></trkpt><trkpt lat="42.4957919" lon="14.1245251"><ele>15.0</ele><time>2026-05-02T06:21:38.756Z</time></trkpt><trkpt lat="42.4957205" lon="14.1245389"><ele>15.0</ele><time>2026-05-02T06:21:39.757Z</time></trkpt><trkpt lat="42.495637" lon="14.1245414"><ele>15.0</ele><time>2026-05-02T06:21:40.757Z</time></trkpt><trkpt lat="42.4955368" lon="14.1245427"><ele>15.0</ele><time>2026-05-02T06:21:41.756Z</time></trkpt><trkpt lat="42.4954256" lon="14.1245413"><ele>15.0</ele><time>2026-05-02T06:21:42.757Z</time></trkpt><trkpt lat="42.4953057" lon="14.1245465"><ele>15.5</ele><time>2026-05-02T06:21:43.757Z</time></trkpt><trkpt lat="42.4951717" lon="14.1245533"><ele>16.0</ele><time>2026-05-02T06:21:44.757Z</time></trkpt><trkpt lat="42.4950302" lon="14.1245576"><ele>16.5</ele><time>2026-05-02T06:21:45.757Z</time></trkpt><trkpt lat="42.4948993" lon="14.1245641"><ele>17.0</ele><time>2026-05-02T06:21:46.757Z</time></trkpt><trkpt lat="42.4947728" lon="14.1245676"><ele>17.0</ele><time>2026-05-02T06:21:47.757Z</time></trkpt><trkpt lat="42.4946605" lon="14.1245677"><ele>17.0</ele><time>2026-05-02T06:21:48.756Z</time></trkpt><trkpt lat="42.4945577" lon="14.1245607"><ele>17.0</ele><time>2026-05-02T06:21:49.757Z</time></trkpt><trkpt lat="42.4944661" lon="14.1245677"><ele>17.0</ele><time>2026-05-02T06:21:50.757Z</time></trkpt><trkpt lat="42.4943863" lon="14.1246082"><ele>17.0</ele><time>2026-05-02T06:21:51.757Z</time></trkpt><trkpt lat="42.4943235" lon="14.124675"><ele>17.166666666666668</ele><time>2026-05-02T06:21:52.756Z</time></trkpt><trkpt lat="42.4942658" lon="14.124744"><ele>17.333333333333336</ele><time>2026-05-02T06:21:53.756Z</time></trkpt><trkpt lat="42.4942147" lon="14.1248034"><ele>17.5</ele><time>2026-05-02T06:21:54.757Z</time></trkpt><trkpt lat="42.4941514" lon="14.1248745"><ele>17.666666666666668</ele><time>2026-05-02T06:21:56.757Z</time></trkpt><trkpt lat="42.4940976" lon="14.1249733"><ele>17.833333333333332</ele><time>2026-05-02T06:22:54.757Z</time></trkpt><trkpt lat="42.4940364" lon="14.12509"><ele>18.0</ele><time>2026-05-02T06:22:56.757Z</time></trkpt><trkpt lat="42.4939899" lon="14.1251819"><ele>18.0</ele><time>2026-05-02T06:22:58.757Z</time></trkpt><trkpt lat="42.4939491" lon="14.1252596"><ele>18.0</ele><time>2026-05-02T06:23:00.756Z</time></trkpt><trkpt lat="42.4938989" lon="14.1253296"><ele>18.0</ele><time>2026-05-02T06:23:02.757Z</time></trkpt><trkpt lat="42.4938082" lon="14.1253138"><ele>18.0</ele><time>2026-05-02T06:23:04.756Z</time></trkpt><trkpt lat="42.4937366" lon="14.1252489"><ele>18.0</ele><time>2026-05-02T06:23:05.756Z</time></trkpt><trkpt lat="42.4936567" lon="14.1251747"><ele>18.0</ele><time>2026-05-02T06:23:06.757Z</time></trkpt><trkpt lat="42.4935758" lon="14.1251046"><ele>18.166666666666668</ele><time>2026-05-02T06:23:07.757Z</time></trkpt><trkpt lat="42.4934995" lon="14.1250392"><ele>18.333333333333332</ele><time>2026-05-02T06:23:08.757Z</time></trkpt><trkpt lat="42.4934257" lon="14.1249737"><ele>18.5</ele><time>2026-05-02T06:23:09.757Z</time></trkpt><trkpt lat="42.4933523" lon="14.1249146"><ele>18.666666666666664</ele><time>2026-05-02T06:23:10.756Z</time></trkpt><trkpt lat="42.493275" lon="14.1248525"><ele>18.833333333333332</ele><time>2026-05-02T06:23:11.757Z</time></trkpt><trkpt lat="42.4931939" lon="14.1247849"><ele>19.0</ele><time>2026-05-02T06:23:12.757Z</time></trkpt><trkpt lat="42.4931125" lon="14.1247132"><ele>19.0</ele><time>2026-05-02T06:23:13.757Z</time></trkpt><trkpt lat="42.4930281" lon="14.1246386"><ele>19.0</ele><time>2026-05-02T06:23:14.757Z</time></trkpt><trkpt lat="42.4929404" lon="14.1245679"><ele>19.0</ele><time>2026-05-02T06:23:15.756Z</time></trkpt><trkpt lat="42.4928413" lon="14.1244892"><ele>19.0</ele><time>2026-05-02T06:23:16.756Z</time></trkpt><trkpt lat="42.4927429" lon="14.1244121"><ele>19.0</ele><time>2026-05-02T06:23:17.757Z</time></trkpt><trkpt lat="42.4926569" lon="14.124345"><ele>19.0</ele><time>2026-05-02T06:23:18.757Z</time></trkpt><trkpt lat="42.4925688" lon="14.1242795"><ele>19.0</ele><time>2026-05-02T06:23:19.757Z</time></trkpt><trkpt lat="42.4924675" lon="14.1242011"><ele>19.0</ele><time>2026-05-02T06:23:20.756Z</time></trkpt><trkpt lat="42.4923562" lon="14.1241043"><ele>19.0</ele><time>2026-05-02T06:23:21.756Z</time></trkpt><trkpt lat="42.4922374" lon="14.1240028"><ele>19.0</ele><time>2026-05-02T06:23:22.757Z</time></trkpt><trkpt lat="42.4921184" lon="14.123906"><ele>19.0</ele><time>2026-05-02T06:23:23.757Z</time></trkpt><trkpt lat="42.4920051" lon="14.1238133"><ele>19.0</ele><time>2026-05-02T06:23:24.756Z</time></trkpt><trkpt lat="42.4918943" lon="14.1237273"><ele>19.0</ele><time>2026-05-02T06:23:25.757Z</time></trkpt><trkpt lat="42.4917879" lon="14.1236442"><ele>19.5</ele><time>2026-05-02T06:23:26.757Z</time></trkpt><trkpt lat="42.4916815" lon="14.1235625"><ele>20.0</ele><time>2026-05-02T06:23:27.756Z</time></trkpt><trkpt lat="42.4915736" lon="14.1234737"><ele>20.5</ele><time>2026-05-02T06:23:28.757Z</time></trkpt><trkpt lat="42.4914668" lon="14.1233815"><ele>21.0</ele><time>2026-05-02T06:23:29.756Z</time></trkpt><trkpt lat="42.4913579" lon="14.1232915"><ele>21.5</ele><time>2026-05-02T06:23:30.757Z</time></trkpt><trkpt lat="42.4912483" lon="14.1232002"><ele>22.0</ele><time>2026-05-02T06:23:31.757Z</time></trkpt><trkpt lat="42.4911364" lon="14.1231143"><ele>22.5</ele><time>2026-05-02T06:23:32.757Z</time></trkpt><trkpt lat="42.4910255" lon="14.1230262"><ele>23.0</ele><time>2026-05-02T06:23:33.757Z</time></trkpt><trkpt lat="42.490916" lon="14.1229359"><ele>23.0</ele><time>2026-05-02T06:23:34.756Z</time></trkpt><trkpt lat="42.4908016" lon="14.1228443"><ele>23.0</ele><time>2026-05-02T06:23:35.756Z</time></trkpt><trkpt lat="42.490688" lon="14.122755"><ele>23.0</ele><time>2026-05-02T06:23:36.756Z</time></trkpt><trkpt lat="42.4905731" lon="14.1226618"><ele>23.0</ele><time>2026-05-02T06:23:37.756Z</time></trkpt><trkpt lat="42.4904621" lon="14.1225708"><ele>23.0</ele><time>2026-05-02T06:23:38.757Z</time></trkpt><trkpt lat="42.4903504" lon="14.1224804"><ele>23.0</ele><time>2026-05-02T06:23:39.757Z</time></trkpt><trkpt lat="42.4902399" lon="14.1223882"><ele>23.0</ele><time>2026-05-02T06:23:40.757Z</time></trkpt><trkpt lat="42.4901273" lon="14.1222946"><ele>23.0</ele><time>2026-05-02T06:23:41.756Z</time></trkpt><trkpt lat="42.4900128" lon="14.1221964"><ele>22.75</ele><time>2026-05-02T06:23:42.757Z</time></trkpt><trkpt lat="42.4898964" lon="14.1221071"><ele>22.5</ele><time>2026-05-02T06:23:43.757Z</time></trkpt><trkpt lat="42.4897775" lon="14.1220078"><ele>22.25</ele><time>2026-05-02T06:23:44.757Z</time></trkpt><trkpt lat="42.489652" lon="14.1219087"><ele>22.0</ele><time>2026-05-02T06:23:45.757Z</time></trkpt><trkpt lat="42.4895291" lon="14.121811"><ele>22.25</ele><time>2026-05-02T06:23:46.757Z</time></trkpt><trkpt lat="42.4894091" lon="14.1217132"><ele>22.5</ele><time>2026-05-02T06:23:47.757Z</time></trkpt><trkpt lat="42.4892911" lon="14.1216182"><ele>22.75</ele><time>2026-05-02T06:23:48.757Z</time></trkpt><trkpt lat="42.4891752" lon="14.1215273"><ele>23.0</ele><time>2026-05-02T06:23:49.756Z</time></trkpt><trkpt lat="42.4890653" lon="14.1214369"><ele>23.0</ele><time>2026-05-02T06:23:50.757Z</time></trkpt><trkpt lat="42.4889602" lon="14.1213486"><ele>23.0</ele><time>2026-05-02T06:23:51.757Z</time></trkpt><trkpt lat="42.4888636" lon="14.1212705"><ele>23.0</ele><time>2026-05-02T06:23:52.757Z</time></trkpt><trkpt lat="42.4887753" lon="14.1212012"><ele>23.0</ele><time>2026-05-02T06:23:53.756Z</time></trkpt><trkpt lat="42.4886916" lon="14.1211319"><ele>23.0</ele><time>2026-05-02T06:23:54.756Z</time></trkpt><trkpt lat="42.488613" lon="14.1210685"><ele>23.166666666666668</ele><time>2026-05-02T06:23:55.757Z</time></trkpt><trkpt lat="42.4885378" lon="14.1210072"><ele>23.333333333333336</ele><time>2026-05-02T06:23:56.757Z</time></trkpt><trkpt lat="42.4884719" lon="14.1209589"><ele>23.5</ele><time>2026-05-02T06:23:57.756Z</time></trkpt><trkpt lat="42.4884109" lon="14.1209129"><ele>23.666666666666668</ele><time>2026-05-02T06:23:58.756Z</time></trkpt><trkpt lat="42.4883376" lon="14.1208501"><ele>23.833333333333332</ele><time>2026-05-02T06:23:59.756Z</time></trkpt><trkpt lat="42.4882438" lon="14.1207668"><ele>24.0</ele><time>2026-05-02T06:24:00.756Z</time></trkpt><trkpt lat="42.4881317" lon="14.1206792"><ele>24.0</ele><time>2026-05-02T06:24:01.756Z</time></trkpt><trkpt lat="42.4880046" lon="14.1205824"><ele>24.0</ele><time>2026-05-02T06:24:02.756Z</time></trkpt><trkpt lat="42.4878706" lon="14.1204778"><ele>24.0</ele><time>2026-05-02T06:24:03.757Z</time></trkpt><trkpt lat="42.4877362" lon="14.1203715"><ele>24.666666666666664</ele><time>2026-05-02T06:24:04.757Z</time></trkpt><trkpt lat="42.4876032" lon="14.1202626"><ele>25.333333333333332</ele><time>2026-05-02T06:24:05.756Z</time></trkpt><trkpt lat="42.4874695" lon="14.1201503"><ele>26.0</ele><time>2026-05-02T06:24:06.757Z</time></trkpt><trkpt lat="42.4873354" lon="14.1200381"><ele>26.0</ele><time>2026-05-02T06:24:07.756Z</time></trkpt><trkpt lat="42.4872085" lon="14.11993"><ele>26.0</ele><time>2026-05-02T06:24:08.757Z</time></trkpt><trkpt lat="42.4870868" lon="14.1198316"><ele>26.0</ele><time>2026-05-02T06:24:09.757Z</time></trkpt><trkpt lat="42.4869678" lon="14.1197368"><ele>26.0</ele><time>2026-05-02T06:24:10.757Z</time></trkpt><trkpt lat="42.4868529" lon="14.1196392"><ele>26.0</ele><time>2026-05-02T06:24:11.757Z</time></trkpt><trkpt lat="42.4867418" lon="14.1195467"><ele>26.0</ele><time>2026-05-02T06:24:12.757Z</time></trkpt><trkpt lat="42.4866321" lon="14.1194626"><ele>26.0</ele><time>2026-05-02T06:24:13.757Z</time></trkpt><trkpt lat="42.4865195" lon="14.1193774"><ele>26.0</ele><time>2026-05-02T06:24:14.756Z</time></trkpt><trkpt lat="42.4863948" lon="14.1192831"><ele>26.0</ele><time>2026-05-02T06:24:15.757Z</time></trkpt><trkpt lat="42.4862651" lon="14.1191798"><ele>26.0</ele><time>2026-05-02T06:24:16.757Z</time></trkpt><trkpt lat="42.4861407" lon="14.1190581"><ele>26.0</ele><time>2026-05-02T06:24:17.757Z</time></trkpt><trkpt lat="42.4860192" lon="14.1189432"><ele>25.666666666666664</ele><time>2026-05-02T06:24:18.756Z</time></trkpt><trkpt lat="42.4858936" lon="14.1188326"><ele>25.333333333333336</ele><time>2026-05-02T06:24:19.757Z</time></trkpt><trkpt lat="42.4857676" lon="14.1187248"><ele>25.0</ele><time>2026-05-02T06:24:20.756Z</time></trkpt><trkpt lat="42.4856392" lon="14.1186156"><ele>25.0</ele><time>2026-05-02T06:24:21.757Z</time></trkpt><trkpt lat="42.4855113" lon="14.1185125"><ele>25.0</ele><time>2026-05-02T06:24:22.756Z</time></trkpt><trkpt lat="42.4853892" lon="14.1184168"><ele>25.0</ele><time>2026-05-02T06:24:23.757Z</time></trkpt><trkpt lat="42.4852737" lon="14.1183267"><ele>25.0</ele><time>2026-05-02T06:24:24.757Z</time></trkpt><trkpt lat="42.4851626" lon="14.1182422"><ele>25.5</ele><time>2026-05-02T06:24:25.757Z</time></trkpt><trkpt lat="42.4850568" lon="14.1181572"><ele>26.0</ele><time>2026-05-02T06:24:26.756Z</time></trkpt><trkpt lat="42.4849525" lon="14.1180803"><ele>26.5</ele><time>2026-05-02T06:24:27.757Z</time></trkpt><trkpt lat="42.484848" lon="14.1179974"><ele>27.0</ele><time>2026-05-02T06:24:28.757Z</time></trkpt><trkpt lat="42.4847417" lon="14.1179168"><ele>27.0</ele><time>2026-05-02T06:24:29.756Z</time></trkpt><trkpt lat="42.4846338" lon="14.1178263"><ele>27.0</ele><time>2026-05-02T06:24:30.756Z</time></trkpt><trkpt lat="42.4845215" lon="14.1177329"><ele>27.0</ele><time>2026-05-02T06:24:31.757Z</time></trkpt><trkpt lat="42.4844052" lon="14.1176379"><ele>27.0</ele><time>2026-05-02T06:24:32.756Z</time></trkpt><trkpt lat="42.4842866" lon="14.1175398"><ele>27.0</ele><time>2026-05-02T06:24:33.757Z</time></trkpt><trkpt lat="42.4841655" lon="14.1174385"><ele>27.0</ele><time>2026-05-02T06:24:34.757Z</time></trkpt><trkpt lat="42.4840409" lon="14.1173345"><ele>27.0</ele><time>2026-05-02T06:24:35.757Z</time></trkpt><trkpt lat="42.4839122" lon="14.117237"><ele>27.0</ele><time>2026-05-02T06:24:36.757Z</time></trkpt><trkpt lat="42.4837817" lon="14.1171355"><ele>27.75</ele><time>2026-05-02T06:24:37.757Z</time></trkpt><trkpt lat="42.483654" lon="14.1170331"><ele>28.5</ele><time>2026-05-02T06:24:38.756Z</time></trkpt><trkpt lat="42.4835266" lon="14.1169292"><ele>29.25</ele><time>2026-05-02T06:24:39.757Z</time></trkpt><trkpt lat="42.4834012" lon="14.1168256"><ele>30.0</ele><time>2026-05-02T06:24:40.756Z</time></trkpt><trkpt lat="42.4832789" lon="14.1167248"><ele>30.0</ele><time>2026-05-02T06:24:41.757Z</time></trkpt><trkpt lat="42.4831588" lon="14.1166257"><ele>30.0</ele><time>2026-05-02T06:24:42.757Z</time></trkpt><trkpt lat="42.4830384" lon="14.116529"><ele>30.0</ele><time>2026-05-02T06:24:43.756Z</time></trkpt><trkpt lat="42.4829185" lon="14.1164324"><ele>30.0</ele><time>2026-05-02T06:24:44.756Z</time></trkpt><trkpt lat="42.4827977" lon="14.1163353"><ele>29.75</ele><time>2026-05-02T06:24:45.757Z</time></trkpt><trkpt lat="42.4826761" lon="14.1162425"><ele>29.5</ele><time>2026-05-02T06:24:46.757Z</time></trkpt><trkpt lat="42.4825592" lon="14.1161548"><ele>29.25</ele><time>2026-05-02T06:24:47.757Z</time></trkpt><trkpt lat="42.4824488" lon="14.1160773"><ele>29.0</ele><time>2026-05-02T06:24:48.756Z</time></trkpt><trkpt lat="42.4823326" lon="14.1159942"><ele>29.0</ele><time>2026-05-02T06:24:49.757Z</time></trkpt><trkpt lat="42.4822068" lon="14.1159038"><ele>29.0</ele><time>2026-05-02T06:24:50.757Z</time></trkpt><trkpt lat="42.4820811" lon="14.1157913"><ele>29.0</ele><time>2026-05-02T06:24:51.757Z</time></trkpt><trkpt lat="42.4819605" lon="14.1156748"><ele>29.0</ele><time>2026-05-02T06:24:52.756Z</time></trkpt><trkpt lat="42.4818356" lon="14.1155655"><ele>30.333333333333332</ele><time>2026-05-02T06:24:53.757Z</time></trkpt><trkpt lat="42.4817081" lon="14.1154646"><ele>31.666666666666664</ele><time>2026-05-02T06:24:54.757Z</time></trkpt><trkpt lat="42.4815795" lon="14.115359"><ele>33.0</ele><time>2026-05-02T06:24:55.757Z</time></trkpt><trkpt lat="42.4814506" lon="14.1152494"><ele>33.0</ele><time>2026-05-02T06:24:56.757Z</time></trkpt><trkpt lat="42.4813189" lon="14.1151452"><ele>33.0</ele><time>2026-05-02T06:24:57.756Z</time></trkpt><trkpt lat="42.4811917" lon="14.1150447"><ele>33.0</ele><time>2026-05-02T06:24:58.757Z</time></trkpt><trkpt lat="42.4810748" lon="14.1149508"><ele>33.0</ele><time>2026-05-02T06:24:59.756Z</time></trkpt><trkpt lat="42.4809588" lon="14.11486"><ele>32.25</ele><time>2026-05-02T06:25:00.757Z</time></trkpt><trkpt lat="42.4808413" lon="14.1147694"><ele>31.5</ele><time>2026-05-02T06:25:01.757Z</time></trkpt><trkpt lat="42.480722" lon="14.1146738"><ele>30.75</ele><time>2026-05-02T06:25:02.756Z</time></trkpt><trkpt lat="42.4806049" lon="14.1145791"><ele>30.0</ele><time>2026-05-02T06:25:03.757Z</time></trkpt><trkpt lat="42.4804914" lon="14.114489"><ele>30.0</ele><time>2026-05-02T06:25:04.757Z</time></trkpt><trkpt lat="42.4803837" lon="14.1143994"><ele>30.0</ele><time>2026-05-02T06:25:05.756Z</time></trkpt><trkpt lat="42.4802788" lon="14.114312"><ele>30.0</ele><time>2026-05-02T06:25:06.757Z</time></trkpt><trkpt lat="42.4801754" lon="14.1142269"><ele>30.0</ele><time>2026-05-02T06:25:07.757Z</time></trkpt><trkpt lat="42.4800724" lon="14.1141447"><ele>29.8</ele><time>2026-05-02T06:25:08.757Z</time></trkpt><trkpt lat="42.4799744" lon="14.1140658"><ele>29.6</ele><time>2026-05-02T06:25:09.756Z</time></trkpt><trkpt lat="42.4798842" lon="14.1139892"><ele>29.4</ele><time>2026-05-02T06:25:10.757Z</time></trkpt><trkpt lat="42.4797926" lon="14.1139188"><ele>29.2</ele><time>2026-05-02T06:25:11.757Z</time></trkpt><trkpt lat="42.4796971" lon="14.1138444"><ele>29.0</ele><time>2026-05-02T06:25:12.757Z</time></trkpt><trkpt lat="42.4795934" lon="14.1137618"><ele>29.75</ele><time>2026-05-02T06:25:13.757Z</time></trkpt><trkpt lat="42.4794933" lon="14.1136716"><ele>30.5</ele><time>2026-05-02T06:25:14.756Z</time></trkpt><trkpt lat="42.4793914" lon="14.1135814"><ele>31.25</ele><time>2026-05-02T06:25:15.757Z</time></trkpt><trkpt lat="42.4792884" lon="14.1134924"><ele>32.0</ele><time>2026-05-02T06:25:16.757Z</time></trkpt><trkpt lat="42.4791864" lon="14.1134082"><ele>32.0</ele><time>2026-05-02T06:25:17.756Z</time></trkpt><trkpt lat="42.4790852" lon="14.1133244"><ele>32.0</ele><time>2026-05-02T06:25:18.756Z</time></trkpt><trkpt lat="42.4789865" lon="14.1132404"><ele>32.0</ele><time>2026-05-02T06:25:19.756Z</time></trkpt><trkpt lat="42.4788881" lon="14.1131572"><ele>32.0</ele><time>2026-05-02T06:25:20.756Z</time></trkpt><trkpt lat="42.4787924" lon="14.1130798"><ele>32.2</ele><time>2026-05-02T06:25:21.756Z</time></trkpt><trkpt lat="42.4786991" lon="14.1130047"><ele>32.400000000000006</ele><time>2026-05-02T06:25:22.757Z</time></trkpt><trkpt lat="42.4786116" lon="14.1129321"><ele>32.599999999999994</ele><time>2026-05-02T06:25:23.756Z</time></trkpt><trkpt lat="42.4785268" lon="14.112864"><ele>32.8</ele><time>2026-05-02T06:25:24.757Z</time></trkpt><trkpt lat="42.4784395" lon="14.112792"><ele>33.0</ele><time>2026-05-02T06:25:25.757Z</time></trkpt><trkpt lat="42.4783532" lon="14.1127172"><ele>33.0</ele><time>2026-05-02T06:25:26.756Z</time></trkpt><trkpt lat="42.4782641" lon="14.1126441"><ele>33.0</ele><time>2026-05-02T06:25:27.757Z</time></trkpt><trkpt lat="42.4781707" lon="14.112577"><ele>33.0</ele><time>2026-05-02T06:25:28.756Z</time></trkpt><trkpt lat="42.4780768" lon="14.1125065"><ele>33.0</ele><time>2026-05-02T06:25:29.757Z</time></trkpt><trkpt lat="42.4779817" lon="14.1124356"><ele>33.0</ele><time>2026-05-02T06:25:30.756Z</time></trkpt><trkpt lat="42.4778878" lon="14.1123659"><ele>33.5</ele><time>2026-05-02T06:25:31.757Z</time></trkpt><trkpt lat="42.4777987" lon="14.1122948"><ele>34.0</ele><time>2026-05-02T06:25:32.756Z</time></trkpt><trkpt lat="42.4777053" lon="14.112215"><ele>34.5</ele><time>2026-05-02T06:25:33.756Z</time></trkpt><trkpt lat="42.4776032" lon="14.1121333"><ele>35.0</ele><time>2026-05-02T06:25:34.756Z</time></trkpt><trkpt lat="42.4774859" lon="14.1120468"><ele>35.0</ele><time>2026-05-02T06:25:35.757Z</time></trkpt><trkpt lat="42.4773879" lon="14.1119748"><ele>35.0</ele><time>2026-05-02T06:25:36.756Z</time></trkpt><trkpt lat="42.4773066" lon="14.1119038"><ele>35.0</ele><time>2026-05-02T06:25:37.757Z</time></trkpt><trkpt lat="42.4772278" lon="14.1118394"><ele>35.0</ele><time>2026-05-02T06:25:38.756Z</time></trkpt><trkpt lat="42.4771569" lon="14.1117772"><ele>35.0</ele><time>2026-05-02T06:25:39.757Z</time></trkpt><trkpt lat="42.477088" lon="14.1117177"><ele>35.0</ele><time>2026-05-02T06:25:40.757Z</time></trkpt><trkpt lat="42.4770137" lon="14.1116582"><ele>35.0</ele><time>2026-05-02T06:25:41.757Z</time></trkpt><trkpt lat="42.4769363" lon="14.1115971"><ele>35.0</ele><time>2026-05-02T06:25:42.757Z</time></trkpt><trkpt lat="42.4768575" lon="14.1115313"><ele>35.0</ele><time>2026-05-02T06:25:43.757Z</time></trkpt><trkpt lat="42.476777" lon="14.1114678"><ele>35.0</ele><time>2026-05-02T06:25:44.756Z</time></trkpt><trkpt lat="42.476701" lon="14.1114046"><ele>35.0</ele><time>2026-05-02T06:25:45.757Z</time></trkpt><trkpt lat="42.4766256" lon="14.1113425"><ele>35.0</ele><time>2026-05-02T06:25:46.757Z</time></trkpt><trkpt lat="42.476558" lon="14.1112868"><ele>35.0</ele><time>2026-05-02T06:25:47.757Z</time></trkpt><trkpt lat="42.4765042" lon="14.1112422"><ele>35.0</ele><time>2026-05-02T06:25:48.756Z</time></trkpt><trkpt lat="42.4764262" lon="14.1111709"><ele>35.0</ele><time>2026-05-02T06:25:50.756Z</time></trkpt><trkpt lat="42.4763612" lon="14.1110992"><ele>35.0</ele><time>2026-05-02T06:25:52.757Z</time></trkpt><trkpt lat="42.4763026" lon="14.1109596"><ele>35.0</ele><time>2026-05-02T06:25:54.756Z</time></trkpt><trkpt lat="42.4762945" lon="14.1107921"><ele>35.0</ele><time>2026-05-02T06:25:56.756Z</time></trkpt><trkpt lat="42.4762323" lon="14.1106483"><ele>35.0</ele><time>2026-05-02T06:25:58.756Z</time></trkpt><trkpt lat="42.4761264" lon="14.1106169"><ele>35.0</ele><time>2026-05-02T06:26:00.757Z</time></trkpt><trkpt lat="42.4760543" lon="14.1106621"><ele>35.0</ele><time>2026-05-02T06:26:02.757Z</time></trkpt><trkpt lat="42.4760166" lon="14.1107593"><ele>34.83333333333333</ele><time>2026-05-02T06:26:05.757Z</time></trkpt><trkpt lat="42.475983" lon="14.1108823"><ele>34.666666666666664</ele><time>2026-05-02T06:26:07.757Z</time></trkpt><trkpt lat="42.4759373" lon="14.1109413"><ele>34.5</ele><time>2026-05-02T06:26:08.757Z</time></trkpt><trkpt lat="42.4758845" lon="14.111008"><ele>34.333333333333336</ele><time>2026-05-02T06:26:09.757Z</time></trkpt><trkpt lat="42.4758218" lon="14.1110882"><ele>34.16666666666667</ele><time>2026-05-02T06:26:10.757Z</time></trkpt><trkpt lat="42.4757514" lon="14.1111895"><ele>34.0</ele><time>2026-05-02T06:26:11.757Z</time></trkpt><trkpt lat="42.4756799" lon="14.1112882"><ele>34.0</ele><time>2026-05-02T06:26:12.756Z</time></trkpt><trkpt lat="42.4756185" lon="14.1113598"><ele>34.0</ele><time>2026-05-02T06:26:13.757Z</time></trkpt><trkpt lat="42.4755275" lon="14.1114458"><ele>34.0</ele><time>2026-05-02T06:26:15.757Z</time></trkpt><trkpt lat="42.4754579" lon="14.1114905"><ele>34.0</ele><time>2026-05-02T06:26:17.757Z</time></trkpt><trkpt lat="42.4754308" lon="14.1115747"><ele>34.0</ele><time>2026-05-02T06:26:21.756Z</time></trkpt><trkpt lat="42.4754899" lon="14.1116152"><ele>34.0</ele><time>2026-05-02T06:26:24.756Z</time></trkpt><trkpt lat="42.4755465" lon="14.1115333"><ele>33.99999999999999</ele><time>2026-05-02T06:26:27.757Z</time></trkpt><trkpt lat="42.4756042" lon="14.111434"><ele>34.0</ele><time>2026-05-02T06:26:29.757Z</time></trkpt><trkpt lat="42.4756488" lon="14.1113676"><ele>34.0</ele><time>2026-05-02T06:26:30.757Z</time></trkpt><trkpt lat="42.4756952" lon="14.1113008"><ele>34.0</ele><time>2026-05-02T06:26:31.757Z</time></trkpt><trkpt lat="42.4757495" lon="14.1112279"><ele>34.0</ele><time>2026-05-02T06:26:32.756Z</time></trkpt><trkpt lat="42.4758032" lon="14.1111567"><ele>33.99999999999999</ele><time>2026-05-02T06:26:33.757Z</time></trkpt><trkpt lat="42.4758492" lon="14.1110983"><ele>34.0</ele><time>2026-05-02T06:26:34.757Z</time></trkpt><trkpt lat="42.475927" lon="14.1110066"><ele>34.0</ele><time>2026-05-02T06:26:36.756Z</time></trkpt><trkpt lat="42.4759951" lon="14.1109477"><ele>34.0</ele><time>2026-05-02T06:26:38.757Z</time></trkpt><trkpt lat="42.4760779" lon="14.1109212"><ele>34.0</ele><time>2026-05-02T06:26:41.757Z</time></trkpt><trkpt lat="42.4761723" lon="14.1109268"><ele>34.0</ele><time>2026-05-02T06:26:43.757Z</time></trkpt><trkpt lat="42.4762649" lon="14.1108649"><ele>34.0</ele><time>2026-05-02T06:26:45.756Z</time></trkpt><trkpt lat="42.4762756" lon="14.1107253"><ele>34.6</ele><time>2026-05-02T06:26:47.757Z</time></trkpt><trkpt lat="42.4761935" lon="14.1106281"><ele>35.2</ele><time>2026-05-02T06:26:49.757Z</time></trkpt><trkpt lat="42.4760729" lon="14.1106457"><ele>35.800000000000004</ele><time>2026-05-02T06:26:51.756Z</time></trkpt><trkpt lat="42.475999" lon="14.1106793"><ele>36.4</ele><time>2026-05-02T06:26:52.756Z</time></trkpt><trkpt lat="42.4759144" lon="14.1107005"><ele>37.0</ele><time>2026-05-02T06:26:53.757Z</time></trkpt><trkpt lat="42.4758107" lon="14.1106768"><ele>37.0</ele><time>2026-05-02T06:26:54.757Z</time></trkpt><trkpt lat="42.4757084" lon="14.1106254"><ele>37.0</ele><time>2026-05-02T06:26:55.757Z</time></trkpt><trkpt lat="42.4756016" lon="14.1105519"><ele>37.0</ele><time>2026-05-02T06:26:56.757Z</time></trkpt><trkpt lat="42.4754862" lon="14.1104978"><ele>37.0</ele><time>2026-05-02T06:26:57.756Z</time></trkpt><trkpt lat="42.4753673" lon="14.1104783"><ele>38.75</ele><time>2026-05-02T06:26:58.757Z</time></trkpt><trkpt lat="42.4752499" lon="14.1104752"><ele>40.5</ele><time>2026-05-02T06:26:59.757Z</time></trkpt><trkpt lat="42.4751248" lon="14.1104967"><ele>42.25</ele><time>2026-05-02T06:27:00.757Z</time></trkpt><trkpt lat="42.4749919" lon="14.1105296"><ele>44.0</ele><time>2026-05-02T06:27:01.757Z</time></trkpt><trkpt lat="42.4748643" lon="14.1105407"><ele>44.0</ele><time>2026-05-02T06:27:02.757Z</time></trkpt><trkpt lat="42.4747393" lon="14.1105321"><ele>44.0</ele><time>2026-05-02T06:27:03.757Z</time></trkpt><trkpt lat="42.474619" lon="14.110508"><ele>44.0</ele><time>2026-05-02T06:27:04.757Z</time></trkpt><trkpt lat="42.4744998" lon="14.1104695"><ele>44.0</ele><time>2026-05-02T06:27:05.756Z</time></trkpt><trkpt lat="42.4743833" lon="14.1104223"><ele>46.0</ele><time>2026-05-02T06:27:06.757Z</time></trkpt><trkpt lat="42.4742636" lon="14.1103692"><ele>48.0</ele><time>2026-05-02T06:27:07.757Z</time></trkpt><trkpt lat="42.4741433" lon="14.1103115"><ele>50.0</ele><time>2026-05-02T06:27:08.757Z</time></trkpt><trkpt lat="42.4740236" lon="14.1102529"><ele>52.0</ele><time>2026-05-02T06:27:09.757Z</time></trkpt><trkpt lat="42.473904" lon="14.1101925"><ele>52.0</ele><time>2026-05-02T06:27:10.757Z</time></trkpt><trkpt lat="42.4737816" lon="14.1101338"><ele>52.0</ele><time>2026-05-02T06:27:11.757Z</time></trkpt><trkpt lat="42.4736391" lon="14.1100766"><ele>52.0</ele><time>2026-05-02T06:27:12.756Z</time></trkpt><trkpt lat="42.4734678" lon="14.1100209"><ele>53.33333333333333</ele><time>2026-05-02T06:27:13.756Z</time></trkpt><trkpt lat="42.4732744" lon="14.1099436"><ele>54.66666666666667</ele><time>2026-05-02T06:27:14.757Z</time></trkpt><trkpt lat="42.47308" lon="14.109829"><ele>56.0</ele><time>2026-05-02T06:27:15.757Z</time></trkpt><trkpt lat="42.472891" lon="14.1097198"><ele>59.66666666666667</ele><time>2026-05-02T06:27:16.756Z</time></trkpt><trkpt lat="42.4727047" lon="14.1096248"><ele>63.33333333333333</ele><time>2026-05-02T06:27:17.757Z</time></trkpt><trkpt lat="42.4725216" lon="14.1095608"><ele>67.0</ele><time>2026-05-02T06:27:18.757Z</time></trkpt><trkpt lat="42.4723498" lon="14.1095128"><ele>67.0</ele><time>2026-05-02T06:27:19.756Z</time></trkpt><trkpt lat="42.4721817" lon="14.1094626"><ele>67.0</ele><time>2026-05-02T06:27:20.756Z</time></trkpt><trkpt lat="42.4720137" lon="14.1093997"><ele>67.0</ele><time>2026-05-02T06:27:21.757Z</time></trkpt><trkpt lat="42.4718414" lon="14.1092914"><ele>65.66666666666666</ele><time>2026-05-02T06:27:22.756Z</time></trkpt><trkpt lat="42.4716764" lon="14.1091629"><ele>64.33333333333333</ele><time>2026-05-02T06:27:23.756Z</time></trkpt><trkpt lat="42.4715244" lon="14.1090217"><ele>63.0</ele><time>2026-05-02T06:27:24.757Z</time></trkpt><trkpt lat="42.471388" lon="14.1088606"><ele>64.0</ele><time>2026-05-02T06:27:25.756Z</time></trkpt><trkpt lat="42.4712642" lon="14.1086953"><ele>65.0</ele><time>2026-05-02T06:27:26.757Z</time></trkpt><trkpt lat="42.4711472" lon="14.1085362"><ele>66.0</ele><time>2026-05-02T06:27:27.756Z</time></trkpt><trkpt lat="42.4710368" lon="14.1083781"><ele>70.0</ele><time>2026-05-02T06:27:28.757Z</time></trkpt><trkpt lat="42.4709352" lon="14.1082245"><ele>74.0</ele><time>2026-05-02T06:27:29.757Z</time></trkpt><trkpt lat="42.4708372" lon="14.1080558"><ele>78.0</ele><time>2026-05-02T06:27:30.757Z</time></trkpt><trkpt lat="42.4707487" lon="14.107872"><ele>78.0</ele><time>2026-05-02T06:27:31.757Z</time></trkpt><trkpt lat="42.470664" lon="14.1076881"><ele>78.0</ele><time>2026-05-02T06:27:32.757Z</time></trkpt><trkpt lat="42.4705861" lon="14.1075079"><ele>78.0</ele><time>2026-05-02T06:27:33.757Z</time></trkpt><trkpt lat="42.4705212" lon="14.1073202"><ele>76.0</ele><time>2026-05-02T06:27:34.757Z</time></trkpt><trkpt lat="42.4704761" lon="14.10712"><ele>74.0</ele><time>2026-05-02T06:27:35.757Z</time></trkpt><trkpt lat="42.470428" lon="14.1069229"><ele>72.0</ele><time>2026-05-02T06:27:36.757Z</time></trkpt><trkpt lat="42.4703675" lon="14.1067308"><ele>76.0</ele><time>2026-05-02T06:27:37.757Z</time></trkpt><trkpt lat="42.4702902" lon="14.1065605"><ele>80.0</ele><time>2026-05-02T06:27:38.757Z</time></trkpt><trkpt lat="42.4701962" lon="14.1064002"><ele>84.0</ele><time>2026-05-02T06:27:39.756Z</time></trkpt><trkpt lat="42.4700859" lon="14.1062565"><ele>84.0</ele><time>2026-05-02T06:27:40.757Z</time></trkpt><trkpt lat="42.4699581" lon="14.1061312"><ele>84.0</ele><time>2026-05-02T06:27:41.757Z</time></trkpt><trkpt lat="42.4698206" lon="14.10602"><ele>84.0</ele><time>2026-05-02T06:27:42.757Z</time></trkpt><trkpt lat="42.4696861" lon="14.1059222"><ele>83.0</ele><time>2026-05-02T06:27:43.756Z</time></trkpt><trkpt lat="42.4695533" lon="14.1058303"><ele>82.0</ele><time>2026-05-02T06:27:44.757Z</time></trkpt><trkpt lat="42.4694193" lon="14.1057371"><ele>81.0</ele><time>2026-05-02T06:27:45.756Z</time></trkpt><trkpt lat="42.4692819" lon="14.1056405"><ele>85.33333333333333</ele><time>2026-05-02T06:27:46.757Z</time></trkpt><trkpt lat="42.4691414" lon="14.1055433"><ele>89.66666666666666</ele><time>2026-05-02T06:27:47.756Z</time></trkpt><trkpt lat="42.469001" lon="14.1054454"><ele>94.0</ele><time>2026-05-02T06:27:48.756Z</time></trkpt><trkpt lat="42.4688633" lon="14.1053484"><ele>94.66666666666666</ele><time>2026-05-02T06:27:49.757Z</time></trkpt><trkpt lat="42.4687145" lon="14.1052627"><ele>95.33333333333333</ele><time>2026-05-02T06:27:50.757Z</time></trkpt><trkpt lat="42.4685536" lon="14.105197"><ele>96.0</ele><time>2026-05-02T06:27:51.757Z</time></trkpt><trkpt lat="42.4683845" lon="14.1051499"><ele>96.0</ele><time>2026-05-02T06:27:52.757Z</time></trkpt><trkpt lat="42.4682146" lon="14.1051129"><ele>96.0</ele><time>2026-05-02T06:27:53.757Z</time></trkpt><trkpt lat="42.4680534" lon="14.1050707"><ele>96.0</ele><time>2026-05-02T06:27:54.756Z</time></trkpt><trkpt lat="42.4679016" lon="14.1050199"><ele>94.5</ele><time>2026-05-02T06:27:55.756Z</time></trkpt><trkpt lat="42.4677671" lon="14.1049451"><ele>93.0</ele><time>2026-05-02T06:27:56.757Z</time></trkpt><trkpt lat="42.4676427" lon="14.1048463"><ele>91.5</ele><time>2026-05-02T06:27:57.757Z</time></trkpt><trkpt lat="42.4675271" lon="14.104728"><ele>90.0</ele><time>2026-05-02T06:27:58.757Z</time></trkpt><trkpt lat="42.4674093" lon="14.1046014"><ele>93.33333333333334</ele><time>2026-05-02T06:27:59.757Z</time></trkpt><trkpt lat="42.4672837" lon="14.104476"><ele>96.66666666666667</ele><time>2026-05-02T06:28:00.757Z</time></trkpt><trkpt lat="42.4671413" lon="14.1043559"><ele>100.0</ele><time>2026-05-02T06:28:01.756Z</time></trkpt><trkpt lat="42.4669937" lon="14.1042499"><ele>100.0</ele><time>2026-05-02T06:28:02.757Z</time></trkpt><trkpt lat="42.4668536" lon="14.104149"><ele>100.0</ele><time>2026-05-02T06:28:03.756Z</time></trkpt><trkpt lat="42.4667204" lon="14.1040489"><ele>100.0</ele><time>2026-05-02T06:28:04.756Z</time></trkpt><trkpt lat="42.4666009" lon="14.1039566"><ele>100.0</ele><time>2026-05-02T06:28:05.757Z</time></trkpt><trkpt lat="42.4664723" lon="14.1038753"><ele>99.75</ele><time>2026-05-02T06:28:06.757Z</time></trkpt><trkpt lat="42.4663366" lon="14.1038177"><ele>99.5</ele><time>2026-05-02T06:28:07.757Z</time></trkpt><trkpt lat="42.466191" lon="14.1037959"><ele>99.25</ele><time>2026-05-02T06:28:08.756Z</time></trkpt><trkpt lat="42.4660446" lon="14.1038051"><ele>99.0</ele><time>2026-05-02T06:28:09.756Z</time></trkpt><trkpt lat="42.4659087" lon="14.103822"><ele>102.5</ele><time>2026-05-02T06:28:10.757Z</time></trkpt><trkpt lat="42.465781" lon="14.1038317"><ele>106.0</ele><time>2026-05-02T06:28:11.757Z</time></trkpt><trkpt lat="42.4656625" lon="14.1038322"><ele>109.5</ele><time>2026-05-02T06:28:12.757Z</time></trkpt><trkpt lat="42.46555" lon="14.103816"><ele>113.0</ele><time>2026-05-02T06:28:13.756Z</time></trkpt><trkpt lat="42.4654259" lon="14.1037816"><ele>114.25</ele><time>2026-05-02T06:28:14.757Z</time></trkpt><trkpt lat="42.4653004" lon="14.1037227"><ele>115.5</ele><time>2026-05-02T06:28:15.757Z</time></trkpt><trkpt lat="42.4651747" lon="14.1036513"><ele>116.75</ele><time>2026-05-02T06:28:16.756Z</time></trkpt><trkpt lat="42.4650554" lon="14.1035659"><ele>118.0</ele><time>2026-05-02T06:28:17.756Z</time></trkpt><trkpt lat="42.4649466" lon="14.1034678"><ele>118.0</ele><time>2026-05-02T06:28:18.757Z</time></trkpt><trkpt lat="42.4648546" lon="14.1033605"><ele>118.0</ele><time>2026-05-02T06:28:19.757Z</time></trkpt><trkpt lat="42.4647739" lon="14.1032558"><ele>118.0</ele><time>2026-05-02T06:28:20.757Z</time></trkpt><trkpt lat="42.4646705" lon="14.1031677"><ele>118.0</ele><time>2026-05-02T06:28:21.757Z</time></trkpt><trkpt lat="42.4645764" lon="14.1030937"><ele>118.33333333333334</ele><time>2026-05-02T06:28:22.757Z</time></trkpt><trkpt lat="42.4644918" lon="14.1030614"><ele>118.66666666666667</ele><time>2026-05-02T06:28:23.757Z</time></trkpt><trkpt lat="42.4644266" lon="14.1030848"><ele>119.0</ele><time>2026-05-02T06:28:24.757Z</time></trkpt><trkpt lat="42.4643941" lon="14.103228"><ele>119.33333333333334</ele><time>2026-05-02T06:28:26.757Z</time></trkpt><trkpt lat="42.4644303" lon="14.1033108"><ele>119.66666666666667</ele><time>2026-05-02T06:28:27.757Z</time></trkpt><trkpt lat="42.4645052" lon="14.1033851"><ele>120.0</ele><time>2026-05-02T06:28:28.756Z</time></trkpt><trkpt lat="42.4645798" lon="14.1034626"><ele>120.0</ele><time>2026-05-02T06:28:29.757Z</time></trkpt><trkpt lat="42.4646792" lon="14.1034907"><ele>120.0</ele><time>2026-05-02T06:28:30.756Z</time></trkpt><trkpt lat="42.4647195" lon="14.1035579"><ele>120.0</ele><time>2026-05-02T06:28:31.756Z</time></trkpt><trkpt lat="42.4647409" lon="14.1037117"><ele>120.0</ele><time>2026-05-02T06:28:33.757Z</time></trkpt><trkpt lat="42.4646318" lon="14.1038255"><ele>120.0</ele><time>2026-05-02T06:28:35.757Z</time></trkpt><trkpt lat="42.4645398" lon="14.1038691"><ele>120.0</ele><time>2026-05-02T06:28:36.757Z</time></trkpt><trkpt lat="42.4644319" lon="14.1039121"><ele>120.0</ele><time>2026-05-02T06:28:37.756Z</time></trkpt><trkpt lat="42.464295" lon="14.1039543"><ele>120.0</ele><time>2026-05-02T06:28:38.756Z</time></trkpt><trkpt lat="42.4640992" lon="14.1039996"><ele>120.0</ele><time>2026-05-02T06:28:39.757Z</time></trkpt><trkpt lat="42.4638892" lon="14.104027"><ele>120.0</ele><time>2026-05-02T06:28:40.757Z</time></trkpt><trkpt lat="42.4636851" lon="14.1040516"><ele>120.0</ele><time>2026-05-02T06:28:41.757Z</time></trkpt><trkpt lat="42.4634985" lon="14.104108"><ele>122.25</ele><time>2026-05-02T06:28:42.757Z</time></trkpt><trkpt lat="42.4633494" lon="14.1041793"><ele>124.5</ele><time>2026-05-02T06:28:43.756Z</time></trkpt><trkpt lat="42.4632336" lon="14.1042697"><ele>126.75</ele><time>2026-05-02T06:28:44.756Z</time></trkpt><trkpt lat="42.463134" lon="14.104376"><ele>129.0</ele><time>2026-05-02T06:28:45.756Z</time></trkpt><trkpt lat="42.4630497" lon="14.1044776"><ele>129.0</ele><time>2026-05-02T06:28:46.757Z</time></trkpt><trkpt lat="42.4629822" lon="14.1045563"><ele>129.0</ele><time>2026-05-02T06:28:47.757Z</time></trkpt><trkpt lat="42.4629219" lon="14.1046214"><ele>129.0</ele><time>2026-05-02T06:28:48.757Z</time></trkpt><trkpt lat="42.4628677" lon="14.1046684"><ele>129.0</ele><time>2026-05-02T06:28:49.757Z</time></trkpt><trkpt lat="42.4627627" lon="14.1047461"><ele>129.0</ele><time>2026-05-02T06:28:51.756Z</time></trkpt><trkpt lat="42.4626407" lon="14.1047238"><ele>129.4</ele><time>2026-05-02T06:28:53.756Z</time></trkpt><trkpt lat="42.4625454" lon="14.1046589"><ele>129.8</ele><time>2026-05-02T06:28:55.757Z</time></trkpt><trkpt lat="42.4624614" lon="14.1046853"><ele>130.2</ele><time>2026-05-02T06:28:57.757Z</time></trkpt><trkpt lat="42.4624401" lon="14.1048055"><ele>130.6</ele><time>2026-05-02T06:28:59.756Z</time></trkpt><trkpt lat="42.462465" lon="14.1049622"><ele>131.0</ele><time>2026-05-02T06:29:01.756Z</time></trkpt><trkpt lat="42.4624428" lon="14.1050458"><ele>131.4</ele><time>2026-05-02T06:29:02.757Z</time></trkpt><trkpt lat="42.4623968" lon="14.105119"><ele>131.8</ele><time>2026-05-02T06:29:03.757Z</time></trkpt><trkpt lat="42.4623335" lon="14.1051908"><ele>132.20000000000002</ele><time>2026-05-02T06:29:04.756Z</time></trkpt><trkpt lat="42.4622592" lon="14.1052705"><ele>132.6</ele><time>2026-05-02T06:29:05.757Z</time></trkpt><trkpt lat="42.4621786" lon="14.1053555"><ele>133.0</ele><time>2026-05-02T06:29:06.757Z</time></trkpt><trkpt lat="42.4620904" lon="14.1054438"><ele>134.20000000000002</ele><time>2026-05-02T06:29:07.756Z</time></trkpt><trkpt lat="42.4620012" lon="14.1055297"><ele>135.4</ele><time>2026-05-02T06:29:08.756Z</time></trkpt><trkpt lat="42.4619108" lon="14.1056148"><ele>136.60000000000002</ele><time>2026-05-02T06:29:09.757Z</time></trkpt><trkpt lat="42.4618201" lon="14.1057024"><ele>137.8</ele><time>2026-05-02T06:29:10.757Z</time></trkpt><trkpt lat="42.4617353" lon="14.1057901"><ele>139.0</ele><time>2026-05-02T06:29:11.757Z</time></trkpt><trkpt lat="42.4616476" lon="14.1058771"><ele>139.0</ele><time>2026-05-02T06:29:12.757Z</time></trkpt><trkpt lat="42.4615616" lon="14.10596"><ele>139.0</ele><time>2026-05-02T06:29:13.757Z</time></trkpt><trkpt lat="42.461478" lon="14.106041"><ele>139.0</ele><time>2026-05-02T06:29:14.757Z</time></trkpt><trkpt lat="42.4613952" lon="14.1061193"><ele>139.0</ele><time>2026-05-02T06:29:15.757Z</time></trkpt><trkpt lat="42.4613134" lon="14.1061973"><ele>139.0</ele><time>2026-05-02T06:29:16.757Z</time></trkpt><trkpt lat="42.4612356" lon="14.1062708"><ele>141.8</ele><time>2026-05-02T06:29:17.756Z</time></trkpt><trkpt lat="42.4611474" lon="14.1063368"><ele>144.60000000000002</ele><time>2026-05-02T06:29:18.757Z</time></trkpt><trkpt lat="42.4610511" lon="14.1063807"><ele>147.4</ele><time>2026-05-02T06:29:19.757Z</time></trkpt><trkpt lat="42.4609493" lon="14.1064199"><ele>150.20000000000002</ele><time>2026-05-02T06:29:20.757Z</time></trkpt><trkpt lat="42.4608462" lon="14.106473"><ele>153.0</ele><time>2026-05-02T06:29:21.756Z</time></trkpt><trkpt lat="42.4607443" lon="14.1065448"><ele>151.20000000000002</ele><time>2026-05-02T06:29:22.756Z</time></trkpt><trkpt lat="42.4606566" lon="14.1066387"><ele>149.4</ele><time>2026-05-02T06:29:23.756Z</time></trkpt><trkpt lat="42.4605829" lon="14.1067528"><ele>147.60000000000002</ele><time>2026-05-02T06:29:24.757Z</time></trkpt><trkpt lat="42.4605191" lon="14.1068773"><ele>145.8</ele><time>2026-05-02T06:29:25.757Z</time></trkpt><trkpt lat="42.460461" lon="14.1070066"><ele>144.0</ele><time>2026-05-02T06:29:26.757Z</time></trkpt><trkpt lat="42.4604126" lon="14.1071423"><ele>147.2</ele><time>2026-05-02T06:29:27.756Z</time></trkpt><trkpt lat="42.4603783" lon="14.1072832"><ele>150.4</ele><time>2026-05-02T06:29:28.757Z</time></trkpt><trkpt lat="42.460355" lon="14.1074228"><ele>153.6</ele><time>2026-05-02T06:29:29.756Z</time></trkpt><trkpt lat="42.4603344" lon="14.1075606"><ele>156.8</ele><time>2026-05-02T06:29:30.756Z</time></trkpt><trkpt lat="42.4603129" lon="14.1076954"><ele>160.0</ele><time>2026-05-02T06:29:31.757Z</time></trkpt><trkpt lat="42.4602861" lon="14.1078272"><ele>160.0</ele><time>2026-05-02T06:29:32.757Z</time></trkpt><trkpt lat="42.4602477" lon="14.1079577"><ele>160.0</ele><time>2026-05-02T06:29:33.757Z</time></trkpt><trkpt lat="42.4602027" lon="14.108093"><ele>160.0</ele><time>2026-05-02T06:29:34.757Z</time></trkpt><trkpt lat="42.4601551" lon="14.108228"><ele>160.0</ele><time>2026-05-02T06:29:35.757Z</time></trkpt><trkpt lat="42.4601073" lon="14.1083669"><ele>160.0</ele><time>2026-05-02T06:29:36.757Z</time></trkpt><trkpt lat="42.4600532" lon="14.1085046"><ele>159.25</ele><time>2026-05-02T06:29:37.757Z</time></trkpt><trkpt lat="42.4600013" lon="14.1086466"><ele>158.5</ele><time>2026-05-02T06:29:38.757Z</time></trkpt><trkpt lat="42.4599475" lon="14.1087922"><ele>157.75</ele><time>2026-05-02T06:29:39.757Z</time></trkpt><trkpt lat="42.4598858" lon="14.1089317"><ele>157.0</ele><time>2026-05-02T06:29:40.757Z</time></trkpt><trkpt lat="42.4598147" lon="14.1090578"><ele>155.75</ele><time>2026-05-02T06:29:41.757Z</time></trkpt><trkpt lat="42.4597313" lon="14.1091696"><ele>154.5</ele><time>2026-05-02T06:29:42.756Z</time></trkpt><trkpt lat="42.4596397" lon="14.1092729"><ele>153.25</ele><time>2026-05-02T06:29:43.757Z</time></trkpt><trkpt lat="42.4595432" lon="14.1093686"><ele>152.0</ele><time>2026-05-02T06:29:44.757Z</time></trkpt><trkpt lat="42.4594465" lon="14.1094662"><ele>155.0</ele><time>2026-05-02T06:29:45.757Z</time></trkpt><trkpt lat="42.4593569" lon="14.1095642"><ele>158.0</ele><time>2026-05-02T06:29:46.757Z</time></trkpt><trkpt lat="42.459269" lon="14.1096649"><ele>161.0</ele><time>2026-05-02T06:29:47.757Z</time></trkpt><trkpt lat="42.4591823" lon="14.1097735"><ele>164.0</ele><time>2026-05-02T06:29:48.757Z</time></trkpt><trkpt lat="42.4590933" lon="14.1098861"><ele>162.5</ele><time>2026-05-02T06:29:49.757Z</time></trkpt><trkpt lat="42.4590066" lon="14.110008"><ele>161.0</ele><time>2026-05-02T06:29:50.756Z</time></trkpt><trkpt lat="42.4589212" lon="14.1101364"><ele>159.5</ele><time>2026-05-02T06:29:51.757Z</time></trkpt><trkpt lat="42.4588389" lon="14.1102735"><ele>158.0</ele><time>2026-05-02T06:29:52.757Z</time></trkpt><trkpt lat="42.4587568" lon="14.1104137"><ele>158.0</ele><time>2026-05-02T06:29:53.757Z</time></trkpt><trkpt lat="42.4586783" lon="14.1105456"><ele>158.0</ele><time>2026-05-02T06:29:54.757Z</time></trkpt><trkpt lat="42.4586059" lon="14.1106714"><ele>158.0</ele><time>2026-05-02T06:29:55.756Z</time></trkpt><trkpt lat="42.4585343" lon="14.1107868"><ele>158.0</ele><time>2026-05-02T06:29:56.756Z</time></trkpt><trkpt lat="42.4584671" lon="14.1108975"><ele>158.8</ele><time>2026-05-02T06:29:57.757Z</time></trkpt><trkpt lat="42.4584012" lon="14.1110114"><ele>159.60000000000002</ele><time>2026-05-02T06:29:58.757Z</time></trkpt><trkpt lat="42.4583278" lon="14.1111172"><ele>160.39999999999998</ele><time>2026-05-02T06:29:59.757Z</time></trkpt><trkpt lat="42.4582487" lon="14.1112119"><ele>161.2</ele><time>2026-05-02T06:30:00.756Z</time></trkpt><trkpt lat="42.458154" lon="14.1112504"><ele>162.0</ele><time>2026-05-02T06:30:01.757Z</time></trkpt><trkpt lat="42.4580709" lon="14.1112256"><ele>162.0</ele><time>2026-05-02T06:30:02.756Z</time></trkpt><trkpt lat="42.4579993" lon="14.1111452"><ele>162.0</ele><time>2026-05-02T06:30:03.757Z</time></trkpt><trkpt lat="42.4579544" lon="14.1110404"><ele>162.0</ele><time>2026-05-02T06:30:04.756Z</time></trkpt><trkpt lat="42.4579245" lon="14.1109354"><ele>162.0</ele><time>2026-05-02T06:30:05.757Z</time></trkpt><trkpt lat="42.4578935" lon="14.1108537"><ele>162.0</ele><time>2026-05-02T06:30:06.756Z</time></trkpt><trkpt lat="42.4578028" lon="14.1107841"><ele>162.0</ele><time>2026-05-02T06:30:08.757Z</time></trkpt><trkpt lat="42.4577161" lon="14.110834"><ele>164.16666666666666</ele><time>2026-05-02T06:30:10.757Z</time></trkpt><trkpt lat="42.4577037" lon="14.1109804"><ele>166.33333333333334</ele><time>2026-05-02T06:30:12.756Z</time></trkpt><trkpt lat="42.457726" lon="14.1110713"><ele>168.5</ele><time>2026-05-02T06:30:13.756Z</time></trkpt><trkpt lat="42.4577503" lon="14.1111706"><ele>170.66666666666669</ele><time>2026-05-02T06:30:14.757Z</time></trkpt><trkpt lat="42.4577774" lon="14.1112765"><ele>172.83333333333334</ele><time>2026-05-02T06:30:15.757Z</time></trkpt><trkpt lat="42.4578104" lon="14.1114008"><ele>175.0</ele><time>2026-05-02T06:30:16.757Z</time></trkpt><trkpt lat="42.4578446" lon="14.1115342"><ele>175.4</ele><time>2026-05-02T06:30:17.757Z</time></trkpt><trkpt lat="42.4578781" lon="14.1116755"><ele>175.8</ele><time>2026-05-02T06:30:18.756Z</time></trkpt><trkpt lat="42.4579122" lon="14.1118141"><ele>176.2</ele><time>2026-05-02T06:30:19.757Z</time></trkpt><trkpt lat="42.4579476" lon="14.1119499"><ele>176.6</ele><time>2026-05-02T06:30:20.756Z</time></trkpt><trkpt lat="42.4579797" lon="14.1120818"><ele>177.0</ele><time>2026-05-02T06:30:21.757Z</time></trkpt><trkpt lat="42.458009" lon="14.1122095"><ele>176.6</ele><time>2026-05-02T06:30:22.757Z</time></trkpt><trkpt lat="42.4580361" lon="14.1123331"><ele>176.2</ele><time>2026-05-02T06:30:23.757Z</time></trkpt><trkpt lat="42.4580618" lon="14.1124567"><ele>175.8</ele><time>2026-05-02T06:30:24.757Z</time></trkpt><trkpt lat="42.458082" lon="14.1125828"><ele>175.4</ele><time>2026-05-02T06:30:25.756Z</time></trkpt><trkpt lat="42.4581004" lon="14.1127124"><ele>175.0</ele><time>2026-05-02T06:30:26.757Z</time></trkpt><trkpt lat="42.4581085" lon="14.1128494"><ele>175.0</ele><time>2026-05-02T06:30:27.756Z</time></trkpt><trkpt lat="42.4581034" lon="14.112984"><ele>175.0</ele><time>2026-05-02T06:30:28.757Z</time></trkpt><trkpt lat="42.4580817" lon="14.1131191"><ele>175.0</ele><time>2026-05-02T06:30:29.756Z</time></trkpt><trkpt lat="42.4580422" lon="14.11325"><ele>175.0</ele><time>2026-05-02T06:30:30.757Z</time></trkpt><trkpt lat="42.457998" lon="14.1133741"><ele>175.0</ele><time>2026-05-02T06:30:31.756Z</time></trkpt><trkpt lat="42.4579583" lon="14.1134961"><ele>176.0</ele><time>2026-05-02T06:30:32.757Z</time></trkpt><trkpt lat="42.4579262" lon="14.1136198"><ele>177.0</ele><time>2026-05-02T06:30:33.756Z</time></trkpt><trkpt lat="42.4579098" lon="14.1137488"><ele>178.0</ele><time>2026-05-02T06:30:34.757Z</time></trkpt><trkpt lat="42.4579049" lon="14.1138808"><ele>179.0</ele><time>2026-05-02T06:30:35.756Z</time></trkpt><trkpt lat="42.4579055" lon="14.1140228"><ele>180.0</ele><time>2026-05-02T06:30:36.757Z</time></trkpt><trkpt lat="42.4579075" lon="14.1141729"><ele>177.0</ele><time>2026-05-02T06:30:37.757Z</time></trkpt><trkpt lat="42.4579129" lon="14.11433"><ele>174.0</ele><time>2026-05-02T06:30:38.757Z</time></trkpt><trkpt lat="42.4579078" lon="14.1144913"><ele>171.0</ele><time>2026-05-02T06:30:39.757Z</time></trkpt><trkpt lat="42.4578879" lon="14.1146556"><ele>168.0</ele><time>2026-05-02T06:30:40.756Z</time></trkpt><trkpt lat="42.4578539" lon="14.1148088"><ele>167.8</ele><time>2026-05-02T06:30:41.757Z</time></trkpt><trkpt lat="42.457822" lon="14.114952"><ele>167.60000000000002</ele><time>2026-05-02T06:30:42.757Z</time></trkpt><trkpt lat="42.4578019" lon="14.115083"><ele>167.39999999999998</ele><time>2026-05-02T06:30:43.757Z</time></trkpt><trkpt lat="42.4577982" lon="14.1152126"><ele>167.2</ele><time>2026-05-02T06:30:44.756Z</time></trkpt><trkpt lat="42.4578168" lon="14.1153419"><ele>167.0</ele><time>2026-05-02T06:30:45.757Z</time></trkpt><trkpt lat="42.4578593" lon="14.1154605"><ele>167.0</ele><time>2026-05-02T06:30:46.756Z</time></trkpt><trkpt lat="42.4579228" lon="14.1155632"><ele>167.0</ele><time>2026-05-02T06:30:47.757Z</time></trkpt><trkpt lat="42.4579962" lon="14.1156565"><ele>167.0</ele><time>2026-05-02T06:30:48.757Z</time></trkpt><trkpt lat="42.4580811" lon="14.1157452"><ele>167.0</ele><time>2026-05-02T06:30:49.756Z</time></trkpt><trkpt lat="42.4581679" lon="14.1158362"><ele>167.0</ele><time>2026-05-02T06:30:50.756Z</time></trkpt><trkpt lat="42.4582588" lon="14.1159348"><ele>167.0</ele><time>2026-05-02T06:30:51.757Z</time></trkpt><trkpt lat="42.4583514" lon="14.116045"><ele>167.0</ele><time>2026-05-02T06:30:52.756Z</time></trkpt><trkpt lat="42.4584452" lon="14.1161556"><ele>167.0</ele><time>2026-05-02T06:30:53.757Z</time></trkpt><trkpt lat="42.4585377" lon="14.1162734"><ele>167.0</ele><time>2026-05-02T06:30:54.756Z</time></trkpt><trkpt lat="42.4586357" lon="14.1163892"><ele>167.0</ele><time>2026-05-02T06:30:55.756Z</time></trkpt><trkpt lat="42.4587363" lon="14.1165003"><ele>167.0</ele><time>2026-05-02T06:30:56.757Z</time></trkpt><trkpt lat="42.4588436" lon="14.1166064"><ele>167.0</ele><time>2026-05-02T06:30:57.757Z</time></trkpt><trkpt lat="42.4589541" lon="14.1167083"><ele>167.0</ele><time>2026-05-02T06:30:58.757Z</time></trkpt><trkpt lat="42.4590621" lon="14.1168056"><ele>166.0</ele><time>2026-05-02T06:30:59.757Z</time></trkpt><trkpt lat="42.4591714" lon="14.1168986"><ele>165.0</ele><time>2026-05-02T06:31:00.757Z</time></trkpt><trkpt lat="42.4592804" lon="14.1169919"><ele>164.0</ele><time>2026-05-02T06:31:01.757Z</time></trkpt><trkpt lat="42.4593878" lon="14.1170807"><ele>163.0</ele><time>2026-05-02T06:31:02.757Z</time></trkpt><trkpt lat="42.4594963" lon="14.1171669"><ele>163.0</ele><time>2026-05-02T06:31:03.757Z</time></trkpt><trkpt lat="42.4596059" lon="14.1172541"><ele>163.0</ele><time>2026-05-02T06:31:04.756Z</time></trkpt><trkpt lat="42.4597155" lon="14.1173399"><ele>163.0</ele><time>2026-05-02T06:31:05.757Z</time></trkpt><trkpt lat="42.4598237" lon="14.1174275"><ele>163.0</ele><time>2026-05-02T06:31:06.757Z</time></trkpt><trkpt lat="42.4599271" lon="14.1175143"><ele>162.4</ele><time>2026-05-02T06:31:07.757Z</time></trkpt><trkpt lat="42.4600252" lon="14.117601"><ele>161.8</ele><time>2026-05-02T06:31:08.756Z</time></trkpt><trkpt lat="42.4601193" lon="14.1176804"><ele>161.2</ele><time>2026-05-02T06:31:09.756Z</time></trkpt><trkpt lat="42.4602063" lon="14.1177573"><ele>160.6</ele><time>2026-05-02T06:31:10.757Z</time></trkpt><trkpt lat="42.4602902" lon="14.1178394"><ele>160.0</ele><time>2026-05-02T06:31:11.757Z</time></trkpt><trkpt lat="42.4603643" lon="14.1179285"><ele>160.0</ele><time>2026-05-02T06:31:12.756Z</time></trkpt><trkpt lat="42.4604219" lon="14.1180225"><ele>160.0</ele><time>2026-05-02T06:31:13.757Z</time></trkpt><trkpt lat="42.4604626" lon="14.1181331"><ele>160.0</ele><time>2026-05-02T06:31:14.757Z</time></trkpt><trkpt lat="42.460482" lon="14.118254"><ele>160.0</ele><time>2026-05-02T06:31:15.757Z</time></trkpt><trkpt lat="42.4604896" lon="14.1183826"><ele>160.0</ele><time>2026-05-02T06:31:16.757Z</time></trkpt><trkpt lat="42.4604825" lon="14.1185205"><ele>160.0</ele><time>2026-05-02T06:31:17.757Z</time></trkpt><trkpt lat="42.4604604" lon="14.1186647"><ele>160.0</ele><time>2026-05-02T06:31:18.757Z</time></trkpt><trkpt lat="42.4604276" lon="14.118809"><ele>160.0</ele><time>2026-05-02T06:31:19.757Z</time></trkpt><trkpt lat="42.460389" lon="14.1189448"><ele>160.0</ele><time>2026-05-02T06:31:20.757Z</time></trkpt><trkpt lat="42.4603483" lon="14.1190649"><ele>160.0</ele><time>2026-05-02T06:31:21.756Z</time></trkpt><trkpt lat="42.4603102" lon="14.1191745"><ele>160.0</ele><time>2026-05-02T06:31:22.756Z</time></trkpt><trkpt lat="42.4602727" lon="14.1192723"><ele>160.0</ele><time>2026-05-02T06:31:23.757Z</time></trkpt><trkpt lat="42.4602334" lon="14.1193626"><ele>160.0</ele><time>2026-05-02T06:31:24.756Z</time></trkpt><trkpt lat="42.4601931" lon="14.1194431"><ele>160.0</ele><time>2026-05-02T06:31:25.757Z</time></trkpt><trkpt lat="42.4601549" lon="14.1195145"><ele>160.0</ele><time>2026-05-02T06:31:26.757Z</time></trkpt><trkpt lat="42.4601086" lon="14.1195737"><ele>160.0</ele><time>2026-05-02T06:31:27.757Z</time></trkpt><trkpt lat="42.459996" lon="14.1196658"><ele>160.0</ele><time>2026-05-02T06:31:29.757Z</time></trkpt><trkpt lat="42.4599332" lon="14.1197373"><ele>160.0</ele><time>2026-05-02T06:31:30.757Z</time></trkpt><trkpt lat="42.4598822" lon="14.1198398"><ele>160.0</ele><time>2026-05-02T06:31:31.757Z</time></trkpt><trkpt lat="42.4598432" lon="14.1199625"><ele>160.0</ele><time>2026-05-02T06:31:32.756Z</time></trkpt><trkpt lat="42.4597801" lon="14.1200893"><ele>160.0</ele><time>2026-05-02T06:31:33.757Z</time></trkpt><trkpt lat="42.4596792" lon="14.1202264"><ele>159.75</ele><time>2026-05-02T06:31:34.757Z</time></trkpt><trkpt lat="42.4595719" lon="14.1203417"><ele>159.5</ele><time>2026-05-02T06:31:35.757Z</time></trkpt><trkpt lat="42.4594744" lon="14.1204435"><ele>159.25</ele><time>2026-05-02T06:31:36.757Z</time></trkpt><trkpt lat="42.4593757" lon="14.1205391"><ele>159.0</ele><time>2026-05-02T06:31:37.757Z</time></trkpt><trkpt lat="42.4592773" lon="14.1206398"><ele>159.25</ele><time>2026-05-02T06:31:38.756Z</time></trkpt><trkpt lat="42.4591813" lon="14.1207414"><ele>159.5</ele><time>2026-05-02T06:31:39.756Z</time></trkpt><trkpt lat="42.4590908" lon="14.1208397"><ele>159.75</ele><time>2026-05-02T06:31:40.757Z</time></trkpt><trkpt lat="42.4590071" lon="14.1209283"><ele>160.0</ele><time>2026-05-02T06:31:41.757Z</time></trkpt><trkpt lat="42.4589243" lon="14.1210171"><ele>160.0</ele><time>2026-05-02T06:31:42.757Z</time></trkpt><trkpt lat="42.4588449" lon="14.1211013"><ele>160.0</ele><time>2026-05-02T06:31:43.757Z</time></trkpt><trkpt lat="42.4587646" lon="14.1211865"><ele>160.0</ele><time>2026-05-02T06:31:44.757Z</time></trkpt><trkpt lat="42.4586787" lon="14.1212792"><ele>160.0</ele><time>2026-05-02T06:31:45.757Z</time></trkpt><trkpt lat="42.4585812" lon="14.1213795"><ele>160.0</ele><time>2026-05-02T06:31:46.756Z</time></trkpt><trkpt lat="42.458476" lon="14.1214877"><ele>160.0</ele><time>2026-05-02T06:31:47.757Z</time></trkpt><trkpt lat="42.4583757" lon="14.121591"><ele>160.0</ele><time>2026-05-02T06:31:48.756Z</time></trkpt><trkpt lat="42.4582848" lon="14.1216875"><ele>160.0</ele><time>2026-05-02T06:31:49.757Z</time></trkpt><trkpt lat="42.4581913" lon="14.1217982"><ele>160.0</ele><time>2026-05-02T06:31:50.756Z</time></trkpt><trkpt lat="42.4580812" lon="14.1219339"><ele>160.0</ele><time>2026-05-02T06:31:51.757Z</time></trkpt><trkpt lat="42.4579591" lon="14.1221222"><ele>160.0</ele><time>2026-05-02T06:31:52.757Z</time></trkpt><trkpt lat="42.4578629" lon="14.1223587"><ele>160.0</ele><time>2026-05-02T06:31:53.757Z</time></trkpt><trkpt lat="42.4577723" lon="14.1226298"><ele>160.66666666666669</ele><time>2026-05-02T06:31:54.757Z</time></trkpt><trkpt lat="42.4576956" lon="14.1228755"><ele>161.33333333333334</ele><time>2026-05-02T06:31:55.756Z</time></trkpt><trkpt lat="42.4576225" lon="14.1231041"><ele>162.0</ele><time>2026-05-02T06:31:56.757Z</time></trkpt><trkpt lat="42.4575609" lon="14.1232892"><ele>162.39999999999998</ele><time>2026-05-02T06:31:57.757Z</time></trkpt><trkpt lat="42.4575108" lon="14.1234433"><ele>162.79999999999998</ele><time>2026-05-02T06:31:58.757Z</time></trkpt><trkpt lat="42.4574658" lon="14.1235814"><ele>163.2</ele><time>2026-05-02T06:31:59.757Z</time></trkpt><trkpt lat="42.4574331" lon="14.1236816"><ele>163.6</ele><time>2026-05-02T06:32:00.756Z</time></trkpt><trkpt lat="42.4573964" lon="14.1238137"><ele>164.0</ele><time>2026-05-02T06:32:02.757Z</time></trkpt><trkpt lat="42.4573713" lon="14.123897"><ele>164.0</ele><time>2026-05-02T06:32:04.756Z</time></trkpt><trkpt lat="42.4573352" lon="14.1240032"><ele>164.0</ele><time>2026-05-02T06:32:06.757Z</time></trkpt><trkpt lat="42.4572828" lon="14.1241571"><ele>164.0</ele><time>2026-05-02T06:32:08.757Z</time></trkpt><trkpt lat="42.4572519" lon="14.1242541"><ele>164.0</ele><time>2026-05-02T06:32:09.756Z</time></trkpt><trkpt lat="42.4572144" lon="14.1243698"><ele>164.0</ele><time>2026-05-02T06:32:10.757Z</time></trkpt><trkpt lat="42.4571791" lon="14.1244864"><ele>165.16666666666666</ele><time>2026-05-02T06:32:11.757Z</time></trkpt><trkpt lat="42.4571512" lon="14.1245921"><ele>166.33333333333331</ele><time>2026-05-02T06:32:12.757Z</time></trkpt><trkpt lat="42.4571497" lon="14.1247315"><ele>167.5</ele><time>2026-05-02T06:32:14.756Z</time></trkpt><trkpt lat="42.4572198" lon="14.1247638"><ele>168.66666666666666</ele><time>2026-05-02T06:32:17.757Z</time></trkpt><trkpt lat="42.4572438" lon="14.1246739"><ele>169.83333333333334</ele><time>2026-05-02T06:32:19.756Z</time></trkpt><trkpt lat="42.4572644" lon="14.1245673"><ele>171.0</ele><time>2026-05-02T06:32:20.756Z</time></trkpt><trkpt lat="42.4572894" lon="14.1244108"><ele>171.0</ele><time>2026-05-02T06:32:21.757Z</time></trkpt><trkpt lat="42.4573322" lon="14.1242092"><ele>171.0</ele><time>2026-05-02T06:32:22.757Z</time></trkpt><trkpt lat="42.4573966" lon="14.1239739"><ele>171.0</ele><time>2026-05-02T06:32:23.757Z</time></trkpt><trkpt lat="42.4574693" lon="14.1237177"><ele>168.66666666666666</ele><time>2026-05-02T06:32:24.756Z</time></trkpt><trkpt lat="42.4575406" lon="14.1234689"><ele>166.33333333333331</ele><time>2026-05-02T06:32:25.756Z</time></trkpt><trkpt lat="42.4576079" lon="14.1232388"><ele>164.0</ele><time>2026-05-02T06:32:26.757Z</time></trkpt><trkpt lat="42.4576827" lon="14.1229971"><ele>163.33333333333331</ele><time>2026-05-02T06:32:27.757Z</time></trkpt><trkpt lat="42.4577515" lon="14.1227692"><ele>162.66666666666666</ele><time>2026-05-02T06:32:28.756Z</time></trkpt><trkpt lat="42.4578154" lon="14.1225673"><ele>162.0</ele><time>2026-05-02T06:32:29.757Z</time></trkpt><trkpt lat="42.4578814" lon="14.1223828"><ele>161.5</ele><time>2026-05-02T06:32:30.757Z</time></trkpt><trkpt lat="42.4579511" lon="14.1222188"><ele>161.0</ele><time>2026-05-02T06:32:31.757Z</time></trkpt><trkpt lat="42.4580279" lon="14.122074"><ele>160.5</ele><time>2026-05-02T06:32:32.757Z</time></trkpt><trkpt lat="42.4581049" lon="14.1219531"><ele>160.0</ele><time>2026-05-02T06:32:33.757Z</time></trkpt><trkpt lat="42.4581806" lon="14.1218478"><ele>160.0</ele><time>2026-05-02T06:32:34.756Z</time></trkpt><trkpt lat="42.4582514" lon="14.1217599"><ele>160.0</ele><time>2026-05-02T06:32:35.757Z</time></trkpt><trkpt lat="42.4583186" lon="14.1216839"><ele>160.0</ele><time>2026-05-02T06:32:36.757Z</time></trkpt><trkpt lat="42.4583712" lon="14.1216319"><ele>160.0</ele><time>2026-05-02T06:32:37.756Z</time></trkpt><trkpt lat="42.4584654" lon="14.1215358"><ele>160.0</ele><time>2026-05-02T06:32:39.757Z</time></trkpt><trkpt lat="42.4585315" lon="14.1214657"><ele>160.0</ele><time>2026-05-02T06:32:40.756Z</time></trkpt><trkpt lat="42.4586112" lon="14.1213818"><ele>160.0</ele><time>2026-05-02T06:32:41.757Z</time></trkpt><trkpt lat="42.4586845" lon="14.1213063"><ele>160.0</ele><time>2026-05-02T06:32:42.756Z</time></trkpt><trkpt lat="42.4587514" lon="14.1212372"><ele>160.0</ele><time>2026-05-02T06:32:43.756Z</time></trkpt><trkpt lat="42.4588076" lon="14.1211711"><ele>160.0</ele><time>2026-05-02T06:32:44.757Z</time></trkpt><trkpt lat="42.4588533" lon="14.1210569"><ele>160.0</ele><time>2026-05-02T06:32:46.757Z</time></trkpt><trkpt lat="42.4587979" lon="14.1209581"><ele>160.16666666666669</ele><time>2026-05-02T06:32:48.757Z</time></trkpt><trkpt lat="42.4587281" lon="14.1208763"><ele>160.33333333333334</ele><time>2026-05-02T06:32:50.757Z</time></trkpt><trkpt lat="42.4586767" lon="14.1208268"><ele>160.5</ele><time>2026-05-02T06:32:57.756Z</time></trkpt><trkpt lat="42.4586096" lon="14.1207694"><ele>160.66666666666666</ele><time>2026-05-02T06:32:59.756Z</time></trkpt><trkpt lat="42.4585194" lon="14.1206721"><ele>160.83333333333331</ele><time>2026-05-02T06:33:01.757Z</time></trkpt><trkpt lat="42.4584686" lon="14.120612"><ele>161.0</ele><time>2026-05-02T06:33:02.756Z</time></trkpt><trkpt lat="42.4584172" lon="14.1205524"><ele>159.5</ele><time>2026-05-02T06:33:03.757Z</time></trkpt><trkpt lat="42.4583598" lon="14.1204893"><ele>158.0</ele><time>2026-05-02T06:33:04.756Z</time></trkpt><trkpt lat="42.4583003" lon="14.1204258"><ele>156.5</ele><time>2026-05-02T06:33:05.757Z</time></trkpt><trkpt lat="42.458239" lon="14.1203622"><ele>155.0</ele><time>2026-05-02T06:33:06.756Z</time></trkpt><trkpt lat="42.4581875" lon="14.1203085"><ele>153.5</ele><time>2026-05-02T06:33:07.757Z</time></trkpt><trkpt lat="42.4581025" lon="14.1202121"><ele>152.0</ele><time>2026-05-02T06:33:09.757Z</time></trkpt><trkpt lat="42.4580262" lon="14.1201172"><ele>150.33333333333331</ele><time>2026-05-02T06:33:11.757Z</time></trkpt><trkpt lat="42.4579468" lon="14.1199879"><ele>148.66666666666666</ele><time>2026-05-02T06:33:13.757Z</time></trkpt><trkpt lat="42.4579024" lon="14.1199262"><ele>147.0</ele><time>2026-05-02T06:33:14.757Z</time></trkpt><trkpt lat="42.4578566" lon="14.119858"><ele>145.33333333333334</ele><time>2026-05-02T06:33:15.756Z</time></trkpt><trkpt lat="42.4578108" lon="14.1197892"><ele>143.66666666666669</ele><time>2026-05-02T06:33:16.757Z</time></trkpt><trkpt lat="42.4577672" lon="14.119723"><ele>142.0</ele><time>2026-05-02T06:33:17.757Z</time></trkpt><trkpt lat="42.4576997" lon="14.1196271"><ele>140.33333333333334</ele><time>2026-05-02T06:33:19.757Z</time></trkpt><trkpt lat="42.4576401" lon="14.1195489"><ele>138.66666666666669</ele><time>2026-05-02T06:33:21.756Z</time></trkpt><trkpt lat="42.4575883" lon="14.1194703"><ele>137.0</ele><time>2026-05-02T06:33:24.756Z</time></trkpt><trkpt lat="42.4575261" lon="14.1193887"><ele>135.33333333333334</ele><time>2026-05-02T06:33:27.757Z</time></trkpt><trkpt lat="42.4574687" lon="14.1193232"><ele>133.66666666666666</ele><time>2026-05-02T06:33:29.757Z</time></trkpt><trkpt lat="42.4574131" lon="14.1192741"><ele>132.0</ele><time>2026-05-02T06:33:31.757Z</time></trkpt><trkpt lat="42.4573365" lon="14.1192598"><ele>132.0</ele><time>2026-05-02T06:33:35.757Z</time></trkpt><trkpt lat="42.4572717" lon="14.1192555"><ele>132.0</ele><time>2026-05-02T06:33:38.757Z</time></trkpt><trkpt lat="42.4571911" lon="14.1192498"><ele>132.0</ele><time>2026-05-02T06:33:41.757Z</time></trkpt><trkpt lat="42.4571268" lon="14.1192463"><ele>132.0</ele><time>2026-05-02T06:33:43.757Z</time></trkpt><trkpt lat="42.4570534" lon="14.1192437"><ele>132.0</ele><time>2026-05-02T06:33:45.757Z</time></trkpt><trkpt lat="42.4569737" lon="14.1192457"><ele>132.0</ele><time>2026-05-02T06:33:47.756Z</time></trkpt><trkpt lat="42.4568943" lon="14.1192518"><ele>132.0</ele><time>2026-05-02T06:33:49.756Z</time></trkpt><trkpt lat="42.4568249" lon="14.1192613"><ele>130.66666666666666</ele><time>2026-05-02T06:33:51.757Z</time></trkpt><trkpt lat="42.4567485" lon="14.1192804"><ele>129.33333333333334</ele><time>2026-05-02T06:33:54.756Z</time></trkpt><trkpt lat="42.4566718" lon="14.1193119"><ele>128.0</ele><time>2026-05-02T06:37:00.756Z</time></trkpt><trkpt lat="42.4566074" lon="14.1193255"><ele>126.66666666666667</ele><time>2026-05-02T06:37:04.756Z</time></trkpt><trkpt lat="42.4565256" lon="14.1193217"><ele>125.33333333333334</ele><time>2026-05-02T06:37:07.757Z</time></trkpt><trkpt lat="42.4564324" lon="14.1193149"><ele>124.0</ele><time>2026-05-02T06:37:09.757Z</time></trkpt><trkpt lat="42.4563329" lon="14.1193231"><ele>123.16666666666667</ele><time>2026-05-02T06:37:11.757Z</time></trkpt><trkpt lat="42.4562325" lon="14.1193323"><ele>122.33333333333334</ele><time>2026-05-02T06:37:13.757Z</time></trkpt><trkpt lat="42.4561554" lon="14.119339"><ele>121.5</ele><time>2026-05-02T06:37:15.757Z</time></trkpt><trkpt lat="42.4560786" lon="14.119326"><ele>120.66666666666666</ele><time>2026-05-02T06:37:20.757Z</time></trkpt><trkpt lat="42.4560141" lon="14.1193206"><ele>119.83333333333333</ele><time>2026-05-02T06:37:23.757Z</time></trkpt><trkpt lat="42.4559466" lon="14.1193039"><ele>119.0</ele><time>2026-05-02T06:37:26.757Z</time></trkpt><trkpt lat="42.4558762" lon="14.1192696"><ele>118.99999999999999</ele><time>2026-05-02T06:37:29.756Z</time></trkpt><trkpt lat="42.4558052" lon="14.1192352"><ele>119.0</ele><time>2026-05-02T06:37:32.757Z</time></trkpt><trkpt lat="42.4557237" lon="14.1192069"><ele>119.0</ele><time>2026-05-02T06:37:35.756Z</time></trkpt><trkpt lat="42.4556591" lon="14.1191937"><ele>119.0</ele><time>2026-05-02T06:37:37.756Z</time></trkpt><trkpt lat="42.4555697" lon="14.1192062"><ele>118.99999999999999</ele><time>2026-05-02T06:37:40.757Z</time></trkpt><trkpt lat="42.4554903" lon="14.1192106"><ele>119.0</ele><time>2026-05-02T06:37:43.757Z</time></trkpt><trkpt lat="42.4554229" lon="14.1192018"><ele>118.28571428571428</ele><time>2026-05-02T06:37:45.757Z</time></trkpt><trkpt lat="42.4553458" lon="14.1192026"><ele>117.57142857142857</ele><time>2026-05-02T06:37:48.757Z</time></trkpt><trkpt lat="42.4552763" lon="14.1192153"><ele>116.85714285714286</ele><time>2026-05-02T06:37:51.757Z</time></trkpt><trkpt lat="42.4551913" lon="14.1192196"><ele>116.14285714285714</ele><time>2026-05-02T06:37:55.756Z</time></trkpt><trkpt lat="42.4551217" lon="14.1192019"><ele>115.42857142857142</ele><time>2026-05-02T06:37:58.757Z</time></trkpt><trkpt lat="42.4550555" lon="14.1192022"><ele>114.71428571428571</ele><time>2026-05-02T06:38:03.756Z</time></trkpt><trkpt lat="42.4549772" lon="14.1191886"><ele>114.0</ele><time>2026-05-02T06:38:07.757Z</time></trkpt><trkpt lat="42.4548986" lon="14.1191617"><ele>114.0</ele><time>2026-05-02T06:38:12.756Z</time></trkpt><trkpt lat="42.4548388" lon="14.119107"><ele>114.0</ele><time>2026-05-02T06:38:18.757Z</time></trkpt><trkpt lat="42.4548044" lon="14.1189976"><ele>114.0</ele><time>2026-05-02T06:38:22.757Z</time></trkpt><trkpt lat="42.454819" lon="14.1189026"><ele>114.0</ele><time>2026-05-02T06:38:24.757Z</time></trkpt><trkpt lat="42.454832" lon="14.1188088"><ele>114.0</ele><time>2026-05-02T06:38:26.757Z</time></trkpt><trkpt lat="42.4548519" lon="14.1186013"><ele>114.33333333333333</ele><time>2026-05-02T06:38:30.757Z</time></trkpt><trkpt lat="42.454861" lon="14.1185137"><ele>114.66666666666666</ele><time>2026-05-02T06:38:32.757Z</time></trkpt><trkpt lat="42.4548707" lon="14.1184285"><ele>115.0</ele><time>2026-05-02T06:38:34.756Z</time></trkpt><trkpt lat="42.4548646" lon="14.1183261"><ele>115.33333333333333</ele><time>2026-05-02T06:38:36.757Z</time></trkpt><trkpt lat="42.4548792" lon="14.1182271"><ele>115.66666666666666</ele><time>2026-05-02T06:38:38.757Z</time></trkpt><trkpt lat="42.4549085" lon="14.1180968"><ele>116.0</ele><time>2026-05-02T06:38:40.757Z</time></trkpt><trkpt lat="42.4549402" lon="14.1179542"><ele>116.0</ele><time>2026-05-02T06:38:42.757Z</time></trkpt><trkpt lat="42.4549658" lon="14.1178005"><ele>116.0</ele><time>2026-05-02T06:38:44.756Z</time></trkpt><trkpt lat="42.4549767" lon="14.1176382"><ele>116.0</ele><time>2026-05-02T06:38:46.757Z</time></trkpt><trkpt lat="42.4549847" lon="14.1174781"><ele>116.0</ele><time>2026-05-02T06:38:48.757Z</time></trkpt><trkpt lat="42.454987" lon="14.117337"><ele>117.16666666666666</ele><time>2026-05-02T06:38:50.757Z</time></trkpt><trkpt lat="42.4549701" lon="14.1172454"><ele>118.33333333333333</ele><time>2026-05-02T06:38:52.756Z</time></trkpt><trkpt lat="42.4549045" lon="14.1172026"><ele>119.5</ele><time>2026-05-02T06:38:55.756Z</time></trkpt><trkpt lat="42.4548025" lon="14.117185"><ele>120.66666666666666</ele><time>2026-05-02T06:38:57.757Z</time></trkpt><trkpt lat="42.4546834" lon="14.1171523"><ele>121.83333333333333</ele><time>2026-05-02T06:38:59.757Z</time></trkpt><trkpt lat="42.4546199" lon="14.1171312"><ele>123.0</ele><time>2026-05-02T06:39:00.757Z</time></trkpt><trkpt lat="42.4545544" lon="14.1171111"><ele>123.2857142857143</ele><time>2026-05-02T06:39:01.757Z</time></trkpt><trkpt lat="42.4544889" lon="14.1170946"><ele>123.57142857142858</ele><time>2026-05-02T06:39:02.757Z</time></trkpt><trkpt lat="42.4544264" lon="14.1170785"><ele>123.85714285714286</ele><time>2026-05-02T06:39:03.756Z</time></trkpt><trkpt lat="42.4543596" lon="14.1170619"><ele>124.14285714285715</ele><time>2026-05-02T06:39:04.756Z</time></trkpt><trkpt lat="42.4542927" lon="14.1170495"><ele>124.42857142857144</ele><time>2026-05-02T06:39:05.756Z</time></trkpt><trkpt lat="42.4542208" lon="14.1170376"><ele>124.71428571428571</ele><time>2026-05-02T06:39:06.757Z</time></trkpt><trkpt lat="42.4541481" lon="14.1170226"><ele>125.0</ele><time>2026-05-02T06:39:07.757Z</time></trkpt><trkpt lat="42.454073" lon="14.1170087"><ele>125.0</ele><time>2026-05-02T06:39:08.757Z</time></trkpt><trkpt lat="42.453996" lon="14.1169969"><ele>125.0</ele><time>2026-05-02T06:39:09.757Z</time></trkpt><trkpt lat="42.4539247" lon="14.116988"><ele>125.0</ele><time>2026-05-02T06:39:10.756Z</time></trkpt><trkpt lat="42.4538054" lon="14.1169707"><ele>125.0</ele><time>2026-05-02T06:39:12.756Z</time></trkpt><trkpt lat="42.4536873" lon="14.1169766"><ele>125.0</ele><time>2026-05-02T06:39:14.756Z</time></trkpt><trkpt lat="42.4536241" lon="14.1169903"><ele>125.33333333333333</ele><time>2026-05-02T06:39:15.757Z</time></trkpt><trkpt lat="42.4535693" lon="14.117035"><ele>125.66666666666666</ele><time>2026-05-02T06:39:16.757Z</time></trkpt><trkpt lat="42.453465" lon="14.1171265"><ele>126.0</ele><time>2026-05-02T06:39:18.757Z</time></trkpt><trkpt lat="42.4534151" lon="14.1171853"><ele>126.33333333333334</ele><time>2026-05-02T06:39:19.757Z</time></trkpt><trkpt lat="42.4533609" lon="14.1172383"><ele>126.66666666666667</ele><time>2026-05-02T06:39:20.757Z</time></trkpt><trkpt lat="42.4533032" lon="14.1172859"><ele>127.0</ele><time>2026-05-02T06:39:21.757Z</time></trkpt><trkpt lat="42.45324" lon="14.1173278"><ele>127.0</ele><time>2026-05-02T06:39:22.756Z</time></trkpt><trkpt lat="42.453174" lon="14.1173608"><ele>127.0</ele><time>2026-05-02T06:39:23.757Z</time></trkpt><trkpt lat="42.4531091" lon="14.117385"><ele>127.0</ele><time>2026-05-02T06:39:24.756Z</time></trkpt><trkpt lat="42.4530394" lon="14.1173986"><ele>127.0</ele><time>2026-05-02T06:39:25.757Z</time></trkpt><trkpt lat="42.4529673" lon="14.1174055"><ele>127.0</ele><time>2026-05-02T06:39:26.757Z</time></trkpt><trkpt lat="42.4528886" lon="14.1174104"><ele>127.0</ele><time>2026-05-02T06:39:27.756Z</time></trkpt><trkpt lat="42.4528097" lon="14.1174136"><ele>127.0</ele><time>2026-05-02T06:39:28.757Z</time></trkpt><trkpt lat="42.4527418" lon="14.1174107"><ele>127.50000000000001</ele><time>2026-05-02T06:39:29.756Z</time></trkpt><trkpt lat="42.4526518" lon="14.1173801"><ele>128.0</ele><time>2026-05-02T06:39:31.757Z</time></trkpt><trkpt lat="42.4525845" lon="14.1173127"><ele>128.5</ele><time>2026-05-02T06:39:33.756Z</time></trkpt><trkpt lat="42.4525563" lon="14.1172212"><ele>129.0</ele><time>2026-05-02T06:39:35.756Z</time></trkpt><trkpt lat="42.4525404" lon="14.117127"><ele>129.5</ele><time>2026-05-02T06:39:37.757Z</time></trkpt><trkpt lat="42.4524944" lon="14.1170338"><ele>130.0</ele><time>2026-05-02T06:40:25.757Z</time></trkpt><trkpt lat="42.4524384" lon="14.1169292"><ele>130.0</ele><time>2026-05-02T06:40:27.757Z</time></trkpt><trkpt lat="42.4524079" lon="14.1168487"><ele>130.0</ele><time>2026-05-02T06:40:28.756Z</time></trkpt><trkpt lat="42.4523675" lon="14.116763"><ele>130.0</ele><time>2026-05-02T06:40:29.757Z</time></trkpt><trkpt lat="42.4523167" lon="14.1166727"><ele>130.0</ele><time>2026-05-02T06:40:30.756Z</time></trkpt><trkpt lat="42.4522574" lon="14.1165849"><ele>130.0</ele><time>2026-05-02T06:40:31.756Z</time></trkpt><trkpt lat="42.4521914" lon="14.1165082"><ele>130.0</ele><time>2026-05-02T06:40:32.756Z</time></trkpt><trkpt lat="42.4521304" lon="14.116448"><ele>131.00000000000003</ele><time>2026-05-02T06:40:33.757Z</time></trkpt><trkpt lat="42.4520683" lon="14.1164068"><ele>132.0</ele><time>2026-05-02T06:40:34.757Z</time></trkpt><trkpt lat="42.4520018" lon="14.1163836"><ele>133.0</ele><time>2026-05-02T06:40:35.757Z</time></trkpt><trkpt lat="42.4519314" lon="14.1163679"><ele>134.0</ele><time>2026-05-02T06:40:36.757Z</time></trkpt><trkpt lat="42.4518539" lon="14.1163551"><ele>135.0</ele><time>2026-05-02T06:40:37.756Z</time></trkpt><trkpt lat="42.4517757" lon="14.1163498"><ele>136.00000000000003</ele><time>2026-05-02T06:40:38.757Z</time></trkpt><trkpt lat="42.4517039" lon="14.1163548"><ele>137.0</ele><time>2026-05-02T06:40:39.757Z</time></trkpt><trkpt lat="42.4516402" lon="14.116359"><ele>137.0</ele><time>2026-05-02T06:40:40.755Z</time></trkpt><trkpt lat="42.4515761" lon="14.1163639"><ele>137.0</ele><time>2026-05-02T06:40:41.756Z</time></trkpt><trkpt lat="42.4514667" lon="14.1163606"><ele>137.0</ele><time>2026-05-02T06:40:43.756Z</time></trkpt><trkpt lat="42.4513723" lon="14.1163385"><ele>137.0</ele><time>2026-05-02T06:40:45.756Z</time></trkpt><trkpt lat="42.4512863" lon="14.1162964"><ele>137.0</ele><time>2026-05-02T06:40:47.757Z</time></trkpt><trkpt lat="42.4512196" lon="14.1162401"><ele>137.0</ele><time>2026-05-02T06:40:49.757Z</time></trkpt><trkpt lat="42.4511627" lon="14.1161903"><ele>133.83333333333331</ele><time>2026-05-02T06:40:51.756Z</time></trkpt><trkpt lat="42.4511002" lon="14.1161676"><ele>130.66666666666666</ele><time>2026-05-02T06:40:53.757Z</time></trkpt><trkpt lat="42.4510265" lon="14.1161764"><ele>127.5</ele><time>2026-05-02T06:40:55.757Z</time></trkpt><trkpt lat="42.4509483" lon="14.1162098"><ele>124.33333333333334</ele><time>2026-05-02T06:40:57.757Z</time></trkpt><trkpt lat="42.4508614" lon="14.1162591"><ele>121.16666666666667</ele><time>2026-05-02T06:40:59.756Z</time></trkpt><trkpt lat="42.4507636" lon="14.1163164"><ele>118.0</ele><time>2026-05-02T06:41:01.757Z</time></trkpt><trkpt lat="42.4506554" lon="14.1163858"><ele>118.0</ele><time>2026-05-02T06:41:03.757Z</time></trkpt><trkpt lat="42.4505555" lon="14.1164663"><ele>118.00000000000001</ele><time>2026-05-02T06:41:05.756Z</time></trkpt><trkpt lat="42.4504532" lon="14.1165671"><ele>118.00000000000001</ele><time>2026-05-02T06:41:07.756Z</time></trkpt><trkpt lat="42.4504011" lon="14.116622"><ele>118.0</ele><time>2026-05-02T06:41:08.757Z</time></trkpt><trkpt lat="42.450348" lon="14.1166783"><ele>118.0</ele><time>2026-05-02T06:41:09.757Z</time></trkpt><trkpt lat="42.4502529" lon="14.1167738"><ele>115.80000000000001</ele><time>2026-05-02T06:41:11.757Z</time></trkpt><trkpt lat="42.4501974" lon="14.1168304"><ele>113.60000000000001</ele><time>2026-05-02T06:41:12.757Z</time></trkpt><trkpt lat="42.4501421" lon="14.1168843"><ele>111.39999999999999</ele><time>2026-05-02T06:41:13.756Z</time></trkpt><trkpt lat="42.4500318" lon="14.1169786"><ele>109.19999999999999</ele><time>2026-05-02T06:41:15.757Z</time></trkpt><trkpt lat="42.4499729" lon="14.1170238"><ele>107.0</ele><time>2026-05-02T06:41:16.757Z</time></trkpt><trkpt lat="42.4498598" lon="14.1170988"><ele>107.00000000000001</ele><time>2026-05-02T06:41:18.757Z</time></trkpt><trkpt lat="42.449795" lon="14.1171353"><ele>107.0</ele><time>2026-05-02T06:41:19.756Z</time></trkpt><trkpt lat="42.4497306" lon="14.1171692"><ele>107.0</ele><time>2026-05-02T06:41:20.756Z</time></trkpt><trkpt lat="42.4496611" lon="14.1171982"><ele>107.0</ele><time>2026-05-02T06:41:21.757Z</time></trkpt><trkpt lat="42.4495953" lon="14.1172182"><ele>107.0</ele><time>2026-05-02T06:41:22.757Z</time></trkpt><trkpt lat="42.4495245" lon="14.1172285"><ele>107.00000000000001</ele><time>2026-05-02T06:41:23.756Z</time></trkpt><trkpt lat="42.4494579" lon="14.1172287"><ele>107.0</ele><time>2026-05-02T06:41:24.757Z</time></trkpt><trkpt lat="42.4493944" lon="14.1172177"><ele>105.0</ele><time>2026-05-02T06:41:25.756Z</time></trkpt><trkpt lat="42.449278" lon="14.1171921"><ele>102.99999999999999</ele><time>2026-05-02T06:41:27.756Z</time></trkpt><trkpt lat="42.4491663" lon="14.1171576"><ele>101.0</ele><time>2026-05-02T06:41:29.757Z</time></trkpt><trkpt lat="42.4490553" lon="14.1171251"><ele>99.0</ele><time>2026-05-02T06:41:31.757Z</time></trkpt><trkpt lat="42.448955" lon="14.1171014"><ele>97.0</ele><time>2026-05-02T06:41:33.757Z</time></trkpt><trkpt lat="42.4488813" lon="14.1170818"><ele>97.00000000000001</ele><time>2026-05-02T06:41:36.757Z</time></trkpt><trkpt lat="42.4488022" lon="14.117074"><ele>97.0</ele><time>2026-05-02T06:41:39.756Z</time></trkpt><trkpt lat="42.4487148" lon="14.1170772"><ele>97.0</ele><time>2026-05-02T07:04:54.757Z</time></trkpt><trkpt lat="42.4486475" lon="14.1170735"><ele>97.0</ele><time>2026-05-02T07:04:56.756Z</time></trkpt><trkpt lat="42.4485798" lon="14.1171088"><ele>97.00000000000001</ele><time>2026-05-02T07:04:59.757Z</time></trkpt><trkpt lat="42.4485382" lon="14.1171956"><ele>97.0</ele><time>2026-05-02T07:05:03.756Z</time></trkpt><trkpt lat="42.4485289" lon="14.1173093"><ele>95.39999999999999</ele><time>2026-05-02T07:05:52.753Z</time></trkpt><trkpt lat="42.4485216" lon="14.1174413"><ele>93.8</ele><time>2026-05-02T07:05:54.756Z</time></trkpt><trkpt lat="42.4485297" lon="14.1175755"><ele>92.2</ele><time>2026-05-02T07:05:56.757Z</time></trkpt><trkpt lat="42.4485409" lon="14.1177554"><ele>90.6</ele><time>2026-05-02T07:05:58.757Z</time></trkpt><trkpt lat="42.4485614" lon="14.1178962"><ele>89.0</ele><time>2026-05-02T07:06:00.755Z</time></trkpt><trkpt lat="42.4485612" lon="14.1180223"><ele>89.0</ele><time>2026-05-02T07:06:02.756Z</time></trkpt><trkpt lat="42.4485502" lon="14.1181421"><ele>89.0</ele><time>2026-05-02T07:06:04.755Z</time></trkpt><trkpt lat="42.448551" lon="14.1182569"><ele>89.0</ele><time>2026-05-02T07:06:06.755Z</time></trkpt><trkpt lat="42.4485653" lon="14.1183827"><ele>89.0</ele><time>2026-05-02T07:06:08.754Z</time></trkpt><trkpt lat="42.4485818" lon="14.1185182"><ele>89.0</ele><time>2026-05-02T07:06:10.756Z</time></trkpt><trkpt lat="42.4485967" lon="14.1186423"><ele>89.0</ele><time>2026-05-02T07:06:12.754Z</time></trkpt><trkpt lat="42.4486057" lon="14.1187443"><ele>89.0</ele><time>2026-05-02T07:06:15.756Z</time></trkpt><trkpt lat="42.4486138" lon="14.1188447"><ele>89.0</ele><time>2026-05-02T07:06:44.756Z</time></trkpt><trkpt lat="42.4486177" lon="14.1189637"><ele>89.0</ele><time>2026-05-02T07:08:12.757Z</time></trkpt><trkpt lat="42.4486255" lon="14.1190491"><ele>89.0</ele><time>2026-05-02T07:08:14.757Z</time></trkpt><trkpt lat="42.4486227" lon="14.1191344"><ele>89.0</ele><time>2026-05-02T07:16:39.756Z</time></trkpt><trkpt lat="42.4486293" lon="14.1192562"><ele>90.16666666666667</ele><time>2026-05-02T07:17:46.756Z</time></trkpt><trkpt lat="42.4486355" lon="14.1194138"><ele>91.33333333333334</ele><time>2026-05-02T07:17:48.757Z</time></trkpt><trkpt lat="42.4486405" lon="14.1195123"><ele>92.5</ele><time>2026-05-02T07:17:49.754Z</time></trkpt><trkpt lat="42.4486455" lon="14.1196187"><ele>93.66666666666667</ele><time>2026-05-02T07:17:50.754Z</time></trkpt><trkpt lat="42.4486499" lon="14.119725"><ele>94.83333333333333</ele><time>2026-05-02T07:17:51.753Z</time></trkpt><trkpt lat="42.448653" lon="14.1198221"><ele>96.0</ele><time>2026-05-02T07:17:52.755Z</time></trkpt><trkpt lat="42.4486587" lon="14.1199828"><ele>97.66666666666667</ele><time>2026-05-02T07:17:54.753Z</time></trkpt><trkpt lat="42.4486639" lon="14.1201545"><ele>99.33333333333334</ele><time>2026-05-02T07:17:56.757Z</time></trkpt><trkpt lat="42.4486683" lon="14.1202542"><ele>101.0</ele><time>2026-05-02T07:17:57.755Z</time></trkpt><trkpt lat="42.4486703" lon="14.1203541"><ele>102.66666666666667</ele><time>2026-05-02T07:17:58.754Z</time></trkpt><trkpt lat="42.4486725" lon="14.120457"><ele>104.33333333333334</ele><time>2026-05-02T07:17:59.754Z</time></trkpt><trkpt lat="42.448677" lon="14.1205607"><ele>106.0</ele><time>2026-05-02T07:18:00.755Z</time></trkpt><trkpt lat="42.4486775" lon="14.1206547"><ele>108.00000000000001</ele><time>2026-05-02T07:18:01.757Z</time></trkpt><trkpt lat="42.4486755" lon="14.1207483"><ele>110.0</ele><time>2026-05-02T07:18:02.755Z</time></trkpt><trkpt lat="42.4486802" lon="14.1208516"><ele>112.0</ele><time>2026-05-02T07:18:03.756Z</time></trkpt><trkpt lat="42.4486876" lon="14.1209619"><ele>114.0</ele><time>2026-05-02T07:18:04.756Z</time></trkpt><trkpt lat="42.4486897" lon="14.1210691"><ele>116.00000000000001</ele><time>2026-05-02T07:18:05.752Z</time></trkpt><trkpt lat="42.4486899" lon="14.1211577"><ele>118.0</ele><time>2026-05-02T07:18:06.754Z</time></trkpt><trkpt lat="42.4486836" lon="14.1213258"><ele>118.00000000000001</ele><time>2026-05-02T07:18:08.754Z</time></trkpt><trkpt lat="42.4486853" lon="14.1214128"><ele>118.0</ele><time>2026-05-02T07:18:09.753Z</time></trkpt><trkpt lat="42.4486903" lon="14.1215819"><ele>118.0</ele><time>2026-05-02T07:18:11.755Z</time></trkpt><trkpt lat="42.4486991" lon="14.1216786"><ele>118.0</ele><time>2026-05-02T07:18:12.754Z</time></trkpt><trkpt lat="42.4487064" lon="14.1217866"><ele>118.00000000000001</ele><time>2026-05-02T07:18:13.754Z</time></trkpt><trkpt lat="42.4487167" lon="14.1218985"><ele>118.0</ele><time>2026-05-02T07:18:14.757Z</time></trkpt><trkpt lat="42.448735" lon="14.1220148"><ele>119.33333333333334</ele><time>2026-05-02T07:18:15.753Z</time></trkpt><trkpt lat="42.4487591" lon="14.1221292"><ele>120.66666666666667</ele><time>2026-05-02T07:18:16.754Z</time></trkpt><trkpt lat="42.4487835" lon="14.1222273"><ele>122.0</ele><time>2026-05-02T07:18:17.753Z</time></trkpt><trkpt lat="42.4488132" lon="14.1223209"><ele>123.33333333333334</ele><time>2026-05-02T07:18:18.754Z</time></trkpt><trkpt lat="42.4488423" lon="14.1224054"><ele>124.66666666666667</ele><time>2026-05-02T07:18:19.755Z</time></trkpt><trkpt lat="42.4488946" lon="14.1225444"><ele>126.0</ele><time>2026-05-02T07:18:21.754Z</time></trkpt><trkpt lat="42.4489006" lon="14.1226297"><ele>126.66666666666667</ele><time>2026-05-02T07:18:23.753Z</time></trkpt><trkpt lat="42.4488131" lon="14.1226278"><ele>127.33333333333334</ele><time>2026-05-02T07:18:26.756Z</time></trkpt><trkpt lat="42.4487513" lon="14.1226039"><ele>128.0</ele><time>2026-05-02T07:18:27.755Z</time></trkpt><trkpt lat="42.448651" lon="14.1226006"><ele>128.66666666666669</ele><time>2026-05-02T07:18:29.754Z</time></trkpt><trkpt lat="42.4485794" lon="14.1225822"><ele>129.33333333333334</ele><time>2026-05-02T07:22:17.753Z</time></trkpt><trkpt lat="42.4484846" lon="14.1225001"><ele>130.0</ele><time>2026-05-02T07:22:38.757Z</time></trkpt><trkpt lat="42.4484183" lon="14.1224505"><ele>130.0</ele><time>2026-05-02T07:22:39.754Z</time></trkpt><trkpt lat="42.4483384" lon="14.1223994"><ele>130.0</ele><time>2026-05-02T07:22:40.752Z</time></trkpt><trkpt lat="42.4482501" lon="14.1223433"><ele>130.0</ele><time>2026-05-02T07:22:41.753Z</time></trkpt><trkpt lat="42.4481484" lon="14.1222754"><ele>130.0</ele><time>2026-05-02T07:22:42.753Z</time></trkpt><trkpt lat="42.4480526" lon="14.1222086"><ele>130.0</ele><time>2026-05-02T07:22:43.752Z</time></trkpt><trkpt lat="42.4479608" lon="14.1221417"><ele>130.83333333333334</ele><time>2026-05-02T07:22:44.751Z</time></trkpt><trkpt lat="42.4478814" lon="14.1220855"><ele>131.66666666666669</ele><time>2026-05-02T07:22:45.753Z</time></trkpt><trkpt lat="42.4478121" lon="14.1220391"><ele>132.5</ele><time>2026-05-02T07:22:46.752Z</time></trkpt><trkpt lat="42.4477499" lon="14.1219927"><ele>133.33333333333334</ele><time>2026-05-02T07:22:47.755Z</time></trkpt><trkpt lat="42.4476853" lon="14.1219482"><ele>134.16666666666666</ele><time>2026-05-02T07:22:48.752Z</time></trkpt><trkpt lat="42.4476279" lon="14.1219053"><ele>135.0</ele><time>2026-05-02T07:22:49.753Z</time></trkpt><trkpt lat="42.4475109" lon="14.1218315"><ele>135.0</ele><time>2026-05-02T07:22:51.751Z</time></trkpt><trkpt lat="42.447436" lon="14.1217991"><ele>135.0</ele><time>2026-05-02T07:22:52.752Z</time></trkpt><trkpt lat="42.4473427" lon="14.1217774"><ele>135.0</ele><time>2026-05-02T07:22:53.753Z</time></trkpt><trkpt lat="42.4472446" lon="14.121761"><ele>135.0</ele><time>2026-05-02T07:22:54.754Z</time></trkpt><trkpt lat="42.447148" lon="14.1217477"><ele>135.0</ele><time>2026-05-02T07:22:55.751Z</time></trkpt><trkpt lat="42.4470541" lon="14.1217324"><ele>134.4</ele><time>2026-05-02T07:22:56.755Z</time></trkpt><trkpt lat="42.4469666" lon="14.1217164"><ele>133.8</ele><time>2026-05-02T07:22:57.752Z</time></trkpt><trkpt lat="42.4468832" lon="14.1217046"><ele>133.2</ele><time>2026-05-02T07:22:58.754Z</time></trkpt><trkpt lat="42.4467992" lon="14.1216985"><ele>132.6</ele><time>2026-05-02T07:22:59.754Z</time></trkpt><trkpt lat="42.4467087" lon="14.1217005"><ele>132.0</ele><time>2026-05-02T07:23:00.754Z</time></trkpt><trkpt lat="42.4465886" lon="14.1217276"><ele>132.0</ele><time>2026-05-02T07:23:01.751Z</time></trkpt><trkpt lat="42.4464851" lon="14.1217637"><ele>132.0</ele><time>2026-05-02T07:23:02.752Z</time></trkpt><trkpt lat="42.4463985" lon="14.1217863"><ele>132.0</ele><time>2026-05-02T07:23:03.751Z</time></trkpt><trkpt lat="42.4463023" lon="14.121808"><ele>132.0</ele><time>2026-05-02T07:23:04.752Z</time></trkpt><trkpt lat="42.4462091" lon="14.1218268"><ele>132.0</ele><time>2026-05-02T07:23:05.752Z</time></trkpt><trkpt lat="42.4461181" lon="14.1218457"><ele>131.2</ele><time>2026-05-02T07:23:06.753Z</time></trkpt><trkpt lat="42.4460282" lon="14.1218671"><ele>130.39999999999998</ele><time>2026-05-02T07:23:07.752Z</time></trkpt><trkpt lat="42.4459415" lon="14.121891"><ele>129.60000000000002</ele><time>2026-05-02T07:23:08.752Z</time></trkpt><trkpt lat="42.445854" lon="14.1219212"><ele>128.8</ele><time>2026-05-02T07:23:09.752Z</time></trkpt><trkpt lat="42.4457706" lon="14.1219653"><ele>128.0</ele><time>2026-05-02T07:23:10.753Z</time></trkpt><trkpt lat="42.44569" lon="14.1220297"><ele>128.0</ele><time>2026-05-02T07:23:11.755Z</time></trkpt><trkpt lat="42.4456158" lon="14.1221105"><ele>128.0</ele><time>2026-05-02T07:23:12.753Z</time></trkpt><trkpt lat="42.4455426" lon="14.1222027"><ele>128.0</ele><time>2026-05-02T07:23:13.756Z</time></trkpt><trkpt lat="42.4454692" lon="14.1222966"><ele>128.0</ele><time>2026-05-02T07:23:14.753Z</time></trkpt><trkpt lat="42.4453922" lon="14.122392"><ele>128.0</ele><time>2026-05-02T07:23:15.753Z</time></trkpt><trkpt lat="42.4453124" lon="14.1224759"><ele>127.60000000000001</ele><time>2026-05-02T07:23:16.756Z</time></trkpt><trkpt lat="42.4452207" lon="14.1225507"><ele>127.20000000000002</ele><time>2026-05-02T07:23:17.753Z</time></trkpt><trkpt lat="42.4451233" lon="14.1226155"><ele>126.8</ele><time>2026-05-02T07:23:18.753Z</time></trkpt><trkpt lat="42.4450281" lon="14.1226782"><ele>126.4</ele><time>2026-05-02T07:23:19.753Z</time></trkpt><trkpt lat="42.4449302" lon="14.122734"><ele>126.0</ele><time>2026-05-02T07:23:20.753Z</time></trkpt><trkpt lat="42.4448343" lon="14.1227982"><ele>126.0</ele><time>2026-05-02T07:23:21.751Z</time></trkpt><trkpt lat="42.444748" lon="14.1228753"><ele>126.0</ele><time>2026-05-02T07:23:22.753Z</time></trkpt><trkpt lat="42.4446684" lon="14.1229651"><ele>126.0</ele><time>2026-05-02T07:23:23.753Z</time></trkpt><trkpt lat="42.4445911" lon="14.1230628"><ele>126.0</ele><time>2026-05-02T07:23:24.752Z</time></trkpt><trkpt lat="42.4445158" lon="14.1231619"><ele>126.0</ele><time>2026-05-02T07:23:25.752Z</time></trkpt><trkpt lat="42.4444352" lon="14.1232589"><ele>124.6</ele><time>2026-05-02T07:23:26.751Z</time></trkpt><trkpt lat="42.4443507" lon="14.123339"><ele>123.19999999999999</ele><time>2026-05-02T07:23:27.752Z</time></trkpt><trkpt lat="42.444266" lon="14.1234014"><ele>121.80000000000001</ele><time>2026-05-02T07:23:28.753Z</time></trkpt><trkpt lat="42.4441788" lon="14.1234416"><ele>120.4</ele><time>2026-05-02T07:23:29.755Z</time></trkpt><trkpt lat="42.444082" lon="14.1234452"><ele>119.0</ele><time>2026-05-02T07:23:30.754Z</time></trkpt><trkpt lat="42.44398" lon="14.1234369"><ele>119.0</ele><time>2026-05-02T07:23:31.755Z</time></trkpt><trkpt lat="42.4438746" lon="14.1234395"><ele>119.0</ele><time>2026-05-02T07:23:32.755Z</time></trkpt><trkpt lat="42.4437624" lon="14.1234629"><ele>119.0</ele><time>2026-05-02T07:23:33.753Z</time></trkpt><trkpt lat="42.4436441" lon="14.1234971"><ele>119.0</ele><time>2026-05-02T07:23:34.752Z</time></trkpt><trkpt lat="42.4435253" lon="14.1235293"><ele>117.0</ele><time>2026-05-02T07:23:35.754Z</time></trkpt><trkpt lat="42.443407" lon="14.1235631"><ele>115.0</ele><time>2026-05-02T07:23:36.752Z</time></trkpt><trkpt lat="42.4432869" lon="14.1235934"><ele>113.0</ele><time>2026-05-02T07:23:37.753Z</time></trkpt><trkpt lat="42.4431609" lon="14.1236342"><ele>111.0</ele><time>2026-05-02T07:23:38.754Z</time></trkpt><trkpt lat="42.4430292" lon="14.123677"><ele>109.5</ele><time>2026-05-02T07:23:39.754Z</time></trkpt><trkpt lat="42.4429007" lon="14.123722"><ele>108.0</ele><time>2026-05-02T07:23:40.753Z</time></trkpt><trkpt lat="42.4427715" lon="14.1237663"><ele>106.5</ele><time>2026-05-02T07:23:41.752Z</time></trkpt><trkpt lat="42.4426431" lon="14.1238037"><ele>105.0</ele><time>2026-05-02T07:23:42.755Z</time></trkpt><trkpt lat="42.4425103" lon="14.1238384"><ele>105.0</ele><time>2026-05-02T07:23:43.754Z</time></trkpt><trkpt lat="42.4423808" lon="14.1238654"><ele>105.0</ele><time>2026-05-02T07:23:44.756Z</time></trkpt><trkpt lat="42.4422534" lon="14.1238934"><ele>105.0</ele><time>2026-05-02T07:23:45.755Z</time></trkpt><trkpt lat="42.442127" lon="14.1239164"><ele>105.0</ele><time>2026-05-02T07:23:46.753Z</time></trkpt><trkpt lat="42.4419927" lon="14.1239206"><ele>107.0</ele><time>2026-05-02T07:23:47.755Z</time></trkpt><trkpt lat="42.4418591" lon="14.1239151"><ele>109.0</ele><time>2026-05-02T07:23:48.75Z</time></trkpt><trkpt lat="42.44173" lon="14.1239003"><ele>111.0</ele><time>2026-05-02T07:23:49.752Z</time></trkpt><trkpt lat="42.4416034" lon="14.1238763"><ele>113.0</ele><time>2026-05-02T07:23:50.751Z</time></trkpt><trkpt lat="42.4414831" lon="14.1238466"><ele>113.0</ele><time>2026-05-02T07:23:51.752Z</time></trkpt><trkpt lat="42.4413701" lon="14.1238108"><ele>113.0</ele><time>2026-05-02T07:23:52.751Z</time></trkpt><trkpt lat="42.4412564" lon="14.1237485"><ele>113.0</ele><time>2026-05-02T07:23:53.753Z</time></trkpt><trkpt lat="42.4411406" lon="14.1236766"><ele>113.0</ele><time>2026-05-02T07:23:54.753Z</time></trkpt><trkpt lat="42.4410207" lon="14.1236025"><ele>111.25</ele><time>2026-05-02T07:23:55.754Z</time></trkpt><trkpt lat="42.4408996" lon="14.1235237"><ele>109.5</ele><time>2026-05-02T07:23:56.753Z</time></trkpt><trkpt lat="42.4407782" lon="14.1234469"><ele>107.75</ele><time>2026-05-02T07:23:57.754Z</time></trkpt><trkpt lat="42.4406525" lon="14.1233763"><ele>106.0</ele><time>2026-05-02T07:23:58.753Z</time></trkpt><trkpt lat="42.440524" lon="14.1233241"><ele>106.25</ele><time>2026-05-02T07:23:59.753Z</time></trkpt><trkpt lat="42.440396" lon="14.1232852"><ele>106.5</ele><time>2026-05-02T07:24:00.755Z</time></trkpt><trkpt lat="42.4402735" lon="14.1232552"><ele>106.75</ele><time>2026-05-02T07:24:01.754Z</time></trkpt><trkpt lat="42.4401513" lon="14.1232305"><ele>107.0</ele><time>2026-05-02T07:24:02.754Z</time></trkpt><trkpt lat="42.4400302" lon="14.1232166"><ele>107.0</ele><time>2026-05-02T07:24:03.753Z</time></trkpt><trkpt lat="42.4399079" lon="14.1232058"><ele>107.0</ele><time>2026-05-02T07:24:04.753Z</time></trkpt><trkpt lat="42.4397885" lon="14.123206"><ele>107.0</ele><time>2026-05-02T07:24:05.752Z</time></trkpt><trkpt lat="42.4396691" lon="14.1232261"><ele>107.0</ele><time>2026-05-02T07:24:06.752Z</time></trkpt><trkpt lat="42.4395609" lon="14.1232607"><ele>101.6</ele><time>2026-05-02T07:24:07.754Z</time></trkpt><trkpt lat="42.4394553" lon="14.1233046"><ele>96.19999999999999</ele><time>2026-05-02T07:24:08.757Z</time></trkpt><trkpt lat="42.439354" lon="14.123348"><ele>90.8</ele><time>2026-05-02T07:24:09.754Z</time></trkpt><trkpt lat="42.4392488" lon="14.1233916"><ele>85.4</ele><time>2026-05-02T07:24:10.755Z</time></trkpt><trkpt lat="42.4391379" lon="14.1234339"><ele>80.0</ele><time>2026-05-02T07:24:11.754Z</time></trkpt><trkpt lat="42.4390157" lon="14.1234658"><ele>80.0</ele><time>2026-05-02T07:24:12.755Z</time></trkpt><trkpt lat="42.4388826" lon="14.1234854"><ele>80.0</ele><time>2026-05-02T07:24:13.754Z</time></trkpt><trkpt lat="42.4387412" lon="14.1235038"><ele>80.0</ele><time>2026-05-02T07:24:14.755Z</time></trkpt><trkpt lat="42.4385988" lon="14.1235301"><ele>80.0</ele><time>2026-05-02T07:24:15.752Z</time></trkpt><trkpt lat="42.4384595" lon="14.123565"><ele>77.25</ele><time>2026-05-02T07:24:16.755Z</time></trkpt><trkpt lat="42.4383217" lon="14.1236085"><ele>74.5</ele><time>2026-05-02T07:24:17.752Z</time></trkpt><trkpt lat="42.4381925" lon="14.1236498"><ele>71.75</ele><time>2026-05-02T07:24:18.756Z</time></trkpt><trkpt lat="42.4380733" lon="14.1236886"><ele>69.0</ele><time>2026-05-02T07:24:19.753Z</time></trkpt><trkpt lat="42.4379654" lon="14.1237194"><ele>68.8</ele><time>2026-05-02T07:24:20.754Z</time></trkpt><trkpt lat="42.4378589" lon="14.1237419"><ele>68.60000000000001</ele><time>2026-05-02T07:24:21.751Z</time></trkpt><trkpt lat="42.4377559" lon="14.1237555"><ele>68.4</ele><time>2026-05-02T07:24:22.753Z</time></trkpt><trkpt lat="42.4376651" lon="14.1237459"><ele>68.2</ele><time>2026-05-02T07:24:23.752Z</time></trkpt><trkpt lat="42.4375741" lon="14.1237172"><ele>68.0</ele><time>2026-05-02T07:24:24.753Z</time></trkpt><trkpt lat="42.4374835" lon="14.1236819"><ele>68.0</ele><time>2026-05-02T07:24:25.751Z</time></trkpt><trkpt lat="42.4373933" lon="14.1236636"><ele>68.0</ele><time>2026-05-02T07:24:26.751Z</time></trkpt><trkpt lat="42.4373082" lon="14.1236452"><ele>68.0</ele><time>2026-05-02T07:24:27.75Z</time></trkpt><trkpt lat="42.4372246" lon="14.1236079"><ele>68.0</ele><time>2026-05-02T07:24:28.757Z</time></trkpt><trkpt lat="42.4371363" lon="14.1235425"><ele>68.0</ele><time>2026-05-02T07:24:29.757Z</time></trkpt><trkpt lat="42.4370384" lon="14.1234718"><ele>65.5</ele><time>2026-05-02T07:24:30.757Z</time></trkpt><trkpt lat="42.4369263" lon="14.1234137"><ele>63.0</ele><time>2026-05-02T07:24:31.751Z</time></trkpt><trkpt lat="42.4368117" lon="14.1233602"><ele>60.5</ele><time>2026-05-02T07:24:32.753Z</time></trkpt><trkpt lat="42.4367017" lon="14.1233226"><ele>58.0</ele><time>2026-05-02T07:24:33.751Z</time></trkpt><trkpt lat="42.4366068" lon="14.1232919"><ele>57.99999999999999</ele><time>2026-05-02T07:24:34.752Z</time></trkpt><trkpt lat="42.4365276" lon="14.1232701"><ele>58.0</ele><time>2026-05-02T07:24:35.753Z</time></trkpt><trkpt lat="42.4364547" lon="14.1232521"><ele>58.0</ele><time>2026-05-02T07:24:36.755Z</time></trkpt><trkpt lat="42.4363837" lon="14.1232386"><ele>58.0</ele><time>2026-05-02T07:24:37.752Z</time></trkpt><trkpt lat="42.4363107" lon="14.1232166"><ele>57.99999999999999</ele><time>2026-05-02T07:24:38.754Z</time></trkpt><trkpt lat="42.4362485" lon="14.1231966"><ele>58.0</ele><time>2026-05-02T07:24:39.753Z</time></trkpt><trkpt lat="42.436128" lon="14.1231543"><ele>58.99999999999999</ele><time>2026-05-02T07:24:41.754Z</time></trkpt><trkpt lat="42.4360507" lon="14.1231307"><ele>60.0</ele><time>2026-05-02T07:24:42.752Z</time></trkpt><trkpt lat="42.4359627" lon="14.1231033"><ele>61.0</ele><time>2026-05-02T07:24:43.757Z</time></trkpt><trkpt lat="42.4358728" lon="14.1230736"><ele>62.0</ele><time>2026-05-02T07:24:44.753Z</time></trkpt><trkpt lat="42.4357882" lon="14.1230589"><ele>62.99999999999999</ele><time>2026-05-02T07:24:45.753Z</time></trkpt><trkpt lat="42.4357089" lon="14.1230673"><ele>64.0</ele><time>2026-05-02T07:24:46.754Z</time></trkpt><trkpt lat="42.4356292" lon="14.1230983"><ele>64.0</ele><time>2026-05-02T07:24:47.756Z</time></trkpt><trkpt lat="42.4355402" lon="14.1231593"><ele>64.0</ele><time>2026-05-02T07:24:48.754Z</time></trkpt><trkpt lat="42.4354304" lon="14.1232718"><ele>64.0</ele><time>2026-05-02T07:24:49.757Z</time></trkpt><trkpt lat="42.4352872" lon="14.1234266"><ele>64.0</ele><time>2026-05-02T07:24:50.752Z</time></trkpt><trkpt lat="42.4351187" lon="14.1236213"><ele>65.0</ele><time>2026-05-02T07:24:51.756Z</time></trkpt><trkpt lat="42.4349105" lon="14.1238717"><ele>66.0</ele><time>2026-05-02T07:24:52.752Z</time></trkpt><trkpt lat="42.4346955" lon="14.1241483"><ele>65.0</ele><time>2026-05-02T07:24:53.751Z</time></trkpt><trkpt lat="42.4344576" lon="14.1244606"><ele>64.0</ele><time>2026-05-02T07:24:54.753Z</time></trkpt><trkpt lat="42.4342424" lon="14.1247599"><ele>62.5</ele><time>2026-05-02T07:24:55.757Z</time></trkpt><trkpt lat="42.4340237" lon="14.1250658"><ele>61.0</ele><time>2026-05-02T07:24:56.753Z</time></trkpt><trkpt lat="42.4337926" lon="14.1253887"><ele>61.0</ele><time>2026-05-02T07:24:57.754Z</time></trkpt><trkpt lat="42.4335783" lon="14.125686"><ele>61.0</ele><time>2026-05-02T07:24:58.755Z</time></trkpt><trkpt lat="42.433365" lon="14.125978"><ele>57.0</ele><time>2026-05-02T07:24:59.75Z</time></trkpt><trkpt lat="42.4331782" lon="14.1262345"><ele>53.0</ele><time>2026-05-02T07:25:00.751Z</time></trkpt><trkpt lat="42.4330262" lon="14.1264382"><ele>53.0</ele><time>2026-05-02T07:25:01.756Z</time></trkpt><trkpt lat="42.432901" lon="14.1265963"><ele>53.0</ele><time>2026-05-02T07:25:02.753Z</time></trkpt><trkpt lat="42.4328088" lon="14.1267123"><ele>53.0</ele><time>2026-05-02T07:25:03.751Z</time></trkpt><trkpt lat="42.4327424" lon="14.1267916"><ele>53.0</ele><time>2026-05-02T07:25:04.753Z</time></trkpt><trkpt lat="42.4326876" lon="14.126878"><ele>53.0</ele><time>2026-05-02T07:25:06.753Z</time></trkpt><trkpt lat="42.4328003" lon="14.126784"><ele>53.0</ele><time>2026-05-02T07:25:12.757Z</time></trkpt><trkpt lat="42.4328917" lon="14.1266335"><ele>53.0</ele><time>2026-05-02T07:25:13.755Z</time></trkpt><trkpt lat="42.4330076" lon="14.1264636"><ele>53.0</ele><time>2026-05-02T07:25:14.754Z</time></trkpt><trkpt lat="42.4331532" lon="14.1262817"><ele>53.0</ele><time>2026-05-02T07:25:15.756Z</time></trkpt><trkpt lat="42.4332876" lon="14.1261163"><ele>53.0</ele><time>2026-05-02T07:25:16.753Z</time></trkpt><trkpt lat="42.4334111" lon="14.1259562"><ele>53.0</ele><time>2026-05-02T07:25:17.753Z</time></trkpt><trkpt lat="42.4335233" lon="14.1258042"><ele>54.599999999999994</ele><time>2026-05-02T07:25:18.751Z</time></trkpt><trkpt lat="42.4336079" lon="14.1256885"><ele>56.199999999999996</ele><time>2026-05-02T07:25:19.75Z</time></trkpt><trkpt lat="42.4336698" lon="14.1256019"><ele>57.8</ele><time>2026-05-02T07:25:20.752Z</time></trkpt><trkpt lat="42.4337048" lon="14.125483"><ele>59.4</ele><time>2026-05-02T07:25:22.752Z</time></trkpt><trkpt lat="42.4336371" lon="14.1253805"><ele>61.0</ele><time>2026-05-02T07:25:25.757Z</time></trkpt><trkpt lat="42.4335608" lon="14.1252828"><ele>61.0</ele><time>2026-05-02T07:25:27.757Z</time></trkpt><trkpt lat="42.4334805" lon="14.1251768"><ele>60.99999999999999</ele><time>2026-05-02T07:25:29.753Z</time></trkpt><trkpt lat="42.4333948" lon="14.1251116"><ele>60.99999999999999</ele><time>2026-05-02T07:25:31.755Z</time></trkpt><trkpt lat="42.4333304" lon="14.1251205"><ele>61.0</ele><time>2026-05-02T07:25:33.756Z</time></trkpt><trkpt lat="42.4332487" lon="14.1252233"><ele>61.0</ele><time>2026-05-02T07:25:35.75Z</time></trkpt><trkpt lat="42.4331872" lon="14.1252825"><ele>60.99999999999999</ele><time>2026-05-02T07:25:36.752Z</time></trkpt><trkpt lat="42.4331148" lon="14.1253426"><ele>61.0</ele><time>2026-05-02T07:25:37.756Z</time></trkpt><trkpt lat="42.4330327" lon="14.1254062"><ele>61.0</ele><time>2026-05-02T07:25:38.752Z</time></trkpt><trkpt lat="42.4329507" lon="14.1254694"><ele>61.0</ele><time>2026-05-02T07:25:39.757Z</time></trkpt><trkpt lat="42.4328753" lon="14.1255248"><ele>60.99999999999999</ele><time>2026-05-02T07:25:40.753Z</time></trkpt><trkpt lat="42.4328037" lon="14.1255808"><ele>61.0</ele><time>2026-05-02T07:25:41.755Z</time></trkpt><trkpt lat="42.4327456" lon="14.1256392"><ele>61.28571428571428</ele><time>2026-05-02T07:25:42.752Z</time></trkpt><trkpt lat="42.4326898" lon="14.1256966"><ele>61.57142857142857</ele><time>2026-05-02T07:25:43.755Z</time></trkpt><trkpt lat="42.4326346" lon="14.1257634"><ele>61.857142857142854</ele><time>2026-05-02T07:25:44.75Z</time></trkpt><trkpt lat="42.432578" lon="14.1258259"><ele>62.14285714285714</ele><time>2026-05-02T07:25:45.751Z</time></trkpt><trkpt lat="42.4325232" lon="14.1258808"><ele>62.42857142857143</ele><time>2026-05-02T07:25:46.752Z</time></trkpt><trkpt lat="42.4324657" lon="14.1259176"><ele>62.714285714285715</ele><time>2026-05-02T07:25:47.754Z</time></trkpt><trkpt lat="42.4324063" lon="14.1259541"><ele>63.0</ele><time>2026-05-02T07:25:48.752Z</time></trkpt><trkpt lat="42.4323459" lon="14.1259889"><ele>63.0</ele><time>2026-05-02T07:25:49.754Z</time></trkpt><trkpt lat="42.4322382" lon="14.1260543"><ele>63.0</ele><time>2026-05-02T07:25:51.753Z</time></trkpt><trkpt lat="42.4321274" lon="14.1261198"><ele>63.0</ele><time>2026-05-02T07:25:53.752Z</time></trkpt><trkpt lat="42.4320231" lon="14.1261871"><ele>63.0</ele><time>2026-05-02T07:25:55.751Z</time></trkpt><trkpt lat="42.4319388" lon="14.1262278"><ele>63.0</ele><time>2026-05-02T07:25:57.752Z</time></trkpt><trkpt lat="42.4318754" lon="14.1262545"><ele>64.5</ele><time>2026-05-02T07:25:59.757Z</time></trkpt><trkpt lat="42.4317883" lon="14.1262771"><ele>66.0</ele><time>2026-05-02T07:26:01.755Z</time></trkpt><trkpt lat="42.4316715" lon="14.1263013"><ele>67.5</ele><time>2026-05-02T07:26:03.757Z</time></trkpt><trkpt lat="42.4316051" lon="14.1263055"><ele>69.0</ele><time>2026-05-02T07:26:04.755Z</time></trkpt><trkpt lat="42.4315348" lon="14.1263115"><ele>70.5</ele><time>2026-05-02T07:26:05.756Z</time></trkpt><trkpt lat="42.4314618" lon="14.1263216"><ele>72.0</ele><time>2026-05-02T07:26:06.754Z</time></trkpt><trkpt lat="42.4313864" lon="14.1263395"><ele>72.0</ele><time>2026-05-02T07:26:07.756Z</time></trkpt><trkpt lat="42.4313113" lon="14.1263605"><ele>72.0</ele><time>2026-05-02T07:26:08.752Z</time></trkpt><trkpt lat="42.4312419" lon="14.12638"><ele>72.0</ele><time>2026-05-02T07:26:09.751Z</time></trkpt><trkpt lat="42.4311738" lon="14.1264031"><ele>72.0</ele><time>2026-05-02T07:26:10.75Z</time></trkpt><trkpt lat="42.4310998" lon="14.1264318"><ele>72.0</ele><time>2026-05-02T07:26:11.752Z</time></trkpt><trkpt lat="42.4310235" lon="14.1264674"><ele>72.0</ele><time>2026-05-02T07:26:12.755Z</time></trkpt><trkpt lat="42.4309486" lon="14.1265127"><ele>72.66666666666667</ele><time>2026-05-02T07:26:13.751Z</time></trkpt><trkpt lat="42.4308785" lon="14.1265658"><ele>73.33333333333333</ele><time>2026-05-02T07:26:14.753Z</time></trkpt><trkpt lat="42.4308136" lon="14.1266249"><ele>74.0</ele><time>2026-05-02T07:26:15.751Z</time></trkpt><trkpt lat="42.4307517" lon="14.12669"><ele>74.66666666666666</ele><time>2026-05-02T07:26:16.754Z</time></trkpt><trkpt lat="42.4306936" lon="14.1267563"><ele>75.33333333333333</ele><time>2026-05-02T07:26:17.754Z</time></trkpt><trkpt lat="42.4306353" lon="14.1268166"><ele>76.0</ele><time>2026-05-02T07:26:18.755Z</time></trkpt><trkpt lat="42.4305697" lon="14.1268667"><ele>76.0</ele><time>2026-05-02T07:26:19.752Z</time></trkpt><trkpt lat="42.4305061" lon="14.126899"><ele>76.0</ele><time>2026-05-02T07:26:20.754Z</time></trkpt><trkpt lat="42.4303969" lon="14.1269088"><ele>76.0</ele><time>2026-05-02T07:26:22.755Z</time></trkpt><trkpt lat="42.43031" lon="14.1268814"><ele>76.0</ele><time>2026-05-02T07:26:24.755Z</time></trkpt><trkpt lat="42.4302517" lon="14.126805"><ele>76.0</ele><time>2026-05-02T07:26:28.754Z</time></trkpt><trkpt lat="42.4301886" lon="14.1267145"><ele>76.0</ele><time>2026-05-02T07:26:35.753Z</time></trkpt><trkpt lat="42.4301026" lon="14.1267033"><ele>76.83333333333333</ele><time>2026-05-02T07:26:38.754Z</time></trkpt><trkpt lat="42.4300312" lon="14.1267414"><ele>77.66666666666666</ele><time>2026-05-02T07:26:40.753Z</time></trkpt><trkpt lat="42.4299576" lon="14.1267887"><ele>78.5</ele><time>2026-05-02T07:26:42.76Z</time></trkpt><trkpt lat="42.4298749" lon="14.1268185"><ele>79.33333333333333</ele><time>2026-05-02T07:26:44.755Z</time></trkpt><trkpt lat="42.4297972" lon="14.1268489"><ele>80.16666666666667</ele><time>2026-05-02T07:26:46.749Z</time></trkpt><trkpt lat="42.4297147" lon="14.126877"><ele>81.0</ele><time>2026-05-02T07:26:48.751Z</time></trkpt><trkpt lat="42.4296254" lon="14.1268983"><ele>78.2</ele><time>2026-05-02T07:26:50.754Z</time></trkpt><trkpt lat="42.4295174" lon="14.1269107"><ele>75.39999999999999</ele><time>2026-05-02T07:26:52.753Z</time></trkpt><trkpt lat="42.4294026" lon="14.1269042"><ele>72.6</ele><time>2026-05-02T07:26:54.753Z</time></trkpt><trkpt lat="42.429288" lon="14.1268985"><ele>69.8</ele><time>2026-05-02T07:26:56.752Z</time></trkpt><trkpt lat="42.4291887" lon="14.1268748"><ele>67.0</ele><time>2026-05-02T07:26:58.752Z</time></trkpt><trkpt lat="42.4290792" lon="14.1268627"><ele>67.0</ele><time>2026-05-02T07:27:00.751Z</time></trkpt><trkpt lat="42.4290151" lon="14.1268562"><ele>67.0</ele><time>2026-05-02T07:27:01.755Z</time></trkpt><trkpt lat="42.4289019" lon="14.1268018"><ele>67.0</ele><time>2026-05-02T07:27:03.755Z</time></trkpt><trkpt lat="42.4287978" lon="14.1267253"><ele>67.0</ele><time>2026-05-02T07:27:05.753Z</time></trkpt><trkpt lat="42.428716" lon="14.1266124"><ele>67.0</ele><time>2026-05-02T07:27:07.753Z</time></trkpt><trkpt lat="42.4286597" lon="14.1265013"><ele>64.0</ele><time>2026-05-02T07:27:09.753Z</time></trkpt><trkpt lat="42.4286" lon="14.1263992"><ele>61.0</ele><time>2026-05-02T07:27:11.754Z</time></trkpt><trkpt lat="42.4285443" lon="14.1263034"><ele>58.0</ele><time>2026-05-02T07:27:13.752Z</time></trkpt><trkpt lat="42.4284743" lon="14.1261964"><ele>55.0</ele><time>2026-05-02T07:27:15.753Z</time></trkpt><trkpt lat="42.4283785" lon="14.1260809"><ele>52.0</ele><time>2026-05-02T07:27:17.754Z</time></trkpt><trkpt lat="42.4283216" lon="14.1260427"><ele>51.99999999999999</ele><time>2026-05-02T07:27:18.754Z</time></trkpt><trkpt lat="42.4282191" lon="14.1260282"><ele>52.0</ele><time>2026-05-02T07:27:20.753Z</time></trkpt><trkpt lat="42.4281372" lon="14.1260222"><ele>52.0</ele><time>2026-05-02T07:27:22.756Z</time></trkpt><trkpt lat="42.4280664" lon="14.1260321"><ele>52.0</ele><time>2026-05-02T07:27:24.754Z</time></trkpt><trkpt lat="42.4279778" lon="14.1260382"><ele>51.99999999999999</ele><time>2026-05-02T07:27:26.753Z</time></trkpt><trkpt lat="42.4278911" lon="14.1260362"><ele>52.0</ele><time>2026-05-02T07:27:28.752Z</time></trkpt><trkpt lat="42.4277802" lon="14.1260142"><ele>51.0</ele><time>2026-05-02T07:27:30.753Z</time></trkpt><trkpt lat="42.4277174" lon="14.1259873"><ele>50.0</ele><time>2026-05-02T07:27:31.754Z</time></trkpt><trkpt lat="42.4276561" lon="14.1259527"><ele>49.0</ele><time>2026-05-02T07:27:32.752Z</time></trkpt><trkpt lat="42.4275922" lon="14.1259269"><ele>48.0</ele><time>2026-05-02T07:27:33.752Z</time></trkpt><trkpt lat="42.4275271" lon="14.1258899"><ele>47.0</ele><time>2026-05-02T07:27:34.754Z</time></trkpt><trkpt lat="42.4274649" lon="14.1258497"><ele>46.0</ele><time>2026-05-02T07:27:35.752Z</time></trkpt><trkpt lat="42.4274009" lon="14.1258133"><ele>45.0</ele><time>2026-05-02T07:27:36.755Z</time></trkpt><trkpt lat="42.4273342" lon="14.1257794"><ele>45.0</ele><time>2026-05-02T07:27:37.752Z</time></trkpt><trkpt lat="42.4272644" lon="14.1257498"><ele>45.0</ele><time>2026-05-02T07:27:38.753Z</time></trkpt><trkpt lat="42.4271969" lon="14.1257316"><ele>45.0</ele><time>2026-05-02T07:27:39.754Z</time></trkpt><trkpt lat="42.4270783" lon="14.1257163"><ele>45.0</ele><time>2026-05-02T07:27:41.752Z</time></trkpt><trkpt lat="42.4269899" lon="14.1257133"><ele>45.0</ele><time>2026-05-02T07:27:43.753Z</time></trkpt><trkpt lat="42.4269244" lon="14.1256934"><ele>45.0</ele><time>2026-05-02T07:27:45.754Z</time></trkpt><trkpt lat="42.4268414" lon="14.1256375"><ele>43.2</ele><time>2026-05-02T07:27:48.752Z</time></trkpt><trkpt lat="42.4267835" lon="14.1255697"><ele>41.4</ele><time>2026-05-02T07:27:51.756Z</time></trkpt><trkpt lat="42.4267393" lon="14.1254258"><ele>39.6</ele><time>2026-05-02T07:27:54.752Z</time></trkpt><trkpt lat="42.426728" lon="14.1253315"><ele>37.8</ele><time>2026-05-02T07:27:55.753Z</time></trkpt><trkpt lat="42.4267158" lon="14.1252185"><ele>36.0</ele><time>2026-05-02T07:27:56.752Z</time></trkpt><trkpt lat="42.4266975" lon="14.1250716"><ele>36.0</ele><time>2026-05-02T07:27:57.753Z</time></trkpt><trkpt lat="42.4266736" lon="14.1249342"><ele>36.0</ele><time>2026-05-02T07:27:58.752Z</time></trkpt><trkpt lat="42.426644" lon="14.1248008"><ele>36.0</ele><time>2026-05-02T07:27:59.751Z</time></trkpt><trkpt lat="42.4266133" lon="14.1246754"><ele>36.0</ele><time>2026-05-02T07:28:00.753Z</time></trkpt><trkpt lat="42.4265859" lon="14.124565"><ele>36.0</ele><time>2026-05-02T07:28:01.752Z</time></trkpt><trkpt lat="42.4265639" lon="14.1244626"><ele>36.5</ele><time>2026-05-02T07:28:02.751Z</time></trkpt><trkpt lat="42.426545" lon="14.124374"><ele>37.0</ele><time>2026-05-02T07:28:03.751Z</time></trkpt><trkpt lat="42.4265102" lon="14.1242216"><ele>37.5</ele><time>2026-05-02T07:28:05.751Z</time></trkpt><trkpt lat="42.4264883" lon="14.1241377"><ele>38.0</ele><time>2026-05-02T07:28:06.751Z</time></trkpt><trkpt lat="42.4264638" lon="14.1240457"><ele>38.5</ele><time>2026-05-02T07:28:07.753Z</time></trkpt><trkpt lat="42.4264339" lon="14.1239535"><ele>39.0</ele><time>2026-05-02T07:28:08.753Z</time></trkpt><trkpt lat="42.4264037" lon="14.1238559"><ele>38.833333333333336</ele><time>2026-05-02T07:28:09.751Z</time></trkpt><trkpt lat="42.4263736" lon="14.123753"><ele>38.666666666666664</ele><time>2026-05-02T07:28:10.752Z</time></trkpt><trkpt lat="42.4263516" lon="14.1236383"><ele>38.5</ele><time>2026-05-02T07:28:11.753Z</time></trkpt><trkpt lat="42.4263276" lon="14.1235303"><ele>38.33333333333333</ele><time>2026-05-02T07:28:12.751Z</time></trkpt><trkpt lat="42.4263077" lon="14.1234208"><ele>38.166666666666664</ele><time>2026-05-02T07:28:13.754Z</time></trkpt><trkpt lat="42.4262874" lon="14.1233092"><ele>38.0</ele><time>2026-05-02T07:28:14.752Z</time></trkpt><trkpt lat="42.4262679" lon="14.1231958"><ele>38.0</ele><time>2026-05-02T07:28:15.752Z</time></trkpt><trkpt lat="42.4262502" lon="14.1230746"><ele>38.0</ele><time>2026-05-02T07:28:16.752Z</time></trkpt><trkpt lat="42.4262316" lon="14.1229508"><ele>38.0</ele><time>2026-05-02T07:28:17.752Z</time></trkpt><trkpt lat="42.4262151" lon="14.1228275"><ele>38.0</ele><time>2026-05-02T07:28:18.754Z</time></trkpt><trkpt lat="42.4261988" lon="14.1227088"><ele>38.0</ele><time>2026-05-02T07:28:19.753Z</time></trkpt><trkpt lat="42.4261806" lon="14.1225885"><ele>38.0</ele><time>2026-05-02T07:28:20.753Z</time></trkpt><trkpt lat="42.426164" lon="14.1224709"><ele>38.0</ele><time>2026-05-02T07:28:21.753Z</time></trkpt><trkpt lat="42.4261467" lon="14.1223574"><ele>38.0</ele><time>2026-05-02T07:28:22.753Z</time></trkpt><trkpt lat="42.426133" lon="14.1222448"><ele>38.0</ele><time>2026-05-02T07:28:23.752Z</time></trkpt><trkpt lat="42.4261254" lon="14.1221199"><ele>38.0</ele><time>2026-05-02T07:28:24.753Z</time></trkpt><trkpt lat="42.4261119" lon="14.1219908"><ele>38.0</ele><time>2026-05-02T07:28:25.753Z</time></trkpt><trkpt lat="42.4260996" lon="14.1218576"><ele>38.199999999999996</ele><time>2026-05-02T07:28:26.753Z</time></trkpt><trkpt lat="42.4260837" lon="14.1217174"><ele>38.4</ele><time>2026-05-02T07:28:27.752Z</time></trkpt><trkpt lat="42.4260692" lon="14.1215741"><ele>38.599999999999994</ele><time>2026-05-02T07:28:28.757Z</time></trkpt><trkpt lat="42.4260482" lon="14.1214248"><ele>38.8</ele><time>2026-05-02T07:28:29.753Z</time></trkpt><trkpt lat="42.4260236" lon="14.1212799"><ele>39.0</ele><time>2026-05-02T07:28:30.752Z</time></trkpt><trkpt lat="42.4259927" lon="14.1211246"><ele>39.666666666666664</ele><time>2026-05-02T07:28:31.753Z</time></trkpt><trkpt lat="42.425936" lon="14.1209376"><ele>40.33333333333333</ele><time>2026-05-02T07:28:32.753Z</time></trkpt><trkpt lat="42.4258635" lon="14.1207342"><ele>41.0</ele><time>2026-05-02T07:28:33.751Z</time></trkpt><trkpt lat="42.4257856" lon="14.12053"><ele>42.33333333333333</ele><time>2026-05-02T07:28:34.753Z</time></trkpt><trkpt lat="42.4257082" lon="14.1203049"><ele>43.666666666666664</ele><time>2026-05-02T07:28:35.753Z</time></trkpt><trkpt lat="42.4256315" lon="14.1200631"><ele>45.0</ele><time>2026-05-02T07:28:36.751Z</time></trkpt><trkpt lat="42.4255591" lon="14.1198261"><ele>47.0</ele><time>2026-05-02T07:28:37.753Z</time></trkpt><trkpt lat="42.425501" lon="14.1195806"><ele>49.0</ele><time>2026-05-02T07:28:38.753Z</time></trkpt><trkpt lat="42.4254565" lon="14.1193252"><ele>51.0</ele><time>2026-05-02T07:28:39.751Z</time></trkpt><trkpt lat="42.4254155" lon="14.1190691"><ele>47.0</ele><time>2026-05-02T07:28:40.755Z</time></trkpt><trkpt lat="42.425375" lon="14.1188104"><ele>43.0</ele><time>2026-05-02T07:28:41.753Z</time></trkpt><trkpt lat="42.4253348" lon="14.1185486"><ele>39.0</ele><time>2026-05-02T07:28:42.752Z</time></trkpt><trkpt lat="42.4252924" lon="14.118287"><ele>39.333333333333336</ele><time>2026-05-02T07:28:43.753Z</time></trkpt><trkpt lat="42.4252513" lon="14.1180253"><ele>39.66666666666667</ele><time>2026-05-02T07:28:44.75Z</time></trkpt><trkpt lat="42.4252108" lon="14.1177628"><ele>40.0</ele><time>2026-05-02T07:28:45.752Z</time></trkpt><trkpt lat="42.4251714" lon="14.1174969"><ele>41.333333333333336</ele><time>2026-05-02T07:28:46.754Z</time></trkpt><trkpt lat="42.4251381" lon="14.1172291"><ele>42.666666666666664</ele><time>2026-05-02T07:28:47.753Z</time></trkpt><trkpt lat="42.4251168" lon="14.1169565"><ele>44.0</ele><time>2026-05-02T07:28:48.755Z</time></trkpt><trkpt lat="42.4250989" lon="14.1166876"><ele>44.0</ele><time>2026-05-02T07:28:49.754Z</time></trkpt><trkpt lat="42.4250826" lon="14.1164213"><ele>44.0</ele><time>2026-05-02T07:28:50.754Z</time></trkpt><trkpt lat="42.4250632" lon="14.116154"><ele>44.0</ele><time>2026-05-02T07:28:51.755Z</time></trkpt><trkpt lat="42.425045" lon="14.1158878"><ele>44.33333333333333</ele><time>2026-05-02T07:28:52.753Z</time></trkpt><trkpt lat="42.4250273" lon="14.1156249"><ele>44.666666666666664</ele><time>2026-05-02T07:28:53.752Z</time></trkpt><trkpt lat="42.4250095" lon="14.115364"><ele>45.0</ele><time>2026-05-02T07:28:54.751Z</time></trkpt><trkpt lat="42.4249931" lon="14.1151049"><ele>46.0</ele><time>2026-05-02T07:28:55.752Z</time></trkpt><trkpt lat="42.4249746" lon="14.1148499"><ele>47.0</ele><time>2026-05-02T07:28:56.753Z</time></trkpt><trkpt lat="42.424956" lon="14.1145974"><ele>48.0</ele><time>2026-05-02T07:28:57.752Z</time></trkpt><trkpt lat="42.4249392" lon="14.11435"><ele>48.0</ele><time>2026-05-02T07:28:58.752Z</time></trkpt><trkpt lat="42.424924" lon="14.114104"><ele>48.0</ele><time>2026-05-02T07:28:59.753Z</time></trkpt><trkpt lat="42.4249085" lon="14.1138579"><ele>48.0</ele><time>2026-05-02T07:29:00.754Z</time></trkpt><trkpt lat="42.424891" lon="14.1136116"><ele>48.66666666666667</ele><time>2026-05-02T07:29:01.755Z</time></trkpt><trkpt lat="42.4248745" lon="14.1133722"><ele>49.333333333333336</ele><time>2026-05-02T07:29:02.755Z</time></trkpt><trkpt lat="42.424865" lon="14.1131487"><ele>50.0</ele><time>2026-05-02T07:29:03.752Z</time></trkpt><trkpt lat="42.4248685" lon="14.112922"><ele>50.66666666666667</ele><time>2026-05-02T07:29:04.753Z</time></trkpt><trkpt lat="42.4248968" lon="14.1126896"><ele>51.33333333333333</ele><time>2026-05-02T07:29:05.751Z</time></trkpt><trkpt lat="42.4249396" lon="14.1124571"><ele>52.0</ele><time>2026-05-02T07:29:06.751Z</time></trkpt><trkpt lat="42.4249877" lon="14.1122289"><ele>50.666666666666664</ele><time>2026-05-02T07:29:07.754Z</time></trkpt><trkpt lat="42.4250379" lon="14.1120084"><ele>49.33333333333333</ele><time>2026-05-02T07:29:08.755Z</time></trkpt><trkpt lat="42.4250897" lon="14.1118001"><ele>48.0</ele><time>2026-05-02T07:29:09.756Z</time></trkpt><trkpt lat="42.4251503" lon="14.1116052"><ele>48.0</ele><time>2026-05-02T07:29:10.753Z</time></trkpt><trkpt lat="42.4252346" lon="14.1114354"><ele>48.0</ele><time>2026-05-02T07:29:11.755Z</time></trkpt><trkpt lat="42.4253346" lon="14.1112888"><ele>48.0</ele><time>2026-05-02T07:29:12.751Z</time></trkpt><trkpt lat="42.4254377" lon="14.1111504"><ele>48.0</ele><time>2026-05-02T07:29:13.753Z</time></trkpt><trkpt lat="42.4255382" lon="14.1110221"><ele>48.0</ele><time>2026-05-02T07:29:14.753Z</time></trkpt><trkpt lat="42.4256135" lon="14.1109375"><ele>48.0</ele><time>2026-05-02T07:29:15.751Z</time></trkpt><trkpt lat="42.4256717" lon="14.1108862"><ele>48.0</ele><time>2026-05-02T07:29:16.754Z</time></trkpt><trkpt lat="42.4257168" lon="14.1108137"><ele>48.0</ele><time>2026-05-02T07:29:18.752Z</time></trkpt><trkpt lat="42.4256504" lon="14.1108127"><ele>48.0</ele><time>2026-05-02T07:29:22.751Z</time></trkpt><trkpt lat="42.4255409" lon="14.1109523"><ele>47.0</ele><time>2026-05-02T07:29:24.753Z</time></trkpt><trkpt lat="42.4254599" lon="14.1110473"><ele>46.0</ele><time>2026-05-02T07:29:25.754Z</time></trkpt><trkpt lat="42.4253783" lon="14.1111383"><ele>45.0</ele><time>2026-05-02T07:29:26.755Z</time></trkpt><trkpt lat="42.4252999" lon="14.1112313"><ele>44.0</ele><time>2026-05-02T07:29:27.753Z</time></trkpt><trkpt lat="42.425235" lon="14.1113106"><ele>43.0</ele><time>2026-05-02T07:29:28.754Z</time></trkpt><trkpt lat="42.425176" lon="14.1113679"><ele>43.0</ele><time>2026-05-02T07:29:29.753Z</time></trkpt><trkpt lat="42.4251069" lon="14.111419"><ele>43.0</ele><time>2026-05-02T07:29:30.753Z</time></trkpt><trkpt lat="42.4250204" lon="14.111492"><ele>43.0</ele><time>2026-05-02T07:29:31.752Z</time></trkpt><trkpt lat="42.4249302" lon="14.1115676"><ele>43.0</ele><time>2026-05-02T07:29:32.753Z</time></trkpt><trkpt lat="42.4248357" lon="14.1116438"><ele>43.0</ele><time>2026-05-02T07:29:33.754Z</time></trkpt><trkpt lat="42.4247385" lon="14.1117062"><ele>42.8</ele><time>2026-05-02T07:29:34.752Z</time></trkpt><trkpt lat="42.424637" lon="14.1117621"><ele>42.599999999999994</ele><time>2026-05-02T07:29:35.752Z</time></trkpt><trkpt lat="42.4245341" lon="14.1118084"><ele>42.400000000000006</ele><time>2026-05-02T07:29:36.753Z</time></trkpt><trkpt lat="42.4244332" lon="14.111841"><ele>42.2</ele><time>2026-05-02T07:29:37.754Z</time></trkpt><trkpt lat="42.4243295" lon="14.1118679"><ele>42.0</ele><time>2026-05-02T07:29:38.751Z</time></trkpt><trkpt lat="42.4242329" lon="14.1118912"><ele>42.0</ele><time>2026-05-02T07:29:39.753Z</time></trkpt><trkpt lat="42.4241477" lon="14.1119111"><ele>42.0</ele><time>2026-05-02T07:29:40.751Z</time></trkpt><trkpt lat="42.4240657" lon="14.111937"><ele>42.0</ele><time>2026-05-02T07:29:41.751Z</time></trkpt><trkpt lat="42.4239841" lon="14.1119597"><ele>42.0</ele><time>2026-05-02T07:29:42.753Z</time></trkpt><trkpt lat="42.4239009" lon="14.1119891"><ele>42.0</ele><time>2026-05-02T07:29:43.754Z</time></trkpt><trkpt lat="42.4238138" lon="14.1120176"><ele>42.0</ele><time>2026-05-02T07:29:44.753Z</time></trkpt><trkpt lat="42.423725" lon="14.1120258"><ele>41.166666666666664</ele><time>2026-05-02T07:29:45.754Z</time></trkpt><trkpt lat="42.4236384" lon="14.112019"><ele>40.333333333333336</ele><time>2026-05-02T07:29:46.752Z</time></trkpt><trkpt lat="42.4235551" lon="14.1120012"><ele>39.5</ele><time>2026-05-02T07:29:47.752Z</time></trkpt><trkpt lat="42.4234839" lon="14.1119888"><ele>38.66666666666667</ele><time>2026-05-02T07:29:48.752Z</time></trkpt><trkpt lat="42.4234177" lon="14.1119894"><ele>37.833333333333336</ele><time>2026-05-02T07:29:49.753Z</time></trkpt><trkpt lat="42.4233167" lon="14.1120015"><ele>37.0</ele><time>2026-05-02T07:29:51.754Z</time></trkpt><trkpt lat="42.4232407" lon="14.1120527"><ele>37.0</ele><time>2026-05-02T07:29:54.752Z</time></trkpt><trkpt lat="42.4231772" lon="14.112107"><ele>37.0</ele><time>2026-05-02T07:29:56.754Z</time></trkpt><trkpt lat="42.4230655" lon="14.112237"><ele>37.0</ele><time>2026-05-02T07:29:58.752Z</time></trkpt><trkpt lat="42.422994" lon="14.1123291"><ele>37.0</ele><time>2026-05-02T07:29:59.753Z</time></trkpt><trkpt lat="42.4229142" lon="14.1124352"><ele>37.0</ele><time>2026-05-02T07:30:00.753Z</time></trkpt><trkpt lat="42.4228298" lon="14.1125455"><ele>38.75</ele><time>2026-05-02T07:30:01.754Z</time></trkpt><trkpt lat="42.4227398" lon="14.112652"><ele>40.5</ele><time>2026-05-02T07:30:02.754Z</time></trkpt><trkpt lat="42.4226431" lon="14.1127576"><ele>42.25</ele><time>2026-05-02T07:30:03.753Z</time></trkpt><trkpt lat="42.4225446" lon="14.1128573"><ele>44.0</ele><time>2026-05-02T07:30:04.752Z</time></trkpt><trkpt lat="42.4224444" lon="14.1129507"><ele>44.0</ele><time>2026-05-02T07:30:05.753Z</time></trkpt><trkpt lat="42.4223426" lon="14.1130438"><ele>44.0</ele><time>2026-05-02T07:30:06.754Z</time></trkpt><trkpt lat="42.4222409" lon="14.113134"><ele>44.0</ele><time>2026-05-02T07:30:07.754Z</time></trkpt><trkpt lat="42.4221466" lon="14.1132267"><ele>44.0</ele><time>2026-05-02T07:30:08.752Z</time></trkpt><trkpt lat="42.4220592" lon="14.1133165"><ele>45.25</ele><time>2026-05-02T07:30:09.754Z</time></trkpt><trkpt lat="42.4219591" lon="14.1133945"><ele>46.5</ele><time>2026-05-02T07:30:10.752Z</time></trkpt><trkpt lat="42.4218561" lon="14.1134615"><ele>47.75</ele><time>2026-05-02T07:30:11.752Z</time></trkpt><trkpt lat="42.4217416" lon="14.1135123"><ele>49.0</ele><time>2026-05-02T07:30:12.751Z</time></trkpt><trkpt lat="42.4216259" lon="14.113558"><ele>49.0</ele><time>2026-05-02T07:30:13.751Z</time></trkpt><trkpt lat="42.421507" lon="14.1136022"><ele>49.0</ele><time>2026-05-02T07:30:14.75Z</time></trkpt><trkpt lat="42.421391" lon="14.1136545"><ele>49.0</ele><time>2026-05-02T07:30:15.75Z</time></trkpt><trkpt lat="42.4212864" lon="14.1137097"><ele>49.0</ele><time>2026-05-02T07:30:16.754Z</time></trkpt><trkpt lat="42.4211877" lon="14.1137703"><ele>50.0</ele><time>2026-05-02T07:30:17.753Z</time></trkpt><trkpt lat="42.4210864" lon="14.1138398"><ele>51.0</ele><time>2026-05-02T07:30:18.751Z</time></trkpt><trkpt lat="42.4209867" lon="14.1139152"><ele>52.0</ele><time>2026-05-02T07:30:19.751Z</time></trkpt><trkpt lat="42.4208891" lon="14.1139939"><ele>53.0</ele><time>2026-05-02T07:30:20.755Z</time></trkpt><trkpt lat="42.4207883" lon="14.1140584"><ele>55.5</ele><time>2026-05-02T07:30:21.755Z</time></trkpt><trkpt lat="42.420698" lon="14.1141361"><ele>58.0</ele><time>2026-05-02T07:30:22.754Z</time></trkpt><trkpt lat="42.4206069" lon="14.114225"><ele>60.5</ele><time>2026-05-02T07:30:23.754Z</time></trkpt><trkpt lat="42.4205147" lon="14.1143273"><ele>63.0</ele><time>2026-05-02T07:30:24.755Z</time></trkpt><trkpt lat="42.4204436" lon="14.1144588"><ele>63.0</ele><time>2026-05-02T07:30:25.753Z</time></trkpt><trkpt lat="42.4203567" lon="14.1145858"><ele>63.0</ele><time>2026-05-02T07:30:26.757Z</time></trkpt><trkpt lat="42.4202582" lon="14.1146936"><ele>63.0</ele><time>2026-05-02T07:30:27.752Z</time></trkpt><trkpt lat="42.4201527" lon="14.1147684"><ele>63.0</ele><time>2026-05-02T07:30:28.755Z</time></trkpt><trkpt lat="42.420043" lon="14.1148272"><ele>63.0</ele><time>2026-05-02T07:30:29.753Z</time></trkpt><trkpt lat="42.4199295" lon="14.1148868"><ele>63.0</ele><time>2026-05-02T07:30:30.752Z</time></trkpt><trkpt lat="42.4198209" lon="14.114956"><ele>63.0</ele><time>2026-05-02T07:30:31.753Z</time></trkpt><trkpt lat="42.4197139" lon="14.1150392"><ele>63.0</ele><time>2026-05-02T07:30:32.753Z</time></trkpt><trkpt lat="42.4196173" lon="14.1151381"><ele>67.25</ele><time>2026-05-02T07:30:33.753Z</time></trkpt><trkpt lat="42.4195225" lon="14.1152444"><ele>71.5</ele><time>2026-05-02T07:30:34.753Z</time></trkpt><trkpt lat="42.4194287" lon="14.1153425"><ele>75.75</ele><time>2026-05-02T07:30:35.754Z</time></trkpt><trkpt lat="42.4193322" lon="14.1154393"><ele>80.0</ele><time>2026-05-02T07:30:36.754Z</time></trkpt><trkpt lat="42.4192298" lon="14.1155232"><ele>80.0</ele><time>2026-05-02T07:30:37.754Z</time></trkpt><trkpt lat="42.4191349" lon="14.1156151"><ele>80.0</ele><time>2026-05-02T07:30:38.757Z</time></trkpt><trkpt lat="42.4190535" lon="14.1157046"><ele>80.0</ele><time>2026-05-02T07:30:39.755Z</time></trkpt><trkpt lat="42.418996" lon="14.1157787"><ele>80.0</ele><time>2026-05-02T07:30:40.754Z</time></trkpt><trkpt lat="42.4189206" lon="14.1158807"><ele>80.0</ele><time>2026-05-02T07:30:42.755Z</time></trkpt><trkpt lat="42.4188493" lon="14.115931"><ele>82.2</ele><time>2026-05-02T07:30:44.755Z</time></trkpt><trkpt lat="42.4187598" lon="14.1158819"><ele>84.4</ele><time>2026-05-02T07:30:46.757Z</time></trkpt><trkpt lat="42.4186963" lon="14.1158156"><ele>86.6</ele><time>2026-05-02T07:30:47.757Z</time></trkpt><trkpt lat="42.4186263" lon="14.1157462"><ele>88.8</ele><time>2026-05-02T07:30:48.753Z</time></trkpt><trkpt lat="42.418544" lon="14.1156778"><ele>91.0</ele><time>2026-05-02T07:30:49.753Z</time></trkpt><trkpt lat="42.4184475" lon="14.115607"><ele>92.75</ele><time>2026-05-02T07:30:50.753Z</time></trkpt><trkpt lat="42.418341" lon="14.1155377"><ele>94.5</ele><time>2026-05-02T07:30:51.753Z</time></trkpt><trkpt lat="42.4182338" lon="14.1154715"><ele>96.25</ele><time>2026-05-02T07:30:52.756Z</time></trkpt><trkpt lat="42.418123" lon="14.1154199"><ele>98.0</ele><time>2026-05-02T07:30:53.755Z</time></trkpt><trkpt lat="42.418015" lon="14.1153649"><ele>100.0</ele><time>2026-05-02T07:30:54.754Z</time></trkpt><trkpt lat="42.417899" lon="14.1153204"><ele>102.0</ele><time>2026-05-02T07:30:55.755Z</time></trkpt><trkpt lat="42.417785" lon="14.1152771"><ele>104.0</ele><time>2026-05-02T07:30:56.753Z</time></trkpt><trkpt lat="42.4176738" lon="14.1152383"><ele>106.0</ele><time>2026-05-02T07:30:57.752Z</time></trkpt><trkpt lat="42.4175665" lon="14.1152065"><ele>106.0</ele><time>2026-05-02T07:30:58.753Z</time></trkpt><trkpt lat="42.4174871" lon="14.1151991"><ele>106.0</ele><time>2026-05-02T07:31:00.752Z</time></trkpt><trkpt lat="42.4173783" lon="14.1151694"><ele>106.0</ele><time>2026-05-02T07:31:02.756Z</time></trkpt><trkpt lat="42.4173057" lon="14.1151582"><ele>106.0</ele><time>2026-05-02T07:31:03.754Z</time></trkpt><trkpt lat="42.4172163" lon="14.1151592"><ele>106.0</ele><time>2026-05-02T07:31:04.752Z</time></trkpt><trkpt lat="42.4171162" lon="14.1151558"><ele>107.25</ele><time>2026-05-02T07:31:05.756Z</time></trkpt><trkpt lat="42.417001" lon="14.1151513"><ele>108.5</ele><time>2026-05-02T07:31:06.753Z</time></trkpt><trkpt lat="42.4168806" lon="14.1151506"><ele>109.75</ele><time>2026-05-02T07:31:07.753Z</time></trkpt><trkpt lat="42.4167586" lon="14.1151552"><ele>111.0</ele><time>2026-05-02T07:31:08.752Z</time></trkpt><trkpt lat="42.4166358" lon="14.1151771"><ele>111.0</ele><time>2026-05-02T07:31:09.753Z</time></trkpt><trkpt lat="42.416508" lon="14.1151994"><ele>111.0</ele><time>2026-05-02T07:31:10.756Z</time></trkpt><trkpt lat="42.4163787" lon="14.1152155"><ele>111.0</ele><time>2026-05-02T07:31:11.753Z</time></trkpt><trkpt lat="42.4162549" lon="14.1152306"><ele>111.0</ele><time>2026-05-02T07:31:12.754Z</time></trkpt><trkpt lat="42.4161331" lon="14.1152333"><ele>112.0</ele><time>2026-05-02T07:31:13.754Z</time></trkpt><trkpt lat="42.4160197" lon="14.1152403"><ele>113.0</ele><time>2026-05-02T07:31:14.753Z</time></trkpt><trkpt lat="42.4159028" lon="14.1152429"><ele>114.0</ele><time>2026-05-02T07:31:15.755Z</time></trkpt><trkpt lat="42.4157924" lon="14.1152509"><ele>115.0</ele><time>2026-05-02T07:31:16.753Z</time></trkpt><trkpt lat="42.415689" lon="14.1152703"><ele>116.0</ele><time>2026-05-02T07:31:17.756Z</time></trkpt><trkpt lat="42.4155968" lon="14.1152993"><ele>115.99999999999999</ele><time>2026-05-02T07:31:18.754Z</time></trkpt><trkpt lat="42.4155153" lon="14.1153273"><ele>116.0</ele><time>2026-05-02T07:31:19.756Z</time></trkpt><trkpt lat="42.4154465" lon="14.1153559"><ele>116.0</ele><time>2026-05-02T07:31:20.754Z</time></trkpt><trkpt lat="42.4153604" lon="14.1154045"><ele>116.0</ele><time>2026-05-02T07:31:22.753Z</time></trkpt><trkpt lat="42.4152978" lon="14.1154602"><ele>115.99999999999999</ele><time>2026-05-02T07:31:25.753Z</time></trkpt><trkpt lat="42.4152039" lon="14.1155435"><ele>116.0</ele><time>2026-05-02T07:31:27.752Z</time></trkpt><trkpt lat="42.4151408" lon="14.1156138"><ele>116.0</ele><time>2026-05-02T07:31:28.753Z</time></trkpt><trkpt lat="42.4150747" lon="14.1156943"><ele>116.0</ele><time>2026-05-02T07:31:29.752Z</time></trkpt><trkpt lat="42.4150068" lon="14.1157925"><ele>116.0</ele><time>2026-05-02T07:31:30.753Z</time></trkpt><trkpt lat="42.4149291" lon="14.1158983"><ele>116.0</ele><time>2026-05-02T07:31:31.752Z</time></trkpt><trkpt lat="42.4148412" lon="14.1159996"><ele>116.0</ele><time>2026-05-02T07:31:32.754Z</time></trkpt><trkpt lat="42.4147448" lon="14.1160936"><ele>114.75</ele><time>2026-05-02T07:31:33.751Z</time></trkpt><trkpt lat="42.4146419" lon="14.116184"><ele>113.5</ele><time>2026-05-02T07:31:34.753Z</time></trkpt><trkpt lat="42.4145306" lon="14.1162798"><ele>112.25</ele><time>2026-05-02T07:31:35.752Z</time></trkpt><trkpt lat="42.4144128" lon="14.116379"><ele>111.0</ele><time>2026-05-02T07:31:36.753Z</time></trkpt><trkpt lat="42.4142896" lon="14.1164719"><ele>111.0</ele><time>2026-05-02T07:31:37.752Z</time></trkpt><trkpt lat="42.4141602" lon="14.1165576"><ele>111.0</ele><time>2026-05-02T07:31:38.756Z</time></trkpt><trkpt lat="42.4140364" lon="14.1166335"><ele>111.0</ele><time>2026-05-02T07:31:39.752Z</time></trkpt><trkpt lat="42.4139222" lon="14.1166998"><ele>111.0</ele><time>2026-05-02T07:31:40.754Z</time></trkpt><trkpt lat="42.4138173" lon="14.1167659"><ele>110.0</ele><time>2026-05-02T07:31:41.754Z</time></trkpt><trkpt lat="42.4137287" lon="14.1168598"><ele>109.0</ele><time>2026-05-02T07:31:42.752Z</time></trkpt><trkpt lat="42.4136458" lon="14.116976"><ele>108.0</ele><time>2026-05-02T07:31:43.751Z</time></trkpt><trkpt lat="42.4135599" lon="14.1171023"><ele>107.0</ele><time>2026-05-02T07:31:44.753Z</time></trkpt><trkpt lat="42.4134736" lon="14.1172363"><ele>107.0</ele><time>2026-05-02T07:31:45.754Z</time></trkpt><trkpt lat="42.4133926" lon="14.1173796"><ele>107.0</ele><time>2026-05-02T07:31:46.752Z</time></trkpt><trkpt lat="42.4133075" lon="14.1175209"><ele>107.0</ele><time>2026-05-02T07:31:47.753Z</time></trkpt><trkpt lat="42.4132313" lon="14.1176596"><ele>107.0</ele><time>2026-05-02T07:31:48.752Z</time></trkpt><trkpt lat="42.4131581" lon="14.1177929"><ele>107.0</ele><time>2026-05-02T07:31:49.752Z</time></trkpt><trkpt lat="42.4130887" lon="14.1179225"><ele>107.0</ele><time>2026-05-02T07:31:50.751Z</time></trkpt><trkpt lat="42.4130143" lon="14.1180475"><ele>107.0</ele><time>2026-05-02T07:31:51.754Z</time></trkpt><trkpt lat="42.4129386" lon="14.1181713"><ele>107.0</ele><time>2026-05-02T07:31:52.756Z</time></trkpt><trkpt lat="42.4128553" lon="14.1182945"><ele>107.0</ele><time>2026-05-02T07:31:53.753Z</time></trkpt><trkpt lat="42.4127633" lon="14.1184127"><ele>107.0</ele><time>2026-05-02T07:31:54.753Z</time></trkpt><trkpt lat="42.4126656" lon="14.1185192"><ele>107.0</ele><time>2026-05-02T07:31:55.753Z</time></trkpt><trkpt lat="42.4125613" lon="14.1186125"><ele>107.0</ele><time>2026-05-02T07:31:56.752Z</time></trkpt><trkpt lat="42.412456" lon="14.1186984"><ele>107.0</ele><time>2026-05-02T07:31:57.752Z</time></trkpt><trkpt lat="42.4123494" lon="14.118777"><ele>107.0</ele><time>2026-05-02T07:31:58.753Z</time></trkpt><trkpt lat="42.4122409" lon="14.1188477"><ele>107.0</ele><time>2026-05-02T07:31:59.752Z</time></trkpt><trkpt lat="42.4121342" lon="14.1189173"><ele>107.0</ele><time>2026-05-02T07:32:00.752Z</time></trkpt><trkpt lat="42.412029" lon="14.1189912"><ele>105.75</ele><time>2026-05-02T07:32:01.753Z</time></trkpt><trkpt lat="42.4119194" lon="14.1190679"><ele>104.5</ele><time>2026-05-02T07:32:02.751Z</time></trkpt><trkpt lat="42.4118078" lon="14.1191419"><ele>103.25</ele><time>2026-05-02T07:32:03.754Z</time></trkpt><trkpt lat="42.4116938" lon="14.1192145"><ele>102.0</ele><time>2026-05-02T07:32:04.753Z</time></trkpt><trkpt lat="42.4115824" lon="14.1192839"><ele>102.0</ele><time>2026-05-02T07:32:05.752Z</time></trkpt><trkpt lat="42.4114724" lon="14.119352"><ele>102.0</ele><time>2026-05-02T07:32:06.752Z</time></trkpt><trkpt lat="42.4113672" lon="14.1194224"><ele>102.0</ele><time>2026-05-02T07:32:07.754Z</time></trkpt><trkpt lat="42.4112627" lon="14.1194945"><ele>102.0</ele><time>2026-05-02T07:32:08.752Z</time></trkpt><trkpt lat="42.4111618" lon="14.1195704"><ele>102.19999999999999</ele><time>2026-05-02T07:32:09.755Z</time></trkpt><trkpt lat="42.4110683" lon="14.1196531"><ele>102.4</ele><time>2026-05-02T07:32:10.753Z</time></trkpt><trkpt lat="42.4109832" lon="14.1197295"><ele>102.6</ele><time>2026-05-02T07:32:11.752Z</time></trkpt><trkpt lat="42.4109018" lon="14.1198074"><ele>102.80000000000001</ele><time>2026-05-02T07:32:12.754Z</time></trkpt><trkpt lat="42.410839" lon="14.1198728"><ele>103.0</ele><time>2026-05-02T07:32:13.753Z</time></trkpt><trkpt lat="42.4107789" lon="14.1199238"><ele>102.16666666666667</ele><time>2026-05-02T07:32:14.753Z</time></trkpt><trkpt lat="42.4106921" lon="14.1199795"><ele>101.33333333333334</ele><time>2026-05-02T07:32:16.756Z</time></trkpt><trkpt lat="42.4106115" lon="14.1200006"><ele>100.5</ele><time>2026-05-02T07:32:18.755Z</time></trkpt><trkpt lat="42.4105422" lon="14.1199782"><ele>99.66666666666666</ele><time>2026-05-02T07:32:20.752Z</time></trkpt><trkpt lat="42.4104769" lon="14.1199244"><ele>98.83333333333333</ele><time>2026-05-02T07:32:22.754Z</time></trkpt><trkpt lat="42.4104085" lon="14.1198684"><ele>98.0</ele><time>2026-05-02T07:32:24.756Z</time></trkpt><trkpt lat="42.4103391" lon="14.1198029"><ele>97.2</ele><time>2026-05-02T07:32:26.752Z</time></trkpt><trkpt lat="42.4102907" lon="14.1197052"><ele>96.4</ele><time>2026-05-02T07:32:28.752Z</time></trkpt><trkpt lat="42.4102494" lon="14.1195817"><ele>95.60000000000001</ele><time>2026-05-02T07:32:30.753Z</time></trkpt><trkpt lat="42.4101897" lon="14.1194593"><ele>94.80000000000001</ele><time>2026-05-02T07:32:32.757Z</time></trkpt><trkpt lat="42.4101356" lon="14.1193552"><ele>94.0</ele><time>2026-05-02T07:32:34.751Z</time></trkpt><trkpt lat="42.4100715" lon="14.1192561"><ele>94.0</ele><time>2026-05-02T07:32:36.753Z</time></trkpt><trkpt lat="42.4099885" lon="14.1191572"><ele>94.0</ele><time>2026-05-02T07:32:38.751Z</time></trkpt><trkpt lat="42.4098847" lon="14.1190544"><ele>94.0</ele><time>2026-05-02T07:32:40.752Z</time></trkpt><trkpt lat="42.4098285" lon="14.1190111"><ele>94.0</ele><time>2026-05-02T07:32:41.752Z</time></trkpt><trkpt lat="42.4097212" lon="14.1189282"><ele>94.0</ele><time>2026-05-02T07:32:43.752Z</time></trkpt><trkpt lat="42.4096269" lon="14.1188628"><ele>92.0</ele><time>2026-05-02T07:32:45.755Z</time></trkpt><trkpt lat="42.4095526" lon="14.1187993"><ele>90.0</ele><time>2026-05-02T07:32:47.753Z</time></trkpt><trkpt lat="42.4094707" lon="14.1187433"><ele>88.0</ele><time>2026-05-02T07:32:49.757Z</time></trkpt><trkpt lat="42.4093851" lon="14.118686"><ele>86.0</ele><time>2026-05-02T07:32:51.753Z</time></trkpt><trkpt lat="42.4092937" lon="14.1186316"><ele>84.0</ele><time>2026-05-02T07:32:53.757Z</time></trkpt><trkpt lat="42.4092071" lon="14.1185527"><ele>84.0</ele><time>2026-05-02T07:32:55.752Z</time></trkpt><trkpt lat="42.4091391" lon="14.1184803"><ele>84.0</ele><time>2026-05-02T07:32:57.753Z</time></trkpt><trkpt lat="42.409089" lon="14.1184164"><ele>84.0</ele><time>2026-05-02T07:32:59.752Z</time></trkpt><trkpt lat="42.409023" lon="14.1183283"><ele>84.0</ele><time>2026-05-02T07:33:01.752Z</time></trkpt><trkpt lat="42.4089715" lon="14.1182228"><ele>84.0</ele><time>2026-05-02T07:33:03.75Z</time></trkpt><trkpt lat="42.4089223" lon="14.1181018"><ele>84.0</ele><time>2026-05-02T07:33:05.751Z</time></trkpt><trkpt lat="42.4088726" lon="14.1179726"><ele>83.5</ele><time>2026-05-02T07:33:07.753Z</time></trkpt><trkpt lat="42.4088285" lon="14.1178569"><ele>83.0</ele><time>2026-05-02T07:33:09.752Z</time></trkpt><trkpt lat="42.4087868" lon="14.1177555"><ele>82.5</ele><time>2026-05-02T07:33:11.752Z</time></trkpt><trkpt lat="42.4087462" lon="14.1176463"><ele>82.0</ele><time>2026-05-02T07:33:13.75Z</time></trkpt><trkpt lat="42.4087116" lon="14.1175378"><ele>81.5</ele><time>2026-05-02T07:33:15.752Z</time></trkpt><trkpt lat="42.4086734" lon="14.1174456"><ele>81.0</ele><time>2026-05-02T07:33:17.752Z</time></trkpt><trkpt lat="42.4086427" lon="14.1173597"><ele>81.0</ele><time>2026-05-02T07:33:19.754Z</time></trkpt><trkpt lat="42.4086006" lon="14.1172642"><ele>81.0</ele><time>2026-05-02T07:33:22.754Z</time></trkpt><trkpt lat="42.4085334" lon="14.1171998"><ele>81.0</ele><time>2026-05-02T07:33:24.751Z</time></trkpt><trkpt lat="42.4084427" lon="14.117124"><ele>81.0</ele><time>2026-05-02T07:33:26.756Z</time></trkpt><trkpt lat="42.4083531" lon="14.1170492"><ele>81.0</ele><time>2026-05-02T07:33:28.752Z</time></trkpt><trkpt lat="42.4082639" lon="14.116943"><ele>81.0</ele><time>2026-05-02T07:33:30.754Z</time></trkpt><trkpt lat="42.4081724" lon="14.1168371"><ele>81.0</ele><time>2026-05-02T07:33:32.752Z</time></trkpt><trkpt lat="42.4080711" lon="14.1167507"><ele>81.0</ele><time>2026-05-02T07:33:34.756Z</time></trkpt><trkpt lat="42.4079605" lon="14.1166698"><ele>81.0</ele><time>2026-05-02T07:33:36.754Z</time></trkpt><trkpt lat="42.4078401" lon="14.1166131"><ele>82.83333333333333</ele><time>2026-05-02T07:33:38.753Z</time></trkpt><trkpt lat="42.4077747" lon="14.1165749"><ele>84.66666666666667</ele><time>2026-05-02T07:33:39.752Z</time></trkpt><trkpt lat="42.4077063" lon="14.1165473"><ele>86.5</ele><time>2026-05-02T07:33:40.752Z</time></trkpt><trkpt lat="42.4076375" lon="14.1165231"><ele>88.33333333333334</ele><time>2026-05-02T07:33:41.752Z</time></trkpt><trkpt lat="42.4075713" lon="14.1164999"><ele>90.16666666666667</ele><time>2026-05-02T07:33:42.752Z</time></trkpt><trkpt lat="42.4074564" lon="14.1164466"><ele>92.0</ele><time>2026-05-02T07:33:44.752Z</time></trkpt><trkpt lat="42.4073939" lon="14.116422"><ele>92.5</ele><time>2026-05-02T07:33:45.752Z</time></trkpt><trkpt lat="42.4073129" lon="14.116391"><ele>93.0</ele><time>2026-05-02T07:33:46.753Z</time></trkpt><trkpt lat="42.4072361" lon="14.1163641"><ele>93.5</ele><time>2026-05-02T07:33:47.755Z</time></trkpt><trkpt lat="42.4071726" lon="14.1163461"><ele>94.0</ele><time>2026-05-02T07:33:48.751Z</time></trkpt><trkpt lat="42.4070597" lon="14.1163126"><ele>94.5</ele><time>2026-05-02T07:33:50.75Z</time></trkpt><trkpt lat="42.4069989" lon="14.1162801"><ele>95.0</ele><time>2026-05-02T07:33:51.753Z</time></trkpt><trkpt lat="42.4069262" lon="14.1162283"><ele>96.6</ele><time>2026-05-02T07:33:52.751Z</time></trkpt><trkpt lat="42.4068421" lon="14.1161721"><ele>98.2</ele><time>2026-05-02T07:33:53.75Z</time></trkpt><trkpt lat="42.406772" lon="14.1161235"><ele>99.80000000000001</ele><time>2026-05-02T07:33:54.751Z</time></trkpt><trkpt lat="42.4066932" lon="14.1160643"><ele>101.4</ele><time>2026-05-02T07:33:55.753Z</time></trkpt><trkpt lat="42.4065964" lon="14.1159901"><ele>103.0</ele><time>2026-05-02T07:33:56.753Z</time></trkpt><trkpt lat="42.4064994" lon="14.1159191"><ele>103.0</ele><time>2026-05-02T07:33:57.751Z</time></trkpt><trkpt lat="42.4064071" lon="14.1158578"><ele>103.0</ele><time>2026-05-02T07:33:58.75Z</time></trkpt><trkpt lat="42.4063157" lon="14.1158071"><ele>103.0</ele><time>2026-05-02T07:33:59.75Z</time></trkpt><trkpt lat="42.4062357" lon="14.1157559"><ele>103.0</ele><time>2026-05-02T07:34:00.75Z</time></trkpt><trkpt lat="42.4061622" lon="14.1156966"><ele>103.0</ele><time>2026-05-02T07:34:01.752Z</time></trkpt><trkpt lat="42.4060928" lon="14.1156411"><ele>104.00000000000001</ele><time>2026-05-02T07:34:02.75Z</time></trkpt><trkpt lat="42.4060255" lon="14.1155856"><ele>105.0</ele><time>2026-05-02T07:34:03.75Z</time></trkpt><trkpt lat="42.4059694" lon="14.1155412"><ele>106.0</ele><time>2026-05-02T07:34:04.752Z</time></trkpt><trkpt lat="42.4058923" lon="14.1154792"><ele>107.0</ele><time>2026-05-02T07:34:06.753Z</time></trkpt><trkpt lat="42.405819" lon="14.1154407"><ele>108.00000000000001</ele><time>2026-05-02T07:34:08.752Z</time></trkpt><trkpt lat="42.405698" lon="14.1154407"><ele>109.0</ele><time>2026-05-02T07:34:10.75Z</time></trkpt><trkpt lat="42.4056236" lon="14.1154684"><ele>109.00000000000001</ele><time>2026-05-02T07:34:11.752Z</time></trkpt><trkpt lat="42.40556" lon="14.1154941"><ele>109.0</ele><time>2026-05-02T07:34:12.751Z</time></trkpt><trkpt lat="42.4054813" lon="14.1155207"><ele>109.0</ele><time>2026-05-02T07:34:15.752Z</time></trkpt><trkpt lat="42.4053913" lon="14.1155068"><ele>109.0</ele><time>2026-05-02T07:34:17.757Z</time></trkpt><trkpt lat="42.4052691" lon="14.1154871"><ele>109.00000000000001</ele><time>2026-05-02T07:34:19.75Z</time></trkpt><trkpt lat="42.4051951" lon="14.1154821"><ele>109.0</ele><time>2026-05-02T07:34:20.752Z</time></trkpt><trkpt lat="42.4050894" lon="14.115465"><ele>107.83333333333334</ele><time>2026-05-02T07:34:22.752Z</time></trkpt><trkpt lat="42.4050267" lon="14.1154977"><ele>106.66666666666667</ele><time>2026-05-02T07:34:26.751Z</time></trkpt><trkpt lat="42.405106" lon="14.1154908"><ele>105.5</ele><time>2026-05-02T07:34:31.757Z</time></trkpt><trkpt lat="42.4052036" lon="14.115472"><ele>104.33333333333334</ele><time>2026-05-02T07:34:33.749Z</time></trkpt><trkpt lat="42.4052671" lon="14.1154772"><ele>103.16666666666667</ele><time>2026-05-02T07:34:34.753Z</time></trkpt><trkpt lat="42.4053357" lon="14.1154894"><ele>102.0</ele><time>2026-05-02T07:34:35.751Z</time></trkpt><trkpt lat="42.4054276" lon="14.1155185"><ele>102.0</ele><time>2026-05-02T07:34:37.752Z</time></trkpt><trkpt lat="42.4054506" lon="14.1156006"><ele>102.0</ele><time>2026-05-02T07:34:41.753Z</time></trkpt><trkpt lat="42.4054289" lon="14.1156843"><ele>102.0</ele><time>2026-05-02T07:34:48.75Z</time></trkpt><trkpt lat="42.4053896" lon="14.1157947"><ele>102.0</ele><time>2026-05-02T07:34:50.757Z</time></trkpt><trkpt lat="42.4053276" lon="14.1159476"><ele>102.0</ele><time>2026-05-02T07:34:52.752Z</time></trkpt><trkpt lat="42.4052809" lon="14.1160296"><ele>102.0</ele><time>2026-05-02T07:34:53.752Z</time></trkpt><trkpt lat="42.4052121" lon="14.1161267"><ele>102.0</ele><time>2026-05-02T07:34:54.751Z</time></trkpt><trkpt lat="42.4051318" lon="14.1162267"><ele>102.0</ele><time>2026-05-02T07:34:55.752Z</time></trkpt><trkpt lat="42.4050457" lon="14.1163331"><ele>102.0</ele><time>2026-05-02T07:34:56.749Z</time></trkpt><trkpt lat="42.4049573" lon="14.1164389"><ele>102.0</ele><time>2026-05-02T07:34:57.753Z</time></trkpt><trkpt lat="42.4048732" lon="14.116548"><ele>100.0</ele><time>2026-05-02T07:34:58.75Z</time></trkpt><trkpt lat="42.4047856" lon="14.1166551"><ele>98.0</ele><time>2026-05-02T07:34:59.751Z</time></trkpt><trkpt lat="42.404688" lon="14.1167715"><ele>96.0</ele><time>2026-05-02T07:35:00.753Z</time></trkpt><trkpt lat="42.4045884" lon="14.1168844"><ele>94.0</ele><time>2026-05-02T07:35:01.752Z</time></trkpt><trkpt lat="42.4044895" lon="14.1170015"><ele>93.0</ele><time>2026-05-02T07:35:02.751Z</time></trkpt><trkpt lat="42.4043896" lon="14.117125"><ele>92.0</ele><time>2026-05-02T07:35:03.75Z</time></trkpt><trkpt lat="42.4042918" lon="14.1172436"><ele>91.0</ele><time>2026-05-02T07:35:04.751Z</time></trkpt><trkpt lat="42.4042004" lon="14.1173576"><ele>90.0</ele><time>2026-05-02T07:35:05.753Z</time></trkpt><trkpt lat="42.40411" lon="14.1174699"><ele>88.75</ele><time>2026-05-02T07:35:06.753Z</time></trkpt><trkpt lat="42.4040221" lon="14.1175737"><ele>87.5</ele><time>2026-05-02T07:35:07.752Z</time></trkpt><trkpt lat="42.4039374" lon="14.1176799"><ele>86.25</ele><time>2026-05-02T07:35:08.751Z</time></trkpt><trkpt lat="42.4038555" lon="14.1177786"><ele>85.0</ele><time>2026-05-02T07:35:09.75Z</time></trkpt><trkpt lat="42.4037734" lon="14.1178822"><ele>84.25</ele><time>2026-05-02T07:35:10.755Z</time></trkpt><trkpt lat="42.4036879" lon="14.1179862"><ele>83.5</ele><time>2026-05-02T07:35:11.752Z</time></trkpt><trkpt lat="42.4036012" lon="14.11809"><ele>82.75</ele><time>2026-05-02T07:35:12.754Z</time></trkpt><trkpt lat="42.403513" lon="14.1182029"><ele>82.0</ele><time>2026-05-02T07:35:13.751Z</time></trkpt><trkpt lat="42.4034178" lon="14.1183185"><ele>81.5</ele><time>2026-05-02T07:35:14.751Z</time></trkpt><trkpt lat="42.4033207" lon="14.1184366"><ele>81.0</ele><time>2026-05-02T07:35:15.75Z</time></trkpt><trkpt lat="42.4032257" lon="14.1185557"><ele>80.5</ele><time>2026-05-02T07:35:16.75Z</time></trkpt><trkpt lat="42.4031312" lon="14.1186771"><ele>80.0</ele><time>2026-05-02T07:35:17.752Z</time></trkpt><trkpt lat="42.4030382" lon="14.1187994"><ele>79.75</ele><time>2026-05-02T07:35:18.751Z</time></trkpt><trkpt lat="42.4029458" lon="14.1189148"><ele>79.5</ele><time>2026-05-02T07:35:19.752Z</time></trkpt><trkpt lat="42.4028548" lon="14.1190299"><ele>79.25</ele><time>2026-05-02T07:35:20.751Z</time></trkpt><trkpt lat="42.4027661" lon="14.1191409"><ele>79.0</ele><time>2026-05-02T07:35:21.75Z</time></trkpt><trkpt lat="42.4026767" lon="14.119251"><ele>78.0</ele><time>2026-05-02T07:35:22.751Z</time></trkpt><trkpt lat="42.4025834" lon="14.1193592"><ele>77.0</ele><time>2026-05-02T07:35:23.751Z</time></trkpt><trkpt lat="42.4024858" lon="14.119455"><ele>76.0</ele><time>2026-05-02T07:35:24.752Z</time></trkpt><trkpt lat="42.4023823" lon="14.1195495"><ele>75.0</ele><time>2026-05-02T07:35:25.752Z</time></trkpt><trkpt lat="42.4022804" lon="14.1196452"><ele>75.0</ele><time>2026-05-02T07:35:26.751Z</time></trkpt><trkpt lat="42.4021804" lon="14.1197446"><ele>75.0</ele><time>2026-05-02T07:35:27.751Z</time></trkpt><trkpt lat="42.4020783" lon="14.1198352"><ele>75.0</ele><time>2026-05-02T07:35:28.75Z</time></trkpt><trkpt lat="42.4019737" lon="14.1199246"><ele>75.0</ele><time>2026-05-02T07:35:29.752Z</time></trkpt><trkpt lat="42.4018653" lon="14.1200244"><ele>73.0</ele><time>2026-05-02T07:35:30.753Z</time></trkpt><trkpt lat="42.401758" lon="14.1201215"><ele>71.0</ele><time>2026-05-02T07:35:31.753Z</time></trkpt><trkpt lat="42.4016448" lon="14.1202254"><ele>69.0</ele><time>2026-05-02T07:35:32.752Z</time></trkpt><trkpt lat="42.401533" lon="14.1203274"><ele>67.0</ele><time>2026-05-02T07:35:33.751Z</time></trkpt><trkpt lat="42.4014135" lon="14.1204301"><ele>66.5</ele><time>2026-05-02T07:35:34.749Z</time></trkpt><trkpt lat="42.4012953" lon="14.1205278"><ele>66.0</ele><time>2026-05-02T07:35:35.751Z</time></trkpt><trkpt lat="42.4011842" lon="14.120629"><ele>65.5</ele><time>2026-05-02T07:35:36.752Z</time></trkpt><trkpt lat="42.401072" lon="14.1207203"><ele>65.0</ele><time>2026-05-02T07:35:37.75Z</time></trkpt><trkpt lat="42.400969" lon="14.1208174"><ele>64.75</ele><time>2026-05-02T07:35:38.754Z</time></trkpt><trkpt lat="42.400851" lon="14.1209236"><ele>64.5</ele><time>2026-05-02T07:35:39.751Z</time></trkpt><trkpt lat="42.4007387" lon="14.1210398"><ele>64.25</ele><time>2026-05-02T07:35:40.752Z</time></trkpt><trkpt lat="42.4006254" lon="14.1211518"><ele>64.0</ele><time>2026-05-02T07:35:41.751Z</time></trkpt><trkpt lat="42.4005251" lon="14.1212563"><ele>63.25</ele><time>2026-05-02T07:35:42.751Z</time></trkpt><trkpt lat="42.4004219" lon="14.1213527"><ele>62.5</ele><time>2026-05-02T07:35:43.753Z</time></trkpt><trkpt lat="42.4003279" lon="14.1214219"><ele>61.75</ele><time>2026-05-02T07:35:44.754Z</time></trkpt><trkpt lat="42.4002324" lon="14.1215021"><ele>61.0</ele><time>2026-05-02T07:35:45.751Z</time></trkpt><trkpt lat="42.4001455" lon="14.1215933"><ele>61.0</ele><time>2026-05-02T07:35:46.753Z</time></trkpt><trkpt lat="42.4000692" lon="14.1217142"><ele>61.0</ele><time>2026-05-02T07:35:47.753Z</time></trkpt><trkpt lat="42.4000038" lon="14.1218599"><ele>61.0</ele><time>2026-05-02T07:35:48.75Z</time></trkpt><trkpt lat="42.3999462" lon="14.1220228"><ele>61.0</ele><time>2026-05-02T07:35:49.751Z</time></trkpt><trkpt lat="42.3998888" lon="14.122186"><ele>61.0</ele><time>2026-05-02T07:35:50.753Z</time></trkpt><trkpt lat="42.39983" lon="14.1223438"><ele>61.0</ele><time>2026-05-02T07:35:51.754Z</time></trkpt><trkpt lat="42.3997782" lon="14.1224929"><ele>61.0</ele><time>2026-05-02T07:35:52.752Z</time></trkpt><trkpt lat="42.3997424" lon="14.122637"><ele>61.0</ele><time>2026-05-02T07:35:53.753Z</time></trkpt><trkpt lat="42.399728" lon="14.1227834"><ele>61.0</ele><time>2026-05-02T07:35:54.753Z</time></trkpt><trkpt lat="42.3997339" lon="14.1229404"><ele>60.99999999999999</ele><time>2026-05-02T07:35:55.752Z</time></trkpt><trkpt lat="42.3997504" lon="14.1230976"><ele>60.99999999999999</ele><time>2026-05-02T07:35:56.755Z</time></trkpt><trkpt lat="42.3997612" lon="14.1232448"><ele>61.0</ele><time>2026-05-02T07:35:57.756Z</time></trkpt><trkpt lat="42.399748" lon="14.1233839"><ele>61.0</ele><time>2026-05-02T07:35:58.753Z</time></trkpt><trkpt lat="42.3997102" lon="14.1235207"><ele>59.25</ele><time>2026-05-02T07:35:59.752Z</time></trkpt><trkpt lat="42.3996615" lon="14.1236574"><ele>57.5</ele><time>2026-05-02T07:36:00.751Z</time></trkpt><trkpt lat="42.3996057" lon="14.1238012"><ele>55.75</ele><time>2026-05-02T07:36:01.751Z</time></trkpt><trkpt lat="42.3995445" lon="14.1239475"><ele>54.0</ele><time>2026-05-02T07:36:02.753Z</time></trkpt><trkpt lat="42.399482" lon="14.1240921"><ele>53.5</ele><time>2026-05-02T07:36:03.752Z</time></trkpt><trkpt lat="42.399419" lon="14.1242358"><ele>53.0</ele><time>2026-05-02T07:36:04.752Z</time></trkpt><trkpt lat="42.3993563" lon="14.124378"><ele>52.5</ele><time>2026-05-02T07:36:05.753Z</time></trkpt><trkpt lat="42.3992919" lon="14.1245127"><ele>52.0</ele><time>2026-05-02T07:36:06.75Z</time></trkpt><trkpt lat="42.3992258" lon="14.1246446"><ele>52.0</ele><time>2026-05-02T07:36:07.752Z</time></trkpt><trkpt lat="42.3991576" lon="14.1247719"><ele>52.0</ele><time>2026-05-02T07:36:08.753Z</time></trkpt><trkpt lat="42.3990856" lon="14.1248924"><ele>52.0</ele><time>2026-05-02T07:36:09.752Z</time></trkpt><trkpt lat="42.3990102" lon="14.1250134"><ele>52.0</ele><time>2026-05-02T07:36:10.754Z</time></trkpt><trkpt lat="42.3989335" lon="14.1251311"><ele>51.8</ele><time>2026-05-02T07:36:11.752Z</time></trkpt><trkpt lat="42.3988505" lon="14.1252308"><ele>51.6</ele><time>2026-05-02T07:36:12.751Z</time></trkpt><trkpt lat="42.3987553" lon="14.1252987"><ele>51.4</ele><time>2026-05-02T07:36:13.751Z</time></trkpt><trkpt lat="42.3986522" lon="14.1253337"><ele>51.199999999999996</ele><time>2026-05-02T07:36:14.753Z</time></trkpt><trkpt lat="42.398541" lon="14.1253491"><ele>51.0</ele><time>2026-05-02T07:36:15.754Z</time></trkpt><trkpt lat="42.3984263" lon="14.1253464"><ele>49.75</ele><time>2026-05-02T07:36:16.753Z</time></trkpt><trkpt lat="42.3983112" lon="14.1253225"><ele>48.5</ele><time>2026-05-02T07:36:17.751Z</time></trkpt><trkpt lat="42.3981946" lon="14.1252877"><ele>47.25</ele><time>2026-05-02T07:36:18.75Z</time></trkpt><trkpt lat="42.3980776" lon="14.1252683"><ele>46.0</ele><time>2026-05-02T07:36:19.752Z</time></trkpt><trkpt lat="42.3979612" lon="14.1252945"><ele>46.0</ele><time>2026-05-02T07:36:20.751Z</time></trkpt><trkpt lat="42.3978585" lon="14.1253621"><ele>46.0</ele><time>2026-05-02T07:36:21.752Z</time></trkpt><trkpt lat="42.3977765" lon="14.125462"><ele>46.0</ele><time>2026-05-02T07:36:22.751Z</time></trkpt><trkpt lat="42.3977134" lon="14.1255842"><ele>46.0</ele><time>2026-05-02T07:36:23.752Z</time></trkpt><trkpt lat="42.3976607" lon="14.1257052"><ele>46.0</ele><time>2026-05-02T07:36:24.752Z</time></trkpt><trkpt lat="42.3976022" lon="14.1258208"><ele>46.8</ele><time>2026-05-02T07:36:25.751Z</time></trkpt><trkpt lat="42.397534" lon="14.1259188"><ele>47.599999999999994</ele><time>2026-05-02T07:36:26.752Z</time></trkpt><trkpt lat="42.3974636" lon="14.1259921"><ele>48.4</ele><time>2026-05-02T07:36:27.752Z</time></trkpt><trkpt lat="42.397394" lon="14.1260534"><ele>49.2</ele><time>2026-05-02T07:36:28.75Z</time></trkpt><trkpt lat="42.3973116" lon="14.1261035"><ele>50.0</ele><time>2026-05-02T07:36:29.754Z</time></trkpt><trkpt lat="42.397216" lon="14.1261494"><ele>51.0</ele><time>2026-05-02T07:36:30.751Z</time></trkpt><trkpt lat="42.3971107" lon="14.1261948"><ele>52.0</ele><time>2026-05-02T07:36:31.75Z</time></trkpt><trkpt lat="42.3969966" lon="14.1262401"><ele>53.0</ele><time>2026-05-02T07:36:32.752Z</time></trkpt><trkpt lat="42.3968749" lon="14.1262901"><ele>54.0</ele><time>2026-05-02T07:36:33.751Z</time></trkpt><trkpt lat="42.3967476" lon="14.126347"><ele>54.0</ele><time>2026-05-02T07:36:34.752Z</time></trkpt><trkpt lat="42.3966229" lon="14.1264014"><ele>54.0</ele><time>2026-05-02T07:36:35.753Z</time></trkpt><trkpt lat="42.396492" lon="14.1264548"><ele>54.0</ele><time>2026-05-02T07:36:36.752Z</time></trkpt><trkpt lat="42.3963573" lon="14.1265"><ele>54.0</ele><time>2026-05-02T07:36:37.752Z</time></trkpt><trkpt lat="42.3962074" lon="14.1265398"><ele>54.0</ele><time>2026-05-02T07:36:38.754Z</time></trkpt><trkpt lat="42.3960463" lon="14.1265771"><ele>54.0</ele><time>2026-05-02T07:36:39.749Z</time></trkpt><trkpt lat="42.3958874" lon="14.1266147"><ele>54.0</ele><time>2026-05-02T07:36:40.75Z</time></trkpt><trkpt lat="42.3957341" lon="14.126652"><ele>54.0</ele><time>2026-05-02T07:36:41.755Z</time></trkpt><trkpt lat="42.3955831" lon="14.1266882"><ele>54.0</ele><time>2026-05-02T07:36:42.754Z</time></trkpt><trkpt lat="42.3954273" lon="14.1267245"><ele>54.0</ele><time>2026-05-02T07:36:43.751Z</time></trkpt><trkpt lat="42.3952673" lon="14.1267649"><ele>54.0</ele><time>2026-05-02T07:36:44.753Z</time></trkpt><trkpt lat="42.3951016" lon="14.1268072"><ele>54.0</ele><time>2026-05-02T07:36:45.753Z</time></trkpt><trkpt lat="42.3949322" lon="14.1268478"><ele>54.0</ele><time>2026-05-02T07:36:46.752Z</time></trkpt><trkpt lat="42.3947591" lon="14.126888"><ele>55.0</ele><time>2026-05-02T07:36:47.751Z</time></trkpt><trkpt lat="42.3945781" lon="14.1269162"><ele>56.0</ele><time>2026-05-02T07:36:48.753Z</time></trkpt><trkpt lat="42.3943937" lon="14.1269339"><ele>57.0</ele><time>2026-05-02T07:36:49.753Z</time></trkpt><trkpt lat="42.3942093" lon="14.126954"><ele>57.0</ele><time>2026-05-02T07:36:50.751Z</time></trkpt><trkpt lat="42.3940282" lon="14.1269849"><ele>57.0</ele><time>2026-05-02T07:36:51.751Z</time></trkpt><trkpt lat="42.3938547" lon="14.1270344"><ele>57.0</ele><time>2026-05-02T07:36:52.751Z</time></trkpt><trkpt lat="42.3936865" lon="14.1271077"><ele>56.33333333333333</ele><time>2026-05-02T07:36:53.757Z</time></trkpt><trkpt lat="42.3935319" lon="14.1272201"><ele>55.666666666666664</ele><time>2026-05-02T07:36:54.754Z</time></trkpt><trkpt lat="42.3933901" lon="14.1273613"><ele>55.0</ele><time>2026-05-02T07:36:55.754Z</time></trkpt><trkpt lat="42.3932526" lon="14.1275089"><ele>54.666666666666664</ele><time>2026-05-02T07:36:56.753Z</time></trkpt><trkpt lat="42.3931171" lon="14.1276605"><ele>54.33333333333333</ele><time>2026-05-02T07:36:57.752Z</time></trkpt><trkpt lat="42.3929805" lon="14.1278119"><ele>54.0</ele><time>2026-05-02T07:36:58.753Z</time></trkpt><trkpt lat="42.3928478" lon="14.1279718"><ele>54.0</ele><time>2026-05-02T07:36:59.752Z</time></trkpt><trkpt lat="42.3927192" lon="14.1281384"><ele>54.0</ele><time>2026-05-02T07:37:00.752Z</time></trkpt><trkpt lat="42.3925969" lon="14.1283098"><ele>54.0</ele><time>2026-05-02T07:37:01.752Z</time></trkpt><trkpt lat="42.3924729" lon="14.1284836"><ele>54.0</ele><time>2026-05-02T07:37:02.751Z</time></trkpt><trkpt lat="42.3923518" lon="14.1286513"><ele>54.0</ele><time>2026-05-02T07:37:03.753Z</time></trkpt><trkpt lat="42.3922376" lon="14.1288167"><ele>54.0</ele><time>2026-05-02T07:37:04.75Z</time></trkpt><trkpt lat="42.392135" lon="14.128977"><ele>54.25</ele><time>2026-05-02T07:37:05.751Z</time></trkpt><trkpt lat="42.392038" lon="14.1291265"><ele>54.5</ele><time>2026-05-02T07:37:06.75Z</time></trkpt><trkpt lat="42.3919504" lon="14.1292611"><ele>54.75</ele><time>2026-05-02T07:37:07.75Z</time></trkpt><trkpt lat="42.3918731" lon="14.1293776"><ele>55.0</ele><time>2026-05-02T07:37:08.751Z</time></trkpt><trkpt lat="42.3917895" lon="14.1294617"><ele>55.0</ele><time>2026-05-02T07:37:09.751Z</time></trkpt><trkpt lat="42.3916981" lon="14.129515"><ele>55.0</ele><time>2026-05-02T07:37:10.753Z</time></trkpt><trkpt lat="42.3916008" lon="14.1295347"><ele>55.0</ele><time>2026-05-02T07:37:11.753Z</time></trkpt><trkpt lat="42.3915028" lon="14.1295269"><ele>55.0</ele><time>2026-05-02T07:37:12.751Z</time></trkpt><trkpt lat="42.3914025" lon="14.129495"><ele>55.0</ele><time>2026-05-02T07:37:13.752Z</time></trkpt><trkpt lat="42.3912991" lon="14.1294499"><ele>51.75</ele><time>2026-05-02T07:37:14.752Z</time></trkpt><trkpt lat="42.3911859" lon="14.129412"><ele>48.5</ele><time>2026-05-02T07:37:15.751Z</time></trkpt><trkpt lat="42.3910629" lon="14.1293955"><ele>45.25</ele><time>2026-05-02T07:37:16.751Z</time></trkpt><trkpt lat="42.3909287" lon="14.1294109"><ele>42.0</ele><time>2026-05-02T07:37:17.757Z</time></trkpt><trkpt lat="42.3907901" lon="14.1294523"><ele>42.0</ele><time>2026-05-02T07:37:18.752Z</time></trkpt><trkpt lat="42.3906435" lon="14.129504"><ele>42.0</ele><time>2026-05-02T07:37:19.751Z</time></trkpt><trkpt lat="42.3904977" lon="14.1295572"><ele>42.0</ele><time>2026-05-02T07:37:20.752Z</time></trkpt><trkpt lat="42.3903525" lon="14.1296126"><ele>39.0</ele><time>2026-05-02T07:37:21.752Z</time></trkpt><trkpt lat="42.3902104" lon="14.1296695"><ele>36.0</ele><time>2026-05-02T07:37:22.752Z</time></trkpt><trkpt lat="42.3900773" lon="14.1297239"><ele>33.0</ele><time>2026-05-02T07:37:23.751Z</time></trkpt><trkpt lat="42.3899572" lon="14.129771"><ele>30.0</ele><time>2026-05-02T07:37:24.752Z</time></trkpt><trkpt lat="42.3898509" lon="14.1298141"><ele>30.0</ele><time>2026-05-02T07:37:25.751Z</time></trkpt><trkpt lat="42.3897552" lon="14.1298545"><ele>30.0</ele><time>2026-05-02T07:37:26.753Z</time></trkpt><trkpt lat="42.3896717" lon="14.1298894"><ele>30.0</ele><time>2026-05-02T07:37:27.751Z</time></trkpt><trkpt lat="42.3895738" lon="14.1299214"><ele>30.0</ele><time>2026-05-02T07:37:29.75Z</time></trkpt><trkpt lat="42.389497" lon="14.1299452"><ele>30.0</ele><time>2026-05-02T07:37:32.754Z</time></trkpt><trkpt lat="42.3894207" lon="14.1299923"><ele>30.0</ele><time>2026-05-02T07:37:34.751Z</time></trkpt><trkpt lat="42.389361" lon="14.1300519"><ele>30.0</ele><time>2026-05-02T07:37:36.75Z</time></trkpt><trkpt lat="42.3893097" lon="14.1301056"><ele>30.0</ele><time>2026-05-02T07:37:38.755Z</time></trkpt><trkpt lat="42.3892447" lon="14.1301693"><ele>30.0</ele><time>2026-05-02T07:37:41.75Z</time></trkpt><trkpt lat="42.3891948" lon="14.1302229"><ele>30.0</ele><time>2026-05-02T07:37:43.752Z</time></trkpt><trkpt lat="42.3891277" lon="14.1302857"><ele>30.0</ele><time>2026-05-02T07:37:45.752Z</time></trkpt><trkpt lat="42.3890532" lon="14.1303437"><ele>30.0</ele><time>2026-05-02T07:37:47.752Z</time></trkpt><trkpt lat="42.3889741" lon="14.1304038"><ele>30.0</ele><time>2026-05-02T07:37:49.751Z</time></trkpt><trkpt lat="42.3888699" lon="14.1304813"><ele>30.0</ele><time>2026-05-02T07:37:51.752Z</time></trkpt><trkpt lat="42.3888072" lon="14.1305275"><ele>30.0</ele><time>2026-05-02T07:37:52.751Z</time></trkpt><trkpt lat="42.3887346" lon="14.1305803"><ele>30.0</ele><time>2026-05-02T07:37:53.753Z</time></trkpt><trkpt lat="42.3886602" lon="14.130629"><ele>30.0</ele><time>2026-05-02T07:37:54.754Z</time></trkpt><trkpt lat="42.3885867" lon="14.1306583"><ele>30.0</ele><time>2026-05-02T07:37:55.751Z</time></trkpt><trkpt lat="42.3885196" lon="14.1306651"><ele>30.0</ele><time>2026-05-02T07:37:56.752Z</time></trkpt><trkpt lat="42.388452" lon="14.1306442"><ele>30.0</ele><time>2026-05-02T07:37:57.751Z</time></trkpt><trkpt lat="42.3883821" lon="14.1306049"><ele>30.0</ele><time>2026-05-02T07:37:58.751Z</time></trkpt><trkpt lat="42.3883132" lon="14.1305627"><ele>30.0</ele><time>2026-05-02T07:37:59.753Z</time></trkpt><trkpt lat="42.388244" lon="14.1305114"><ele>30.0</ele><time>2026-05-02T07:38:00.752Z</time></trkpt><trkpt lat="42.3881757" lon="14.1304483"><ele>30.0</ele><time>2026-05-02T07:38:01.752Z</time></trkpt><trkpt lat="42.3881142" lon="14.1303704"><ele>30.0</ele><time>2026-05-02T07:38:02.752Z</time></trkpt><trkpt lat="42.3880653" lon="14.1302838"><ele>30.0</ele><time>2026-05-02T07:38:03.752Z</time></trkpt><trkpt lat="42.3880267" lon="14.1301853"><ele>30.0</ele><time>2026-05-02T07:38:04.751Z</time></trkpt><trkpt lat="42.3880029" lon="14.1300816"><ele>30.0</ele><time>2026-05-02T07:38:05.754Z</time></trkpt><trkpt lat="42.3879855" lon="14.129977"><ele>30.0</ele><time>2026-05-02T07:38:06.751Z</time></trkpt><trkpt lat="42.3879718" lon="14.1298606"><ele>30.0</ele><time>2026-05-02T07:38:07.752Z</time></trkpt><trkpt lat="42.3879568" lon="14.1297346"><ele>31.2</ele><time>2026-05-02T07:38:08.752Z</time></trkpt><trkpt lat="42.3879454" lon="14.1295986"><ele>32.4</ele><time>2026-05-02T07:38:09.752Z</time></trkpt><trkpt lat="42.3879429" lon="14.129453"><ele>33.6</ele><time>2026-05-02T07:38:10.755Z</time></trkpt><trkpt lat="42.387949" lon="14.1293054"><ele>34.8</ele><time>2026-05-02T07:38:11.752Z</time></trkpt><trkpt lat="42.3879635" lon="14.1291823"><ele>36.0</ele><time>2026-05-02T07:38:12.751Z</time></trkpt><trkpt lat="42.3879861" lon="14.1290871"><ele>36.2</ele><time>2026-05-02T07:38:13.752Z</time></trkpt><trkpt lat="42.3880081" lon="14.1290065"><ele>36.400000000000006</ele><time>2026-05-02T07:38:14.751Z</time></trkpt><trkpt lat="42.3880361" lon="14.1288711"><ele>36.6</ele><time>2026-05-02T07:38:16.751Z</time></trkpt><trkpt lat="42.3880444" lon="14.1287206"><ele>36.800000000000004</ele><time>2026-05-02T07:38:18.751Z</time></trkpt><trkpt lat="42.3880353" lon="14.1286021"><ele>37.0</ele><time>2026-05-02T07:38:20.75Z</time></trkpt><trkpt lat="42.3880184" lon="14.1284631"><ele>38.333333333333336</ele><time>2026-05-02T07:38:22.751Z</time></trkpt><trkpt lat="42.3879764" lon="14.1282941"><ele>39.66666666666667</ele><time>2026-05-02T07:38:24.752Z</time></trkpt><trkpt lat="42.3879445" lon="14.1282016"><ele>41.0</ele><time>2026-05-02T07:38:25.752Z</time></trkpt><trkpt lat="42.3879031" lon="14.1281083"><ele>42.333333333333336</ele><time>2026-05-02T07:38:26.751Z</time></trkpt><trkpt lat="42.3878609" lon="14.1280147"><ele>43.666666666666664</ele><time>2026-05-02T07:38:27.751Z</time></trkpt><trkpt lat="42.3878182" lon="14.127935"><ele>45.0</ele><time>2026-05-02T07:38:28.752Z</time></trkpt><trkpt lat="42.3877772" lon="14.127865"><ele>45.0</ele><time>2026-05-02T07:38:29.757Z</time></trkpt><trkpt lat="42.3877013" lon="14.1277743"><ele>45.0</ele><time>2026-05-02T07:38:31.753Z</time></trkpt><trkpt lat="42.3876279" lon="14.1277002"><ele>45.0</ele><time>2026-05-02T07:38:33.751Z</time></trkpt><trkpt lat="42.3875548" lon="14.1276286"><ele>45.0</ele><time>2026-05-02T07:38:35.751Z</time></trkpt><trkpt lat="42.3874975" lon="14.1275835"><ele>45.0</ele><time>2026-05-02T07:38:37.75Z</time></trkpt><trkpt lat="42.3874285" lon="14.1275652"><ele>45.0</ele><time>2026-05-02T07:38:45.756Z</time></trkpt><trkpt lat="42.3875264" lon="14.1276764"><ele>45.0</ele><time>2026-05-02T07:38:48.751Z</time></trkpt><trkpt lat="42.387597" lon="14.1277393"><ele>45.0</ele><time>2026-05-02T07:38:49.751Z</time></trkpt><trkpt lat="42.3876754" lon="14.1278244"><ele>45.0</ele><time>2026-05-02T07:38:50.751Z</time></trkpt><trkpt lat="42.3877522" lon="14.1279238"><ele>45.0</ele><time>2026-05-02T07:38:51.752Z</time></trkpt><trkpt lat="42.3878139" lon="14.1280267"><ele>45.0</ele><time>2026-05-02T07:38:52.75Z</time></trkpt><trkpt lat="42.3878642" lon="14.1281338"><ele>45.166666666666664</ele><time>2026-05-02T07:38:53.756Z</time></trkpt><trkpt lat="42.3879004" lon="14.1282422"><ele>45.333333333333336</ele><time>2026-05-02T07:38:54.752Z</time></trkpt><trkpt lat="42.3879367" lon="14.1283454"><ele>45.5</ele><time>2026-05-02T07:38:55.751Z</time></trkpt><trkpt lat="42.3879624" lon="14.1284414"><ele>45.66666666666667</ele><time>2026-05-02T07:38:56.752Z</time></trkpt><trkpt lat="42.3879797" lon="14.1285361"><ele>45.833333333333336</ele><time>2026-05-02T07:38:57.75Z</time></trkpt><trkpt lat="42.3879894" lon="14.1286372"><ele>46.0</ele><time>2026-05-02T07:38:58.749Z</time></trkpt><trkpt lat="42.387992" lon="14.1287479"><ele>46.0</ele><time>2026-05-02T07:38:59.755Z</time></trkpt><trkpt lat="42.3879831" lon="14.1288682"><ele>46.0</ele><time>2026-05-02T07:39:00.754Z</time></trkpt><trkpt lat="42.3879667" lon="14.1289798"><ele>46.0</ele><time>2026-05-02T07:39:01.752Z</time></trkpt><trkpt lat="42.3879451" lon="14.1290774"><ele>46.0</ele><time>2026-05-02T07:39:02.75Z</time></trkpt><trkpt lat="42.3879237" lon="14.129188"><ele>46.0</ele><time>2026-05-02T07:39:03.752Z</time></trkpt><trkpt lat="42.3879082" lon="14.1293267"><ele>46.0</ele><time>2026-05-02T07:39:04.756Z</time></trkpt><trkpt lat="42.3879077" lon="14.1294882"><ele>44.0</ele><time>2026-05-02T07:39:05.754Z</time></trkpt><trkpt lat="42.3879118" lon="14.1296491"><ele>42.0</ele><time>2026-05-02T07:39:06.757Z</time></trkpt><trkpt lat="42.3879151" lon="14.129796"><ele>40.0</ele><time>2026-05-02T07:39:07.752Z</time></trkpt><trkpt lat="42.3879182" lon="14.1299256"><ele>38.0</ele><time>2026-05-02T07:39:08.754Z</time></trkpt><trkpt lat="42.3879283" lon="14.130037"><ele>36.0</ele><time>2026-05-02T07:39:09.754Z</time></trkpt><trkpt lat="42.3879394" lon="14.1301358"><ele>35.2</ele><time>2026-05-02T07:39:10.757Z</time></trkpt><trkpt lat="42.3879227" lon="14.1302615"><ele>34.400000000000006</ele><time>2026-05-02T07:39:12.757Z</time></trkpt><trkpt lat="42.3878509" lon="14.1302919"><ele>33.6</ele><time>2026-05-02T07:39:14.754Z</time></trkpt><trkpt lat="42.387758" lon="14.1302452"><ele>32.800000000000004</ele><time>2026-05-02T07:39:16.757Z</time></trkpt><trkpt lat="42.3876491" lon="14.1301379"><ele>32.0</ele><time>2026-05-02T07:39:18.752Z</time></trkpt><trkpt lat="42.3875803" lon="14.1300724"><ele>32.0</ele><time>2026-05-02T07:39:19.752Z</time></trkpt><trkpt lat="42.3875019" lon="14.1300075"><ele>32.0</ele><time>2026-05-02T07:39:20.755Z</time></trkpt><trkpt lat="42.3874155" lon="14.1299273"><ele>32.0</ele><time>2026-05-02T07:39:21.752Z</time></trkpt><trkpt lat="42.3873204" lon="14.1298375"><ele>32.0</ele><time>2026-05-02T07:39:22.757Z</time></trkpt><trkpt lat="42.3872248" lon="14.1297435"><ele>32.0</ele><time>2026-05-02T07:39:23.75Z</time></trkpt><trkpt lat="42.3871253" lon="14.1296484"><ele>32.25</ele><time>2026-05-02T07:39:24.757Z</time></trkpt><trkpt lat="42.3870238" lon="14.1295478"><ele>32.5</ele><time>2026-05-02T07:39:25.75Z</time></trkpt><trkpt lat="42.3869257" lon="14.1294407"><ele>32.75</ele><time>2026-05-02T07:39:26.756Z</time></trkpt><trkpt lat="42.3868329" lon="14.1293202"><ele>33.0</ele><time>2026-05-02T07:39:27.752Z</time></trkpt><trkpt lat="42.3867473" lon="14.1291958"><ele>33.0</ele><time>2026-05-02T07:39:28.751Z</time></trkpt><trkpt lat="42.3866612" lon="14.1290647"><ele>33.0</ele><time>2026-05-02T07:39:29.75Z</time></trkpt><trkpt lat="42.38658" lon="14.1289289"><ele>33.0</ele><time>2026-05-02T07:39:30.754Z</time></trkpt><trkpt lat="42.3864973" lon="14.128794"><ele>33.0</ele><time>2026-05-02T07:39:31.751Z</time></trkpt><trkpt lat="42.3864155" lon="14.1286557"><ele>33.5</ele><time>2026-05-02T07:39:32.756Z</time></trkpt><trkpt lat="42.3863265" lon="14.1285212"><ele>34.0</ele><time>2026-05-02T07:39:33.752Z</time></trkpt><trkpt lat="42.3862331" lon="14.1283974"><ele>34.5</ele><time>2026-05-02T07:39:34.757Z</time></trkpt><trkpt lat="42.3861337" lon="14.1282868"><ele>35.0</ele><time>2026-05-02T07:39:35.753Z</time></trkpt><trkpt lat="42.3860378" lon="14.1281923"><ele>35.166666666666664</ele><time>2026-05-02T07:39:36.756Z</time></trkpt><trkpt lat="42.3859504" lon="14.1281086"><ele>35.33333333333333</ele><time>2026-05-02T07:39:37.754Z</time></trkpt><trkpt lat="42.3858844" lon="14.1280368"><ele>35.5</ele><time>2026-05-02T07:39:38.757Z</time></trkpt><trkpt lat="42.3858266" lon="14.1279757"><ele>35.666666666666664</ele><time>2026-05-02T07:39:39.751Z</time></trkpt><trkpt lat="42.3857664" lon="14.127918"><ele>35.833333333333336</ele><time>2026-05-02T07:39:40.757Z</time></trkpt><trkpt lat="42.3856784" lon="14.1278287"><ele>36.0</ele><time>2026-05-02T07:39:42.756Z</time></trkpt><trkpt lat="42.3856027" lon="14.1277598"><ele>36.0</ele><time>2026-05-02T07:40:09.752Z</time></trkpt><trkpt lat="42.3855503" lon="14.1277117"><ele>36.0</ele><time>2026-05-02T07:40:10.756Z</time></trkpt><trkpt lat="42.3854842" lon="14.1276465"><ele>36.0</ele><time>2026-05-02T07:40:11.752Z</time></trkpt><trkpt lat="42.3854049" lon="14.1275654"><ele>36.0</ele><time>2026-05-02T07:40:12.753Z</time></trkpt><trkpt lat="42.385316" lon="14.1274744"><ele>36.0</ele><time>2026-05-02T07:40:13.752Z</time></trkpt><trkpt lat="42.3852326" lon="14.1273846"><ele>38.25</ele><time>2026-05-02T07:40:14.756Z</time></trkpt><trkpt lat="42.3851476" lon="14.1272979"><ele>40.5</ele><time>2026-05-02T07:40:15.753Z</time></trkpt><trkpt lat="42.3850562" lon="14.1272156"><ele>42.75</ele><time>2026-05-02T07:40:16.757Z</time></trkpt><trkpt lat="42.3849511" lon="14.1271474"><ele>45.0</ele><time>2026-05-02T07:40:17.753Z</time></trkpt><trkpt lat="42.3848294" lon="14.1270878"><ele>45.0</ele><time>2026-05-02T07:40:18.753Z</time></trkpt><trkpt lat="42.3846921" lon="14.1270271"><ele>45.0</ele><time>2026-05-02T07:40:19.752Z</time></trkpt><trkpt lat="42.38455" lon="14.1269738"><ele>45.0</ele><time>2026-05-02T07:40:20.756Z</time></trkpt><trkpt lat="42.3844065" lon="14.1269177"><ele>45.0</ele><time>2026-05-02T07:40:21.752Z</time></trkpt><trkpt lat="42.3842619" lon="14.1268486"><ele>44.0</ele><time>2026-05-02T07:40:22.756Z</time></trkpt><trkpt lat="42.3841121" lon="14.1267772"><ele>43.0</ele><time>2026-05-02T07:40:23.751Z</time></trkpt><trkpt lat="42.3839567" lon="14.1266991"><ele>42.0</ele><time>2026-05-02T07:40:24.754Z</time></trkpt><trkpt lat="42.3838042" lon="14.1266144"><ele>44.75</ele><time>2026-05-02T07:40:25.753Z</time></trkpt><trkpt lat="42.3836715" lon="14.1265304"><ele>47.5</ele><time>2026-05-02T07:40:26.753Z</time></trkpt><trkpt lat="42.3835456" lon="14.1264546"><ele>50.25</ele><time>2026-05-02T07:40:27.75Z</time></trkpt><trkpt lat="42.3834062" lon="14.1264075"><ele>53.0</ele><time>2026-05-02T07:40:28.756Z</time></trkpt><trkpt lat="42.3832671" lon="14.1263924"><ele>53.0</ele><time>2026-05-02T07:40:29.752Z</time></trkpt><trkpt lat="42.3831203" lon="14.1263864"><ele>53.0</ele><time>2026-05-02T07:40:30.755Z</time></trkpt><trkpt lat="42.3829721" lon="14.1263789"><ele>53.0</ele><time>2026-05-02T07:40:31.753Z</time></trkpt><trkpt lat="42.3828266" lon="14.1263544"><ele>53.0</ele><time>2026-05-02T07:40:32.756Z</time></trkpt><trkpt lat="42.3826832" lon="14.1263112"><ele>53.0</ele><time>2026-05-02T07:40:33.75Z</time></trkpt><trkpt lat="42.3825421" lon="14.1262446"><ele>53.0</ele><time>2026-05-02T07:40:34.752Z</time></trkpt><trkpt lat="42.3823997" lon="14.1261486"><ele>53.0</ele><time>2026-05-02T07:40:35.752Z</time></trkpt><trkpt lat="42.3822531" lon="14.1260269"><ele>53.0</ele><time>2026-05-02T07:40:36.755Z</time></trkpt><trkpt lat="42.3821053" lon="14.1258945"><ele>53.0</ele><time>2026-05-02T07:40:37.753Z</time></trkpt><trkpt lat="42.3819558" lon="14.1257622"><ele>53.0</ele><time>2026-05-02T07:40:38.752Z</time></trkpt><trkpt lat="42.3817988" lon="14.1256358"><ele>53.0</ele><time>2026-05-02T07:40:39.752Z</time></trkpt><trkpt lat="42.3816336" lon="14.1255103"><ele>53.0</ele><time>2026-05-02T07:40:40.754Z</time></trkpt><trkpt lat="42.3814641" lon="14.1253844"><ele>53.0</ele><time>2026-05-02T07:40:41.751Z</time></trkpt><trkpt lat="42.3813015" lon="14.1252673"><ele>51.333333333333336</ele><time>2026-05-02T07:40:42.754Z</time></trkpt><trkpt lat="42.3811453" lon="14.1251575"><ele>49.66666666666667</ele><time>2026-05-02T07:40:43.751Z</time></trkpt><trkpt lat="42.3809958" lon="14.1250526"><ele>48.0</ele><time>2026-05-02T07:40:44.755Z</time></trkpt><trkpt lat="42.3808482" lon="14.1249439"><ele>49.33333333333333</ele><time>2026-05-02T07:40:45.752Z</time></trkpt><trkpt lat="42.380701" lon="14.124828"><ele>50.666666666666664</ele><time>2026-05-02T07:40:46.754Z</time></trkpt><trkpt lat="42.3805474" lon="14.1247128"><ele>52.0</ele><time>2026-05-02T07:40:47.753Z</time></trkpt><trkpt lat="42.3803902" lon="14.1246"><ele>52.0</ele><time>2026-05-02T07:40:48.752Z</time></trkpt><trkpt lat="42.3802384" lon="14.124491"><ele>52.0</ele><time>2026-05-02T07:40:49.754Z</time></trkpt><trkpt lat="42.3800975" lon="14.1243872"><ele>52.0</ele><time>2026-05-02T07:40:50.752Z</time></trkpt><trkpt lat="42.3799783" lon="14.1242903"><ele>51.99999999999999</ele><time>2026-05-02T07:40:51.753Z</time></trkpt><trkpt lat="42.3798927" lon="14.1242036"><ele>52.0</ele><time>2026-05-02T07:40:52.753Z</time></trkpt><trkpt lat="42.379836" lon="14.1241115"><ele>52.0</ele><time>2026-05-02T07:40:53.752Z</time></trkpt><trkpt lat="42.3798034" lon="14.1240086"><ele>52.0</ele><time>2026-05-02T07:40:54.751Z</time></trkpt><trkpt lat="42.3797801" lon="14.1239012"><ele>51.99999999999999</ele><time>2026-05-02T07:40:55.752Z</time></trkpt><trkpt lat="42.3797442" lon="14.1238174"><ele>52.0</ele><time>2026-05-02T07:40:56.752Z</time></trkpt><trkpt lat="42.3796923" lon="14.1237681"><ele>53.166666666666664</ele><time>2026-05-02T07:40:57.75Z</time></trkpt><trkpt lat="42.3796249" lon="14.1237467"><ele>54.33333333333333</ele><time>2026-05-02T07:40:58.749Z</time></trkpt><trkpt lat="42.3795478" lon="14.1237397"><ele>55.5</ele><time>2026-05-02T07:40:59.751Z</time></trkpt><trkpt lat="42.3794606" lon="14.1237181"><ele>56.66666666666667</ele><time>2026-05-02T07:41:00.753Z</time></trkpt><trkpt lat="42.3793616" lon="14.1236934"><ele>57.833333333333336</ele><time>2026-05-02T07:41:01.752Z</time></trkpt><trkpt lat="42.3792505" lon="14.1236659"><ele>59.0</ele><time>2026-05-02T07:41:02.751Z</time></trkpt><trkpt lat="42.3791341" lon="14.1236346"><ele>59.0</ele><time>2026-05-02T07:41:03.752Z</time></trkpt><trkpt lat="42.379015" lon="14.1236105"><ele>59.0</ele><time>2026-05-02T07:41:04.752Z</time></trkpt><trkpt lat="42.3788914" lon="14.1235898"><ele>59.0</ele><time>2026-05-02T07:41:05.751Z</time></trkpt><trkpt lat="42.378766" lon="14.123569"><ele>59.0</ele><time>2026-05-02T07:41:06.756Z</time></trkpt><trkpt lat="42.3786376" lon="14.1235504"><ele>58.0</ele><time>2026-05-02T07:41:07.754Z</time></trkpt><trkpt lat="42.3785126" lon="14.123533"><ele>57.0</ele><time>2026-05-02T07:41:08.752Z</time></trkpt><trkpt lat="42.378395" lon="14.1235096"><ele>56.0</ele><time>2026-05-02T07:41:09.753Z</time></trkpt><trkpt lat="42.3782798" lon="14.1234833"><ele>55.0</ele><time>2026-05-02T07:41:10.751Z</time></trkpt><trkpt lat="42.3781678" lon="14.1234639"><ele>55.0</ele><time>2026-05-02T07:41:11.752Z</time></trkpt><trkpt lat="42.3780584" lon="14.123448"><ele>55.0</ele><time>2026-05-02T07:41:12.75Z</time></trkpt><trkpt lat="42.3779499" lon="14.1234312"><ele>55.0</ele><time>2026-05-02T07:41:13.752Z</time></trkpt><trkpt lat="42.3778439" lon="14.1234119"><ele>55.0</ele><time>2026-05-02T07:41:14.752Z</time></trkpt><trkpt lat="42.3777372" lon="14.1233941"><ele>55.0</ele><time>2026-05-02T07:41:15.751Z</time></trkpt><trkpt lat="42.3776316" lon="14.1233771"><ele>53.2</ele><time>2026-05-02T07:41:16.752Z</time></trkpt><trkpt lat="42.3775294" lon="14.1233627"><ele>51.4</ele><time>2026-05-02T07:41:17.751Z</time></trkpt><trkpt lat="42.377427" lon="14.123364"><ele>49.599999999999994</ele><time>2026-05-02T07:41:18.753Z</time></trkpt><trkpt lat="42.37733" lon="14.1233891"><ele>47.8</ele><time>2026-05-02T07:41:19.751Z</time></trkpt><trkpt lat="42.3772426" lon="14.1234414"><ele>46.0</ele><time>2026-05-02T07:41:20.754Z</time></trkpt><trkpt lat="42.3771631" lon="14.1235136"><ele>45.599999999999994</ele><time>2026-05-02T07:41:21.751Z</time></trkpt><trkpt lat="42.3770983" lon="14.123604"><ele>45.2</ele><time>2026-05-02T07:41:22.757Z</time></trkpt><trkpt lat="42.3770441" lon="14.1237079"><ele>44.8</ele><time>2026-05-02T07:41:23.753Z</time></trkpt><trkpt lat="42.3769861" lon="14.1238095"><ele>44.400000000000006</ele><time>2026-05-02T07:41:24.752Z</time></trkpt><trkpt lat="42.3769278" lon="14.1239043"><ele>44.0</ele><time>2026-05-02T07:41:25.754Z</time></trkpt><trkpt lat="42.3768606" lon="14.1239913"><ele>42.83333333333333</ele><time>2026-05-02T07:41:26.75Z</time></trkpt><trkpt lat="42.376789" lon="14.1240707"><ele>41.666666666666664</ele><time>2026-05-02T07:41:27.754Z</time></trkpt><trkpt lat="42.376711" lon="14.1241407"><ele>40.5</ele><time>2026-05-02T07:41:28.753Z</time></trkpt><trkpt lat="42.3766244" lon="14.124184"><ele>39.333333333333336</ele><time>2026-05-02T07:41:29.752Z</time></trkpt><trkpt lat="42.3765371" lon="14.1242014"><ele>38.16666666666667</ele><time>2026-05-02T07:41:30.751Z</time></trkpt><trkpt lat="42.3764545" lon="14.1242008"><ele>37.0</ele><time>2026-05-02T07:41:31.751Z</time></trkpt><trkpt lat="42.3763745" lon="14.1241762"><ele>37.2</ele><time>2026-05-02T07:41:32.751Z</time></trkpt><trkpt lat="42.3762955" lon="14.1241361"><ele>37.400000000000006</ele><time>2026-05-02T07:41:33.752Z</time></trkpt><trkpt lat="42.3762168" lon="14.1240897"><ele>37.599999999999994</ele><time>2026-05-02T07:41:34.751Z</time></trkpt><trkpt lat="42.3761313" lon="14.1240533"><ele>37.8</ele><time>2026-05-02T07:41:35.751Z</time></trkpt><trkpt lat="42.3760406" lon="14.1240191"><ele>38.0</ele><time>2026-05-02T07:41:36.749Z</time></trkpt><trkpt lat="42.3759454" lon="14.1239836"><ele>38.199999999999996</ele><time>2026-05-02T07:41:37.752Z</time></trkpt><trkpt lat="42.3758464" lon="14.1239455"><ele>38.4</ele><time>2026-05-02T07:41:38.754Z</time></trkpt><trkpt lat="42.3757414" lon="14.1239027"><ele>38.599999999999994</ele><time>2026-05-02T07:41:39.754Z</time></trkpt><trkpt lat="42.3756362" lon="14.1238485"><ele>38.8</ele><time>2026-05-02T07:41:40.753Z</time></trkpt><trkpt lat="42.3755283" lon="14.1237845"><ele>39.0</ele><time>2026-05-02T07:41:41.753Z</time></trkpt><trkpt lat="42.3754179" lon="14.1237089"><ele>39.0</ele><time>2026-05-02T07:41:42.75Z</time></trkpt><trkpt lat="42.3753016" lon="14.1236272"><ele>39.0</ele><time>2026-05-02T07:41:43.752Z</time></trkpt><trkpt lat="42.3751831" lon="14.1235344"><ele>39.0</ele><time>2026-05-02T07:41:44.751Z</time></trkpt><trkpt lat="42.37506" lon="14.1234344"><ele>39.0</ele><time>2026-05-02T07:41:45.753Z</time></trkpt><trkpt lat="42.3749352" lon="14.1233315"><ele>39.5</ele><time>2026-05-02T07:41:46.753Z</time></trkpt><trkpt lat="42.3748082" lon="14.1232268"><ele>40.0</ele><time>2026-05-02T07:41:47.753Z</time></trkpt><trkpt lat="42.3746826" lon="14.1231292"><ele>40.5</ele><time>2026-05-02T07:41:48.755Z</time></trkpt><trkpt lat="42.3745695" lon="14.123037"><ele>41.0</ele><time>2026-05-02T07:41:49.753Z</time></trkpt><trkpt lat="42.3744629" lon="14.1229431"><ele>41.0</ele><time>2026-05-02T07:41:50.752Z</time></trkpt><trkpt lat="42.3743645" lon="14.1228475"><ele>41.0</ele><time>2026-05-02T07:41:51.757Z</time></trkpt><trkpt lat="42.3742757" lon="14.1227563"><ele>41.0</ele><time>2026-05-02T07:41:52.753Z</time></trkpt><trkpt lat="42.3741878" lon="14.1226746"><ele>41.0</ele><time>2026-05-02T07:41:53.755Z</time></trkpt><trkpt lat="42.3740912" lon="14.1226066"><ele>41.0</ele><time>2026-05-02T07:41:54.75Z</time></trkpt><trkpt lat="42.3739831" lon="14.1225476"><ele>41.0</ele><time>2026-05-02T07:41:55.752Z</time></trkpt><trkpt lat="42.3738662" lon="14.1224782"><ele>41.0</ele><time>2026-05-02T07:41:56.751Z</time></trkpt><trkpt lat="42.373745" lon="14.1224009"><ele>41.0</ele><time>2026-05-02T07:41:57.752Z</time></trkpt><trkpt lat="42.3736226" lon="14.1223129"><ele>41.0</ele><time>2026-05-02T07:41:58.752Z</time></trkpt><trkpt lat="42.3734936" lon="14.1222202"><ele>41.0</ele><time>2026-05-02T07:41:59.751Z</time></trkpt><trkpt lat="42.3733633" lon="14.1221167"><ele>41.0</ele><time>2026-05-02T07:42:00.752Z</time></trkpt><trkpt lat="42.3732262" lon="14.1220088"><ele>41.0</ele><time>2026-05-02T07:42:01.752Z</time></trkpt><trkpt lat="42.3730892" lon="14.1218954"><ele>38.666666666666664</ele><time>2026-05-02T07:42:02.752Z</time></trkpt><trkpt lat="42.3729529" lon="14.1217835"><ele>36.333333333333336</ele><time>2026-05-02T07:42:03.753Z</time></trkpt><trkpt lat="42.372817" lon="14.1216732"><ele>34.0</ele><time>2026-05-02T07:42:04.751Z</time></trkpt><trkpt lat="42.3726839" lon="14.1215679"><ele>37.0</ele><time>2026-05-02T07:42:05.752Z</time></trkpt><trkpt lat="42.3725541" lon="14.121462"><ele>40.0</ele><time>2026-05-02T07:42:06.75Z</time></trkpt><trkpt lat="42.3724228" lon="14.1213615"><ele>43.0</ele><time>2026-05-02T07:42:07.753Z</time></trkpt><trkpt lat="42.3722935" lon="14.1212602"><ele>39.66666666666667</ele><time>2026-05-02T07:42:08.75Z</time></trkpt><trkpt lat="42.3721623" lon="14.1211611"><ele>36.333333333333336</ele><time>2026-05-02T07:42:09.752Z</time></trkpt><trkpt lat="42.3720212" lon="14.1210729"><ele>33.0</ele><time>2026-05-02T07:42:10.756Z</time></trkpt><trkpt lat="42.371874" lon="14.1209941"><ele>33.0</ele><time>2026-05-02T07:42:11.751Z</time></trkpt><trkpt lat="42.3717201" lon="14.1209203"><ele>33.0</ele><time>2026-05-02T07:42:12.75Z</time></trkpt><trkpt lat="42.3715636" lon="14.1208446"><ele>33.0</ele><time>2026-05-02T07:42:13.751Z</time></trkpt><trkpt lat="42.3714043" lon="14.1207663"><ele>34.666666666666664</ele><time>2026-05-02T07:42:14.752Z</time></trkpt><trkpt lat="42.3712408" lon="14.1206931"><ele>36.33333333333333</ele><time>2026-05-02T07:42:15.752Z</time></trkpt><trkpt lat="42.3710726" lon="14.1206284"><ele>38.0</ele><time>2026-05-02T07:42:16.752Z</time></trkpt><trkpt lat="42.3709022" lon="14.1205651"><ele>38.0</ele><time>2026-05-02T07:42:17.753Z</time></trkpt><trkpt lat="42.3707272" lon="14.1205125"><ele>38.0</ele><time>2026-05-02T07:42:18.752Z</time></trkpt><trkpt lat="42.3705478" lon="14.1204763"><ele>38.0</ele><time>2026-05-02T07:42:19.752Z</time></trkpt><trkpt lat="42.37037" lon="14.1204533"><ele>37.666666666666664</ele><time>2026-05-02T07:42:20.751Z</time></trkpt><trkpt lat="42.3701929" lon="14.1204319"><ele>37.333333333333336</ele><time>2026-05-02T07:42:21.752Z</time></trkpt><trkpt lat="42.370016" lon="14.1204121"><ele>37.0</ele><time>2026-05-02T07:42:22.753Z</time></trkpt><trkpt lat="42.3698431" lon="14.1203903"><ele>37.0</ele><time>2026-05-02T07:42:23.752Z</time></trkpt><trkpt lat="42.3696685" lon="14.1203684"><ele>37.0</ele><time>2026-05-02T07:42:24.753Z</time></trkpt><trkpt lat="42.3694936" lon="14.1203459"><ele>37.0</ele><time>2026-05-02T07:42:25.754Z</time></trkpt><trkpt lat="42.3693189" lon="14.1203209"><ele>37.0</ele><time>2026-05-02T07:42:26.752Z</time></trkpt><trkpt lat="42.3691467" lon="14.1203018"><ele>37.0</ele><time>2026-05-02T07:42:27.754Z</time></trkpt><trkpt lat="42.3689734" lon="14.1202816"><ele>37.0</ele><time>2026-05-02T07:42:28.753Z</time></trkpt><trkpt lat="42.3688031" lon="14.1202581"><ele>34.333333333333336</ele><time>2026-05-02T07:42:29.754Z</time></trkpt><trkpt lat="42.3686336" lon="14.1202356"><ele>31.666666666666664</ele><time>2026-05-02T07:42:30.752Z</time></trkpt><trkpt lat="42.3684694" lon="14.1202023"><ele>29.0</ele><time>2026-05-02T07:42:31.753Z</time></trkpt><trkpt lat="42.368315" lon="14.1201311"><ele>29.0</ele><time>2026-05-02T07:42:32.753Z</time></trkpt><trkpt lat="42.3681635" lon="14.1200443"><ele>29.0</ele><time>2026-05-02T07:42:33.755Z</time></trkpt><trkpt lat="42.3680135" lon="14.1199578"><ele>29.0</ele><time>2026-05-02T07:42:34.753Z</time></trkpt><trkpt lat="42.3678672" lon="14.1198666"><ele>28.666666666666664</ele><time>2026-05-02T07:42:35.753Z</time></trkpt><trkpt lat="42.3677204" lon="14.1197687"><ele>28.333333333333336</ele><time>2026-05-02T07:42:36.756Z</time></trkpt><trkpt lat="42.3675727" lon="14.119667"><ele>28.0</ele><time>2026-05-02T07:42:37.752Z</time></trkpt><trkpt lat="42.3674263" lon="14.1195615"><ele>28.0</ele><time>2026-05-02T07:42:38.752Z</time></trkpt><trkpt lat="42.3672782" lon="14.1194551"><ele>28.0</ele><time>2026-05-02T07:42:39.754Z</time></trkpt><trkpt lat="42.3671265" lon="14.1193519"><ele>28.0</ele><time>2026-05-02T07:42:40.754Z</time></trkpt><trkpt lat="42.3669762" lon="14.119249"><ele>28.0</ele><time>2026-05-02T07:42:41.753Z</time></trkpt><trkpt lat="42.3668218" lon="14.119142"><ele>28.0</ele><time>2026-05-02T07:42:42.753Z</time></trkpt><trkpt lat="42.3666638" lon="14.1190247"><ele>28.0</ele><time>2026-05-02T07:42:43.754Z</time></trkpt><trkpt lat="42.3665021" lon="14.1189108"><ele>28.0</ele><time>2026-05-02T07:42:44.751Z</time></trkpt><trkpt lat="42.3663385" lon="14.1187952"><ele>28.0</ele><time>2026-05-02T07:42:45.754Z</time></trkpt><trkpt lat="42.3661716" lon="14.1186809"><ele>28.0</ele><time>2026-05-02T07:42:46.752Z</time></trkpt><trkpt lat="42.3660031" lon="14.1185655"><ele>28.0</ele><time>2026-05-02T07:42:47.754Z</time></trkpt><trkpt lat="42.3658309" lon="14.1184476"><ele>28.0</ele><time>2026-05-02T07:42:48.751Z</time></trkpt><trkpt lat="42.3656565" lon="14.1183334"><ele>28.0</ele><time>2026-05-02T07:42:49.756Z</time></trkpt><trkpt lat="42.3654811" lon="14.1182201"><ele>29.333333333333336</ele><time>2026-05-02T07:42:50.751Z</time></trkpt><trkpt lat="42.3653012" lon="14.1181055"><ele>30.666666666666664</ele><time>2026-05-02T07:42:51.752Z</time></trkpt><trkpt lat="42.3651171" lon="14.1179894"><ele>32.0</ele><time>2026-05-02T07:42:52.753Z</time></trkpt><trkpt lat="42.3649319" lon="14.117873"><ele>32.0</ele><time>2026-05-02T07:42:53.752Z</time></trkpt><trkpt lat="42.3647534" lon="14.1177469"><ele>32.0</ele><time>2026-05-02T07:42:54.751Z</time></trkpt><trkpt lat="42.3645751" lon="14.1176237"><ele>32.0</ele><time>2026-05-02T07:42:55.757Z</time></trkpt><trkpt lat="42.3643914" lon="14.117534"><ele>32.33333333333333</ele><time>2026-05-02T07:42:56.753Z</time></trkpt><trkpt lat="42.3642009" lon="14.1174785"><ele>32.666666666666664</ele><time>2026-05-02T07:42:57.752Z</time></trkpt><trkpt lat="42.3640103" lon="14.1174522"><ele>33.0</ele><time>2026-05-02T07:42:58.751Z</time></trkpt><trkpt lat="42.3638238" lon="14.1174407"><ele>32.333333333333336</ele><time>2026-05-02T07:42:59.751Z</time></trkpt><trkpt lat="42.3636348" lon="14.117437"><ele>31.666666666666668</ele><time>2026-05-02T07:43:00.757Z</time></trkpt><trkpt lat="42.363448" lon="14.1174334"><ele>31.0</ele><time>2026-05-02T07:43:01.751Z</time></trkpt><trkpt lat="42.3632606" lon="14.1174287"><ele>31.0</ele><time>2026-05-02T07:43:02.757Z</time></trkpt><trkpt lat="42.3630743" lon="14.1174184"><ele>31.0</ele><time>2026-05-02T07:43:03.75Z</time></trkpt><trkpt lat="42.3628874" lon="14.1173963"><ele>31.0</ele><time>2026-05-02T07:43:04.752Z</time></trkpt><trkpt lat="42.362702" lon="14.1173551"><ele>32.66666666666667</ele><time>2026-05-02T07:43:05.751Z</time></trkpt><trkpt lat="42.3625201" lon="14.1172958"><ele>34.333333333333336</ele><time>2026-05-02T07:43:06.75Z</time></trkpt><trkpt lat="42.3623408" lon="14.1172227"><ele>36.0</ele><time>2026-05-02T07:43:07.753Z</time></trkpt><trkpt lat="42.3621635" lon="14.1171432"><ele>36.0</ele><time>2026-05-02T07:43:08.751Z</time></trkpt><trkpt lat="42.3619861" lon="14.117065"><ele>36.0</ele><time>2026-05-02T07:43:09.754Z</time></trkpt><trkpt lat="42.3618094" lon="14.1169865"><ele>36.0</ele><time>2026-05-02T07:43:10.753Z</time></trkpt><trkpt lat="42.3616362" lon="14.1169062"><ele>36.0</ele><time>2026-05-02T07:43:11.752Z</time></trkpt><trkpt lat="42.3614631" lon="14.1168276"><ele>36.0</ele><time>2026-05-02T07:43:12.752Z</time></trkpt><trkpt lat="42.3612896" lon="14.1167516"><ele>36.0</ele><time>2026-05-02T07:43:13.756Z</time></trkpt><trkpt lat="42.3611187" lon="14.1166761"><ele>34.0</ele><time>2026-05-02T07:43:14.751Z</time></trkpt><trkpt lat="42.3609462" lon="14.1165993"><ele>32.0</ele><time>2026-05-02T07:43:15.753Z</time></trkpt><trkpt lat="42.3607745" lon="14.1165236"><ele>30.0</ele><time>2026-05-02T07:43:16.751Z</time></trkpt><trkpt lat="42.3606055" lon="14.1164456"><ele>32.333333333333336</ele><time>2026-05-02T07:43:17.753Z</time></trkpt><trkpt lat="42.360436" lon="14.1163714"><ele>34.66666666666667</ele><time>2026-05-02T07:43:18.752Z</time></trkpt><trkpt lat="42.3602664" lon="14.1162921"><ele>37.0</ele><time>2026-05-02T07:43:19.751Z</time></trkpt><trkpt lat="42.3600969" lon="14.1162148"><ele>37.0</ele><time>2026-05-02T07:43:20.754Z</time></trkpt><trkpt lat="42.3599237" lon="14.1161412"><ele>37.0</ele><time>2026-05-02T07:43:21.753Z</time></trkpt><trkpt lat="42.3597513" lon="14.1160631"><ele>37.0</ele><time>2026-05-02T07:43:22.756Z</time></trkpt><trkpt lat="42.3595777" lon="14.1159868"><ele>36.66666666666667</ele><time>2026-05-02T07:43:23.752Z</time></trkpt><trkpt lat="42.3594019" lon="14.1159101"><ele>36.333333333333336</ele><time>2026-05-02T07:43:24.751Z</time></trkpt><trkpt lat="42.3592252" lon="14.1158363"><ele>36.0</ele><time>2026-05-02T07:43:25.753Z</time></trkpt><trkpt lat="42.3590483" lon="14.1157645"><ele>37.666666666666664</ele><time>2026-05-02T07:43:26.75Z</time></trkpt><trkpt lat="42.3588732" lon="14.115695"><ele>39.33333333333333</ele><time>2026-05-02T07:43:27.752Z</time></trkpt><trkpt lat="42.3586992" lon="14.1156244"><ele>41.0</ele><time>2026-05-02T07:43:28.751Z</time></trkpt><trkpt lat="42.3585253" lon="14.1155516"><ele>41.0</ele><time>2026-05-02T07:43:29.753Z</time></trkpt><trkpt lat="42.358354" lon="14.115481"><ele>41.0</ele><time>2026-05-02T07:43:30.752Z</time></trkpt><trkpt lat="42.3581795" lon="14.1154077"><ele>41.0</ele><time>2026-05-02T07:43:31.752Z</time></trkpt><trkpt lat="42.3579999" lon="14.1153367"><ele>41.0</ele><time>2026-05-02T07:43:32.75Z</time></trkpt><trkpt lat="42.3578187" lon="14.1152682"><ele>41.0</ele><time>2026-05-02T07:43:33.751Z</time></trkpt><trkpt lat="42.3576329" lon="14.1151975"><ele>41.0</ele><time>2026-05-02T07:43:34.749Z</time></trkpt><trkpt lat="42.3574443" lon="14.1151226"><ele>41.0</ele><time>2026-05-02T07:43:35.754Z</time></trkpt><trkpt lat="42.3572537" lon="14.1150428"><ele>41.0</ele><time>2026-05-02T07:43:36.757Z</time></trkpt><trkpt lat="42.3570601" lon="14.1149629"><ele>41.0</ele><time>2026-05-02T07:43:37.752Z</time></trkpt><trkpt lat="42.3568654" lon="14.1148868"><ele>43.0</ele><time>2026-05-02T07:43:38.756Z</time></trkpt><trkpt lat="42.3566727" lon="14.1148082"><ele>45.0</ele><time>2026-05-02T07:43:39.75Z</time></trkpt><trkpt lat="42.3564788" lon="14.1147286"><ele>47.0</ele><time>2026-05-02T07:43:40.751Z</time></trkpt><trkpt lat="42.356284" lon="14.1146521"><ele>47.0</ele><time>2026-05-02T07:43:41.755Z</time></trkpt><trkpt lat="42.3560908" lon="14.1145734"><ele>47.0</ele><time>2026-05-02T07:43:42.753Z</time></trkpt><trkpt lat="42.3559011" lon="14.1145023"><ele>47.0</ele><time>2026-05-02T07:43:43.754Z</time></trkpt><trkpt lat="42.3557138" lon="14.1144323"><ele>43.666666666666664</ele><time>2026-05-02T07:43:44.75Z</time></trkpt><trkpt lat="42.3555297" lon="14.1143579"><ele>40.333333333333336</ele><time>2026-05-02T07:43:45.754Z</time></trkpt><trkpt lat="42.3553476" lon="14.1142807"><ele>37.0</ele><time>2026-05-02T07:43:46.752Z</time></trkpt><trkpt lat="42.3551621" lon="14.1142047"><ele>37.0</ele><time>2026-05-02T07:43:47.752Z</time></trkpt><trkpt lat="42.3549789" lon="14.1141303"><ele>37.0</ele><time>2026-05-02T07:43:48.752Z</time></trkpt><trkpt lat="42.3548006" lon="14.11406"><ele>37.0</ele><time>2026-05-02T07:43:49.751Z</time></trkpt><trkpt lat="42.3546224" lon="14.1139875"><ele>36.66666666666667</ele><time>2026-05-02T07:43:50.753Z</time></trkpt><trkpt lat="42.3544468" lon="14.1139162"><ele>36.333333333333336</ele><time>2026-05-02T07:43:51.752Z</time></trkpt><trkpt lat="42.3542743" lon="14.1138435"><ele>36.0</ele><time>2026-05-02T07:43:52.753Z</time></trkpt><trkpt lat="42.3541015" lon="14.1137753"><ele>36.0</ele><time>2026-05-02T07:43:53.752Z</time></trkpt><trkpt lat="42.3539286" lon="14.1137079"><ele>36.0</ele><time>2026-05-02T07:43:54.754Z</time></trkpt><trkpt lat="42.3537594" lon="14.113639"><ele>36.0</ele><time>2026-05-02T07:43:55.75Z</time></trkpt><trkpt lat="42.3535876" lon="14.1135695"><ele>35.666666666666664</ele><time>2026-05-02T07:43:56.755Z</time></trkpt><trkpt lat="42.353414" lon="14.1135056"><ele>35.33333333333333</ele><time>2026-05-02T07:43:57.753Z</time></trkpt><trkpt lat="42.3532405" lon="14.1134405"><ele>35.0</ele><time>2026-05-02T07:43:58.751Z</time></trkpt><trkpt lat="42.3530706" lon="14.1133709"><ele>35.0</ele><time>2026-05-02T07:43:59.749Z</time></trkpt><trkpt lat="42.3529004" lon="14.1133021"><ele>35.0</ele><time>2026-05-02T07:44:00.753Z</time></trkpt><trkpt lat="42.3527282" lon="14.1132332"><ele>35.0</ele><time>2026-05-02T07:44:01.751Z</time></trkpt><trkpt lat="42.3525563" lon="14.1131632"><ele>35.0</ele><time>2026-05-02T07:44:02.753Z</time></trkpt><trkpt lat="42.3523835" lon="14.1130941"><ele>35.0</ele><time>2026-05-02T07:44:03.753Z</time></trkpt><trkpt lat="42.3522075" lon="14.1130218"><ele>35.0</ele><time>2026-05-02T07:44:04.751Z</time></trkpt><trkpt lat="42.3520342" lon="14.1129503"><ele>36.666666666666664</ele><time>2026-05-02T07:44:05.751Z</time></trkpt><trkpt lat="42.3518612" lon="14.1128778"><ele>38.333333333333336</ele><time>2026-05-02T07:44:06.752Z</time></trkpt><trkpt lat="42.3516844" lon="14.1128046"><ele>40.0</ele><time>2026-05-02T07:44:07.753Z</time></trkpt><trkpt lat="42.3515082" lon="14.1127277"><ele>41.333333333333336</ele><time>2026-05-02T07:44:08.754Z</time></trkpt><trkpt lat="42.3513319" lon="14.1126544"><ele>42.666666666666664</ele><time>2026-05-02T07:44:09.751Z</time></trkpt><trkpt lat="42.3511505" lon="14.1125865"><ele>44.0</ele><time>2026-05-02T07:44:10.752Z</time></trkpt><trkpt lat="42.3509689" lon="14.1125321"><ele>44.0</ele><time>2026-05-02T07:44:11.751Z</time></trkpt><trkpt lat="42.3507884" lon="14.1124887"><ele>44.0</ele><time>2026-05-02T07:44:12.751Z</time></trkpt><trkpt lat="42.3506225" lon="14.1124587"><ele>44.0</ele><time>2026-05-02T07:44:13.752Z</time></trkpt><trkpt lat="42.3504677" lon="14.1124363"><ele>44.0</ele><time>2026-05-02T07:44:14.752Z</time></trkpt><trkpt lat="42.3503255" lon="14.1124109"><ele>44.0</ele><time>2026-05-02T07:44:15.752Z</time></trkpt><trkpt lat="42.3502136" lon="14.1123867"><ele>44.0</ele><time>2026-05-02T07:44:16.753Z</time></trkpt><trkpt lat="42.3501452" lon="14.1123697"><ele>44.0</ele><time>2026-05-02T07:44:17.752Z</time></trkpt><trkpt lat="42.3500826" lon="14.112353"><ele>44.0</ele><time>2026-05-02T07:44:20.751Z</time></trkpt><trkpt lat="42.3500172" lon="14.1123257"><ele>44.0</ele><time>2026-05-02T07:44:24.753Z</time></trkpt><trkpt lat="42.34992" lon="14.112344"><ele>44.0</ele><time>2026-05-02T07:44:27.75Z</time></trkpt><trkpt lat="42.349861" lon="14.1124392"><ele>44.0</ele><time>2026-05-02T07:44:29.752Z</time></trkpt><trkpt lat="42.3497967" lon="14.1125812"><ele>44.0</ele><time>2026-05-02T07:44:31.751Z</time></trkpt><trkpt lat="42.3497522" lon="14.1126708"><ele>44.0</ele><time>2026-05-02T07:44:32.752Z</time></trkpt><trkpt lat="42.3496928" lon="14.1127592"><ele>43.400000000000006</ele><time>2026-05-02T07:44:33.753Z</time></trkpt><trkpt lat="42.3496162" lon="14.1128435"><ele>42.8</ele><time>2026-05-02T07:44:34.751Z</time></trkpt><trkpt lat="42.3495329" lon="14.1129133"><ele>42.2</ele><time>2026-05-02T07:44:35.753Z</time></trkpt><trkpt lat="42.349459" lon="14.1129636"><ele>41.599999999999994</ele><time>2026-05-02T07:44:36.751Z</time></trkpt><trkpt lat="42.3493951" lon="14.1130006"><ele>41.0</ele><time>2026-05-02T07:44:37.752Z</time></trkpt><trkpt lat="42.3492963" lon="14.1130684"><ele>41.0</ele><time>2026-05-02T07:44:39.751Z</time></trkpt><trkpt lat="42.349181" lon="14.1131384"><ele>41.0</ele><time>2026-05-02T07:44:41.752Z</time></trkpt><trkpt lat="42.3491004" lon="14.1131899"><ele>41.0</ele><time>2026-05-02T07:44:42.752Z</time></trkpt><trkpt lat="42.348999" lon="14.113258"><ele>41.0</ele><time>2026-05-02T07:44:43.75Z</time></trkpt><trkpt lat="42.3488958" lon="14.1133275"><ele>41.0</ele><time>2026-05-02T07:44:44.753Z</time></trkpt><trkpt lat="42.3488059" lon="14.1133836"><ele>41.8</ele><time>2026-05-02T07:44:45.752Z</time></trkpt><trkpt lat="42.3487069" lon="14.1134475"><ele>42.599999999999994</ele><time>2026-05-02T07:44:46.751Z</time></trkpt><trkpt lat="42.348601" lon="14.1135079"><ele>43.4</ele><time>2026-05-02T07:44:47.751Z</time></trkpt><trkpt lat="42.3484962" lon="14.1135658"><ele>44.2</ele><time>2026-05-02T07:44:48.753Z</time></trkpt><trkpt lat="42.3484012" lon="14.1135981"><ele>45.0</ele><time>2026-05-02T07:44:49.75Z</time></trkpt><trkpt lat="42.3483288" lon="14.1136027"><ele>45.0</ele><time>2026-05-02T07:44:50.754Z</time></trkpt><trkpt lat="42.3482562" lon="14.1135921"><ele>45.0</ele><time>2026-05-02T07:44:52.752Z</time></trkpt><trkpt lat="42.348225" lon="14.1136792"><ele>45.0</ele><time>2026-05-02T07:45:00.752Z</time></trkpt><trkpt lat="42.3483439" lon="14.1136832"><ele>45.0</ele><time>2026-05-02T07:45:02.755Z</time></trkpt><trkpt lat="42.3484396" lon="14.1136548"><ele>45.0</ele><time>2026-05-02T07:45:03.751Z</time></trkpt><trkpt lat="42.3485584" lon="14.1136019"><ele>45.0</ele><time>2026-05-02T07:45:04.753Z</time></trkpt><trkpt lat="42.348686" lon="14.11353"><ele>45.0</ele><time>2026-05-02T07:45:05.751Z</time></trkpt><trkpt lat="42.3488365" lon="14.1134372"><ele>45.0</ele><time>2026-05-02T07:45:06.75Z</time></trkpt><trkpt lat="42.3489979" lon="14.1133386"><ele>43.666666666666664</ele><time>2026-05-02T07:45:07.752Z</time></trkpt><trkpt lat="42.3491689" lon="14.1132281"><ele>42.33333333333333</ele><time>2026-05-02T07:45:08.751Z</time></trkpt><trkpt lat="42.3493392" lon="14.1131101"><ele>41.0</ele><time>2026-05-02T07:45:09.753Z</time></trkpt><trkpt lat="42.349497" lon="14.1129975"><ele>41.0</ele><time>2026-05-02T07:45:10.75Z</time></trkpt><trkpt lat="42.3496371" lon="14.112901"><ele>41.0</ele><time>2026-05-02T07:45:11.75Z</time></trkpt><trkpt lat="42.3497493" lon="14.1128244"><ele>41.0</ele><time>2026-05-02T07:45:12.752Z</time></trkpt><trkpt lat="42.3498292" lon="14.1127694"><ele>41.0</ele><time>2026-05-02T07:45:13.751Z</time></trkpt><trkpt lat="42.3499039" lon="14.1127166"><ele>41.5</ele><time>2026-05-02T07:45:14.752Z</time></trkpt><trkpt lat="42.349979" lon="14.1126516"><ele>42.0</ele><time>2026-05-02T07:45:15.75Z</time></trkpt><trkpt lat="42.3500361" lon="14.1125754"><ele>42.5</ele><time>2026-05-02T07:45:16.753Z</time></trkpt><trkpt lat="42.3500689" lon="14.112497"><ele>43.0</ele><time>2026-05-02T07:45:17.752Z</time></trkpt><trkpt lat="42.350049" lon="14.1123828"><ele>43.5</ele><time>2026-05-02T07:45:19.751Z</time></trkpt><trkpt lat="42.3499552" lon="14.1123711"><ele>44.0</ele><time>2026-05-02T07:45:21.756Z</time></trkpt><trkpt lat="42.3498972" lon="14.1124194"><ele>44.0</ele><time>2026-05-02T07:45:22.752Z</time></trkpt><trkpt lat="42.3498319" lon="14.1124993"><ele>44.0</ele><time>2026-05-02T07:45:23.752Z</time></trkpt><trkpt lat="42.3497592" lon="14.1125784"><ele>44.0</ele><time>2026-05-02T07:45:24.752Z</time></trkpt><trkpt lat="42.3496912" lon="14.1126386"><ele>44.0</ele><time>2026-05-02T07:45:25.751Z</time></trkpt><trkpt lat="42.3496402" lon="14.1126962"><ele>44.0</ele><time>2026-05-02T07:45:26.75Z</time></trkpt><trkpt lat="42.3495401" lon="14.1127624"><ele>44.0</ele><time>2026-05-02T07:45:28.755Z</time></trkpt><trkpt lat="42.3494952" lon="14.1126948"><ele>43.800000000000004</ele><time>2026-05-02T07:45:58.75Z</time></trkpt><trkpt lat="42.3494609" lon="14.1125822"><ele>43.6</ele><time>2026-05-02T07:46:00.756Z</time></trkpt><trkpt lat="42.3493966" lon="14.1124519"><ele>43.4</ele><time>2026-05-02T07:46:02.753Z</time></trkpt><trkpt lat="42.349313" lon="14.1123654"><ele>43.2</ele><time>2026-05-02T07:46:04.754Z</time></trkpt><trkpt lat="42.349213" lon="14.1122982"><ele>43.0</ele><time>2026-05-02T07:46:06.752Z</time></trkpt><trkpt lat="42.3491096" lon="14.1122299"><ele>43.0</ele><time>2026-05-02T07:46:08.753Z</time></trkpt><trkpt lat="42.3490361" lon="14.1121546"><ele>43.0</ele><time>2026-05-02T07:46:10.752Z</time></trkpt><trkpt lat="42.3490091" lon="14.1120642"><ele>43.0</ele><time>2026-05-02T07:46:12.751Z</time></trkpt><trkpt lat="42.348993" lon="14.1119075"><ele>43.0</ele><time>2026-05-02T07:46:14.751Z</time></trkpt><trkpt lat="42.3489844" lon="14.1118146"><ele>43.0</ele><time>2026-05-02T07:46:15.752Z</time></trkpt><trkpt lat="42.3489731" lon="14.1117286"><ele>43.0</ele><time>2026-05-02T07:46:16.753Z</time></trkpt><trkpt lat="42.3489601" lon="14.1115843"><ele>43.0</ele><time>2026-05-02T07:46:18.751Z</time></trkpt><trkpt lat="42.3489442" lon="14.1114329"><ele>43.0</ele><time>2026-05-02T07:46:20.752Z</time></trkpt><trkpt lat="42.34892" lon="14.1112675"><ele>43.0</ele><time>2026-05-02T07:46:22.753Z</time></trkpt><trkpt lat="42.3489102" lon="14.1111802"><ele>43.0</ele><time>2026-05-02T07:46:23.751Z</time></trkpt><trkpt lat="42.3488998" lon="14.1110941"><ele>43.0</ele><time>2026-05-02T07:46:24.751Z</time></trkpt><trkpt lat="42.3488861" lon="14.1109393"><ele>43.0</ele><time>2026-05-02T07:46:26.755Z</time></trkpt><trkpt lat="42.3488964" lon="14.1107924"><ele>43.0</ele><time>2026-05-02T07:46:28.757Z</time></trkpt><trkpt lat="42.348909" lon="14.1106411"><ele>43.0</ele><time>2026-05-02T07:46:30.752Z</time></trkpt><trkpt lat="42.3488936" lon="14.1105293"><ele>43.0</ele><time>2026-05-02T07:46:32.753Z</time></trkpt><trkpt lat="42.348872" lon="14.1103982"><ele>43.0</ele><time>2026-05-02T07:46:34.754Z</time></trkpt><trkpt lat="42.3488494" lon="14.1102283"><ele>42.66666666666667</ele><time>2026-05-02T07:46:36.753Z</time></trkpt><trkpt lat="42.3488343" lon="14.1101456"><ele>42.333333333333336</ele><time>2026-05-02T07:46:37.752Z</time></trkpt><trkpt lat="42.3487789" lon="14.1100244"><ele>42.0</ele><time>2026-05-02T07:46:39.751Z</time></trkpt><trkpt lat="42.3487045" lon="14.109954"><ele>41.666666666666664</ele><time>2026-05-02T07:46:41.755Z</time></trkpt><trkpt lat="42.3486245" lon="14.1098773"><ele>41.33333333333333</ele><time>2026-05-02T07:46:43.751Z</time></trkpt><trkpt lat="42.348561" lon="14.109824"><ele>41.0</ele><time>2026-05-02T07:46:45.752Z</time></trkpt><trkpt lat="42.3485071" lon="14.1097762"><ele>42.0</ele><time>2026-05-02T07:46:59.75Z</time></trkpt><trkpt lat="42.3484489" lon="14.1097272"><ele>43.0</ele><time>2026-05-02T07:47:01.752Z</time></trkpt><trkpt lat="42.3483717" lon="14.1096575"><ele>44.0</ele><time>2026-05-02T07:47:03.753Z</time></trkpt><trkpt lat="42.3482972" lon="14.1095901"><ele>45.0</ele><time>2026-05-02T07:47:05.752Z</time></trkpt><trkpt lat="42.3482397" lon="14.1094992"><ele>46.0</ele><time>2026-05-02T07:47:07.752Z</time></trkpt><trkpt lat="42.3481724" lon="14.1094119"><ele>47.0</ele><time>2026-05-02T07:47:09.752Z</time></trkpt><trkpt lat="42.3481149" lon="14.1092974"><ele>47.0</ele><time>2026-05-02T07:47:11.751Z</time></trkpt><trkpt lat="42.3480492" lon="14.1092097"><ele>47.0</ele><time>2026-05-02T07:47:13.751Z</time></trkpt><trkpt lat="42.347991" lon="14.1091329"><ele>47.0</ele><time>2026-05-02T07:47:15.749Z</time></trkpt><trkpt lat="42.3479494" lon="14.1090609"><ele>47.0</ele><time>2026-05-02T07:47:17.752Z</time></trkpt><trkpt lat="42.3479171" lon="14.1089718"><ele>47.0</ele><time>2026-05-02T07:47:20.751Z</time></trkpt><trkpt lat="42.34788" lon="14.1088732"><ele>47.0</ele><time>2026-05-02T07:47:23.753Z</time></trkpt><trkpt lat="42.3478468" lon="14.1087874"><ele>46.5</ele><time>2026-05-02T07:47:25.751Z</time></trkpt><trkpt lat="42.3478125" lon="14.108698"><ele>46.0</ele><time>2026-05-02T07:47:27.753Z</time></trkpt><trkpt lat="42.3477811" lon="14.1086172"><ele>45.5</ele><time>2026-05-02T07:47:29.752Z</time></trkpt><trkpt lat="42.3477376" lon="14.1085551"><ele>45.0</ele><time>2026-05-02T07:47:32.755Z</time></trkpt><trkpt lat="42.3476887" lon="14.108475"><ele>44.5</ele><time>2026-05-02T07:47:35.752Z</time></trkpt><trkpt lat="42.3476484" lon="14.1083763"><ele>44.0</ele><time>2026-05-02T07:47:37.753Z</time></trkpt><trkpt lat="42.3475961" lon="14.1082586"><ele>44.400000000000006</ele><time>2026-05-02T07:47:39.751Z</time></trkpt><trkpt lat="42.3475443" lon="14.1081476"><ele>44.8</ele><time>2026-05-02T07:47:41.753Z</time></trkpt><trkpt lat="42.3474848" lon="14.1080503"><ele>45.2</ele><time>2026-05-02T07:47:43.752Z</time></trkpt><trkpt lat="42.3474453" lon="14.1079302"><ele>45.599999999999994</ele><time>2026-05-02T07:47:45.752Z</time></trkpt><trkpt lat="42.3474189" lon="14.1077914"><ele>46.0</ele><time>2026-05-02T07:47:47.752Z</time></trkpt><trkpt lat="42.347391" lon="14.1076517"><ele>46.0</ele><time>2026-05-02T07:47:49.751Z</time></trkpt><trkpt lat="42.3473545" lon="14.1075134"><ele>46.0</ele><time>2026-05-02T07:47:51.751Z</time></trkpt><trkpt lat="42.3473027" lon="14.1073669"><ele>46.0</ele><time>2026-05-02T07:47:53.751Z</time></trkpt><trkpt lat="42.3472695" lon="14.1072927"><ele>46.0</ele><time>2026-05-02T07:47:54.752Z</time></trkpt><trkpt lat="42.3472192" lon="14.1071473"><ele>46.0</ele><time>2026-05-02T07:47:56.753Z</time></trkpt><trkpt lat="42.3471809" lon="14.1070045"><ele>46.0</ele><time>2026-05-02T07:47:58.757Z</time></trkpt><trkpt lat="42.347184" lon="14.1068562"><ele>46.0</ele><time>2026-05-02T07:48:00.753Z</time></trkpt><trkpt lat="42.347218" lon="14.1067276"><ele>46.0</ele><time>2026-05-02T07:48:02.755Z</time></trkpt><trkpt lat="42.3472537" lon="14.1066318"><ele>46.0</ele><time>2026-05-02T07:48:03.756Z</time></trkpt><trkpt lat="42.3472895" lon="14.1065277"><ele>46.0</ele><time>2026-05-02T07:48:04.752Z</time></trkpt><trkpt lat="42.347313" lon="14.1064302"><ele>46.0</ele><time>2026-05-02T07:48:05.752Z</time></trkpt><trkpt lat="42.347349" lon="14.1063034"><ele>46.0</ele><time>2026-05-02T07:48:06.752Z</time></trkpt><trkpt lat="42.347385" lon="14.1062039"><ele>46.0</ele><time>2026-05-02T07:48:07.75Z</time></trkpt><trkpt lat="42.3474128" lon="14.106092"><ele>46.0</ele><time>2026-05-02T07:48:08.754Z</time></trkpt><trkpt lat="42.3474331" lon="14.1059788"><ele>46.0</ele><time>2026-05-02T07:48:09.751Z</time></trkpt><trkpt lat="42.3474577" lon="14.1058903"><ele>46.0</ele><time>2026-05-02T07:48:10.752Z</time></trkpt><trkpt lat="42.3475394" lon="14.1057502"><ele>45.8</ele><time>2026-05-02T07:48:12.751Z</time></trkpt><trkpt lat="42.3476" lon="14.1056577"><ele>45.599999999999994</ele><time>2026-05-02T07:48:13.75Z</time></trkpt><trkpt lat="42.3476599" lon="14.1055487"><ele>45.4</ele><time>2026-05-02T07:48:14.75Z</time></trkpt><trkpt lat="42.3477046" lon="14.1054625"><ele>45.2</ele><time>2026-05-02T07:48:15.75Z</time></trkpt><trkpt lat="42.3477464" lon="14.105387"><ele>45.0</ele><time>2026-05-02T07:48:16.751Z</time></trkpt><trkpt lat="42.3478186" lon="14.105256"><ele>45.0</ele><time>2026-05-02T07:48:18.753Z</time></trkpt><trkpt lat="42.3478657" lon="14.1051767"><ele>45.0</ele><time>2026-05-02T07:48:19.752Z</time></trkpt><trkpt lat="42.3479097" lon="14.1051073"><ele>45.0</ele><time>2026-05-02T07:48:20.753Z</time></trkpt><trkpt lat="42.3479766" lon="14.1049814"><ele>45.0</ele><time>2026-05-02T07:48:22.751Z</time></trkpt><trkpt lat="42.3480459" lon="14.1048575"><ele>45.0</ele><time>2026-05-02T07:48:24.751Z</time></trkpt><trkpt lat="42.3481336" lon="14.104749"><ele>46.2</ele><time>2026-05-02T07:48:26.752Z</time></trkpt><trkpt lat="42.3482012" lon="14.1046176"><ele>47.4</ele><time>2026-05-02T07:48:28.751Z</time></trkpt><trkpt lat="42.348255" lon="14.1044828"><ele>48.599999999999994</ele><time>2026-05-02T07:48:30.754Z</time></trkpt><trkpt lat="42.3482861" lon="14.1043856"><ele>49.8</ele><time>2026-05-02T07:48:32.755Z</time></trkpt><trkpt lat="42.348317" lon="14.1042981"><ele>51.0</ele><time>2026-05-02T07:48:36.757Z</time></trkpt><trkpt lat="42.3483407" lon="14.1041647"><ele>50.0</ele><time>2026-05-02T07:48:53.756Z</time></trkpt><trkpt lat="42.3483797" lon="14.1040466"><ele>49.0</ele><time>2026-05-02T07:48:54.753Z</time></trkpt><trkpt lat="42.3484238" lon="14.1039011"><ele>48.0</ele><time>2026-05-02T07:48:55.752Z</time></trkpt><trkpt lat="42.3484556" lon="14.103734"><ele>47.0</ele><time>2026-05-02T07:48:56.751Z</time></trkpt><trkpt lat="42.3484783" lon="14.1035365"><ele>47.0</ele><time>2026-05-02T07:48:57.753Z</time></trkpt><trkpt lat="42.3485006" lon="14.1033018"><ele>47.0</ele><time>2026-05-02T07:48:58.751Z</time></trkpt><trkpt lat="42.3485146" lon="14.1031177"><ele>47.0</ele><time>2026-05-02T07:48:59.75Z</time></trkpt><trkpt lat="42.3485263" lon="14.1029537"><ele>47.0</ele><time>2026-05-02T07:49:00.752Z</time></trkpt><trkpt lat="42.3485394" lon="14.1027854"><ele>47.25</ele><time>2026-05-02T07:49:01.753Z</time></trkpt><trkpt lat="42.3485596" lon="14.102615"><ele>47.5</ele><time>2026-05-02T07:49:02.751Z</time></trkpt><trkpt lat="42.3485931" lon="14.1024227"><ele>47.75</ele><time>2026-05-02T07:49:03.751Z</time></trkpt><trkpt lat="42.3486271" lon="14.1022263"><ele>48.0</ele><time>2026-05-02T07:49:04.751Z</time></trkpt><trkpt lat="42.3486608" lon="14.1020394"><ele>48.0</ele><time>2026-05-02T07:49:05.751Z</time></trkpt><trkpt lat="42.3486991" lon="14.1018465"><ele>48.0</ele><time>2026-05-02T07:49:06.753Z</time></trkpt><trkpt lat="42.3487347" lon="14.1016749"><ele>48.0</ele><time>2026-05-02T07:49:07.752Z</time></trkpt><trkpt lat="42.3487739" lon="14.101524"><ele>48.0</ele><time>2026-05-02T07:49:08.751Z</time></trkpt><trkpt lat="42.3488061" lon="14.1013925"><ele>48.4</ele><time>2026-05-02T07:49:09.753Z</time></trkpt><trkpt lat="42.3488335" lon="14.1012949"><ele>48.8</ele><time>2026-05-02T07:49:10.751Z</time></trkpt><trkpt lat="42.3488771" lon="14.1011559"><ele>49.2</ele><time>2026-05-02T07:49:12.752Z</time></trkpt><trkpt lat="42.3489417" lon="14.1010793"><ele>49.6</ele><time>2026-05-02T07:49:14.752Z</time></trkpt><trkpt lat="42.349053" lon="14.1009793"><ele>50.0</ele><time>2026-05-02T07:49:16.751Z</time></trkpt><trkpt lat="42.3490871" lon="14.1008997"><ele>50.4</ele><time>2026-05-02T07:49:17.752Z</time></trkpt><trkpt lat="42.34913" lon="14.100799"><ele>50.8</ele><time>2026-05-02T07:49:19.751Z</time></trkpt><trkpt lat="42.3491698" lon="14.1007071"><ele>51.2</ele><time>2026-05-02T07:49:22.75Z</time></trkpt><trkpt lat="42.3492394" lon="14.1006275"><ele>51.6</ele><time>2026-05-02T07:49:24.751Z</time></trkpt><trkpt lat="42.3492955" lon="14.100553"><ele>52.0</ele><time>2026-05-02T07:49:26.752Z</time></trkpt><trkpt lat="42.3493579" lon="14.1004122"><ele>51.99999999999999</ele><time>2026-05-02T07:49:28.752Z</time></trkpt><trkpt lat="42.349408" lon="14.1002759"><ele>52.0</ele><time>2026-05-02T07:49:30.751Z</time></trkpt><trkpt lat="42.3494446" lon="14.1001636"><ele>52.0</ele><time>2026-05-02T07:49:32.752Z</time></trkpt><trkpt lat="42.3494791" lon="14.1000591"><ele>52.0</ele><time>2026-05-02T07:49:34.753Z</time></trkpt><trkpt lat="42.3495146" lon="14.0999563"><ele>51.99999999999999</ele><time>2026-05-02T07:49:36.751Z</time></trkpt><trkpt lat="42.3495201" lon="14.0998527"><ele>52.0</ele><time>2026-05-02T07:49:38.752Z</time></trkpt><trkpt lat="42.3495356" lon="14.0997412"><ele>51.714285714285715</ele><time>2026-05-02T07:49:41.751Z</time></trkpt><trkpt lat="42.3495289" lon="14.0996426"><ele>51.42857142857143</ele><time>2026-05-02T07:49:43.749Z</time></trkpt><trkpt lat="42.3495016" lon="14.0995311"><ele>51.142857142857146</ele><time>2026-05-02T07:49:46.751Z</time></trkpt><trkpt lat="42.3494748" lon="14.0994527"><ele>50.85714285714286</ele><time>2026-05-02T07:49:48.752Z</time></trkpt><trkpt lat="42.3494451" lon="14.0993659"><ele>50.57142857142857</ele><time>2026-05-02T07:49:50.753Z</time></trkpt><trkpt lat="42.3494262" lon="14.0992492"><ele>50.28571428571429</ele><time>2026-05-02T07:49:53.751Z</time></trkpt><trkpt lat="42.3494127" lon="14.0991618"><ele>50.0</ele><time>2026-05-02T07:49:56.753Z</time></trkpt><trkpt lat="42.3494086" lon="14.0990363"><ele>50.00000000000001</ele><time>2026-05-02T07:49:59.753Z</time></trkpt><trkpt lat="42.3494378" lon="14.0989515"><ele>50.0</ele><time>2026-05-02T07:50:01.751Z</time></trkpt><trkpt lat="42.3494596" lon="14.0988692"><ele>50.0</ele><time>2026-05-02T07:50:02.757Z</time></trkpt><trkpt lat="42.3494829" lon="14.0987837"><ele>50.0</ele><time>2026-05-02T07:50:03.751Z</time></trkpt><trkpt lat="42.3495087" lon="14.0986909"><ele>50.00000000000001</ele><time>2026-05-02T07:50:04.752Z</time></trkpt><trkpt lat="42.3495476" lon="14.098551"><ele>50.0</ele><time>2026-05-02T07:50:05.754Z</time></trkpt><trkpt lat="42.3495767" lon="14.0984195"><ele>50.0</ele><time>2026-05-02T07:50:06.757Z</time></trkpt><trkpt lat="42.3496033" lon="14.0982841"><ele>50.0</ele><time>2026-05-02T07:50:07.75Z</time></trkpt><trkpt lat="42.3496258" lon="14.0981504"><ele>50.0</ele><time>2026-05-02T07:50:08.75Z</time></trkpt><trkpt lat="42.3496489" lon="14.0980226"><ele>50.0</ele><time>2026-05-02T07:50:09.753Z</time></trkpt><trkpt lat="42.3496823" lon="14.0978999"><ele>50.0</ele><time>2026-05-02T07:50:10.752Z</time></trkpt><trkpt lat="42.3497153" lon="14.097762"><ele>50.25</ele><time>2026-05-02T07:50:11.752Z</time></trkpt><trkpt lat="42.34976" lon="14.0976104"><ele>50.5</ele><time>2026-05-02T07:50:12.751Z</time></trkpt><trkpt lat="42.3498006" lon="14.097442"><ele>50.75</ele><time>2026-05-02T07:50:13.752Z</time></trkpt><trkpt lat="42.3498385" lon="14.0972643"><ele>51.0</ele><time>2026-05-02T07:50:14.755Z</time></trkpt><trkpt lat="42.34987" lon="14.0970884"><ele>51.0</ele><time>2026-05-02T07:50:15.751Z</time></trkpt><trkpt lat="42.3498962" lon="14.0969167"><ele>51.0</ele><time>2026-05-02T07:50:16.751Z</time></trkpt><trkpt lat="42.3499185" lon="14.0967356"><ele>51.0</ele><time>2026-05-02T07:50:17.752Z</time></trkpt><trkpt lat="42.3499323" lon="14.0965452"><ele>51.0</ele><time>2026-05-02T07:50:18.755Z</time></trkpt><trkpt lat="42.3499461" lon="14.096365"><ele>51.25</ele><time>2026-05-02T07:50:19.754Z</time></trkpt><trkpt lat="42.34996" lon="14.0961798"><ele>51.5</ele><time>2026-05-02T07:50:20.752Z</time></trkpt><trkpt lat="42.3499739" lon="14.0959955"><ele>51.75</ele><time>2026-05-02T07:50:21.752Z</time></trkpt><trkpt lat="42.3499865" lon="14.0958031"><ele>52.0</ele><time>2026-05-02T07:50:22.754Z</time></trkpt><trkpt lat="42.3499988" lon="14.0956079"><ele>52.0</ele><time>2026-05-02T07:50:23.75Z</time></trkpt><trkpt lat="42.3500147" lon="14.0954226"><ele>52.0</ele><time>2026-05-02T07:50:24.753Z</time></trkpt><trkpt lat="42.3500245" lon="14.0952356"><ele>52.0</ele><time>2026-05-02T07:50:25.752Z</time></trkpt><trkpt lat="42.3500174" lon="14.0950401"><ele>52.0</ele><time>2026-05-02T07:50:26.751Z</time></trkpt><trkpt lat="42.3499945" lon="14.0948322"><ele>52.0</ele><time>2026-05-02T07:50:27.752Z</time></trkpt><trkpt lat="42.3499633" lon="14.0946239"><ele>52.0</ele><time>2026-05-02T07:50:28.753Z</time></trkpt><trkpt lat="42.3499262" lon="14.0944185"><ele>52.0</ele><time>2026-05-02T07:50:29.751Z</time></trkpt><trkpt lat="42.3498837" lon="14.0942208"><ele>51.75</ele><time>2026-05-02T07:50:30.757Z</time></trkpt><trkpt lat="42.3498438" lon="14.0940395"><ele>51.5</ele><time>2026-05-02T07:50:31.754Z</time></trkpt><trkpt lat="42.3498068" lon="14.0938616"><ele>51.25</ele><time>2026-05-02T07:50:32.752Z</time></trkpt><trkpt lat="42.3497841" lon="14.0937323"><ele>51.0</ele><time>2026-05-02T07:50:33.751Z</time></trkpt><trkpt lat="42.3497417" lon="14.0936061"><ele>51.833333333333336</ele><time>2026-05-02T07:50:34.752Z</time></trkpt><trkpt lat="42.3497035" lon="14.0935123"><ele>52.66666666666667</ele><time>2026-05-02T07:50:35.752Z</time></trkpt><trkpt lat="42.3496681" lon="14.0934363"><ele>53.5</ele><time>2026-05-02T07:50:36.751Z</time></trkpt><trkpt lat="42.34964" lon="14.0933309"><ele>54.333333333333336</ele><time>2026-05-02T07:50:38.751Z</time></trkpt><trkpt lat="42.3496344" lon="14.0932246"><ele>55.16666666666667</ele><time>2026-05-02T07:50:40.75Z</time></trkpt><trkpt lat="42.3496287" lon="14.0930878"><ele>56.0</ele><time>2026-05-02T07:50:42.749Z</time></trkpt><trkpt lat="42.3496028" lon="14.0929474"><ele>56.00000000000001</ele><time>2026-05-02T07:50:44.749Z</time></trkpt><trkpt lat="42.3495793" lon="14.0928526"><ele>56.0</ele><time>2026-05-02T07:50:45.752Z</time></trkpt><trkpt lat="42.3495458" lon="14.0927579"><ele>56.0</ele><time>2026-05-02T07:50:46.751Z</time></trkpt><trkpt lat="42.3495016" lon="14.0926831"><ele>56.0</ele><time>2026-05-02T07:50:47.75Z</time></trkpt><trkpt lat="42.3494521" lon="14.0926154"><ele>56.00000000000001</ele><time>2026-05-02T07:50:48.748Z</time></trkpt><trkpt lat="42.3494058" lon="14.0925368"><ele>56.0</ele><time>2026-05-02T07:50:49.75Z</time></trkpt><trkpt lat="42.3493601" lon="14.0924418"><ele>56.16666666666667</ele><time>2026-05-02T07:50:50.751Z</time></trkpt><trkpt lat="42.3493301" lon="14.0923491"><ele>56.333333333333336</ele><time>2026-05-02T07:50:51.752Z</time></trkpt><trkpt lat="42.3493093" lon="14.0922521"><ele>56.5</ele><time>2026-05-02T07:50:52.749Z</time></trkpt><trkpt lat="42.3492895" lon="14.0921519"><ele>56.66666666666667</ele><time>2026-05-02T07:50:53.75Z</time></trkpt><trkpt lat="42.349261" lon="14.0920328"><ele>56.833333333333336</ele><time>2026-05-02T07:50:54.75Z</time></trkpt><trkpt lat="42.3492282" lon="14.0919049"><ele>57.0</ele><time>2026-05-02T07:50:55.749Z</time></trkpt><trkpt lat="42.3491998" lon="14.0917867"><ele>57.0</ele><time>2026-05-02T07:50:56.751Z</time></trkpt><trkpt lat="42.3491778" lon="14.0916801"><ele>57.0</ele><time>2026-05-02T07:50:57.75Z</time></trkpt><trkpt lat="42.3491614" lon="14.0915747"><ele>57.0</ele><time>2026-05-02T07:50:58.75Z</time></trkpt><trkpt lat="42.3491458" lon="14.0914646"><ele>57.0</ele><time>2026-05-02T07:50:59.75Z</time></trkpt><trkpt lat="42.3491313" lon="14.0913451"><ele>57.0</ele><time>2026-05-02T07:51:00.751Z</time></trkpt><trkpt lat="42.3491196" lon="14.0912286"><ele>57.0</ele><time>2026-05-02T07:51:01.749Z</time></trkpt><trkpt lat="42.3491147" lon="14.0911372"><ele>57.0</ele><time>2026-05-02T07:51:02.751Z</time></trkpt><trkpt lat="42.3491057" lon="14.0909939"><ele>57.0</ele><time>2026-05-02T07:51:04.75Z</time></trkpt><trkpt lat="42.3491008" lon="14.0909086"><ele>57.0</ele><time>2026-05-02T07:51:05.751Z</time></trkpt><trkpt lat="42.3490701" lon="14.0907365"><ele>57.0</ele><time>2026-05-02T07:51:07.75Z</time></trkpt><trkpt lat="42.3490453" lon="14.090631"><ele>57.0</ele><time>2026-05-02T07:51:08.754Z</time></trkpt><trkpt lat="42.3490207" lon="14.0905188"><ele>57.0</ele><time>2026-05-02T07:51:09.75Z</time></trkpt><trkpt lat="42.3489975" lon="14.0903961"><ele>57.0</ele><time>2026-05-02T07:51:10.75Z</time></trkpt><trkpt lat="42.3489741" lon="14.0902655"><ele>57.0</ele><time>2026-05-02T07:51:11.751Z</time></trkpt><trkpt lat="42.3489518" lon="14.0901278"><ele>57.0</ele><time>2026-05-02T07:51:12.751Z</time></trkpt><trkpt lat="42.348932" lon="14.0899735"><ele>57.0</ele><time>2026-05-02T07:51:13.751Z</time></trkpt><trkpt lat="42.3489145" lon="14.0898299"><ele>57.0</ele><time>2026-05-02T07:51:14.75Z</time></trkpt><trkpt lat="42.3488966" lon="14.089704"><ele>57.0</ele><time>2026-05-02T07:51:15.753Z</time></trkpt><trkpt lat="42.3488799" lon="14.0895881"><ele>57.0</ele><time>2026-05-02T07:51:16.751Z</time></trkpt><trkpt lat="42.3488652" lon="14.0894889"><ele>57.0</ele><time>2026-05-02T07:51:17.75Z</time></trkpt><trkpt lat="42.3488458" lon="14.0893942"><ele>57.0</ele><time>2026-05-02T07:51:18.749Z</time></trkpt><trkpt lat="42.3488291" lon="14.0892903"><ele>57.0</ele><time>2026-05-02T07:51:19.75Z</time></trkpt><trkpt lat="42.3488071" lon="14.0891543"><ele>59.0</ele><time>2026-05-02T07:51:20.75Z</time></trkpt><trkpt lat="42.3487869" lon="14.0890015"><ele>61.0</ele><time>2026-05-02T07:51:21.75Z</time></trkpt><trkpt lat="42.3487768" lon="14.0888567"><ele>63.0</ele><time>2026-05-02T07:51:22.75Z</time></trkpt><trkpt lat="42.3487756" lon="14.0886997"><ele>65.0</ele><time>2026-05-02T07:51:23.75Z</time></trkpt><trkpt lat="42.3487749" lon="14.0885302"><ele>65.0</ele><time>2026-05-02T07:51:24.751Z</time></trkpt><trkpt lat="42.3487675" lon="14.0883705"><ele>65.0</ele><time>2026-05-02T07:51:25.751Z</time></trkpt><trkpt lat="42.3487589" lon="14.0882358"><ele>65.0</ele><time>2026-05-02T07:51:26.749Z</time></trkpt><trkpt lat="42.3487547" lon="14.0881212"><ele>65.0</ele><time>2026-05-02T07:51:27.75Z</time></trkpt><trkpt lat="42.3487375" lon="14.0880041"><ele>65.0</ele><time>2026-05-02T07:51:28.749Z</time></trkpt><trkpt lat="42.3487044" lon="14.0878866"><ele>64.66666666666667</ele><time>2026-05-02T07:51:29.75Z</time></trkpt><trkpt lat="42.3486786" lon="14.0877864"><ele>64.33333333333334</ele><time>2026-05-02T07:51:30.75Z</time></trkpt><trkpt lat="42.3486604" lon="14.0876617"><ele>64.0</ele><time>2026-05-02T07:51:31.751Z</time></trkpt><trkpt lat="42.3486507" lon="14.0875267"><ele>63.66666666666667</ele><time>2026-05-02T07:51:32.751Z</time></trkpt><trkpt lat="42.3486462" lon="14.0874026"><ele>63.333333333333336</ele><time>2026-05-02T07:51:33.75Z</time></trkpt><trkpt lat="42.3486308" lon="14.0872954"><ele>63.0</ele><time>2026-05-02T07:51:34.751Z</time></trkpt><trkpt lat="42.348605" lon="14.087216"><ele>63.0</ele><time>2026-05-02T07:51:35.75Z</time></trkpt><trkpt lat="42.3485591" lon="14.0871389"><ele>63.0</ele><time>2026-05-02T07:51:36.75Z</time></trkpt><trkpt lat="42.348499" lon="14.0870629"><ele>63.0</ele><time>2026-05-02T07:51:37.75Z</time></trkpt><trkpt lat="42.3484467" lon="14.0869999"><ele>63.0</ele><time>2026-05-02T07:51:38.75Z</time></trkpt><trkpt lat="42.3483828" lon="14.0869104"><ele>63.0</ele><time>2026-05-02T07:51:40.75Z</time></trkpt><trkpt lat="42.3483228" lon="14.0868534"><ele>63.0</ele><time>2026-05-02T07:51:42.748Z</time></trkpt><trkpt lat="42.3482564" lon="14.0868007"><ele>63.0</ele><time>2026-05-02T07:51:44.751Z</time></trkpt><trkpt lat="42.3481886" lon="14.0867181"><ele>63.0</ele><time>2026-05-02T07:51:46.749Z</time></trkpt><trkpt lat="42.3481464" lon="14.0865974"><ele>63.0</ele><time>2026-05-02T07:51:48.756Z</time></trkpt><trkpt lat="42.3481277" lon="14.0865125"><ele>63.0</ele><time>2026-05-02T07:51:49.751Z</time></trkpt><trkpt lat="42.3480911" lon="14.0863826"><ele>63.0</ele><time>2026-05-02T07:51:51.749Z</time></trkpt><trkpt lat="42.3480789" lon="14.0862392"><ele>63.0</ele><time>2026-05-02T07:51:53.755Z</time></trkpt><trkpt lat="42.3480651" lon="14.0860751"><ele>63.0</ele><time>2026-05-02T07:51:55.75Z</time></trkpt><trkpt lat="42.3480418" lon="14.0859183"><ele>63.0</ele><time>2026-05-02T07:51:57.751Z</time></trkpt><trkpt lat="42.3480166" lon="14.0857786"><ele>63.0</ele><time>2026-05-02T07:51:59.749Z</time></trkpt><trkpt lat="42.347993" lon="14.0856413"><ele>64.2</ele><time>2026-05-02T07:52:01.755Z</time></trkpt><trkpt lat="42.3479847" lon="14.0854782"><ele>65.4</ele><time>2026-05-02T07:52:03.75Z</time></trkpt><trkpt lat="42.3479638" lon="14.085357"><ele>66.60000000000001</ele><time>2026-05-02T07:52:05.75Z</time></trkpt><trkpt lat="42.3479089" lon="14.0852327"><ele>67.8</ele><time>2026-05-02T07:52:07.754Z</time></trkpt><trkpt lat="42.3478585" lon="14.0851063"><ele>69.0</ele><time>2026-05-02T07:52:09.75Z</time></trkpt><trkpt lat="42.3478142" lon="14.0849596"><ele>68.85714285714286</ele><time>2026-05-02T07:52:11.748Z</time></trkpt><trkpt lat="42.3478031" lon="14.0848629"><ele>68.71428571428572</ele><time>2026-05-02T07:52:12.751Z</time></trkpt><trkpt lat="42.3478008" lon="14.0847632"><ele>68.57142857142857</ele><time>2026-05-02T07:52:13.75Z</time></trkpt><trkpt lat="42.3477886" lon="14.0846711"><ele>68.42857142857143</ele><time>2026-05-02T07:52:14.753Z</time></trkpt><trkpt lat="42.3477586" lon="14.0845784"><ele>68.28571428571428</ele><time>2026-05-02T07:52:15.75Z</time></trkpt><trkpt lat="42.3477283" lon="14.0844815"><ele>68.14285714285714</ele><time>2026-05-02T07:52:16.75Z</time></trkpt><trkpt lat="42.3476981" lon="14.0843877"><ele>68.0</ele><time>2026-05-02T07:52:17.752Z</time></trkpt><trkpt lat="42.3476686" lon="14.0842925"><ele>68.0</ele><time>2026-05-02T07:52:18.75Z</time></trkpt><trkpt lat="42.3476465" lon="14.0842024"><ele>68.0</ele><time>2026-05-02T07:52:19.75Z</time></trkpt><trkpt lat="42.3476146" lon="14.0840342"><ele>68.0</ele><time>2026-05-02T07:52:21.75Z</time></trkpt><trkpt lat="42.3476074" lon="14.0839431"><ele>68.0</ele><time>2026-05-02T07:52:22.752Z</time></trkpt><trkpt lat="42.3476032" lon="14.0838529"><ele>68.0</ele><time>2026-05-02T07:52:23.751Z</time></trkpt><trkpt lat="42.3475907" lon="14.0837676"><ele>68.0</ele><time>2026-05-02T07:52:24.75Z</time></trkpt><trkpt lat="42.3475776" lon="14.0836035"><ele>68.0</ele><time>2026-05-02T07:52:26.75Z</time></trkpt><trkpt lat="42.347578" lon="14.0835046"><ele>68.0</ele><time>2026-05-02T07:52:27.753Z</time></trkpt><trkpt lat="42.347584" lon="14.083407"><ele>68.0</ele><time>2026-05-02T07:52:28.75Z</time></trkpt><trkpt lat="42.3475924" lon="14.0833055"><ele>68.0</ele><time>2026-05-02T07:52:29.751Z</time></trkpt><trkpt lat="42.3476142" lon="14.0831994"><ele>68.0</ele><time>2026-05-02T07:52:30.751Z</time></trkpt><trkpt lat="42.3476459" lon="14.0830974"><ele>68.0</ele><time>2026-05-02T07:52:31.75Z</time></trkpt><trkpt lat="42.3476821" lon="14.083012"><ele>68.0</ele><time>2026-05-02T07:52:32.75Z</time></trkpt><trkpt lat="42.3477263" lon="14.0829461"><ele>68.0</ele><time>2026-05-02T07:52:33.751Z</time></trkpt><trkpt lat="42.3477903" lon="14.0828881"><ele>68.0</ele><time>2026-05-02T07:52:34.75Z</time></trkpt><trkpt lat="42.3478564" lon="14.0828184"><ele>68.0</ele><time>2026-05-02T07:52:35.752Z</time></trkpt><trkpt lat="42.3479223" lon="14.0827277"><ele>68.0</ele><time>2026-05-02T07:52:36.751Z</time></trkpt><trkpt lat="42.3479835" lon="14.0826263"><ele>68.0</ele><time>2026-05-02T07:52:37.75Z</time></trkpt><trkpt lat="42.3480342" lon="14.0825098"><ele>67.5</ele><time>2026-05-02T07:52:38.752Z</time></trkpt><trkpt lat="42.3480851" lon="14.0823977"><ele>67.0</ele><time>2026-05-02T07:52:39.75Z</time></trkpt><trkpt lat="42.3481291" lon="14.0822917"><ele>66.5</ele><time>2026-05-02T07:52:40.75Z</time></trkpt><trkpt lat="42.3481661" lon="14.082204"><ele>66.0</ele><time>2026-05-02T07:52:41.752Z</time></trkpt><trkpt lat="42.3482092" lon="14.0821283"><ele>65.5</ele><time>2026-05-02T07:52:42.752Z</time></trkpt><trkpt lat="42.3482464" lon="14.0820524"><ele>65.0</ele><time>2026-05-02T07:52:43.75Z</time></trkpt><trkpt lat="42.3482841" lon="14.0819469"><ele>65.0</ele><time>2026-05-02T07:52:45.75Z</time></trkpt><trkpt lat="42.3483222" lon="14.0818633"><ele>65.0</ele><time>2026-05-02T07:52:48.751Z</time></trkpt><trkpt lat="42.3483682" lon="14.0819441"><ele>65.0</ele><time>2026-05-02T07:57:02.753Z</time></trkpt><trkpt lat="42.3484351" lon="14.0820042"><ele>65.0</ele><time>2026-05-02T07:57:10.752Z</time></trkpt><trkpt lat="42.3485049" lon="14.0819891"><ele>65.0</ele><time>2026-05-02T07:57:13.749Z</time></trkpt><trkpt lat="42.348541" lon="14.0818774"><ele>65.0</ele><time>2026-05-02T07:57:15.748Z</time></trkpt><trkpt lat="42.3485762" lon="14.0817819"><ele>65.0</ele><time>2026-05-02T07:57:17.752Z</time></trkpt><trkpt lat="42.3485813" lon="14.0816669"><ele>65.0</ele><time>2026-05-02T07:57:19.749Z</time></trkpt><trkpt lat="42.3486248" lon="14.0815675"><ele>65.0</ele><time>2026-05-02T07:57:21.748Z</time></trkpt><trkpt lat="42.348699" lon="14.0814958"><ele>65.0</ele><time>2026-05-02T07:57:23.754Z</time></trkpt><trkpt lat="42.3487897" lon="14.0814204"><ele>65.0</ele><time>2026-05-02T07:57:25.75Z</time></trkpt><trkpt lat="42.3488948" lon="14.0813416"><ele>65.4</ele><time>2026-05-02T07:57:27.749Z</time></trkpt><trkpt lat="42.3489988" lon="14.0812758"><ele>65.8</ele><time>2026-05-02T07:57:29.749Z</time></trkpt><trkpt lat="42.3490974" lon="14.0812297"><ele>66.2</ele><time>2026-05-02T07:57:31.749Z</time></trkpt><trkpt lat="42.34921" lon="14.081232"><ele>66.6</ele><time>2026-05-02T07:57:33.749Z</time></trkpt><trkpt lat="42.3493247" lon="14.081258"><ele>67.0</ele><time>2026-05-02T07:57:35.751Z</time></trkpt><trkpt lat="42.3494381" lon="14.0812876"><ele>67.0</ele><time>2026-05-02T07:57:37.75Z</time></trkpt><trkpt lat="42.3495425" lon="14.0812918"><ele>67.0</ele><time>2026-05-02T07:57:39.748Z</time></trkpt><trkpt lat="42.3496169" lon="14.0812335"><ele>67.0</ele><time>2026-05-02T07:57:41.749Z</time></trkpt><trkpt lat="42.3496715" lon="14.0811364"><ele>67.0</ele><time>2026-05-02T07:57:43.751Z</time></trkpt><trkpt lat="42.3496759" lon="14.0810077"><ele>67.0</ele><time>2026-05-02T07:57:45.756Z</time></trkpt><trkpt lat="42.3496378" lon="14.0808862"><ele>67.0</ele><time>2026-05-02T07:57:47.75Z</time></trkpt><trkpt lat="42.3495899" lon="14.0807819"><ele>67.0</ele><time>2026-05-02T07:57:49.749Z</time></trkpt><trkpt lat="42.3495442" lon="14.0806748"><ele>67.0</ele><time>2026-05-02T07:57:51.749Z</time></trkpt><trkpt lat="42.3495639" lon="14.080576"><ele>67.0</ele><time>2026-05-02T07:57:53.751Z</time></trkpt><trkpt lat="42.349618" lon="14.0805135"><ele>67.0</ele><time>2026-05-02T07:57:55.749Z</time></trkpt><trkpt lat="42.3496904" lon="14.0804369"><ele>67.0</ele><time>2026-05-02T07:57:57.757Z</time></trkpt><trkpt lat="42.3497573" lon="14.0803432"><ele>66.6</ele><time>2026-05-02T07:57:59.752Z</time></trkpt><trkpt lat="42.3498407" lon="14.0802615"><ele>66.2</ele><time>2026-05-02T07:58:01.751Z</time></trkpt><trkpt lat="42.3499235" lon="14.0801797"><ele>65.8</ele><time>2026-05-02T07:58:03.751Z</time></trkpt><trkpt lat="42.3500001" lon="14.0801178"><ele>65.4</ele><time>2026-05-02T07:58:05.752Z</time></trkpt><trkpt lat="42.3500676" lon="14.0800632"><ele>65.0</ele><time>2026-05-02T07:58:07.752Z</time></trkpt><trkpt lat="42.3501311" lon="14.0800061"><ele>65.0</ele><time>2026-05-02T07:58:09.751Z</time></trkpt><trkpt lat="42.3501862" lon="14.0799385"><ele>65.0</ele><time>2026-05-02T07:58:11.749Z</time></trkpt><trkpt lat="42.3502387" lon="14.079856"><ele>65.0</ele><time>2026-05-02T07:58:13.756Z</time></trkpt><trkpt lat="42.3502948" lon="14.0797328"><ele>65.0</ele><time>2026-05-02T07:58:15.749Z</time></trkpt><trkpt lat="42.3503348" lon="14.0795911"><ele>65.0</ele><time>2026-05-02T07:58:17.751Z</time></trkpt><trkpt lat="42.3503701" lon="14.0794413"><ele>65.2</ele><time>2026-05-02T07:58:19.75Z</time></trkpt><trkpt lat="42.3503964" lon="14.0792905"><ele>65.4</ele><time>2026-05-02T07:58:21.75Z</time></trkpt><trkpt lat="42.3504202" lon="14.0791619"><ele>65.6</ele><time>2026-05-02T07:58:23.75Z</time></trkpt><trkpt lat="42.3504448" lon="14.0790489"><ele>65.8</ele><time>2026-05-02T07:58:25.754Z</time></trkpt><trkpt lat="42.3504694" lon="14.0789526"><ele>66.0</ele><time>2026-05-02T07:58:27.751Z</time></trkpt><trkpt lat="42.3505063" lon="14.0788286"><ele>66.0</ele><time>2026-05-02T07:58:29.751Z</time></trkpt><trkpt lat="42.3505329" lon="14.0787502"><ele>66.0</ele><time>2026-05-02T07:58:30.75Z</time></trkpt><trkpt lat="42.3505733" lon="14.0785948"><ele>66.0</ele><time>2026-05-02T07:58:32.75Z</time></trkpt><trkpt lat="42.3505775" lon="14.0785058"><ele>66.0</ele><time>2026-05-02T07:58:33.75Z</time></trkpt><trkpt lat="42.3505743" lon="14.0784056"><ele>66.0</ele><time>2026-05-02T07:58:34.75Z</time></trkpt><trkpt lat="42.3505615" lon="14.0782997"><ele>66.0</ele><time>2026-05-02T07:58:35.75Z</time></trkpt><trkpt lat="42.3505406" lon="14.0781894"><ele>66.2</ele><time>2026-05-02T07:58:36.751Z</time></trkpt><trkpt lat="42.3505117" lon="14.0780766"><ele>66.39999999999999</ele><time>2026-05-02T07:58:37.752Z</time></trkpt><trkpt lat="42.3504926" lon="14.077965"><ele>66.6</ele><time>2026-05-02T07:58:38.752Z</time></trkpt><trkpt lat="42.3504841" lon="14.0778588"><ele>66.8</ele><time>2026-05-02T07:58:39.75Z</time></trkpt><trkpt lat="42.3504757" lon="14.0777678"><ele>67.0</ele><time>2026-05-02T07:58:40.749Z</time></trkpt><trkpt lat="42.3504555" lon="14.0775925"><ele>67.0</ele><time>2026-05-02T07:58:42.751Z</time></trkpt><trkpt lat="42.3504541" lon="14.0774807"><ele>67.0</ele><time>2026-05-02T07:58:43.749Z</time></trkpt><trkpt lat="42.3504541" lon="14.0773577"><ele>67.0</ele><time>2026-05-02T07:58:44.751Z</time></trkpt><trkpt lat="42.3504545" lon="14.077234"><ele>67.0</ele><time>2026-05-02T07:58:45.749Z</time></trkpt><trkpt lat="42.3504559" lon="14.0771065"><ele>67.0</ele><time>2026-05-02T07:58:46.752Z</time></trkpt><trkpt lat="42.3504521" lon="14.0769902"><ele>67.0</ele><time>2026-05-02T07:58:47.751Z</time></trkpt><trkpt lat="42.3504463" lon="14.0768817"><ele>67.16666666666666</ele><time>2026-05-02T07:58:48.75Z</time></trkpt><trkpt lat="42.35044" lon="14.0767803"><ele>67.33333333333333</ele><time>2026-05-02T07:58:49.749Z</time></trkpt><trkpt lat="42.3504413" lon="14.076683"><ele>67.5</ele><time>2026-05-02T07:58:50.748Z</time></trkpt><trkpt lat="42.3504576" lon="14.0765855"><ele>67.66666666666667</ele><time>2026-05-02T07:58:51.752Z</time></trkpt><trkpt lat="42.3504813" lon="14.0764877"><ele>67.83333333333334</ele><time>2026-05-02T07:58:52.751Z</time></trkpt><trkpt lat="42.3505011" lon="14.0763835"><ele>68.0</ele><time>2026-05-02T07:58:53.751Z</time></trkpt><trkpt lat="42.350504" lon="14.0762768"><ele>68.33333333333334</ele><time>2026-05-02T07:58:54.75Z</time></trkpt><trkpt lat="42.3504973" lon="14.0761734"><ele>68.66666666666667</ele><time>2026-05-02T07:58:55.75Z</time></trkpt><trkpt lat="42.3504709" lon="14.0760654"><ele>69.0</ele><time>2026-05-02T07:58:56.752Z</time></trkpt><trkpt lat="42.3504398" lon="14.0759539"><ele>69.33333333333333</ele><time>2026-05-02T07:58:57.75Z</time></trkpt><trkpt lat="42.3504215" lon="14.0758373"><ele>69.66666666666666</ele><time>2026-05-02T07:58:58.752Z</time></trkpt><trkpt lat="42.3504137" lon="14.0757263"><ele>70.0</ele><time>2026-05-02T07:58:59.752Z</time></trkpt><trkpt lat="42.3504117" lon="14.0756338"><ele>70.16666666666666</ele><time>2026-05-02T07:59:00.75Z</time></trkpt><trkpt lat="42.350413" lon="14.0755021"><ele>70.33333333333333</ele><time>2026-05-02T07:59:02.75Z</time></trkpt><trkpt lat="42.350447" lon="14.0754235"><ele>70.5</ele><time>2026-05-02T07:59:04.752Z</time></trkpt><trkpt lat="42.350519" lon="14.0753807"><ele>70.66666666666667</ele><time>2026-05-02T07:59:06.752Z</time></trkpt><trkpt lat="42.3506302" lon="14.0753493"><ele>70.83333333333334</ele><time>2026-05-02T07:59:08.753Z</time></trkpt><trkpt lat="42.3506964" lon="14.0753309"><ele>71.0</ele><time>2026-05-02T07:59:09.751Z</time></trkpt><trkpt lat="42.3507667" lon="14.0753105"><ele>71.0</ele><time>2026-05-02T07:59:10.749Z</time></trkpt><trkpt lat="42.3508379" lon="14.0752883"><ele>71.0</ele><time>2026-05-02T07:59:11.751Z</time></trkpt><trkpt lat="42.3509185" lon="14.075262"><ele>71.0</ele><time>2026-05-02T07:59:12.748Z</time></trkpt><trkpt lat="42.3510058" lon="14.0752315"><ele>71.0</ele><time>2026-05-02T07:59:13.75Z</time></trkpt><trkpt lat="42.3510984" lon="14.0751999"><ele>71.0</ele><time>2026-05-02T07:59:14.751Z</time></trkpt><trkpt lat="42.351194" lon="14.0751698"><ele>71.0</ele><time>2026-05-02T07:59:15.751Z</time></trkpt><trkpt lat="42.3512854" lon="14.0751391"><ele>71.0</ele><time>2026-05-02T07:59:16.749Z</time></trkpt><trkpt lat="42.3513694" lon="14.0751084"><ele>71.0</ele><time>2026-05-02T07:59:17.751Z</time></trkpt><trkpt lat="42.3514461" lon="14.0750854"><ele>71.0</ele><time>2026-05-02T07:59:18.748Z</time></trkpt><trkpt lat="42.3515575" lon="14.0750731"><ele>71.0</ele><time>2026-05-02T07:59:20.749Z</time></trkpt><trkpt lat="42.3516219" lon="14.0750711"><ele>71.0</ele><time>2026-05-02T07:59:21.751Z</time></trkpt><trkpt lat="42.3516977" lon="14.0750725"><ele>71.0</ele><time>2026-05-02T07:59:22.749Z</time></trkpt><trkpt lat="42.3517813" lon="14.075081"><ele>71.39999999999999</ele><time>2026-05-02T07:59:23.752Z</time></trkpt><trkpt lat="42.3518753" lon="14.0750939"><ele>71.8</ele><time>2026-05-02T07:59:24.751Z</time></trkpt><trkpt lat="42.3519827" lon="14.075112"><ele>72.19999999999999</ele><time>2026-05-02T07:59:25.751Z</time></trkpt><trkpt lat="42.352098" lon="14.0751326"><ele>72.6</ele><time>2026-05-02T07:59:26.75Z</time></trkpt><trkpt lat="42.352207" lon="14.0751489"><ele>73.0</ele><time>2026-05-02T07:59:27.751Z</time></trkpt><trkpt lat="42.3523042" lon="14.0751636"><ele>73.8</ele><time>2026-05-02T07:59:28.748Z</time></trkpt><trkpt lat="42.352404" lon="14.0751769"><ele>74.6</ele><time>2026-05-02T07:59:29.749Z</time></trkpt><trkpt lat="42.3525036" lon="14.0751891"><ele>75.4</ele><time>2026-05-02T07:59:30.754Z</time></trkpt><trkpt lat="42.3525981" lon="14.075204"><ele>76.2</ele><time>2026-05-02T07:59:31.756Z</time></trkpt><trkpt lat="42.3526893" lon="14.0752186"><ele>77.0</ele><time>2026-05-02T07:59:32.75Z</time></trkpt><trkpt lat="42.3527787" lon="14.0752367"><ele>77.0</ele><time>2026-05-02T07:59:33.749Z</time></trkpt><trkpt lat="42.3528637" lon="14.0752498"><ele>77.0</ele><time>2026-05-02T07:59:34.748Z</time></trkpt><trkpt lat="42.3529413" lon="14.075271"><ele>77.0</ele><time>2026-05-02T07:59:35.748Z</time></trkpt><trkpt lat="42.3530061" lon="14.0752958"><ele>77.0</ele><time>2026-05-02T07:59:36.749Z</time></trkpt><trkpt lat="42.3530732" lon="14.0753254"><ele>77.0</ele><time>2026-05-02T07:59:37.754Z</time></trkpt><trkpt lat="42.3531434" lon="14.0753503"><ele>77.0</ele><time>2026-05-02T07:59:38.756Z</time></trkpt><trkpt lat="42.353217" lon="14.0753684"><ele>79.33333333333334</ele><time>2026-05-02T07:59:39.75Z</time></trkpt><trkpt lat="42.3532962" lon="14.0753767"><ele>81.66666666666667</ele><time>2026-05-02T07:59:40.751Z</time></trkpt><trkpt lat="42.3533798" lon="14.0753767"><ele>84.0</ele><time>2026-05-02T07:59:41.757Z</time></trkpt><trkpt lat="42.3534672" lon="14.0753636"><ele>86.33333333333333</ele><time>2026-05-02T07:59:42.751Z</time></trkpt><trkpt lat="42.3535578" lon="14.0753471"><ele>88.66666666666666</ele><time>2026-05-02T07:59:43.75Z</time></trkpt><trkpt lat="42.3536518" lon="14.0753249"><ele>91.0</ele><time>2026-05-02T07:59:44.751Z</time></trkpt><trkpt lat="42.3537489" lon="14.075301"><ele>91.0</ele><time>2026-05-02T07:59:45.756Z</time></trkpt><trkpt lat="42.353847" lon="14.075281"><ele>91.0</ele><time>2026-05-02T07:59:46.751Z</time></trkpt><trkpt lat="42.3539437" lon="14.0752567"><ele>91.0</ele><time>2026-05-02T07:59:47.755Z</time></trkpt><trkpt lat="42.3540406" lon="14.0752313"><ele>91.0</ele><time>2026-05-02T07:59:48.752Z</time></trkpt><trkpt lat="42.354137" lon="14.0752043"><ele>91.0</ele><time>2026-05-02T07:59:49.751Z</time></trkpt><trkpt lat="42.3542363" lon="14.0751774"><ele>92.19999999999999</ele><time>2026-05-02T07:59:50.749Z</time></trkpt><trkpt lat="42.3543365" lon="14.0751526"><ele>93.39999999999999</ele><time>2026-05-02T07:59:51.753Z</time></trkpt><trkpt lat="42.3544375" lon="14.0751257"><ele>94.6</ele><time>2026-05-02T07:59:52.748Z</time></trkpt><trkpt lat="42.3545376" lon="14.0751002"><ele>95.8</ele><time>2026-05-02T07:59:53.753Z</time></trkpt><trkpt lat="42.3546351" lon="14.0750722"><ele>97.0</ele><time>2026-05-02T07:59:54.749Z</time></trkpt><trkpt lat="42.3547337" lon="14.0750456"><ele>99.6</ele><time>2026-05-02T07:59:55.75Z</time></trkpt><trkpt lat="42.3548393" lon="14.0750217"><ele>102.19999999999999</ele><time>2026-05-02T07:59:56.751Z</time></trkpt><trkpt lat="42.3549409" lon="14.074997"><ele>104.8</ele><time>2026-05-02T07:59:57.75Z</time></trkpt><trkpt lat="42.3550486" lon="14.0749771"><ele>107.4</ele><time>2026-05-02T07:59:58.75Z</time></trkpt><trkpt lat="42.3551592" lon="14.0749592"><ele>110.0</ele><time>2026-05-02T07:59:59.752Z</time></trkpt><trkpt lat="42.3552732" lon="14.0749426"><ele>110.75</ele><time>2026-05-02T08:00:00.749Z</time></trkpt><trkpt lat="42.3553944" lon="14.0749251"><ele>111.5</ele><time>2026-05-02T08:00:01.749Z</time></trkpt><trkpt lat="42.3555236" lon="14.0749045"><ele>112.25</ele><time>2026-05-02T08:00:02.748Z</time></trkpt><trkpt lat="42.355653" lon="14.0748826"><ele>113.0</ele><time>2026-05-02T08:00:03.753Z</time></trkpt><trkpt lat="42.3557802" lon="14.0748712"><ele>114.75</ele><time>2026-05-02T08:00:04.752Z</time></trkpt><trkpt lat="42.3559062" lon="14.0748712"><ele>116.5</ele><time>2026-05-02T08:00:05.752Z</time></trkpt><trkpt lat="42.3560321" lon="14.0748677"><ele>118.25</ele><time>2026-05-02T08:00:06.752Z</time></trkpt><trkpt lat="42.356161" lon="14.0748758"><ele>120.0</ele><time>2026-05-02T08:00:07.75Z</time></trkpt><trkpt lat="42.3562897" lon="14.0748939"><ele>120.75</ele><time>2026-05-02T08:00:08.75Z</time></trkpt><trkpt lat="42.3564169" lon="14.0749163"><ele>121.5</ele><time>2026-05-02T08:00:09.752Z</time></trkpt><trkpt lat="42.3565431" lon="14.0749359"><ele>122.25</ele><time>2026-05-02T08:00:10.749Z</time></trkpt><trkpt lat="42.3566614" lon="14.0749557"><ele>123.0</ele><time>2026-05-02T08:00:11.75Z</time></trkpt><trkpt lat="42.3567772" lon="14.0749738"><ele>123.0</ele><time>2026-05-02T08:00:12.748Z</time></trkpt><trkpt lat="42.3568986" lon="14.074995"><ele>123.0</ele><time>2026-05-02T08:00:13.75Z</time></trkpt><trkpt lat="42.3570307" lon="14.0750221"><ele>123.0</ele><time>2026-05-02T08:00:14.748Z</time></trkpt><trkpt lat="42.3571731" lon="14.0750512"><ele>123.0</ele><time>2026-05-02T08:00:15.753Z</time></trkpt><trkpt lat="42.3573247" lon="14.0750855"><ele>122.66666666666666</ele><time>2026-05-02T08:00:16.752Z</time></trkpt><trkpt lat="42.3574805" lon="14.0751178"><ele>122.33333333333333</ele><time>2026-05-02T08:00:17.75Z</time></trkpt><trkpt lat="42.3576374" lon="14.0751563"><ele>122.0</ele><time>2026-05-02T08:00:18.749Z</time></trkpt><trkpt lat="42.3577835" lon="14.0751973"><ele>122.0</ele><time>2026-05-02T08:00:19.75Z</time></trkpt><trkpt lat="42.3579256" lon="14.0752446"><ele>122.0</ele><time>2026-05-02T08:00:20.751Z</time></trkpt><trkpt lat="42.3580586" lon="14.0752924"><ele>122.0</ele><time>2026-05-02T08:00:21.752Z</time></trkpt><trkpt lat="42.358186" lon="14.0753392"><ele>122.0</ele><time>2026-05-02T08:00:22.755Z</time></trkpt><trkpt lat="42.358307" lon="14.0753783"><ele>121.83333333333333</ele><time>2026-05-02T08:00:23.751Z</time></trkpt><trkpt lat="42.3584194" lon="14.0754173"><ele>121.66666666666666</ele><time>2026-05-02T08:00:24.755Z</time></trkpt><trkpt lat="42.3585175" lon="14.07546"><ele>121.5</ele><time>2026-05-02T08:00:25.751Z</time></trkpt><trkpt lat="42.3586043" lon="14.0754997"><ele>121.33333333333334</ele><time>2026-05-02T08:00:26.753Z</time></trkpt><trkpt lat="42.3586716" lon="14.0755287"><ele>121.16666666666667</ele><time>2026-05-02T08:00:27.751Z</time></trkpt><trkpt lat="42.3587341" lon="14.075541"><ele>121.0</ele><time>2026-05-02T08:00:28.757Z</time></trkpt><trkpt lat="42.3588431" lon="14.0755204"><ele>121.8</ele><time>2026-05-02T08:00:30.755Z</time></trkpt><trkpt lat="42.3589592" lon="14.075429"><ele>122.6</ele><time>2026-05-02T08:00:32.757Z</time></trkpt><trkpt lat="42.3590326" lon="14.0753809"><ele>123.4</ele><time>2026-05-02T08:00:33.752Z</time></trkpt><trkpt lat="42.3591114" lon="14.0753363"><ele>124.2</ele><time>2026-05-02T08:00:34.752Z</time></trkpt><trkpt lat="42.3591905" lon="14.0752866"><ele>125.0</ele><time>2026-05-02T08:00:35.753Z</time></trkpt><trkpt lat="42.3592706" lon="14.0752322"><ele>125.0</ele><time>2026-05-02T08:00:36.756Z</time></trkpt><trkpt lat="42.3593542" lon="14.0751743"><ele>125.0</ele><time>2026-05-02T08:00:37.75Z</time></trkpt><trkpt lat="42.3594452" lon="14.0751087"><ele>125.0</ele><time>2026-05-02T08:00:38.756Z</time></trkpt><trkpt lat="42.3595462" lon="14.0750362"><ele>125.0</ele><time>2026-05-02T08:00:39.751Z</time></trkpt><trkpt lat="42.3596491" lon="14.0749594"><ele>125.0</ele><time>2026-05-02T08:00:40.757Z</time></trkpt><trkpt lat="42.3597571" lon="14.0748796"><ele>125.75</ele><time>2026-05-02T08:00:41.752Z</time></trkpt><trkpt lat="42.35987" lon="14.0747991"><ele>126.5</ele><time>2026-05-02T08:00:42.756Z</time></trkpt><trkpt lat="42.3599737" lon="14.0747239"><ele>127.25</ele><time>2026-05-02T08:00:43.75Z</time></trkpt><trkpt lat="42.3600722" lon="14.0746614"><ele>128.0</ele><time>2026-05-02T08:00:44.757Z</time></trkpt><trkpt lat="42.3601711" lon="14.0746078"><ele>128.0</ele><time>2026-05-02T08:00:45.749Z</time></trkpt><trkpt lat="42.3602617" lon="14.0745397"><ele>128.0</ele><time>2026-05-02T08:00:46.755Z</time></trkpt><trkpt lat="42.3603586" lon="14.074454"><ele>128.0</ele><time>2026-05-02T08:00:47.749Z</time></trkpt><trkpt lat="42.3604663" lon="14.0743866"><ele>128.0</ele><time>2026-05-02T08:00:48.748Z</time></trkpt><trkpt lat="42.3605753" lon="14.0743131"><ele>128.75</ele><time>2026-05-02T08:00:49.75Z</time></trkpt><trkpt lat="42.3606864" lon="14.0742358"><ele>129.5</ele><time>2026-05-02T08:00:50.75Z</time></trkpt><trkpt lat="42.3607988" lon="14.0741582"><ele>130.25</ele><time>2026-05-02T08:00:51.749Z</time></trkpt><trkpt lat="42.3609127" lon="14.07409"><ele>131.0</ele><time>2026-05-02T08:00:52.75Z</time></trkpt><trkpt lat="42.3610265" lon="14.0740169"><ele>131.75</ele><time>2026-05-02T08:00:53.749Z</time></trkpt><trkpt lat="42.361135" lon="14.0739498"><ele>132.5</ele><time>2026-05-02T08:00:54.751Z</time></trkpt><trkpt lat="42.3612385" lon="14.0738726"><ele>133.25</ele><time>2026-05-02T08:00:55.749Z</time></trkpt><trkpt lat="42.3613377" lon="14.0737926"><ele>134.0</ele><time>2026-05-02T08:00:56.75Z</time></trkpt><trkpt lat="42.3614374" lon="14.0737136"><ele>134.6</ele><time>2026-05-02T08:00:57.749Z</time></trkpt><trkpt lat="42.3615324" lon="14.0736409"><ele>135.2</ele><time>2026-05-02T08:00:58.75Z</time></trkpt><trkpt lat="42.3616175" lon="14.0735791"><ele>135.79999999999998</ele><time>2026-05-02T08:00:59.751Z</time></trkpt><trkpt lat="42.3616823" lon="14.0735356"><ele>136.4</ele><time>2026-05-02T08:01:00.749Z</time></trkpt><trkpt lat="42.3617384" lon="14.0734734"><ele>137.0</ele><time>2026-05-02T08:01:02.749Z</time></trkpt><trkpt lat="42.3617183" lon="14.0733303"><ele>137.0</ele><time>2026-05-02T08:01:05.754Z</time></trkpt><trkpt lat="42.361628" lon="14.0731936"><ele>137.0</ele><time>2026-05-02T08:01:07.756Z</time></trkpt><trkpt lat="42.36157" lon="14.0731093"><ele>137.0</ele><time>2026-05-02T08:01:08.75Z</time></trkpt><trkpt lat="42.3615052" lon="14.0730113"><ele>137.0</ele><time>2026-05-02T08:01:09.751Z</time></trkpt><trkpt lat="42.3614356" lon="14.0729018"><ele>137.0</ele><time>2026-05-02T08:01:10.748Z</time></trkpt><trkpt lat="42.3613586" lon="14.0727873"><ele>136.0</ele><time>2026-05-02T08:01:11.753Z</time></trkpt><trkpt lat="42.3612759" lon="14.0726686"><ele>135.0</ele><time>2026-05-02T08:01:12.751Z</time></trkpt><trkpt lat="42.3611889" lon="14.0725408"><ele>134.0</ele><time>2026-05-02T08:01:13.752Z</time></trkpt><trkpt lat="42.3611" lon="14.072402"><ele>133.0</ele><time>2026-05-02T08:01:14.749Z</time></trkpt><trkpt lat="42.3610074" lon="14.0722544"><ele>133.0</ele><time>2026-05-02T08:01:15.75Z</time></trkpt><trkpt lat="42.3609147" lon="14.0721108"><ele>133.0</ele><time>2026-05-02T08:01:16.75Z</time></trkpt><trkpt lat="42.3608202" lon="14.071955"><ele>133.0</ele><time>2026-05-02T08:01:17.749Z</time></trkpt><trkpt lat="42.3607287" lon="14.0717799"><ele>133.0</ele><time>2026-05-02T08:01:18.755Z</time></trkpt><trkpt lat="42.3606599" lon="14.0715773"><ele>133.0</ele><time>2026-05-02T08:01:19.748Z</time></trkpt><trkpt lat="42.360598" lon="14.0713652"><ele>133.0</ele><time>2026-05-02T08:01:20.749Z</time></trkpt><trkpt lat="42.3605391" lon="14.0711306"><ele>133.0</ele><time>2026-05-02T08:01:21.75Z</time></trkpt><trkpt lat="42.3604803" lon="14.0708701"><ele>133.66666666666669</ele><time>2026-05-02T08:01:22.749Z</time></trkpt><trkpt lat="42.3604224" lon="14.0705966"><ele>134.33333333333334</ele><time>2026-05-02T08:01:23.749Z</time></trkpt><trkpt lat="42.3603656" lon="14.0703256"><ele>135.0</ele><time>2026-05-02T08:01:24.752Z</time></trkpt><trkpt lat="42.3603145" lon="14.0700592"><ele>136.0</ele><time>2026-05-02T08:01:25.75Z</time></trkpt><trkpt lat="42.3602725" lon="14.0698103"><ele>137.0</ele><time>2026-05-02T08:01:26.752Z</time></trkpt><trkpt lat="42.3602422" lon="14.0695668"><ele>138.0</ele><time>2026-05-02T08:01:27.75Z</time></trkpt><trkpt lat="42.3602318" lon="14.0693314"><ele>138.66666666666666</ele><time>2026-05-02T08:01:28.748Z</time></trkpt><trkpt lat="42.3602469" lon="14.0691025"><ele>139.33333333333331</ele><time>2026-05-02T08:01:29.75Z</time></trkpt><trkpt lat="42.3602885" lon="14.068886"><ele>140.0</ele><time>2026-05-02T08:01:30.748Z</time></trkpt><trkpt lat="42.3603515" lon="14.0686882"><ele>140.0</ele><time>2026-05-02T08:01:31.749Z</time></trkpt><trkpt lat="42.3604295" lon="14.0685103"><ele>140.0</ele><time>2026-05-02T08:01:32.75Z</time></trkpt><trkpt lat="42.3605155" lon="14.0683624"><ele>140.0</ele><time>2026-05-02T08:01:33.749Z</time></trkpt><trkpt lat="42.3605829" lon="14.0682377"><ele>140.0</ele><time>2026-05-02T08:01:34.75Z</time></trkpt><trkpt lat="42.3606417" lon="14.0681154"><ele>140.0</ele><time>2026-05-02T08:01:35.75Z</time></trkpt><trkpt lat="42.3606837" lon="14.0679921"><ele>140.0</ele><time>2026-05-02T08:01:36.752Z</time></trkpt><trkpt lat="42.360708" lon="14.0678668"><ele>140.0</ele><time>2026-05-02T08:01:37.75Z</time></trkpt><trkpt lat="42.3607143" lon="14.0677373"><ele>140.0</ele><time>2026-05-02T08:01:38.752Z</time></trkpt><trkpt lat="42.3606947" lon="14.0676079"><ele>140.0</ele><time>2026-05-02T08:01:39.748Z</time></trkpt><trkpt lat="42.360658" lon="14.067485"><ele>139.2</ele><time>2026-05-02T08:01:40.749Z</time></trkpt><trkpt lat="42.360606" lon="14.067369"><ele>138.4</ele><time>2026-05-02T08:01:41.749Z</time></trkpt><trkpt lat="42.3605498" lon="14.0672553"><ele>137.6</ele><time>2026-05-02T08:01:42.749Z</time></trkpt><trkpt lat="42.3604946" lon="14.0671442"><ele>136.8</ele><time>2026-05-02T08:01:43.753Z</time></trkpt><trkpt lat="42.3604444" lon="14.0670434"><ele>136.0</ele><time>2026-05-02T08:01:44.75Z</time></trkpt><trkpt lat="42.3604098" lon="14.0669441"><ele>135.0</ele><time>2026-05-02T08:01:45.749Z</time></trkpt><trkpt lat="42.3603879" lon="14.0668501"><ele>134.0</ele><time>2026-05-02T08:01:46.747Z</time></trkpt><trkpt lat="42.3603549" lon="14.066705"><ele>133.0</ele><time>2026-05-02T08:01:48.75Z</time></trkpt><trkpt lat="42.360303" lon="14.0666343"><ele>132.0</ele><time>2026-05-02T08:01:51.749Z</time></trkpt><trkpt lat="42.3602251" lon="14.0666056"><ele>131.0</ele><time>2026-05-02T08:01:53.757Z</time></trkpt><trkpt lat="42.3601113" lon="14.0665499"><ele>131.0</ele><time>2026-05-02T08:01:55.75Z</time></trkpt><trkpt lat="42.3600508" lon="14.0665093"><ele>131.0</ele><time>2026-05-02T08:01:56.748Z</time></trkpt><trkpt lat="42.3599879" lon="14.0664493"><ele>131.0</ele><time>2026-05-02T08:01:57.749Z</time></trkpt><trkpt lat="42.3599265" lon="14.06637"><ele>131.0</ele><time>2026-05-02T08:01:58.75Z</time></trkpt><trkpt lat="42.3598661" lon="14.0662717"><ele>131.0</ele><time>2026-05-02T08:01:59.749Z</time></trkpt><trkpt lat="42.359805" lon="14.0661629"><ele>131.0</ele><time>2026-05-02T08:02:00.749Z</time></trkpt><trkpt lat="42.3597456" lon="14.0660491"><ele>131.4</ele><time>2026-05-02T08:02:01.749Z</time></trkpt><trkpt lat="42.3596868" lon="14.0659347"><ele>131.8</ele><time>2026-05-02T08:02:02.75Z</time></trkpt><trkpt lat="42.3596274" lon="14.0658202"><ele>132.20000000000002</ele><time>2026-05-02T08:02:03.748Z</time></trkpt><trkpt lat="42.3595662" lon="14.0657009"><ele>132.6</ele><time>2026-05-02T08:02:04.751Z</time></trkpt><trkpt lat="42.359501" lon="14.0655807"><ele>133.0</ele><time>2026-05-02T08:02:05.751Z</time></trkpt><trkpt lat="42.3594328" lon="14.0654643"><ele>131.20000000000002</ele><time>2026-05-02T08:02:06.75Z</time></trkpt><trkpt lat="42.3593668" lon="14.0653514"><ele>129.4</ele><time>2026-05-02T08:02:07.748Z</time></trkpt><trkpt lat="42.3592868" lon="14.06525"><ele>127.60000000000001</ele><time>2026-05-02T08:02:08.75Z</time></trkpt><trkpt lat="42.3592018" lon="14.0651586"><ele>125.80000000000001</ele><time>2026-05-02T08:02:09.749Z</time></trkpt><trkpt lat="42.3591198" lon="14.0650705"><ele>124.0</ele><time>2026-05-02T08:02:10.75Z</time></trkpt><trkpt lat="42.359036" lon="14.0649764"><ele>123.6</ele><time>2026-05-02T08:02:11.748Z</time></trkpt><trkpt lat="42.3589595" lon="14.0648753"><ele>123.2</ele><time>2026-05-02T08:02:12.75Z</time></trkpt><trkpt lat="42.3588883" lon="14.0647705"><ele>122.79999999999998</ele><time>2026-05-02T08:02:13.748Z</time></trkpt><trkpt lat="42.3588248" lon="14.0646599"><ele>122.39999999999999</ele><time>2026-05-02T08:02:14.751Z</time></trkpt><trkpt lat="42.3587624" lon="14.0645463"><ele>122.0</ele><time>2026-05-02T08:02:15.749Z</time></trkpt><trkpt lat="42.3587034" lon="14.0644332"><ele>121.6</ele><time>2026-05-02T08:02:16.75Z</time></trkpt><trkpt lat="42.3586461" lon="14.0643211"><ele>121.19999999999999</ele><time>2026-05-02T08:02:17.748Z</time></trkpt><trkpt lat="42.3585823" lon="14.0642169"><ele>120.8</ele><time>2026-05-02T08:02:18.75Z</time></trkpt><trkpt lat="42.3585103" lon="14.0641235"><ele>120.4</ele><time>2026-05-02T08:02:19.748Z</time></trkpt><trkpt lat="42.3584233" lon="14.0640444"><ele>120.0</ele><time>2026-05-02T08:02:20.749Z</time></trkpt><trkpt lat="42.3583256" lon="14.0639854"><ele>117.25</ele><time>2026-05-02T08:02:21.748Z</time></trkpt><trkpt lat="42.3582186" lon="14.0639574"><ele>114.5</ele><time>2026-05-02T08:02:22.749Z</time></trkpt><trkpt lat="42.3581062" lon="14.0639611"><ele>111.75</ele><time>2026-05-02T08:02:23.749Z</time></trkpt><trkpt lat="42.3579909" lon="14.0639833"><ele>109.0</ele><time>2026-05-02T08:02:24.748Z</time></trkpt><trkpt lat="42.3578772" lon="14.0640001"><ele>108.2</ele><time>2026-05-02T08:02:25.748Z</time></trkpt><trkpt lat="42.3577697" lon="14.063981"><ele>107.4</ele><time>2026-05-02T08:02:26.756Z</time></trkpt><trkpt lat="42.3576665" lon="14.0639372"><ele>106.6</ele><time>2026-05-02T08:02:27.749Z</time></trkpt><trkpt lat="42.3575685" lon="14.063892"><ele>105.8</ele><time>2026-05-02T08:02:28.748Z</time></trkpt><trkpt lat="42.3574647" lon="14.0638189"><ele>105.0</ele><time>2026-05-02T08:02:29.749Z</time></trkpt><trkpt lat="42.3573576" lon="14.0637479"><ele>105.0</ele><time>2026-05-02T08:02:30.748Z</time></trkpt><trkpt lat="42.3572451" lon="14.0636844"><ele>105.0</ele><time>2026-05-02T08:02:31.75Z</time></trkpt><trkpt lat="42.3571332" lon="14.0636326"><ele>105.0</ele><time>2026-05-02T08:02:32.75Z</time></trkpt><trkpt lat="42.3570173" lon="14.063586"><ele>105.0</ele><time>2026-05-02T08:02:33.748Z</time></trkpt><trkpt lat="42.3569033" lon="14.0635623"><ele>104.0</ele><time>2026-05-02T08:02:34.749Z</time></trkpt><trkpt lat="42.3567874" lon="14.0635609"><ele>103.0</ele><time>2026-05-02T08:02:35.749Z</time></trkpt><trkpt lat="42.356678" lon="14.0635726"><ele>102.0</ele><time>2026-05-02T08:02:36.749Z</time></trkpt><trkpt lat="42.3565726" lon="14.0635988"><ele>101.0</ele><time>2026-05-02T08:02:37.75Z</time></trkpt><trkpt lat="42.3564716" lon="14.0636318"><ele>100.0</ele><time>2026-05-02T08:02:38.75Z</time></trkpt><trkpt lat="42.3563743" lon="14.0636814"><ele>98.4</ele><time>2026-05-02T08:02:39.747Z</time></trkpt><trkpt lat="42.3562816" lon="14.0637367"><ele>96.8</ele><time>2026-05-02T08:02:40.753Z</time></trkpt><trkpt lat="42.3561907" lon="14.0637946"><ele>95.19999999999999</ele><time>2026-05-02T08:02:41.748Z</time></trkpt><trkpt lat="42.3560954" lon="14.0638417"><ele>93.6</ele><time>2026-05-02T08:02:42.75Z</time></trkpt><trkpt lat="42.3559966" lon="14.0638648"><ele>92.0</ele><time>2026-05-02T08:02:43.748Z</time></trkpt><trkpt lat="42.3558951" lon="14.0638581"><ele>92.0</ele><time>2026-05-02T08:02:44.748Z</time></trkpt><trkpt lat="42.3557989" lon="14.0638146"><ele>92.0</ele><time>2026-05-02T08:02:45.748Z</time></trkpt><trkpt lat="42.3557166" lon="14.0637382"><ele>92.0</ele><time>2026-05-02T08:02:46.749Z</time></trkpt><trkpt lat="42.3556559" lon="14.0636338"><ele>92.0</ele><time>2026-05-02T08:02:47.75Z</time></trkpt><trkpt lat="42.3556135" lon="14.0635203"><ele>92.0</ele><time>2026-05-02T08:02:48.75Z</time></trkpt><trkpt lat="42.3555791" lon="14.0634056"><ele>92.0</ele><time>2026-05-02T08:02:49.75Z</time></trkpt><trkpt lat="42.3555495" lon="14.0632881"><ele>92.0</ele><time>2026-05-02T08:02:50.75Z</time></trkpt><trkpt lat="42.3555186" lon="14.0631671"><ele>92.0</ele><time>2026-05-02T08:02:51.752Z</time></trkpt><trkpt lat="42.3554813" lon="14.0630451"><ele>92.0</ele><time>2026-05-02T08:02:52.746Z</time></trkpt><trkpt lat="42.355436" lon="14.0629166"><ele>92.0</ele><time>2026-05-02T08:02:53.748Z</time></trkpt><trkpt lat="42.3553813" lon="14.0627907"><ele>91.5</ele><time>2026-05-02T08:02:54.749Z</time></trkpt><trkpt lat="42.3553154" lon="14.0626637"><ele>91.0</ele><time>2026-05-02T08:02:55.747Z</time></trkpt><trkpt lat="42.3552408" lon="14.0625349"><ele>90.5</ele><time>2026-05-02T08:02:56.749Z</time></trkpt><trkpt lat="42.3551617" lon="14.0624068"><ele>90.0</ele><time>2026-05-02T08:02:57.749Z</time></trkpt><trkpt lat="42.3550793" lon="14.0622797"><ele>90.0</ele><time>2026-05-02T08:02:58.75Z</time></trkpt><trkpt lat="42.354999" lon="14.0621539"><ele>90.0</ele><time>2026-05-02T08:02:59.75Z</time></trkpt><trkpt lat="42.3549173" lon="14.0620318"><ele>90.0</ele><time>2026-05-02T08:03:00.751Z</time></trkpt><trkpt lat="42.3548335" lon="14.0619184"><ele>90.0</ele><time>2026-05-02T08:03:01.749Z</time></trkpt><trkpt lat="42.3547551" lon="14.0617985"><ele>89.25</ele><time>2026-05-02T08:03:02.756Z</time></trkpt><trkpt lat="42.3546805" lon="14.0616729"><ele>88.5</ele><time>2026-05-02T08:03:03.749Z</time></trkpt><trkpt lat="42.3546068" lon="14.0615503"><ele>87.75</ele><time>2026-05-02T08:03:04.753Z</time></trkpt><trkpt lat="42.3545323" lon="14.0614248"><ele>87.0</ele><time>2026-05-02T08:03:05.748Z</time></trkpt><trkpt lat="42.3544576" lon="14.061296"><ele>88.75</ele><time>2026-05-02T08:03:06.751Z</time></trkpt><trkpt lat="42.3543795" lon="14.061169"><ele>90.5</ele><time>2026-05-02T08:03:07.748Z</time></trkpt><trkpt lat="42.3542987" lon="14.0610327"><ele>92.25</ele><time>2026-05-02T08:03:08.757Z</time></trkpt><trkpt lat="42.3542169" lon="14.0608896"><ele>94.0</ele><time>2026-05-02T08:03:09.75Z</time></trkpt><trkpt lat="42.3541356" lon="14.0607405"><ele>93.5</ele><time>2026-05-02T08:03:10.756Z</time></trkpt><trkpt lat="42.3540496" lon="14.0605919"><ele>93.0</ele><time>2026-05-02T08:03:11.75Z</time></trkpt><trkpt lat="42.3539608" lon="14.0604407"><ele>92.5</ele><time>2026-05-02T08:03:12.757Z</time></trkpt><trkpt lat="42.3538702" lon="14.0602818"><ele>92.0</ele><time>2026-05-02T08:03:13.751Z</time></trkpt><trkpt lat="42.3537769" lon="14.0601204"><ele>92.0</ele><time>2026-05-02T08:03:14.752Z</time></trkpt><trkpt lat="42.3536815" lon="14.059953"><ele>92.0</ele><time>2026-05-02T08:03:15.751Z</time></trkpt><trkpt lat="42.3535945" lon="14.0597747"><ele>92.0</ele><time>2026-05-02T08:03:16.757Z</time></trkpt><trkpt lat="42.3535291" lon="14.0595769"><ele>92.33333333333334</ele><time>2026-05-02T08:03:17.749Z</time></trkpt><trkpt lat="42.3534838" lon="14.0593681"><ele>92.66666666666667</ele><time>2026-05-02T08:03:18.754Z</time></trkpt><trkpt lat="42.3534532" lon="14.0591514"><ele>93.0</ele><time>2026-05-02T08:03:19.751Z</time></trkpt><trkpt lat="42.3534291" lon="14.0589294"><ele>93.0</ele><time>2026-05-02T08:03:20.756Z</time></trkpt><trkpt lat="42.3534031" lon="14.0587066"><ele>93.0</ele><time>2026-05-02T08:03:21.75Z</time></trkpt><trkpt lat="42.3533776" lon="14.0584799"><ele>93.0</ele><time>2026-05-02T08:03:22.756Z</time></trkpt><trkpt lat="42.3533534" lon="14.0582517"><ele>92.66666666666667</ele><time>2026-05-02T08:03:23.749Z</time></trkpt><trkpt lat="42.3533323" lon="14.0580271"><ele>92.33333333333334</ele><time>2026-05-02T08:03:24.75Z</time></trkpt><trkpt lat="42.3533121" lon="14.0578007"><ele>92.0</ele><time>2026-05-02T08:03:25.75Z</time></trkpt><trkpt lat="42.3532909" lon="14.0575738"><ele>91.33333333333334</ele><time>2026-05-02T08:03:26.756Z</time></trkpt><trkpt lat="42.35327" lon="14.057347"><ele>90.66666666666667</ele><time>2026-05-02T08:03:27.752Z</time></trkpt><trkpt lat="42.3532469" lon="14.0571201"><ele>90.0</ele><time>2026-05-02T08:03:28.757Z</time></trkpt><trkpt lat="42.3532213" lon="14.0568906"><ele>90.0</ele><time>2026-05-02T08:03:29.75Z</time></trkpt><trkpt lat="42.3531943" lon="14.0566549"><ele>90.0</ele><time>2026-05-02T08:03:30.752Z</time></trkpt><trkpt lat="42.3531715" lon="14.0564148"><ele>90.0</ele><time>2026-05-02T08:03:31.75Z</time></trkpt><trkpt lat="42.353147" lon="14.0561683"><ele>89.66666666666667</ele><time>2026-05-02T08:03:32.755Z</time></trkpt><trkpt lat="42.3531229" lon="14.0559236"><ele>89.33333333333334</ele><time>2026-05-02T08:03:33.752Z</time></trkpt><trkpt lat="42.3530956" lon="14.0556827"><ele>89.0</ele><time>2026-05-02T08:03:34.756Z</time></trkpt><trkpt lat="42.3530707" lon="14.0554468"><ele>89.66666666666667</ele><time>2026-05-02T08:03:35.752Z</time></trkpt><trkpt lat="42.3530471" lon="14.0552124"><ele>90.33333333333333</ele><time>2026-05-02T08:03:36.755Z</time></trkpt><trkpt lat="42.3530319" lon="14.0549847"><ele>91.0</ele><time>2026-05-02T08:03:37.75Z</time></trkpt><trkpt lat="42.3530321" lon="14.054761"><ele>92.0</ele><time>2026-05-02T08:03:38.755Z</time></trkpt><trkpt lat="42.353052" lon="14.0545414"><ele>93.0</ele><time>2026-05-02T08:03:39.752Z</time></trkpt><trkpt lat="42.3530827" lon="14.0543211"><ele>94.0</ele><time>2026-05-02T08:03:40.757Z</time></trkpt><trkpt lat="42.3531188" lon="14.0541038"><ele>96.66666666666666</ele><time>2026-05-02T08:03:41.751Z</time></trkpt><trkpt lat="42.3531518" lon="14.0538894"><ele>99.33333333333333</ele><time>2026-05-02T08:03:42.757Z</time></trkpt><trkpt lat="42.3531702" lon="14.0536757"><ele>102.0</ele><time>2026-05-02T08:03:43.75Z</time></trkpt><trkpt lat="42.3531549" lon="14.0534663"><ele>102.0</ele><time>2026-05-02T08:03:44.749Z</time></trkpt><trkpt lat="42.353102" lon="14.0532668"><ele>102.0</ele><time>2026-05-02T08:03:45.751Z</time></trkpt><trkpt lat="42.3530201" lon="14.0530861"><ele>102.0</ele><time>2026-05-02T08:03:46.751Z</time></trkpt><trkpt lat="42.352945" lon="14.0529117"><ele>102.0</ele><time>2026-05-02T08:03:47.757Z</time></trkpt><trkpt lat="42.3528977" lon="14.0527154"><ele>102.0</ele><time>2026-05-02T08:03:48.756Z</time></trkpt><trkpt lat="42.3528753" lon="14.0525064"><ele>102.0</ele><time>2026-05-02T08:03:49.75Z</time></trkpt><trkpt lat="42.3528816" lon="14.0523035"><ele>103.25</ele><time>2026-05-02T08:03:50.753Z</time></trkpt><trkpt lat="42.3529097" lon="14.0521306"><ele>104.5</ele><time>2026-05-02T08:03:51.751Z</time></trkpt><trkpt lat="42.3529469" lon="14.0519733"><ele>105.75</ele><time>2026-05-02T08:03:52.752Z</time></trkpt><trkpt lat="42.3529895" lon="14.0518245"><ele>107.0</ele><time>2026-05-02T08:03:53.748Z</time></trkpt><trkpt lat="42.353027" lon="14.0516679"><ele>108.0</ele><time>2026-05-02T08:03:54.756Z</time></trkpt><trkpt lat="42.3530563" lon="14.0515029"><ele>109.0</ele><time>2026-05-02T08:03:55.748Z</time></trkpt><trkpt lat="42.3530783" lon="14.0513276"><ele>110.0</ele><time>2026-05-02T08:03:56.748Z</time></trkpt><trkpt lat="42.3530954" lon="14.0511489"><ele>111.0</ele><time>2026-05-02T08:03:57.749Z</time></trkpt><trkpt lat="42.3531079" lon="14.050966"><ele>111.5</ele><time>2026-05-02T08:03:58.751Z</time></trkpt><trkpt lat="42.3531308" lon="14.0507834"><ele>112.0</ele><time>2026-05-02T08:03:59.751Z</time></trkpt><trkpt lat="42.3531614" lon="14.0505995"><ele>112.5</ele><time>2026-05-02T08:04:00.749Z</time></trkpt><trkpt lat="42.353197" lon="14.0504191"><ele>113.0</ele><time>2026-05-02T08:04:01.75Z</time></trkpt><trkpt lat="42.3532231" lon="14.0502316"><ele>113.0</ele><time>2026-05-02T08:04:02.749Z</time></trkpt><trkpt lat="42.3532207" lon="14.0500373"><ele>113.0</ele><time>2026-05-02T08:04:03.75Z</time></trkpt><trkpt lat="42.353202" lon="14.0498359"><ele>113.0</ele><time>2026-05-02T08:04:04.75Z</time></trkpt><trkpt lat="42.3531703" lon="14.0496303"><ele>113.0</ele><time>2026-05-02T08:04:05.752Z</time></trkpt><trkpt lat="42.3531342" lon="14.0494272"><ele>114.25</ele><time>2026-05-02T08:04:06.752Z</time></trkpt><trkpt lat="42.3531125" lon="14.0492224"><ele>115.5</ele><time>2026-05-02T08:04:07.751Z</time></trkpt><trkpt lat="42.3531079" lon="14.0490262"><ele>116.75</ele><time>2026-05-02T08:04:08.751Z</time></trkpt><trkpt lat="42.3531006" lon="14.0488296"><ele>118.0</ele><time>2026-05-02T08:04:09.752Z</time></trkpt><trkpt lat="42.3530814" lon="14.0486364"><ele>118.25</ele><time>2026-05-02T08:04:10.748Z</time></trkpt><trkpt lat="42.3530504" lon="14.0484492"><ele>118.5</ele><time>2026-05-02T08:04:11.749Z</time></trkpt><trkpt lat="42.3530099" lon="14.0482709"><ele>118.75</ele><time>2026-05-02T08:04:12.751Z</time></trkpt><trkpt lat="42.3529804" lon="14.0481025"><ele>119.0</ele><time>2026-05-02T08:04:13.751Z</time></trkpt><trkpt lat="42.3529795" lon="14.0479395"><ele>119.0</ele><time>2026-05-02T08:04:14.756Z</time></trkpt><trkpt lat="42.3529993" lon="14.0477757"><ele>119.0</ele><time>2026-05-02T08:04:15.749Z</time></trkpt><trkpt lat="42.3530526" lon="14.0476272"><ele>119.0</ele><time>2026-05-02T08:04:16.754Z</time></trkpt><trkpt lat="42.3531262" lon="14.0474847"><ele>119.0</ele><time>2026-05-02T08:04:17.749Z</time></trkpt><trkpt lat="42.3532139" lon="14.0473386"><ele>119.0</ele><time>2026-05-02T08:04:18.749Z</time></trkpt><trkpt lat="42.3532885" lon="14.0471667"><ele>119.0</ele><time>2026-05-02T08:04:19.749Z</time></trkpt><trkpt lat="42.3533544" lon="14.0469835"><ele>119.0</ele><time>2026-05-02T08:04:20.754Z</time></trkpt><trkpt lat="42.3534159" lon="14.0468032"><ele>119.0</ele><time>2026-05-02T08:04:21.75Z</time></trkpt><trkpt lat="42.3534774" lon="14.0466179"><ele>118.0</ele><time>2026-05-02T08:04:22.751Z</time></trkpt><trkpt lat="42.3535293" lon="14.0464284"><ele>117.0</ele><time>2026-05-02T08:04:23.748Z</time></trkpt><trkpt lat="42.3535658" lon="14.0462294"><ele>116.0</ele><time>2026-05-02T08:04:24.748Z</time></trkpt><trkpt lat="42.3535929" lon="14.046026"><ele>116.0</ele><time>2026-05-02T08:04:25.751Z</time></trkpt><trkpt lat="42.3536221" lon="14.0458252"><ele>116.0</ele><time>2026-05-02T08:04:26.751Z</time></trkpt><trkpt lat="42.3536437" lon="14.0456212"><ele>116.0</ele><time>2026-05-02T08:04:27.75Z</time></trkpt><trkpt lat="42.3536496" lon="14.0454094"><ele>117.33333333333333</ele><time>2026-05-02T08:04:28.75Z</time></trkpt><trkpt lat="42.3536448" lon="14.0451922"><ele>118.66666666666666</ele><time>2026-05-02T08:04:29.755Z</time></trkpt><trkpt lat="42.3536362" lon="14.0449798"><ele>120.0</ele><time>2026-05-02T08:04:30.754Z</time></trkpt><trkpt lat="42.3536241" lon="14.0447696"><ele>121.66666666666666</ele><time>2026-05-02T08:04:31.755Z</time></trkpt><trkpt lat="42.3536145" lon="14.0445612"><ele>123.33333333333333</ele><time>2026-05-02T08:04:32.751Z</time></trkpt><trkpt lat="42.3536228" lon="14.044353"><ele>125.0</ele><time>2026-05-02T08:04:33.754Z</time></trkpt><trkpt lat="42.3536509" lon="14.0441477"><ele>126.33333333333333</ele><time>2026-05-02T08:04:34.749Z</time></trkpt><trkpt lat="42.3536943" lon="14.0439369"><ele>127.66666666666666</ele><time>2026-05-02T08:04:35.75Z</time></trkpt><trkpt lat="42.3537407" lon="14.0437255"><ele>129.0</ele><time>2026-05-02T08:04:36.748Z</time></trkpt><trkpt lat="42.353793" lon="14.043514"><ele>129.0</ele><time>2026-05-02T08:04:37.75Z</time></trkpt><trkpt lat="42.3538477" lon="14.0433034"><ele>129.0</ele><time>2026-05-02T08:04:38.75Z</time></trkpt><trkpt lat="42.3538984" lon="14.0430936"><ele>129.0</ele><time>2026-05-02T08:04:39.753Z</time></trkpt><trkpt lat="42.353944" lon="14.0428811"><ele>130.0</ele><time>2026-05-02T08:04:40.75Z</time></trkpt><trkpt lat="42.3539869" lon="14.0426644"><ele>131.0</ele><time>2026-05-02T08:04:41.752Z</time></trkpt><trkpt lat="42.3540243" lon="14.0424481"><ele>132.0</ele><time>2026-05-02T08:04:42.752Z</time></trkpt><trkpt lat="42.3540618" lon="14.042227"><ele>132.0</ele><time>2026-05-02T08:04:43.75Z</time></trkpt><trkpt lat="42.3540976" lon="14.0420029"><ele>132.0</ele><time>2026-05-02T08:04:44.75Z</time></trkpt><trkpt lat="42.3541354" lon="14.0417824"><ele>132.0</ele><time>2026-05-02T08:04:45.749Z</time></trkpt><trkpt lat="42.3541744" lon="14.0415627"><ele>133.0</ele><time>2026-05-02T08:04:46.751Z</time></trkpt><trkpt lat="42.3542096" lon="14.0413459"><ele>134.0</ele><time>2026-05-02T08:04:47.75Z</time></trkpt><trkpt lat="42.3542445" lon="14.0411285"><ele>135.0</ele><time>2026-05-02T08:04:48.75Z</time></trkpt><trkpt lat="42.3542804" lon="14.0409139"><ele>136.66666666666666</ele><time>2026-05-02T08:04:49.753Z</time></trkpt><trkpt lat="42.3543108" lon="14.0406958"><ele>138.33333333333331</ele><time>2026-05-02T08:04:50.748Z</time></trkpt><trkpt lat="42.3543452" lon="14.0404815"><ele>140.0</ele><time>2026-05-02T08:04:51.751Z</time></trkpt><trkpt lat="42.354382" lon="14.040269"><ele>140.0</ele><time>2026-05-02T08:04:52.749Z</time></trkpt><trkpt lat="42.3544205" lon="14.0400564"><ele>140.0</ele><time>2026-05-02T08:04:53.75Z</time></trkpt><trkpt lat="42.354459" lon="14.0398476"><ele>140.0</ele><time>2026-05-02T08:04:54.748Z</time></trkpt><trkpt lat="42.3544973" lon="14.0396341"><ele>140.33333333333331</ele><time>2026-05-02T08:04:55.75Z</time></trkpt><trkpt lat="42.3545314" lon="14.0394229"><ele>140.66666666666666</ele><time>2026-05-02T08:04:56.749Z</time></trkpt><trkpt lat="42.3545655" lon="14.0392102"><ele>141.0</ele><time>2026-05-02T08:04:57.75Z</time></trkpt><trkpt lat="42.3545963" lon="14.0389961"><ele>140.0</ele><time>2026-05-02T08:04:58.748Z</time></trkpt><trkpt lat="42.3546276" lon="14.0387839"><ele>139.0</ele><time>2026-05-02T08:04:59.75Z</time></trkpt><trkpt lat="42.3546586" lon="14.0385712"><ele>138.0</ele><time>2026-05-02T08:05:00.749Z</time></trkpt><trkpt lat="42.3546924" lon="14.0383596"><ele>136.0</ele><time>2026-05-02T08:05:01.75Z</time></trkpt><trkpt lat="42.3547281" lon="14.0381501"><ele>134.0</ele><time>2026-05-02T08:05:02.748Z</time></trkpt><trkpt lat="42.3547618" lon="14.0379404"><ele>132.0</ele><time>2026-05-02T08:05:03.748Z</time></trkpt><trkpt lat="42.3547959" lon="14.0377255"><ele>132.0</ele><time>2026-05-02T08:05:04.75Z</time></trkpt><trkpt lat="42.3548272" lon="14.0375122"><ele>132.0</ele><time>2026-05-02T08:05:05.748Z</time></trkpt><trkpt lat="42.3548559" lon="14.0372919"><ele>132.0</ele><time>2026-05-02T08:05:06.748Z</time></trkpt><trkpt lat="42.3548781" lon="14.0370646"><ele>132.33333333333334</ele><time>2026-05-02T08:05:07.749Z</time></trkpt><trkpt lat="42.3548895" lon="14.0368321"><ele>132.66666666666669</ele><time>2026-05-02T08:05:08.748Z</time></trkpt><trkpt lat="42.3548915" lon="14.0365914"><ele>133.0</ele><time>2026-05-02T08:05:09.75Z</time></trkpt><trkpt lat="42.3548922" lon="14.0363482"><ele>133.33333333333334</ele><time>2026-05-02T08:05:10.748Z</time></trkpt><trkpt lat="42.354895" lon="14.0361023"><ele>133.66666666666666</ele><time>2026-05-02T08:05:11.749Z</time></trkpt><trkpt lat="42.3548942" lon="14.0358493"><ele>134.0</ele><time>2026-05-02T08:05:12.749Z</time></trkpt><trkpt lat="42.3548932" lon="14.0356017"><ele>135.0</ele><time>2026-05-02T08:05:13.75Z</time></trkpt><trkpt lat="42.3548904" lon="14.0353539"><ele>136.0</ele><time>2026-05-02T08:05:14.75Z</time></trkpt><trkpt lat="42.354886" lon="14.0351105"><ele>137.0</ele><time>2026-05-02T08:05:15.753Z</time></trkpt><trkpt lat="42.354882" lon="14.0348693"><ele>137.33333333333331</ele><time>2026-05-02T08:05:16.752Z</time></trkpt><trkpt lat="42.3548817" lon="14.0346327"><ele>137.66666666666666</ele><time>2026-05-02T08:05:17.75Z</time></trkpt><trkpt lat="42.3548767" lon="14.0343967"><ele>138.0</ele><time>2026-05-02T08:05:18.752Z</time></trkpt><trkpt lat="42.3548724" lon="14.0341663"><ele>138.0</ele><time>2026-05-02T08:05:19.748Z</time></trkpt><trkpt lat="42.3548683" lon="14.0339377"><ele>138.0</ele><time>2026-05-02T08:05:20.75Z</time></trkpt><trkpt lat="42.3548658" lon="14.0337117"><ele>138.0</ele><time>2026-05-02T08:05:21.748Z</time></trkpt><trkpt lat="42.3548629" lon="14.0334889"><ele>138.33333333333334</ele><time>2026-05-02T08:05:22.749Z</time></trkpt><trkpt lat="42.3548629" lon="14.033269"><ele>138.66666666666669</ele><time>2026-05-02T08:05:23.751Z</time></trkpt><trkpt lat="42.3548604" lon="14.0330515"><ele>139.0</ele><time>2026-05-02T08:05:24.751Z</time></trkpt><trkpt lat="42.3548566" lon="14.0328303"><ele>139.0</ele><time>2026-05-02T08:05:25.748Z</time></trkpt><trkpt lat="42.3548524" lon="14.0326058"><ele>139.0</ele><time>2026-05-02T08:05:26.75Z</time></trkpt><trkpt lat="42.3548507" lon="14.032378"><ele>139.0</ele><time>2026-05-02T08:05:27.749Z</time></trkpt><trkpt lat="42.3548485" lon="14.0321511"><ele>139.0</ele><time>2026-05-02T08:05:28.75Z</time></trkpt><trkpt lat="42.3548466" lon="14.0319234"><ele>139.0</ele><time>2026-05-02T08:05:29.75Z</time></trkpt><trkpt lat="42.3548452" lon="14.0316941"><ele>139.0</ele><time>2026-05-02T08:05:30.75Z</time></trkpt><trkpt lat="42.3548399" lon="14.0314616"><ele>139.0</ele><time>2026-05-02T08:05:31.75Z</time></trkpt><trkpt lat="42.3548384" lon="14.0312311"><ele>139.0</ele><time>2026-05-02T08:05:32.75Z</time></trkpt><trkpt lat="42.3548392" lon="14.0309985"><ele>139.0</ele><time>2026-05-02T08:05:33.75Z</time></trkpt><trkpt lat="42.3548389" lon="14.0307659"><ele>139.66666666666669</ele><time>2026-05-02T08:05:34.752Z</time></trkpt><trkpt lat="42.3548368" lon="14.0305346"><ele>140.33333333333334</ele><time>2026-05-02T08:05:35.752Z</time></trkpt><trkpt lat="42.3548339" lon="14.0303044"><ele>141.0</ele><time>2026-05-02T08:05:36.751Z</time></trkpt><trkpt lat="42.3548319" lon="14.0300708"><ele>142.33333333333334</ele><time>2026-05-02T08:05:37.75Z</time></trkpt><trkpt lat="42.3548315" lon="14.0298303"><ele>143.66666666666669</ele><time>2026-05-02T08:05:38.749Z</time></trkpt><trkpt lat="42.3548321" lon="14.0295879"><ele>145.0</ele><time>2026-05-02T08:05:39.749Z</time></trkpt><trkpt lat="42.3548268" lon="14.029348"><ele>144.66666666666669</ele><time>2026-05-02T08:05:40.749Z</time></trkpt><trkpt lat="42.3548301" lon="14.0291042"><ele>144.33333333333334</ele><time>2026-05-02T08:05:41.751Z</time></trkpt><trkpt lat="42.3548274" lon="14.0288646"><ele>144.0</ele><time>2026-05-02T08:05:42.753Z</time></trkpt><trkpt lat="42.3548264" lon="14.0286255"><ele>144.0</ele><time>2026-05-02T08:05:43.751Z</time></trkpt><trkpt lat="42.3548186" lon="14.0283897"><ele>144.0</ele><time>2026-05-02T08:05:44.75Z</time></trkpt><trkpt lat="42.3548155" lon="14.028154"><ele>144.0</ele><time>2026-05-02T08:05:45.748Z</time></trkpt><trkpt lat="42.3548099" lon="14.0279184"><ele>144.33333333333334</ele><time>2026-05-02T08:05:46.749Z</time></trkpt><trkpt lat="42.3548058" lon="14.0276844"><ele>144.66666666666669</ele><time>2026-05-02T08:05:47.751Z</time></trkpt><trkpt lat="42.3548025" lon="14.0274512"><ele>145.0</ele><time>2026-05-02T08:05:48.751Z</time></trkpt><trkpt lat="42.3547998" lon="14.027216"><ele>145.66666666666669</ele><time>2026-05-02T08:05:49.749Z</time></trkpt><trkpt lat="42.3547956" lon="14.0269896"><ele>146.33333333333334</ele><time>2026-05-02T08:05:50.749Z</time></trkpt><trkpt lat="42.3547927" lon="14.0267623"><ele>147.0</ele><time>2026-05-02T08:05:51.75Z</time></trkpt><trkpt lat="42.3547895" lon="14.0265441"><ele>147.0</ele><time>2026-05-02T08:05:52.75Z</time></trkpt><trkpt lat="42.3547842" lon="14.0263427"><ele>147.0</ele><time>2026-05-02T08:05:53.754Z</time></trkpt><trkpt lat="42.3547795" lon="14.0261308"><ele>147.0</ele><time>2026-05-02T08:05:54.753Z</time></trkpt><trkpt lat="42.3547743" lon="14.0259147"><ele>147.66666666666666</ele><time>2026-05-02T08:05:55.75Z</time></trkpt><trkpt lat="42.3547734" lon="14.025693"><ele>148.33333333333331</ele><time>2026-05-02T08:05:56.75Z</time></trkpt><trkpt lat="42.3547723" lon="14.0254837"><ele>149.0</ele><time>2026-05-02T08:05:57.75Z</time></trkpt><trkpt lat="42.3547768" lon="14.0252805"><ele>149.0</ele><time>2026-05-02T08:05:58.75Z</time></trkpt><trkpt lat="42.3547833" lon="14.0250826"><ele>149.0</ele><time>2026-05-02T08:05:59.752Z</time></trkpt><trkpt lat="42.3547927" lon="14.024884"><ele>149.0</ele><time>2026-05-02T08:06:00.751Z</time></trkpt><trkpt lat="42.3548058" lon="14.0246883"><ele>149.0</ele><time>2026-05-02T08:06:01.749Z</time></trkpt><trkpt lat="42.3548176" lon="14.0244954"><ele>149.25</ele><time>2026-05-02T08:06:02.753Z</time></trkpt><trkpt lat="42.354832" lon="14.0243116"><ele>149.5</ele><time>2026-05-02T08:06:03.749Z</time></trkpt><trkpt lat="42.3548439" lon="14.024136"><ele>149.75</ele><time>2026-05-02T08:06:04.749Z</time></trkpt><trkpt lat="42.3548503" lon="14.0239732"><ele>150.0</ele><time>2026-05-02T08:06:05.747Z</time></trkpt><trkpt lat="42.3548523" lon="14.0238354"><ele>150.33333333333334</ele><time>2026-05-02T08:06:06.75Z</time></trkpt><trkpt lat="42.3548515" lon="14.0237269"><ele>150.66666666666666</ele><time>2026-05-02T08:06:07.752Z</time></trkpt><trkpt lat="42.3548458" lon="14.0236142"><ele>151.0</ele><time>2026-05-02T08:06:09.753Z</time></trkpt><trkpt lat="42.354783" lon="14.0236051"><ele>151.33333333333331</ele><time>2026-05-02T08:06:14.751Z</time></trkpt><trkpt lat="42.3547368" lon="14.0236708"><ele>151.66666666666666</ele><time>2026-05-02T08:06:17.748Z</time></trkpt><trkpt lat="42.3546971" lon="14.0237557"><ele>152.0</ele><time>2026-05-02T08:06:21.751Z</time></trkpt><trkpt lat="42.3546343" lon="14.0238403"><ele>152.33333333333331</ele><time>2026-05-02T08:06:39.75Z</time></trkpt><trkpt lat="42.3545749" lon="14.0238901"><ele>152.66666666666666</ele><time>2026-05-02T08:06:41.748Z</time></trkpt><trkpt lat="42.3544809" lon="14.023983"><ele>153.0</ele><time>2026-05-02T08:06:43.748Z</time></trkpt><trkpt lat="42.3544248" lon="14.024042"><ele>153.33333333333334</ele><time>2026-05-02T08:06:44.753Z</time></trkpt><trkpt lat="42.3543675" lon="14.0241038"><ele>153.66666666666669</ele><time>2026-05-02T08:06:45.753Z</time></trkpt><trkpt lat="42.3543082" lon="14.0241722"><ele>154.0</ele><time>2026-05-02T08:06:46.75Z</time></trkpt><trkpt lat="42.3542519" lon="14.0242381"><ele>154.0</ele><time>2026-05-02T08:06:47.75Z</time></trkpt><trkpt lat="42.3541597" lon="14.0243245"><ele>154.0</ele><time>2026-05-02T08:06:49.748Z</time></trkpt><trkpt lat="42.3540829" lon="14.0243282"><ele>154.0</ele><time>2026-05-02T08:06:51.748Z</time></trkpt><trkpt lat="42.3539898" lon="14.0242828"><ele>154.0</ele><time>2026-05-02T08:06:53.755Z</time></trkpt><trkpt lat="42.3538822" lon="14.0242004"><ele>154.0</ele><time>2026-05-02T08:06:55.749Z</time></trkpt><trkpt lat="42.3537711" lon="14.024131"><ele>154.66666666666669</ele><time>2026-05-02T08:06:57.749Z</time></trkpt><trkpt lat="42.3537086" lon="14.0241088"><ele>155.33333333333334</ele><time>2026-05-02T08:06:58.749Z</time></trkpt><trkpt lat="42.3536416" lon="14.024092"><ele>156.0</ele><time>2026-05-02T08:06:59.749Z</time></trkpt><trkpt lat="42.3535651" lon="14.0240816"><ele>156.66666666666666</ele><time>2026-05-02T08:07:00.75Z</time></trkpt><trkpt lat="42.3534788" lon="14.0240788"><ele>157.33333333333331</ele><time>2026-05-02T08:07:01.751Z</time></trkpt><trkpt lat="42.353394" lon="14.0240693"><ele>158.0</ele><time>2026-05-02T08:07:02.751Z</time></trkpt><trkpt lat="42.3533014" lon="14.0240535"><ele>158.0</ele><time>2026-05-02T08:07:03.75Z</time></trkpt><trkpt lat="42.3532047" lon="14.0240353"><ele>158.0</ele><time>2026-05-02T08:07:04.751Z</time></trkpt><trkpt lat="42.3531007" lon="14.0240152"><ele>158.0</ele><time>2026-05-02T08:07:05.75Z</time></trkpt><trkpt lat="42.3529999" lon="14.0239964"><ele>158.0</ele><time>2026-05-02T08:07:06.749Z</time></trkpt><trkpt lat="42.3528984" lon="14.0239772"><ele>158.0</ele><time>2026-05-02T08:07:07.75Z</time></trkpt><trkpt lat="42.3527989" lon="14.0239624"><ele>159.60000000000002</ele><time>2026-05-02T08:07:08.748Z</time></trkpt><trkpt lat="42.3527041" lon="14.0239474"><ele>161.20000000000002</ele><time>2026-05-02T08:07:09.749Z</time></trkpt><trkpt lat="42.3526119" lon="14.0239332"><ele>162.8</ele><time>2026-05-02T08:07:10.752Z</time></trkpt><trkpt lat="42.3525204" lon="14.0239156"><ele>164.4</ele><time>2026-05-02T08:07:11.75Z</time></trkpt><trkpt lat="42.3524273" lon="14.0239"><ele>166.0</ele><time>2026-05-02T08:07:12.75Z</time></trkpt><trkpt lat="42.3523412" lon="14.0238892"><ele>166.0</ele><time>2026-05-02T08:07:13.75Z</time></trkpt><trkpt lat="42.3522547" lon="14.0238855"><ele>166.0</ele><time>2026-05-02T08:07:14.749Z</time></trkpt><trkpt lat="42.3521761" lon="14.023884"><ele>166.0</ele><time>2026-05-02T08:07:15.75Z</time></trkpt><trkpt lat="42.3520944" lon="14.0238931"><ele>166.0</ele><time>2026-05-02T08:07:16.749Z</time></trkpt><trkpt lat="42.3520136" lon="14.023909"><ele>166.0</ele><time>2026-05-02T08:07:17.75Z</time></trkpt><trkpt lat="42.3519263" lon="14.0239358"><ele>166.0</ele><time>2026-05-02T08:07:18.751Z</time></trkpt><trkpt lat="42.3518346" lon="14.0239667"><ele>167.16666666666669</ele><time>2026-05-02T08:07:19.749Z</time></trkpt><trkpt lat="42.3517439" lon="14.0240018"><ele>168.33333333333334</ele><time>2026-05-02T08:07:20.75Z</time></trkpt><trkpt lat="42.3516578" lon="14.0240339"><ele>169.5</ele><time>2026-05-02T08:07:21.751Z</time></trkpt><trkpt lat="42.3515779" lon="14.0240588"><ele>170.66666666666666</ele><time>2026-05-02T08:07:22.753Z</time></trkpt><trkpt lat="42.3515049" lon="14.0240649"><ele>171.83333333333331</ele><time>2026-05-02T08:07:23.751Z</time></trkpt><trkpt lat="42.3514283" lon="14.0240496"><ele>173.0</ele><time>2026-05-02T08:07:24.75Z</time></trkpt><trkpt lat="42.3513634" lon="14.0240256"><ele>174.60000000000002</ele><time>2026-05-02T08:07:25.75Z</time></trkpt><trkpt lat="42.3512701" lon="14.0239435"><ele>176.20000000000002</ele><time>2026-05-02T08:07:27.75Z</time></trkpt><trkpt lat="42.3512104" lon="14.0238063"><ele>177.8</ele><time>2026-05-02T08:07:29.751Z</time></trkpt><trkpt lat="42.3511827" lon="14.0237124"><ele>179.4</ele><time>2026-05-02T08:07:30.748Z</time></trkpt><trkpt lat="42.3511497" lon="14.0236092"><ele>181.0</ele><time>2026-05-02T08:07:31.75Z</time></trkpt><trkpt lat="42.3511117" lon="14.0234951"><ele>181.0</ele><time>2026-05-02T08:07:32.751Z</time></trkpt><trkpt lat="42.351072" lon="14.0233817"><ele>181.0</ele><time>2026-05-02T08:07:33.751Z</time></trkpt><trkpt lat="42.3510263" lon="14.0232864"><ele>181.0</ele><time>2026-05-02T08:07:34.749Z</time></trkpt><trkpt lat="42.3509718" lon="14.0232019"><ele>181.0</ele><time>2026-05-02T08:07:35.753Z</time></trkpt><trkpt lat="42.3509047" lon="14.0231152"><ele>181.0</ele><time>2026-05-02T08:07:36.748Z</time></trkpt><trkpt lat="42.350826" lon="14.0230186"><ele>182.0</ele><time>2026-05-02T08:07:37.749Z</time></trkpt><trkpt lat="42.3507442" lon="14.0229089"><ele>183.0</ele><time>2026-05-02T08:07:38.749Z</time></trkpt><trkpt lat="42.3506698" lon="14.0227938"><ele>184.0</ele><time>2026-05-02T08:07:39.75Z</time></trkpt><trkpt lat="42.3505961" lon="14.0226842"><ele>185.0</ele><time>2026-05-02T08:07:40.75Z</time></trkpt><trkpt lat="42.3505299" lon="14.0225849"><ele>186.0</ele><time>2026-05-02T08:07:41.75Z</time></trkpt><trkpt lat="42.3504706" lon="14.0224969"><ele>186.66666666666666</ele><time>2026-05-02T08:07:42.749Z</time></trkpt><trkpt lat="42.350418" lon="14.0224187"><ele>187.33333333333334</ele><time>2026-05-02T08:07:43.75Z</time></trkpt><trkpt lat="42.3503651" lon="14.0223483"><ele>188.0</ele><time>2026-05-02T08:07:44.749Z</time></trkpt><trkpt lat="42.3503104" lon="14.0222919"><ele>188.66666666666669</ele><time>2026-05-02T08:07:45.749Z</time></trkpt><trkpt lat="42.3502038" lon="14.0222557"><ele>189.33333333333334</ele><time>2026-05-02T08:07:47.751Z</time></trkpt><trkpt lat="42.3500988" lon="14.0223047"><ele>190.0</ele><time>2026-05-02T08:07:49.749Z</time></trkpt><trkpt lat="42.3500372" lon="14.0223523"><ele>190.0</ele><time>2026-05-02T08:07:50.751Z</time></trkpt><trkpt lat="42.3499712" lon="14.0224092"><ele>190.0</ele><time>2026-05-02T08:07:51.754Z</time></trkpt><trkpt lat="42.3499041" lon="14.0224697"><ele>190.0</ele><time>2026-05-02T08:07:52.75Z</time></trkpt><trkpt lat="42.3498328" lon="14.022534"><ele>190.0</ele><time>2026-05-02T08:07:53.748Z</time></trkpt><trkpt lat="42.3497593" lon="14.022601"><ele>190.0</ele><time>2026-05-02T08:07:54.748Z</time></trkpt><trkpt lat="42.3496803" lon="14.0226695"><ele>190.0</ele><time>2026-05-02T08:07:55.75Z</time></trkpt><trkpt lat="42.3495981" lon="14.0227425"><ele>190.0</ele><time>2026-05-02T08:07:56.748Z</time></trkpt><trkpt lat="42.3495146" lon="14.0228207"><ele>190.0</ele><time>2026-05-02T08:07:57.75Z</time></trkpt><trkpt lat="42.3494327" lon="14.0228927"><ele>190.0</ele><time>2026-05-02T08:07:58.747Z</time></trkpt><trkpt lat="42.3493514" lon="14.0229655"><ele>190.0</ele><time>2026-05-02T08:07:59.749Z</time></trkpt><trkpt lat="42.3492707" lon="14.0230427"><ele>190.0</ele><time>2026-05-02T08:08:00.749Z</time></trkpt><trkpt lat="42.3491977" lon="14.0231159"><ele>190.0</ele><time>2026-05-02T08:08:01.749Z</time></trkpt><trkpt lat="42.3491312" lon="14.0231814"><ele>190.0</ele><time>2026-05-02T08:08:02.748Z</time></trkpt><trkpt lat="42.3490693" lon="14.0232396"><ele>190.0</ele><time>2026-05-02T08:08:03.751Z</time></trkpt><trkpt lat="42.3489728" lon="14.0233148"><ele>190.0</ele><time>2026-05-02T08:08:05.75Z</time></trkpt><trkpt lat="42.3489059" lon="14.023337"><ele>190.0</ele><time>2026-05-02T08:08:07.75Z</time></trkpt><trkpt lat="42.3488413" lon="14.0232982"><ele>190.0</ele><time>2026-05-02T08:08:09.749Z</time></trkpt><trkpt lat="42.3487713" lon="14.0231886"><ele>190.83333333333334</ele><time>2026-05-02T08:08:11.748Z</time></trkpt><trkpt lat="42.348734" lon="14.0231102"><ele>191.66666666666669</ele><time>2026-05-02T08:08:12.75Z</time></trkpt><trkpt lat="42.348693" lon="14.0230328"><ele>192.5</ele><time>2026-05-02T08:08:13.748Z</time></trkpt><trkpt lat="42.3486508" lon="14.0229496"><ele>193.33333333333334</ele><time>2026-05-02T08:08:14.752Z</time></trkpt><trkpt lat="42.3486134" lon="14.0228634"><ele>194.16666666666666</ele><time>2026-05-02T08:08:15.748Z</time></trkpt><trkpt lat="42.3485827" lon="14.022781"><ele>195.0</ele><time>2026-05-02T08:08:16.75Z</time></trkpt><trkpt lat="42.3485324" lon="14.0226683"><ele>195.0</ele><time>2026-05-02T08:08:18.748Z</time></trkpt><trkpt lat="42.3484868" lon="14.0225803"><ele>195.0</ele><time>2026-05-02T08:08:21.75Z</time></trkpt><trkpt lat="42.3484166" lon="14.0224532"><ele>195.0</ele><time>2026-05-02T08:08:24.75Z</time></trkpt><trkpt lat="42.3483657" lon="14.022366"><ele>195.0</ele><time>2026-05-02T08:08:25.751Z</time></trkpt><trkpt lat="42.3482995" lon="14.0222661"><ele>195.0</ele><time>2026-05-02T08:08:26.749Z</time></trkpt><trkpt lat="42.3482236" lon="14.0221555"><ele>195.0</ele><time>2026-05-02T08:08:27.75Z</time></trkpt><trkpt lat="42.3481372" lon="14.0220318"><ele>195.0</ele><time>2026-05-02T08:08:28.752Z</time></trkpt><trkpt lat="42.3480441" lon="14.0218981"><ele>195.0</ele><time>2026-05-02T08:08:29.75Z</time></trkpt><trkpt lat="42.3479452" lon="14.0217588"><ele>195.0</ele><time>2026-05-02T08:08:30.753Z</time></trkpt><trkpt lat="42.3478414" lon="14.0216168"><ele>195.33333333333331</ele><time>2026-05-02T08:08:31.751Z</time></trkpt><trkpt lat="42.3477357" lon="14.0214695"><ele>195.66666666666666</ele><time>2026-05-02T08:08:32.753Z</time></trkpt><trkpt lat="42.3476308" lon="14.0213197"><ele>196.0</ele><time>2026-05-02T08:08:33.752Z</time></trkpt><trkpt lat="42.3475253" lon="14.0211722"><ele>196.0</ele><time>2026-05-02T08:08:34.75Z</time></trkpt><trkpt lat="42.3474218" lon="14.0210254"><ele>196.0</ele><time>2026-05-02T08:08:35.751Z</time></trkpt><trkpt lat="42.3473236" lon="14.0208727"><ele>196.0</ele><time>2026-05-02T08:08:36.751Z</time></trkpt><trkpt lat="42.3472302" lon="14.0207118"><ele>196.66666666666666</ele><time>2026-05-02T08:08:37.752Z</time></trkpt><trkpt lat="42.3471363" lon="14.0205431"><ele>197.33333333333331</ele><time>2026-05-02T08:08:38.749Z</time></trkpt><trkpt lat="42.3470428" lon="14.0203701"><ele>198.0</ele><time>2026-05-02T08:08:39.752Z</time></trkpt><trkpt lat="42.3469528" lon="14.0201991"><ele>198.0</ele><time>2026-05-02T08:08:40.751Z</time></trkpt><trkpt lat="42.3468623" lon="14.0200315"><ele>198.0</ele><time>2026-05-02T08:08:41.751Z</time></trkpt><trkpt lat="42.3467757" lon="14.0198619"><ele>198.0</ele><time>2026-05-02T08:08:42.751Z</time></trkpt><trkpt lat="42.346694" lon="14.0196932"><ele>197.75</ele><time>2026-05-02T08:08:43.75Z</time></trkpt><trkpt lat="42.346618" lon="14.0195239"><ele>197.5</ele><time>2026-05-02T08:08:44.755Z</time></trkpt><trkpt lat="42.3465436" lon="14.0193552"><ele>197.25</ele><time>2026-05-02T08:08:45.749Z</time></trkpt><trkpt lat="42.3464709" lon="14.0191905"><ele>197.0</ele><time>2026-05-02T08:08:46.75Z</time></trkpt><trkpt lat="42.3463994" lon="14.0190277"><ele>198.0</ele><time>2026-05-02T08:08:47.749Z</time></trkpt><trkpt lat="42.3463304" lon="14.0188597"><ele>199.0</ele><time>2026-05-02T08:08:48.752Z</time></trkpt><trkpt lat="42.3462551" lon="14.0186909"><ele>200.0</ele><time>2026-05-02T08:08:49.751Z</time></trkpt><trkpt lat="42.3461784" lon="14.0185206"><ele>201.0</ele><time>2026-05-02T08:08:50.752Z</time></trkpt><trkpt lat="42.3460971" lon="14.018348"><ele>201.66666666666669</ele><time>2026-05-02T08:08:51.756Z</time></trkpt><trkpt lat="42.3460105" lon="14.0181782"><ele>202.33333333333334</ele><time>2026-05-02T08:08:52.75Z</time></trkpt><trkpt lat="42.3459244" lon="14.01801"><ele>203.0</ele><time>2026-05-02T08:08:53.757Z</time></trkpt><trkpt lat="42.3458412" lon="14.0178458"><ele>203.0</ele><time>2026-05-02T08:08:54.753Z</time></trkpt><trkpt lat="42.3457628" lon="14.0176974"><ele>203.0</ele><time>2026-05-02T08:08:55.756Z</time></trkpt><trkpt lat="42.3456892" lon="14.0175635"><ele>203.0</ele><time>2026-05-02T08:08:56.751Z</time></trkpt><trkpt lat="42.3456194" lon="14.0174372"><ele>203.0</ele><time>2026-05-02T08:08:57.75Z</time></trkpt><trkpt lat="42.3455493" lon="14.0173069"><ele>203.5</ele><time>2026-05-02T08:08:58.75Z</time></trkpt><trkpt lat="42.3454771" lon="14.0171764"><ele>204.0</ele><time>2026-05-02T08:08:59.754Z</time></trkpt><trkpt lat="42.3453971" lon="14.0170369"><ele>204.5</ele><time>2026-05-02T08:09:00.752Z</time></trkpt><trkpt lat="42.3453196" lon="14.0168958"><ele>205.0</ele><time>2026-05-02T08:09:01.754Z</time></trkpt><trkpt lat="42.345248" lon="14.0167512"><ele>205.4</ele><time>2026-05-02T08:09:02.752Z</time></trkpt><trkpt lat="42.345187" lon="14.016607"><ele>205.8</ele><time>2026-05-02T08:09:03.75Z</time></trkpt><trkpt lat="42.3451333" lon="14.0164728"><ele>206.2</ele><time>2026-05-02T08:09:04.75Z</time></trkpt><trkpt lat="42.3450886" lon="14.0163457"><ele>206.6</ele><time>2026-05-02T08:09:05.75Z</time></trkpt><trkpt lat="42.3450546" lon="14.0162408"><ele>207.0</ele><time>2026-05-02T08:09:06.756Z</time></trkpt><trkpt lat="42.3449921" lon="14.0161471"><ele>207.0</ele><time>2026-05-02T08:09:08.751Z</time></trkpt><trkpt lat="42.3449144" lon="14.0161602"><ele>207.0</ele><time>2026-05-02T08:09:10.75Z</time></trkpt><trkpt lat="42.3447919" lon="14.0161899"><ele>207.0</ele><time>2026-05-02T08:09:12.753Z</time></trkpt><trkpt lat="42.3447108" lon="14.0162053"><ele>207.0</ele><time>2026-05-02T08:09:13.754Z</time></trkpt><trkpt lat="42.3446177" lon="14.0162221"><ele>207.0</ele><time>2026-05-02T08:09:14.752Z</time></trkpt><trkpt lat="42.3445153" lon="14.0162443"><ele>207.0</ele><time>2026-05-02T08:09:15.752Z</time></trkpt><trkpt lat="42.3444135" lon="14.016272"><ele>207.0</ele><time>2026-05-02T08:09:16.749Z</time></trkpt><trkpt lat="42.3443012" lon="14.0162924"><ele>207.0</ele><time>2026-05-02T08:09:17.749Z</time></trkpt><trkpt lat="42.3441899" lon="14.0163174"><ele>207.0</ele><time>2026-05-02T08:09:18.75Z</time></trkpt><trkpt lat="42.3440864" lon="14.016338"><ele>207.0</ele><time>2026-05-02T08:09:19.748Z</time></trkpt><trkpt lat="42.3439933" lon="14.0163549"><ele>207.0</ele><time>2026-05-02T08:09:20.75Z</time></trkpt><trkpt lat="42.3438969" lon="14.0163633"><ele>207.0</ele><time>2026-05-02T08:09:21.751Z</time></trkpt><trkpt lat="42.3437991" lon="14.0163543"><ele>207.0</ele><time>2026-05-02T08:09:22.747Z</time></trkpt><trkpt lat="42.3437036" lon="14.0163391"><ele>207.0</ele><time>2026-05-02T08:09:23.747Z</time></trkpt><trkpt lat="42.3436096" lon="14.0163255"><ele>207.0</ele><time>2026-05-02T08:09:24.749Z</time></trkpt><trkpt lat="42.3435158" lon="14.0163077"><ele>206.39999999999998</ele><time>2026-05-02T08:09:25.748Z</time></trkpt><trkpt lat="42.3434286" lon="14.016283"><ele>205.79999999999998</ele><time>2026-05-02T08:09:26.749Z</time></trkpt><trkpt lat="42.343339" lon="14.0162552"><ele>205.2</ele><time>2026-05-02T08:09:27.749Z</time></trkpt><trkpt lat="42.3432489" lon="14.0162244"><ele>204.6</ele><time>2026-05-02T08:09:28.757Z</time></trkpt><trkpt lat="42.3431532" lon="14.016191"><ele>204.0</ele><time>2026-05-02T08:09:29.749Z</time></trkpt><trkpt lat="42.3430535" lon="14.0161579"><ele>202.16666666666666</ele><time>2026-05-02T08:09:30.749Z</time></trkpt><trkpt lat="42.3429608" lon="14.0161273"><ele>200.33333333333331</ele><time>2026-05-02T08:09:31.748Z</time></trkpt><trkpt lat="42.3428762" lon="14.0161025"><ele>198.5</ele><time>2026-05-02T08:09:32.748Z</time></trkpt><trkpt lat="42.3428004" lon="14.0161063"><ele>196.66666666666666</ele><time>2026-05-02T08:09:33.749Z</time></trkpt><trkpt lat="42.3427321" lon="14.0161545"><ele>194.83333333333331</ele><time>2026-05-02T08:09:34.75Z</time></trkpt><trkpt lat="42.3426856" lon="14.0162415"><ele>193.0</ele><time>2026-05-02T08:09:35.75Z</time></trkpt><trkpt lat="42.3426467" lon="14.0163419"><ele>192.99999999999997</ele><time>2026-05-02T08:09:36.747Z</time></trkpt><trkpt lat="42.3426172" lon="14.0164319"><ele>193.0</ele><time>2026-05-02T08:09:37.748Z</time></trkpt><trkpt lat="42.3425769" lon="14.0165573"><ele>193.0</ele><time>2026-05-02T08:09:39.748Z</time></trkpt><trkpt lat="42.3425406" lon="14.0166567"><ele>193.0</ele><time>2026-05-02T08:09:41.749Z</time></trkpt><trkpt lat="42.3425162" lon="14.0167578"><ele>192.99999999999997</ele><time>2026-05-02T08:09:43.755Z</time></trkpt><trkpt lat="42.3425031" lon="14.0168473"><ele>193.0</ele><time>2026-05-02T08:09:44.749Z</time></trkpt><trkpt lat="42.3424868" lon="14.01693"><ele>192.66666666666666</ele><time>2026-05-02T08:09:45.747Z</time></trkpt><trkpt lat="42.3424252" lon="14.0170124"><ele>192.33333333333331</ele><time>2026-05-02T08:09:47.747Z</time></trkpt><trkpt lat="42.3423388" lon="14.0170475"><ele>192.0</ele><time>2026-05-02T08:09:49.752Z</time></trkpt><trkpt lat="42.3422372" lon="14.017112"><ele>191.66666666666666</ele><time>2026-05-02T08:09:51.75Z</time></trkpt><trkpt lat="42.3421753" lon="14.0171562"><ele>191.33333333333331</ele><time>2026-05-02T08:09:55.749Z</time></trkpt><trkpt lat="42.3421117" lon="14.0171122"><ele>191.0</ele><time>2026-05-02T08:10:03.747Z</time></trkpt><trkpt lat="42.3420904" lon="14.0169876"><ele>188.8</ele><time>2026-05-02T08:10:06.751Z</time></trkpt><trkpt lat="42.3420213" lon="14.0169062"><ele>186.60000000000002</ele><time>2026-05-02T08:10:08.748Z</time></trkpt><trkpt lat="42.3419522" lon="14.016849"><ele>184.4</ele><time>2026-05-02T08:10:09.748Z</time></trkpt><trkpt lat="42.3418693" lon="14.0167831"><ele>182.2</ele><time>2026-05-02T08:10:10.748Z</time></trkpt><trkpt lat="42.3417743" lon="14.0167067"><ele>180.0</ele><time>2026-05-02T08:10:11.749Z</time></trkpt><trkpt lat="42.3416805" lon="14.0166322"><ele>179.6</ele><time>2026-05-02T08:10:12.75Z</time></trkpt><trkpt lat="42.3415882" lon="14.0165598"><ele>179.2</ele><time>2026-05-02T08:10:13.749Z</time></trkpt><trkpt lat="42.3414953" lon="14.0164912"><ele>178.8</ele><time>2026-05-02T08:10:14.747Z</time></trkpt><trkpt lat="42.341416" lon="14.01643"><ele>178.4</ele><time>2026-05-02T08:10:15.748Z</time></trkpt><trkpt lat="42.3413378" lon="14.0163648"><ele>178.0</ele><time>2026-05-02T08:10:16.747Z</time></trkpt><trkpt lat="42.3412552" lon="14.0163101"><ele>177.5</ele><time>2026-05-02T08:10:17.747Z</time></trkpt><trkpt lat="42.3411784" lon="14.0162559"><ele>177.0</ele><time>2026-05-02T08:10:18.748Z</time></trkpt><trkpt lat="42.3411076" lon="14.0161928"><ele>176.5</ele><time>2026-05-02T08:10:19.75Z</time></trkpt><trkpt lat="42.3410474" lon="14.0161343"><ele>176.0</ele><time>2026-05-02T08:10:20.748Z</time></trkpt><trkpt lat="42.3409936" lon="14.0160646"><ele>175.5</ele><time>2026-05-02T08:10:21.749Z</time></trkpt><trkpt lat="42.3409345" lon="14.0159807"><ele>175.0</ele><time>2026-05-02T08:10:22.754Z</time></trkpt><trkpt lat="42.3408723" lon="14.0158866"><ele>175.83333333333334</ele><time>2026-05-02T08:10:23.749Z</time></trkpt><trkpt lat="42.3408129" lon="14.0157904"><ele>176.66666666666669</ele><time>2026-05-02T08:10:24.749Z</time></trkpt><trkpt lat="42.3407709" lon="14.015717"><ele>177.5</ele><time>2026-05-02T08:10:25.749Z</time></trkpt><trkpt lat="42.3407207" lon="14.0156099"><ele>178.33333333333334</ele><time>2026-05-02T08:10:27.748Z</time></trkpt><trkpt lat="42.3406838" lon="14.0155189"><ele>179.16666666666666</ele><time>2026-05-02T08:10:46.749Z</time></trkpt><trkpt lat="42.340664" lon="14.0154321"><ele>180.0</ele><time>2026-05-02T08:10:49.748Z</time></trkpt><trkpt lat="42.3406329" lon="14.0153361"><ele>180.0</ele><time>2026-05-02T08:11:00.748Z</time></trkpt><trkpt lat="42.3405684" lon="14.0152346"><ele>180.0</ele><time>2026-05-02T08:11:02.754Z</time></trkpt><trkpt lat="42.3404565" lon="14.0151847"><ele>180.0</ele><time>2026-05-02T08:11:04.748Z</time></trkpt><trkpt lat="42.3403879" lon="14.0151965"><ele>180.0</ele><time>2026-05-02T08:11:05.749Z</time></trkpt><trkpt lat="42.3403162" lon="14.0152348"><ele>180.0</ele><time>2026-05-02T08:11:06.749Z</time></trkpt><trkpt lat="42.3402372" lon="14.0152885"><ele>180.57142857142856</ele><time>2026-05-02T08:11:07.751Z</time></trkpt><trkpt lat="42.3401618" lon="14.0153368"><ele>181.14285714285717</ele><time>2026-05-02T08:11:08.749Z</time></trkpt><trkpt lat="42.3400898" lon="14.0153861"><ele>181.71428571428572</ele><time>2026-05-02T08:11:09.749Z</time></trkpt><trkpt lat="42.3400306" lon="14.0154345"><ele>182.28571428571428</ele><time>2026-05-02T08:11:10.749Z</time></trkpt><trkpt lat="42.3399747" lon="14.0154824"><ele>182.85714285714283</ele><time>2026-05-02T08:11:11.75Z</time></trkpt><trkpt lat="42.3399158" lon="14.0155335"><ele>183.42857142857144</ele><time>2026-05-02T08:11:12.75Z</time></trkpt><trkpt lat="42.3398624" lon="14.0155835"><ele>184.0</ele><time>2026-05-02T08:11:13.752Z</time></trkpt><trkpt lat="42.3397498" lon="14.0156511"><ele>183.16666666666669</ele><time>2026-05-02T08:11:15.751Z</time></trkpt><trkpt lat="42.3396467" lon="14.0156429"><ele>182.33333333333334</ele><time>2026-05-02T08:11:17.748Z</time></trkpt><trkpt lat="42.3395371" lon="14.0155848"><ele>181.5</ele><time>2026-05-02T08:11:19.748Z</time></trkpt><trkpt lat="42.3394723" lon="14.0155467"><ele>180.66666666666666</ele><time>2026-05-02T08:11:20.748Z</time></trkpt><trkpt lat="42.3394116" lon="14.015503"><ele>179.83333333333331</ele><time>2026-05-02T08:11:21.753Z</time></trkpt><trkpt lat="42.3393519" lon="14.0154639"><ele>179.0</ele><time>2026-05-02T08:11:22.748Z</time></trkpt><trkpt lat="42.3392766" lon="14.0153253"><ele>179.0</ele><time>2026-05-02T08:11:24.748Z</time></trkpt><trkpt lat="42.339247" lon="14.015238"><ele>179.0</ele><time>2026-05-02T08:11:25.748Z</time></trkpt><trkpt lat="42.3392182" lon="14.0151482"><ele>179.0</ele><time>2026-05-02T08:11:26.747Z</time></trkpt><trkpt lat="42.3391885" lon="14.0150527"><ele>179.0</ele><time>2026-05-02T08:11:27.748Z</time></trkpt><trkpt lat="42.3391517" lon="14.0149549"><ele>179.0</ele><time>2026-05-02T08:11:28.749Z</time></trkpt><trkpt lat="42.3391091" lon="14.0148488"><ele>179.0</ele><time>2026-05-02T08:11:29.75Z</time></trkpt><trkpt lat="42.3390641" lon="14.0147425"><ele>178.39999999999998</ele><time>2026-05-02T08:11:30.748Z</time></trkpt><trkpt lat="42.3390221" lon="14.0146363"><ele>177.8</ele><time>2026-05-02T08:11:31.749Z</time></trkpt><trkpt lat="42.3389816" lon="14.0145285"><ele>177.2</ele><time>2026-05-02T08:11:32.747Z</time></trkpt><trkpt lat="42.3389377" lon="14.0144242"><ele>176.60000000000002</ele><time>2026-05-02T08:11:33.749Z</time></trkpt><trkpt lat="42.3388938" lon="14.0143171"><ele>176.0</ele><time>2026-05-02T08:11:34.749Z</time></trkpt><trkpt lat="42.3388465" lon="14.0142042"><ele>178.0</ele><time>2026-05-02T08:11:35.749Z</time></trkpt><trkpt lat="42.3387984" lon="14.0140835"><ele>180.0</ele><time>2026-05-02T08:11:36.749Z</time></trkpt><trkpt lat="42.3387476" lon="14.0139529"><ele>182.0</ele><time>2026-05-02T08:11:37.749Z</time></trkpt><trkpt lat="42.3386974" lon="14.0138153"><ele>184.0</ele><time>2026-05-02T08:11:38.746Z</time></trkpt><trkpt lat="42.3386428" lon="14.0136617"><ele>184.0</ele><time>2026-05-02T08:11:39.748Z</time></trkpt><trkpt lat="42.3385915" lon="14.0135136"><ele>184.0</ele><time>2026-05-02T08:11:40.748Z</time></trkpt><trkpt lat="42.3385484" lon="14.0133826"><ele>184.0</ele><time>2026-05-02T08:11:41.749Z</time></trkpt><trkpt lat="42.3385067" lon="14.0132576"><ele>184.0</ele><time>2026-05-02T08:11:42.75Z</time></trkpt><trkpt lat="42.3384633" lon="14.0131304"><ele>184.0</ele><time>2026-05-02T08:11:43.748Z</time></trkpt><trkpt lat="42.3384242" lon="14.0130089"><ele>185.16666666666669</ele><time>2026-05-02T08:11:44.749Z</time></trkpt><trkpt lat="42.3383897" lon="14.0129079"><ele>186.33333333333334</ele><time>2026-05-02T08:11:45.748Z</time></trkpt><trkpt lat="42.3383614" lon="14.0127839"><ele>187.5</ele><time>2026-05-02T08:11:47.75Z</time></trkpt><trkpt lat="42.3384079" lon="14.0127104"><ele>188.66666666666666</ele><time>2026-05-02T08:11:50.748Z</time></trkpt><trkpt lat="42.3384811" lon="14.0126636"><ele>189.83333333333331</ele><time>2026-05-02T08:11:52.751Z</time></trkpt><trkpt lat="42.3385401" lon="14.0126237"><ele>191.0</ele><time>2026-05-02T08:11:53.748Z</time></trkpt><trkpt lat="42.3386066" lon="14.0125822"><ele>191.0</ele><time>2026-05-02T08:11:54.75Z</time></trkpt><trkpt lat="42.3386824" lon="14.012535"><ele>191.0</ele><time>2026-05-02T08:11:55.749Z</time></trkpt><trkpt lat="42.338763" lon="14.012478"><ele>191.0</ele><time>2026-05-02T08:11:56.75Z</time></trkpt><trkpt lat="42.3388467" lon="14.012395"><ele>191.0</ele><time>2026-05-02T08:11:58.751Z</time></trkpt><trkpt lat="42.3387805" lon="14.0123351"><ele>191.0</ele><time>2026-05-02T08:12:02.746Z</time></trkpt><trkpt lat="42.3386456" lon="14.0122957"><ele>192.16666666666666</ele><time>2026-05-02T08:12:04.747Z</time></trkpt><trkpt lat="42.3385641" lon="14.0122406"><ele>193.33333333333331</ele><time>2026-05-02T08:12:05.749Z</time></trkpt><trkpt lat="42.3384799" lon="14.012188"><ele>194.5</ele><time>2026-05-02T08:12:06.749Z</time></trkpt><trkpt lat="42.3384038" lon="14.0121527"><ele>195.66666666666666</ele><time>2026-05-02T08:12:07.749Z</time></trkpt><trkpt lat="42.3383376" lon="14.0121303"><ele>196.83333333333334</ele><time>2026-05-02T08:12:08.749Z</time></trkpt><trkpt lat="42.3382345" lon="14.0120956"><ele>198.0</ele><time>2026-05-02T08:12:10.746Z</time></trkpt><trkpt lat="42.3381678" lon="14.0120655"><ele>198.0</ele><time>2026-05-02T08:12:12.748Z</time></trkpt><trkpt lat="42.3380873" lon="14.0120339"><ele>198.0</ele><time>2026-05-02T08:12:15.749Z</time></trkpt><trkpt lat="42.3380214" lon="14.0120049"><ele>198.0</ele><time>2026-05-02T08:12:17.748Z</time></trkpt><trkpt lat="42.337957" lon="14.0119742"><ele>198.0</ele><time>2026-05-02T08:12:18.749Z</time></trkpt><trkpt lat="42.3378838" lon="14.0119383"><ele>198.0</ele><time>2026-05-02T08:12:19.748Z</time></trkpt><trkpt lat="42.3378021" lon="14.0118887"><ele>198.0</ele><time>2026-05-02T08:12:20.75Z</time></trkpt><trkpt lat="42.3377111" lon="14.011823"><ele>197.25</ele><time>2026-05-02T08:12:21.748Z</time></trkpt><trkpt lat="42.3376068" lon="14.0117344"><ele>196.5</ele><time>2026-05-02T08:12:22.748Z</time></trkpt><trkpt lat="42.3374912" lon="14.0116158"><ele>195.75</ele><time>2026-05-02T08:12:23.749Z</time></trkpt><trkpt lat="42.337372" lon="14.0114546"><ele>195.0</ele><time>2026-05-02T08:12:24.748Z</time></trkpt><trkpt lat="42.3372668" lon="14.0112808"><ele>191.5</ele><time>2026-05-02T08:12:25.752Z</time></trkpt><trkpt lat="42.3371767" lon="14.0111204"><ele>188.0</ele><time>2026-05-02T08:12:26.749Z</time></trkpt><trkpt lat="42.3370949" lon="14.0110177"><ele>184.5</ele><time>2026-05-02T08:12:27.749Z</time></trkpt><trkpt lat="42.3370084" lon="14.0109534"><ele>181.0</ele><time>2026-05-02T08:12:28.75Z</time></trkpt><trkpt lat="42.3369071" lon="14.0109388"><ele>181.0</ele><time>2026-05-02T08:12:29.749Z</time></trkpt><trkpt lat="42.3367836" lon="14.0109788"><ele>181.0</ele><time>2026-05-02T08:12:30.749Z</time></trkpt><trkpt lat="42.336654" lon="14.011042"><ele>181.0</ele><time>2026-05-02T08:12:31.749Z</time></trkpt><trkpt lat="42.3365339" lon="14.0111154"><ele>181.0</ele><time>2026-05-02T08:12:32.751Z</time></trkpt><trkpt lat="42.3364355" lon="14.0112121"><ele>183.75</ele><time>2026-05-02T08:12:33.749Z</time></trkpt><trkpt lat="42.3363551" lon="14.0113433"><ele>186.5</ele><time>2026-05-02T08:12:34.749Z</time></trkpt><trkpt lat="42.3362791" lon="14.01152"><ele>189.25</ele><time>2026-05-02T08:12:35.749Z</time></trkpt><trkpt lat="42.3362059" lon="14.0117129"><ele>192.0</ele><time>2026-05-02T08:12:36.749Z</time></trkpt><trkpt lat="42.336136" lon="14.0118962"><ele>192.5</ele><time>2026-05-02T08:12:37.749Z</time></trkpt><trkpt lat="42.3360716" lon="14.0120757"><ele>193.0</ele><time>2026-05-02T08:12:38.751Z</time></trkpt><trkpt lat="42.3360339" lon="14.0122619"><ele>193.5</ele><time>2026-05-02T08:12:39.753Z</time></trkpt><trkpt lat="42.3360179" lon="14.0124701"><ele>194.0</ele><time>2026-05-02T08:12:40.748Z</time></trkpt><trkpt lat="42.3360277" lon="14.012693"><ele>195.66666666666669</ele><time>2026-05-02T08:12:41.748Z</time></trkpt><trkpt lat="42.3360381" lon="14.0129311"><ele>197.33333333333331</ele><time>2026-05-02T08:12:42.749Z</time></trkpt><trkpt lat="42.3360448" lon="14.0131651"><ele>199.0</ele><time>2026-05-02T08:12:43.749Z</time></trkpt><trkpt lat="42.3360456" lon="14.0134096"><ele>200.33333333333331</ele><time>2026-05-02T08:12:44.752Z</time></trkpt><trkpt lat="42.3360489" lon="14.0136565"><ele>201.66666666666669</ele><time>2026-05-02T08:12:45.749Z</time></trkpt><trkpt lat="42.3360545" lon="14.0139068"><ele>203.0</ele><time>2026-05-02T08:12:46.749Z</time></trkpt><trkpt lat="42.3360573" lon="14.0141586"><ele>203.25</ele><time>2026-05-02T08:12:47.748Z</time></trkpt><trkpt lat="42.3360556" lon="14.014385"><ele>203.5</ele><time>2026-05-02T08:12:48.749Z</time></trkpt><trkpt lat="42.3360719" lon="14.0145823"><ele>203.75</ele><time>2026-05-02T08:12:49.749Z</time></trkpt><trkpt lat="42.3361154" lon="14.0147548"><ele>204.0</ele><time>2026-05-02T08:12:50.75Z</time></trkpt><trkpt lat="42.3361574" lon="14.014905"><ele>205.0</ele><time>2026-05-02T08:12:51.749Z</time></trkpt><trkpt lat="42.3361676" lon="14.0150276"><ele>206.0</ele><time>2026-05-02T08:12:52.749Z</time></trkpt><trkpt lat="42.3361123" lon="14.0151487"><ele>207.0</ele><time>2026-05-02T08:12:54.75Z</time></trkpt><trkpt lat="42.3360337" lon="14.0151358"><ele>208.0</ele><time>2026-05-02T08:12:56.752Z</time></trkpt><trkpt lat="42.3359311" lon="14.0150616"><ele>209.0</ele><time>2026-05-02T08:12:58.751Z</time></trkpt><trkpt lat="42.3358703" lon="14.0150063"><ele>208.66666666666669</ele><time>2026-05-02T08:12:59.746Z</time></trkpt><trkpt lat="42.335819" lon="14.0149524"><ele>208.33333333333334</ele><time>2026-05-02T08:13:00.751Z</time></trkpt><trkpt lat="42.3357429" lon="14.0148529"><ele>208.0</ele><time>2026-05-02T08:13:02.749Z</time></trkpt><trkpt lat="42.3357053" lon="14.014769"><ele>207.66666666666669</ele><time>2026-05-02T08:13:04.751Z</time></trkpt><trkpt lat="42.335669" lon="14.0146588"><ele>207.33333333333334</ele><time>2026-05-02T08:13:07.749Z</time></trkpt><trkpt lat="42.3356024" lon="14.0145962"><ele>207.0</ele><time>2026-05-02T08:13:09.748Z</time></trkpt><trkpt lat="42.3355353" lon="14.0145768"><ele>207.0</ele><time>2026-05-02T08:13:11.75Z</time></trkpt><trkpt lat="42.3354694" lon="14.0145787"><ele>207.0</ele><time>2026-05-02T08:13:13.749Z</time></trkpt><trkpt lat="42.3353415" lon="14.0145717"><ele>207.0</ele><time>2026-05-02T08:13:15.749Z</time></trkpt><trkpt lat="42.3352583" lon="14.0145635"><ele>207.0</ele><time>2026-05-02T08:13:16.749Z</time></trkpt><trkpt lat="42.3351611" lon="14.0145524"><ele>207.0</ele><time>2026-05-02T08:13:17.755Z</time></trkpt><trkpt lat="42.3350571" lon="14.0145415"><ele>207.0</ele><time>2026-05-02T08:13:18.751Z</time></trkpt><trkpt lat="42.3349589" lon="14.0145299"><ele>207.0</ele><time>2026-05-02T08:13:19.75Z</time></trkpt><trkpt lat="42.3348756" lon="14.0145169"><ele>207.0</ele><time>2026-05-02T08:13:20.75Z</time></trkpt><trkpt lat="42.3347863" lon="14.0145053"><ele>207.0</ele><time>2026-05-02T08:13:21.749Z</time></trkpt><trkpt lat="42.3346808" lon="14.0144958"><ele>207.0</ele><time>2026-05-02T08:13:22.749Z</time></trkpt><trkpt lat="42.3345643" lon="14.0144814"><ele>205.25</ele><time>2026-05-02T08:13:23.748Z</time></trkpt><trkpt lat="42.3344379" lon="14.0144646"><ele>203.5</ele><time>2026-05-02T08:13:24.749Z</time></trkpt><trkpt lat="42.3343048" lon="14.0144421"><ele>201.75</ele><time>2026-05-02T08:13:25.749Z</time></trkpt><trkpt lat="42.3341609" lon="14.014418"><ele>200.0</ele><time>2026-05-02T08:13:26.75Z</time></trkpt><trkpt lat="42.3340051" lon="14.0144017"><ele>198.66666666666669</ele><time>2026-05-02T08:13:27.749Z</time></trkpt><trkpt lat="42.3338386" lon="14.0143863"><ele>197.33333333333331</ele><time>2026-05-02T08:13:28.752Z</time></trkpt><trkpt lat="42.333669" lon="14.0143643"><ele>196.0</ele><time>2026-05-02T08:13:29.749Z</time></trkpt><trkpt lat="42.3334964" lon="14.0143373"><ele>196.0</ele><time>2026-05-02T08:13:30.749Z</time></trkpt><trkpt lat="42.3333254" lon="14.0143127"><ele>196.0</ele><time>2026-05-02T08:13:31.748Z</time></trkpt><trkpt lat="42.3331496" lon="14.0142871"><ele>196.0</ele><time>2026-05-02T08:13:32.75Z</time></trkpt><trkpt lat="42.3329776" lon="14.0142668"><ele>195.0</ele><time>2026-05-02T08:13:33.75Z</time></trkpt><trkpt lat="42.332811" lon="14.0142498"><ele>194.0</ele><time>2026-05-02T08:13:34.752Z</time></trkpt><trkpt lat="42.3326495" lon="14.0142295"><ele>193.0</ele><time>2026-05-02T08:13:35.749Z</time></trkpt><trkpt lat="42.3324959" lon="14.0142085"><ele>193.0</ele><time>2026-05-02T08:13:36.751Z</time></trkpt><trkpt lat="42.3323455" lon="14.0141982"><ele>193.0</ele><time>2026-05-02T08:13:37.75Z</time></trkpt><trkpt lat="42.3321912" lon="14.0142114"><ele>193.0</ele><time>2026-05-02T08:13:38.75Z</time></trkpt><trkpt lat="42.3320295" lon="14.0142519"><ele>190.0</ele><time>2026-05-02T08:13:39.748Z</time></trkpt><trkpt lat="42.3318574" lon="14.0143361"><ele>187.0</ele><time>2026-05-02T08:13:40.75Z</time></trkpt><trkpt lat="42.3316835" lon="14.0144533"><ele>184.0</ele><time>2026-05-02T08:13:41.749Z</time></trkpt><trkpt lat="42.3315109" lon="14.0145785"><ele>180.66666666666669</ele><time>2026-05-02T08:13:42.749Z</time></trkpt><trkpt lat="42.3313472" lon="14.0146985"><ele>177.33333333333334</ele><time>2026-05-02T08:13:43.748Z</time></trkpt><trkpt lat="42.3311857" lon="14.0148056"><ele>174.0</ele><time>2026-05-02T08:13:44.751Z</time></trkpt><trkpt lat="42.3310357" lon="14.0149075"><ele>174.0</ele><time>2026-05-02T08:13:45.748Z</time></trkpt><trkpt lat="42.3309022" lon="14.0149795"><ele>174.0</ele><time>2026-05-02T08:13:46.754Z</time></trkpt><trkpt lat="42.3307722" lon="14.0150169"><ele>174.0</ele><time>2026-05-02T08:13:47.747Z</time></trkpt><trkpt lat="42.330636" lon="14.0150191"><ele>174.0</ele><time>2026-05-02T08:13:48.751Z</time></trkpt><trkpt lat="42.3305004" lon="14.0149862"><ele>173.0</ele><time>2026-05-02T08:13:49.749Z</time></trkpt><trkpt lat="42.3303735" lon="14.014917"><ele>172.0</ele><time>2026-05-02T08:13:50.748Z</time></trkpt><trkpt lat="42.3302638" lon="14.0148181"><ele>171.0</ele><time>2026-05-02T08:13:51.749Z</time></trkpt><trkpt lat="42.3301692" lon="14.0147013"><ele>170.0</ele><time>2026-05-02T08:13:52.749Z</time></trkpt><trkpt lat="42.3300731" lon="14.0145731"><ele>170.0</ele><time>2026-05-02T08:13:53.749Z</time></trkpt><trkpt lat="42.3299713" lon="14.0144284"><ele>170.0</ele><time>2026-05-02T08:13:54.75Z</time></trkpt><trkpt lat="42.3298581" lon="14.0142672"><ele>170.0</ele><time>2026-05-02T08:13:55.75Z</time></trkpt><trkpt lat="42.3297398" lon="14.0140961"><ele>167.66666666666666</ele><time>2026-05-02T08:13:56.747Z</time></trkpt><trkpt lat="42.3296224" lon="14.0139189"><ele>165.33333333333334</ele><time>2026-05-02T08:13:57.749Z</time></trkpt><trkpt lat="42.3295035" lon="14.0137381"><ele>163.0</ele><time>2026-05-02T08:13:58.749Z</time></trkpt><trkpt lat="42.3293956" lon="14.0135569"><ele>163.0</ele><time>2026-05-02T08:13:59.748Z</time></trkpt><trkpt lat="42.3292939" lon="14.0133814"><ele>163.0</ele><time>2026-05-02T08:14:00.748Z</time></trkpt><trkpt lat="42.3291938" lon="14.0132075"><ele>163.0</ele><time>2026-05-02T08:14:01.75Z</time></trkpt><trkpt lat="42.3290978" lon="14.0130285"><ele>161.33333333333334</ele><time>2026-05-02T08:14:02.749Z</time></trkpt><trkpt lat="42.3290033" lon="14.0128563"><ele>159.66666666666666</ele><time>2026-05-02T08:14:03.749Z</time></trkpt><trkpt lat="42.328901" lon="14.0126913"><ele>158.0</ele><time>2026-05-02T08:14:04.748Z</time></trkpt><trkpt lat="42.3287877" lon="14.0125468"><ele>158.0</ele><time>2026-05-02T08:14:05.75Z</time></trkpt><trkpt lat="42.3286512" lon="14.0124197"><ele>158.0</ele><time>2026-05-02T08:14:06.749Z</time></trkpt><trkpt lat="42.3284883" lon="14.0123204"><ele>158.0</ele><time>2026-05-02T08:14:07.748Z</time></trkpt><trkpt lat="42.3283017" lon="14.0122332"><ele>158.0</ele><time>2026-05-02T08:14:08.749Z</time></trkpt><trkpt lat="42.328106" lon="14.0121529"><ele>158.0</ele><time>2026-05-02T08:14:09.749Z</time></trkpt><trkpt lat="42.3279064" lon="14.0120717"><ele>158.0</ele><time>2026-05-02T08:14:10.749Z</time></trkpt><trkpt lat="42.3277114" lon="14.0119941"><ele>156.66666666666666</ele><time>2026-05-02T08:14:11.749Z</time></trkpt><trkpt lat="42.3275227" lon="14.011921"><ele>155.33333333333334</ele><time>2026-05-02T08:14:12.749Z</time></trkpt><trkpt lat="42.327343" lon="14.0118554"><ele>154.0</ele><time>2026-05-02T08:14:13.749Z</time></trkpt><trkpt lat="42.3271831" lon="14.0118029"><ele>153.0</ele><time>2026-05-02T08:14:14.749Z</time></trkpt><trkpt lat="42.3270435" lon="14.0117546"><ele>152.0</ele><time>2026-05-02T08:14:15.751Z</time></trkpt><trkpt lat="42.3269256" lon="14.0116939"><ele>151.0</ele><time>2026-05-02T08:14:16.749Z</time></trkpt><trkpt lat="42.3268194" lon="14.0116121"><ele>150.0</ele><time>2026-05-02T08:14:17.748Z</time></trkpt><trkpt lat="42.3267344" lon="14.0114917"><ele>150.0</ele><time>2026-05-02T08:14:18.748Z</time></trkpt><trkpt lat="42.3266625" lon="14.011332"><ele>150.0</ele><time>2026-05-02T08:14:19.748Z</time></trkpt><trkpt lat="42.3265943" lon="14.0111467"><ele>150.0</ele><time>2026-05-02T08:14:20.75Z</time></trkpt><trkpt lat="42.3265244" lon="14.0109368"><ele>149.66666666666666</ele><time>2026-05-02T08:14:21.75Z</time></trkpt><trkpt lat="42.3264504" lon="14.0107119"><ele>149.33333333333331</ele><time>2026-05-02T08:14:22.75Z</time></trkpt><trkpt lat="42.3263756" lon="14.0104808"><ele>149.0</ele><time>2026-05-02T08:14:23.749Z</time></trkpt><trkpt lat="42.3262983" lon="14.0102415"><ele>147.66666666666666</ele><time>2026-05-02T08:14:24.747Z</time></trkpt><trkpt lat="42.3262158" lon="14.0099937"><ele>146.33333333333334</ele><time>2026-05-02T08:14:25.749Z</time></trkpt><trkpt lat="42.3261309" lon="14.0097416"><ele>145.0</ele><time>2026-05-02T08:14:26.75Z</time></trkpt><trkpt lat="42.3260483" lon="14.0094951"><ele>145.0</ele><time>2026-05-02T08:14:27.75Z</time></trkpt><trkpt lat="42.3259691" lon="14.0092521"><ele>145.0</ele><time>2026-05-02T08:14:28.753Z</time></trkpt><trkpt lat="42.3258953" lon="14.0090144"><ele>145.0</ele><time>2026-05-02T08:14:29.75Z</time></trkpt><trkpt lat="42.3258196" lon="14.0087864"><ele>144.33333333333334</ele><time>2026-05-02T08:14:30.749Z</time></trkpt><trkpt lat="42.3257454" lon="14.008559"><ele>143.66666666666666</ele><time>2026-05-02T08:14:31.755Z</time></trkpt><trkpt lat="42.3256683" lon="14.0083412"><ele>143.0</ele><time>2026-05-02T08:14:32.752Z</time></trkpt><trkpt lat="42.3255881" lon="14.008127"><ele>141.66666666666666</ele><time>2026-05-02T08:14:33.753Z</time></trkpt><trkpt lat="42.3255026" lon="14.0079202"><ele>140.33333333333334</ele><time>2026-05-02T08:14:34.75Z</time></trkpt><trkpt lat="42.325408" lon="14.0077192"><ele>139.0</ele><time>2026-05-02T08:14:35.753Z</time></trkpt><trkpt lat="42.3253127" lon="14.0075182"><ele>138.0</ele><time>2026-05-02T08:14:36.749Z</time></trkpt><trkpt lat="42.32522" lon="14.0073152"><ele>137.0</ele><time>2026-05-02T08:14:37.756Z</time></trkpt><trkpt lat="42.3251381" lon="14.0071005"><ele>136.0</ele><time>2026-05-02T08:14:38.752Z</time></trkpt><trkpt lat="42.3250699" lon="14.006876"><ele>135.66666666666669</ele><time>2026-05-02T08:14:39.755Z</time></trkpt><trkpt lat="42.3250116" lon="14.0066402"><ele>135.33333333333334</ele><time>2026-05-02T08:14:40.751Z</time></trkpt><trkpt lat="42.3249556" lon="14.0063951"><ele>135.0</ele><time>2026-05-02T08:14:41.755Z</time></trkpt><trkpt lat="42.3248919" lon="14.0061465"><ele>135.0</ele><time>2026-05-02T08:14:42.748Z</time></trkpt><trkpt lat="42.3248297" lon="14.0058924"><ele>135.0</ele><time>2026-05-02T08:14:43.754Z</time></trkpt><trkpt lat="42.3247671" lon="14.0056356"><ele>135.0</ele><time>2026-05-02T08:14:44.751Z</time></trkpt><trkpt lat="42.3247002" lon="14.0053796"><ele>135.0</ele><time>2026-05-02T08:14:45.757Z</time></trkpt><trkpt lat="42.3246268" lon="14.0051206"><ele>135.0</ele><time>2026-05-02T08:14:46.751Z</time></trkpt><trkpt lat="42.3245443" lon="14.0048662"><ele>135.0</ele><time>2026-05-02T08:14:47.756Z</time></trkpt><trkpt lat="42.3244575" lon="14.0046113"><ele>135.0</ele><time>2026-05-02T08:14:48.75Z</time></trkpt><trkpt lat="42.3243652" lon="14.0043573"><ele>135.0</ele><time>2026-05-02T08:14:49.754Z</time></trkpt><trkpt lat="42.3242716" lon="14.0041033"><ele>135.0</ele><time>2026-05-02T08:14:50.75Z</time></trkpt><trkpt lat="42.3241776" lon="14.0038488"><ele>135.33333333333334</ele><time>2026-05-02T08:14:51.752Z</time></trkpt><trkpt lat="42.3240801" lon="14.0035942"><ele>135.66666666666669</ele><time>2026-05-02T08:14:52.751Z</time></trkpt><trkpt lat="42.3239826" lon="14.0033357"><ele>136.0</ele><time>2026-05-02T08:14:53.756Z</time></trkpt><trkpt lat="42.3238869" lon="14.0030743"><ele>136.0</ele><time>2026-05-02T08:14:54.75Z</time></trkpt><trkpt lat="42.3237934" lon="14.002813"><ele>136.0</ele><time>2026-05-02T08:14:55.754Z</time></trkpt><trkpt lat="42.3237004" lon="14.0025517"><ele>136.0</ele><time>2026-05-02T08:14:56.751Z</time></trkpt><trkpt lat="42.3236091" lon="14.0022883"><ele>136.66666666666669</ele><time>2026-05-02T08:14:57.751Z</time></trkpt><trkpt lat="42.3235189" lon="14.0020323"><ele>137.33333333333334</ele><time>2026-05-02T08:14:58.753Z</time></trkpt><trkpt lat="42.323432" lon="14.001776"><ele>138.0</ele><time>2026-05-02T08:14:59.754Z</time></trkpt><trkpt lat="42.3233498" lon="14.0015188"><ele>138.66666666666666</ele><time>2026-05-02T08:15:00.749Z</time></trkpt><trkpt lat="42.3232661" lon="14.0012628"><ele>139.33333333333331</ele><time>2026-05-02T08:15:01.755Z</time></trkpt><trkpt lat="42.3231816" lon="14.0010114"><ele>140.0</ele><time>2026-05-02T08:15:02.747Z</time></trkpt><trkpt lat="42.3230984" lon="14.0007639"><ele>138.33333333333331</ele><time>2026-05-02T08:15:03.757Z</time></trkpt><trkpt lat="42.3230162" lon="14.0005169"><ele>136.66666666666666</ele><time>2026-05-02T08:15:04.747Z</time></trkpt><trkpt lat="42.3229349" lon="14.0002734"><ele>135.0</ele><time>2026-05-02T08:15:05.756Z</time></trkpt><trkpt lat="42.3228552" lon="14.0000311"><ele>135.0</ele><time>2026-05-02T08:15:06.75Z</time></trkpt><trkpt lat="42.322777" lon="13.9997947"><ele>135.0</ele><time>2026-05-02T08:15:07.749Z</time></trkpt><trkpt lat="42.3226985" lon="13.9995612"><ele>135.0</ele><time>2026-05-02T08:15:08.75Z</time></trkpt><trkpt lat="42.3226222" lon="13.9993264"><ele>136.33333333333334</ele><time>2026-05-02T08:15:09.749Z</time></trkpt><trkpt lat="42.3225511" lon="13.999094"><ele>137.66666666666669</ele><time>2026-05-02T08:15:10.749Z</time></trkpt><trkpt lat="42.3224781" lon="13.9988619"><ele>139.0</ele><time>2026-05-02T08:15:11.749Z</time></trkpt><trkpt lat="42.3224036" lon="13.9986335"><ele>139.0</ele><time>2026-05-02T08:15:12.749Z</time></trkpt><trkpt lat="42.3223293" lon="13.9984059"><ele>139.0</ele><time>2026-05-02T08:15:13.747Z</time></trkpt><trkpt lat="42.3222553" lon="13.9981733"><ele>139.0</ele><time>2026-05-02T08:15:14.75Z</time></trkpt><trkpt lat="42.3221815" lon="13.99794"><ele>137.33333333333334</ele><time>2026-05-02T08:15:15.75Z</time></trkpt><trkpt lat="42.3221074" lon="13.9977009"><ele>135.66666666666666</ele><time>2026-05-02T08:15:16.749Z</time></trkpt><trkpt lat="42.3220352" lon="13.9974592"><ele>134.0</ele><time>2026-05-02T08:15:17.749Z</time></trkpt><trkpt lat="42.3219606" lon="13.997211"><ele>134.0</ele><time>2026-05-02T08:15:18.75Z</time></trkpt><trkpt lat="42.3218823" lon="13.9969604"><ele>134.0</ele><time>2026-05-02T08:15:19.751Z</time></trkpt><trkpt lat="42.3218012" lon="13.9967035"><ele>134.0</ele><time>2026-05-02T08:15:20.75Z</time></trkpt><trkpt lat="42.3217182" lon="13.9964448"><ele>134.0</ele><time>2026-05-02T08:15:21.748Z</time></trkpt><trkpt lat="42.321634" lon="13.9961854"><ele>134.0</ele><time>2026-05-02T08:15:22.75Z</time></trkpt><trkpt lat="42.321548" lon="13.9959255"><ele>134.0</ele><time>2026-05-02T08:15:23.748Z</time></trkpt><trkpt lat="42.3214609" lon="13.9956698"><ele>133.66666666666666</ele><time>2026-05-02T08:15:24.748Z</time></trkpt><trkpt lat="42.3213714" lon="13.9954176"><ele>133.33333333333334</ele><time>2026-05-02T08:15:25.747Z</time></trkpt><trkpt lat="42.3212851" lon="13.9951681"><ele>133.0</ele><time>2026-05-02T08:15:26.748Z</time></trkpt><trkpt lat="42.3212008" lon="13.9949253"><ele>133.0</ele><time>2026-05-02T08:15:27.747Z</time></trkpt><trkpt lat="42.321116" lon="13.9946838"><ele>133.0</ele><time>2026-05-02T08:15:28.749Z</time></trkpt><trkpt lat="42.3210333" lon="13.9944546"><ele>133.0</ele><time>2026-05-02T08:15:29.748Z</time></trkpt><trkpt lat="42.3209524" lon="13.9942425"><ele>133.25</ele><time>2026-05-02T08:15:30.749Z</time></trkpt><trkpt lat="42.3208673" lon="13.9940508"><ele>133.5</ele><time>2026-05-02T08:15:31.75Z</time></trkpt><trkpt lat="42.3207834" lon="13.9938808"><ele>133.75</ele><time>2026-05-02T08:15:32.748Z</time></trkpt><trkpt lat="42.3207097" lon="13.9937494"><ele>134.0</ele><time>2026-05-02T08:15:33.75Z</time></trkpt><trkpt lat="42.3206383" lon="13.993656"><ele>134.0</ele><time>2026-05-02T08:15:34.747Z</time></trkpt><trkpt lat="42.3205819" lon="13.9936099"><ele>134.0</ele><time>2026-05-02T08:15:35.748Z</time></trkpt><trkpt lat="42.3205064" lon="13.99358"><ele>134.0</ele><time>2026-05-02T08:15:37.75Z</time></trkpt><trkpt lat="42.3204447" lon="13.9936647"><ele>134.0</ele><time>2026-05-02T08:16:05.748Z</time></trkpt><trkpt lat="42.320351" lon="13.9937794"><ele>134.0</ele><time>2026-05-02T08:16:07.751Z</time></trkpt><trkpt lat="42.3202819" lon="13.9938377"><ele>134.0</ele><time>2026-05-02T08:16:08.748Z</time></trkpt><trkpt lat="42.3202089" lon="13.993902"><ele>134.8</ele><time>2026-05-02T08:16:09.75Z</time></trkpt><trkpt lat="42.3201396" lon="13.9939803"><ele>135.60000000000002</ele><time>2026-05-02T08:16:10.752Z</time></trkpt><trkpt lat="42.3200794" lon="13.994076"><ele>136.4</ele><time>2026-05-02T08:16:11.75Z</time></trkpt><trkpt lat="42.32002" lon="13.9941865"><ele>137.20000000000002</ele><time>2026-05-02T08:16:12.75Z</time></trkpt><trkpt lat="42.3199572" lon="13.9943034"><ele>138.0</ele><time>2026-05-02T08:16:13.749Z</time></trkpt><trkpt lat="42.3198895" lon="13.9944221"><ele>138.0</ele><time>2026-05-02T08:16:14.75Z</time></trkpt><trkpt lat="42.3198214" lon="13.9945337"><ele>138.0</ele><time>2026-05-02T08:16:15.755Z</time></trkpt><trkpt lat="42.3197481" lon="13.9946401"><ele>138.0</ele><time>2026-05-02T08:16:16.749Z</time></trkpt><trkpt lat="42.3196682" lon="13.9947563"><ele>138.0</ele><time>2026-05-02T08:16:17.754Z</time></trkpt><trkpt lat="42.3195918" lon="13.9948785"><ele>138.75</ele><time>2026-05-02T08:16:18.748Z</time></trkpt><trkpt lat="42.3195182" lon="13.9950136"><ele>139.5</ele><time>2026-05-02T08:16:19.756Z</time></trkpt><trkpt lat="42.3194521" lon="13.9951505"><ele>140.25</ele><time>2026-05-02T08:16:20.75Z</time></trkpt><trkpt lat="42.3193845" lon="13.9952985"><ele>141.0</ele><time>2026-05-02T08:16:21.755Z</time></trkpt><trkpt lat="42.3193226" lon="13.9954308"><ele>141.0</ele><time>2026-05-02T08:16:22.749Z</time></trkpt><trkpt lat="42.3192594" lon="13.9955632"><ele>141.0</ele><time>2026-05-02T08:16:23.755Z</time></trkpt><trkpt lat="42.3191989" lon="13.9956979"><ele>141.0</ele><time>2026-05-02T08:16:24.75Z</time></trkpt><trkpt lat="42.3191434" lon="13.9958316"><ele>141.0</ele><time>2026-05-02T08:16:25.749Z</time></trkpt><trkpt lat="42.3190882" lon="13.9959545"><ele>140.8</ele><time>2026-05-02T08:16:26.749Z</time></trkpt><trkpt lat="42.3190349" lon="13.9960774"><ele>140.6</ele><time>2026-05-02T08:16:27.75Z</time></trkpt><trkpt lat="42.3189866" lon="13.9961972"><ele>140.4</ele><time>2026-05-02T08:16:28.748Z</time></trkpt><trkpt lat="42.3189303" lon="13.9963109"><ele>140.2</ele><time>2026-05-02T08:16:29.75Z</time></trkpt><trkpt lat="42.3188765" lon="13.9964184"><ele>140.0</ele><time>2026-05-02T08:16:30.748Z</time></trkpt><trkpt lat="42.3188214" lon="13.9965256"><ele>141.6</ele><time>2026-05-02T08:16:31.753Z</time></trkpt><trkpt lat="42.3187684" lon="13.9966319"><ele>143.2</ele><time>2026-05-02T08:16:32.748Z</time></trkpt><trkpt lat="42.3187209" lon="13.9967431"><ele>144.8</ele><time>2026-05-02T08:16:33.748Z</time></trkpt><trkpt lat="42.3186798" lon="13.9968576"><ele>146.4</ele><time>2026-05-02T08:16:34.748Z</time></trkpt><trkpt lat="42.318646" lon="13.9969838"><ele>148.0</ele><time>2026-05-02T08:16:35.751Z</time></trkpt><trkpt lat="42.3186226" lon="13.9971204"><ele>148.0</ele><time>2026-05-02T08:16:36.757Z</time></trkpt><trkpt lat="42.3186027" lon="13.9972623"><ele>148.0</ele><time>2026-05-02T08:16:37.75Z</time></trkpt><trkpt lat="42.3185814" lon="13.9974076"><ele>148.0</ele><time>2026-05-02T08:16:38.756Z</time></trkpt><trkpt lat="42.3185618" lon="13.9975528"><ele>148.0</ele><time>2026-05-02T08:16:39.75Z</time></trkpt><trkpt lat="42.3185406" lon="13.9976966"><ele>148.0</ele><time>2026-05-02T08:16:40.75Z</time></trkpt><trkpt lat="42.3185241" lon="13.9978393"><ele>147.75</ele><time>2026-05-02T08:16:41.749Z</time></trkpt><trkpt lat="42.318508" lon="13.9979848"><ele>147.5</ele><time>2026-05-02T08:16:42.75Z</time></trkpt><trkpt lat="42.3184908" lon="13.9981333"><ele>147.25</ele><time>2026-05-02T08:16:43.752Z</time></trkpt><trkpt lat="42.3184735" lon="13.9982866"><ele>147.0</ele><time>2026-05-02T08:16:44.748Z</time></trkpt><trkpt lat="42.3184582" lon="13.998443"><ele>146.5</ele><time>2026-05-02T08:16:45.747Z</time></trkpt><trkpt lat="42.3184432" lon="13.998602"><ele>146.0</ele><time>2026-05-02T08:16:46.749Z</time></trkpt><trkpt lat="42.3184289" lon="13.9987623"><ele>145.5</ele><time>2026-05-02T08:16:47.747Z</time></trkpt><trkpt lat="42.3184163" lon="13.9989201"><ele>145.0</ele><time>2026-05-02T08:16:48.749Z</time></trkpt><trkpt lat="42.3184085" lon="13.9990813"><ele>143.8</ele><time>2026-05-02T08:16:49.748Z</time></trkpt><trkpt lat="42.3183981" lon="13.9992427"><ele>142.6</ele><time>2026-05-02T08:16:50.748Z</time></trkpt><trkpt lat="42.3183877" lon="13.9993983"><ele>141.4</ele><time>2026-05-02T08:16:51.749Z</time></trkpt><trkpt lat="42.3183809" lon="13.9995435"><ele>140.2</ele><time>2026-05-02T08:16:52.752Z</time></trkpt><trkpt lat="42.3183738" lon="13.9996751"><ele>139.0</ele><time>2026-05-02T08:16:53.749Z</time></trkpt><trkpt lat="42.3183685" lon="13.9998015"><ele>139.0</ele><time>2026-05-02T08:16:54.749Z</time></trkpt><trkpt lat="42.3183639" lon="13.9999216"><ele>139.0</ele><time>2026-05-02T08:16:55.751Z</time></trkpt><trkpt lat="42.3183647" lon="14.0000295"><ele>139.0</ele><time>2026-05-02T08:16:56.747Z</time></trkpt><trkpt lat="42.3183587" lon="14.0001363"><ele>139.0</ele><time>2026-05-02T08:16:57.751Z</time></trkpt><trkpt lat="42.3183534" lon="14.000243"><ele>139.0</ele><time>2026-05-02T08:16:58.748Z</time></trkpt><trkpt lat="42.3183463" lon="14.0003417"><ele>139.0</ele><time>2026-05-02T08:16:59.748Z</time></trkpt><trkpt lat="42.3183405" lon="14.0004409"><ele>139.0</ele><time>2026-05-02T08:17:00.751Z</time></trkpt><trkpt lat="42.3183337" lon="14.0005456"><ele>139.0</ele><time>2026-05-02T08:17:01.749Z</time></trkpt><trkpt lat="42.3183268" lon="14.0006553"><ele>139.0</ele><time>2026-05-02T08:17:02.751Z</time></trkpt><trkpt lat="42.3183209" lon="14.0007697"><ele>139.0</ele><time>2026-05-02T08:17:03.748Z</time></trkpt><trkpt lat="42.3183148" lon="14.0008856"><ele>139.0</ele><time>2026-05-02T08:17:04.75Z</time></trkpt><trkpt lat="42.3183094" lon="14.0009978"><ele>139.0</ele><time>2026-05-02T08:17:05.747Z</time></trkpt><trkpt lat="42.3182991" lon="14.0011096"><ele>138.42857142857142</ele><time>2026-05-02T08:17:06.752Z</time></trkpt><trkpt lat="42.3182826" lon="14.001223"><ele>137.85714285714286</ele><time>2026-05-02T08:17:07.75Z</time></trkpt><trkpt lat="42.3182614" lon="14.0013265"><ele>137.28571428571428</ele><time>2026-05-02T08:17:08.751Z</time></trkpt><trkpt lat="42.3182383" lon="14.0014211"><ele>136.71428571428572</ele><time>2026-05-02T08:17:09.749Z</time></trkpt><trkpt lat="42.318215" lon="14.001509"><ele>136.14285714285714</ele><time>2026-05-02T08:17:10.749Z</time></trkpt><trkpt lat="42.3182" lon="14.001599"><ele>135.57142857142856</ele><time>2026-05-02T08:17:11.75Z</time></trkpt><trkpt lat="42.3181926" lon="14.0016871"><ele>135.0</ele><time>2026-05-02T08:17:12.752Z</time></trkpt><trkpt lat="42.318188" lon="14.0017758"><ele>134.33333333333334</ele><time>2026-05-02T08:17:13.752Z</time></trkpt><trkpt lat="42.3182093" lon="14.0019418"><ele>133.66666666666666</ele><time>2026-05-02T08:17:15.75Z</time></trkpt><trkpt lat="42.318232" lon="14.0020242"><ele>133.0</ele><time>2026-05-02T08:17:16.749Z</time></trkpt><trkpt lat="42.3182555" lon="14.0021126"><ele>132.33333333333331</ele><time>2026-05-02T08:17:17.75Z</time></trkpt><trkpt lat="42.3182827" lon="14.0022197"><ele>131.66666666666666</ele><time>2026-05-02T08:17:18.752Z</time></trkpt><trkpt lat="42.3183101" lon="14.0023349"><ele>131.0</ele><time>2026-05-02T08:17:19.749Z</time></trkpt><trkpt lat="42.318333" lon="14.0024593"><ele>129.6</ele><time>2026-05-02T08:17:20.75Z</time></trkpt><trkpt lat="42.3183532" lon="14.0025877"><ele>128.2</ele><time>2026-05-02T08:17:21.75Z</time></trkpt><trkpt lat="42.3183715" lon="14.0027192"><ele>126.80000000000001</ele><time>2026-05-02T08:17:22.748Z</time></trkpt><trkpt lat="42.3183837" lon="14.0028519"><ele>125.4</ele><time>2026-05-02T08:17:23.75Z</time></trkpt><trkpt lat="42.3183932" lon="14.0029838"><ele>124.0</ele><time>2026-05-02T08:17:24.749Z</time></trkpt><trkpt lat="42.3183999" lon="14.0031142"><ele>124.00000000000001</ele><time>2026-05-02T08:17:25.751Z</time></trkpt><trkpt lat="42.318407" lon="14.0032406"><ele>124.0</ele><time>2026-05-02T08:17:26.749Z</time></trkpt><trkpt lat="42.3184133" lon="14.0033654"><ele>124.0</ele><time>2026-05-02T08:17:27.75Z</time></trkpt><trkpt lat="42.3184107" lon="14.0034869"><ele>124.0</ele><time>2026-05-02T08:17:28.749Z</time></trkpt><trkpt lat="42.3184025" lon="14.0036029"><ele>124.00000000000001</ele><time>2026-05-02T08:17:29.751Z</time></trkpt><trkpt lat="42.3183862" lon="14.0037121"><ele>124.0</ele><time>2026-05-02T08:17:30.748Z</time></trkpt><trkpt lat="42.3183616" lon="14.0038164"><ele>123.33333333333334</ele><time>2026-05-02T08:17:31.75Z</time></trkpt><trkpt lat="42.3183293" lon="14.0039166"><ele>122.66666666666667</ele><time>2026-05-02T08:17:32.75Z</time></trkpt><trkpt lat="42.3182943" lon="14.0040218"><ele>122.0</ele><time>2026-05-02T08:17:33.751Z</time></trkpt><trkpt lat="42.318256" lon="14.0041299"><ele>121.33333333333334</ele><time>2026-05-02T08:17:34.749Z</time></trkpt><trkpt lat="42.3182166" lon="14.0042426"><ele>120.66666666666667</ele><time>2026-05-02T08:17:35.754Z</time></trkpt><trkpt lat="42.3181753" lon="14.0043617"><ele>120.0</ele><time>2026-05-02T08:17:36.75Z</time></trkpt><trkpt lat="42.3181332" lon="14.0044794"><ele>119.4</ele><time>2026-05-02T08:17:37.748Z</time></trkpt><trkpt lat="42.3180917" lon="14.0045949"><ele>118.8</ele><time>2026-05-02T08:17:38.749Z</time></trkpt><trkpt lat="42.31805" lon="14.0047108"><ele>118.19999999999999</ele><time>2026-05-02T08:17:39.749Z</time></trkpt><trkpt lat="42.3180054" lon="14.0048305"><ele>117.6</ele><time>2026-05-02T08:17:40.752Z</time></trkpt><trkpt lat="42.3179604" lon="14.0049547"><ele>117.0</ele><time>2026-05-02T08:17:41.75Z</time></trkpt><trkpt lat="42.3179175" lon="14.0050809"><ele>117.0</ele><time>2026-05-02T08:17:42.751Z</time></trkpt><trkpt lat="42.3178738" lon="14.0052107"><ele>116.99999999999999</ele><time>2026-05-02T08:17:43.754Z</time></trkpt><trkpt lat="42.3178301" lon="14.0053424"><ele>116.99999999999999</ele><time>2026-05-02T08:17:44.75Z</time></trkpt><trkpt lat="42.3177848" lon="14.005474"><ele>117.0</ele><time>2026-05-02T08:17:45.752Z</time></trkpt><trkpt lat="42.3177422" lon="14.0055996"><ele>117.0</ele><time>2026-05-02T08:17:46.746Z</time></trkpt><trkpt lat="42.3176999" lon="14.0057189"><ele>117.6</ele><time>2026-05-02T08:17:47.754Z</time></trkpt><trkpt lat="42.3176576" lon="14.0058307"><ele>118.19999999999999</ele><time>2026-05-02T08:17:48.75Z</time></trkpt><trkpt lat="42.3176132" lon="14.0059468"><ele>118.8</ele><time>2026-05-02T08:17:49.754Z</time></trkpt><trkpt lat="42.3175692" lon="14.0060637"><ele>119.4</ele><time>2026-05-02T08:17:50.748Z</time></trkpt><trkpt lat="42.3175291" lon="14.0061822"><ele>120.0</ele><time>2026-05-02T08:17:51.747Z</time></trkpt><trkpt lat="42.3174949" lon="14.0063159"><ele>120.0</ele><time>2026-05-02T08:17:52.75Z</time></trkpt><trkpt lat="42.3174578" lon="14.0064606"><ele>120.0</ele><time>2026-05-02T08:17:53.751Z</time></trkpt><trkpt lat="42.3174137" lon="14.0066035"><ele>120.0</ele><time>2026-05-02T08:17:54.749Z</time></trkpt><trkpt lat="42.3173689" lon="14.0067464"><ele>120.0</ele><time>2026-05-02T08:17:55.75Z</time></trkpt><trkpt lat="42.3173225" lon="14.0068793"><ele>120.0</ele><time>2026-05-02T08:17:56.749Z</time></trkpt><trkpt lat="42.3172736" lon="14.0070016"><ele>120.0</ele><time>2026-05-02T08:17:57.75Z</time></trkpt><trkpt lat="42.3172321" lon="14.0071098"><ele>120.0</ele><time>2026-05-02T08:17:58.748Z</time></trkpt><trkpt lat="42.3171979" lon="14.0072044"><ele>120.0</ele><time>2026-05-02T08:17:59.752Z</time></trkpt><trkpt lat="42.3171676" lon="14.0072911"><ele>120.0</ele><time>2026-05-02T08:18:00.75Z</time></trkpt><trkpt lat="42.3171412" lon="14.0073829"><ele>120.0</ele><time>2026-05-02T08:18:01.75Z</time></trkpt><trkpt lat="42.3171215" lon="14.0074801"><ele>120.0</ele><time>2026-05-02T08:18:02.749Z</time></trkpt><trkpt lat="42.3170964" lon="14.0075947"><ele>120.0</ele><time>2026-05-02T08:18:03.748Z</time></trkpt><trkpt lat="42.3170548" lon="14.0077282"><ele>120.0</ele><time>2026-05-02T08:18:04.748Z</time></trkpt><trkpt lat="42.3169888" lon="14.0078673"><ele>120.0</ele><time>2026-05-02T08:18:05.75Z</time></trkpt><trkpt lat="42.3168981" lon="14.0080035"><ele>120.0</ele><time>2026-05-02T08:18:06.748Z</time></trkpt><trkpt lat="42.3167891" lon="14.0081244"><ele>120.0</ele><time>2026-05-02T08:18:07.75Z</time></trkpt><trkpt lat="42.3166796" lon="14.0082318"><ele>120.0</ele><time>2026-05-02T08:18:08.749Z</time></trkpt><trkpt lat="42.3165894" lon="14.0083214"><ele>120.0</ele><time>2026-05-02T08:18:09.752Z</time></trkpt><trkpt lat="42.316513" lon="14.0083973"><ele>118.83333333333333</ele><time>2026-05-02T08:18:10.749Z</time></trkpt><trkpt lat="42.3164398" lon="14.0084676"><ele>117.66666666666666</ele><time>2026-05-02T08:18:11.751Z</time></trkpt><trkpt lat="42.3163754" lon="14.0085332"><ele>116.5</ele><time>2026-05-02T08:18:12.749Z</time></trkpt><trkpt lat="42.3163214" lon="14.0085965"><ele>115.33333333333333</ele><time>2026-05-02T08:18:13.749Z</time></trkpt><trkpt lat="42.3162499" lon="14.0087032"><ele>114.16666666666666</ele><time>2026-05-02T08:18:15.75Z</time></trkpt><trkpt lat="42.3162105" lon="14.0087701"><ele>113.0</ele><time>2026-05-02T08:18:17.751Z</time></trkpt><trkpt lat="42.3161395" lon="14.0088159"><ele>112.60000000000001</ele><time>2026-05-02T08:19:25.75Z</time></trkpt><trkpt lat="42.3160126" lon="14.0088934"><ele>112.20000000000002</ele><time>2026-05-02T08:19:27.751Z</time></trkpt><trkpt lat="42.3159319" lon="14.0089456"><ele>111.8</ele><time>2026-05-02T08:19:28.75Z</time></trkpt><trkpt lat="42.3158422" lon="14.009004"><ele>111.4</ele><time>2026-05-02T08:19:29.751Z</time></trkpt><trkpt lat="42.3157528" lon="14.009065"><ele>111.0</ele><time>2026-05-02T08:19:30.751Z</time></trkpt><trkpt lat="42.3156663" lon="14.0091335"><ele>110.0</ele><time>2026-05-02T08:19:31.752Z</time></trkpt><trkpt lat="42.3155725" lon="14.0092087"><ele>109.0</ele><time>2026-05-02T08:19:32.749Z</time></trkpt><trkpt lat="42.3154677" lon="14.0092933"><ele>108.0</ele><time>2026-05-02T08:19:33.75Z</time></trkpt><trkpt lat="42.3153516" lon="14.0093887"><ele>107.0</ele><time>2026-05-02T08:19:34.75Z</time></trkpt><trkpt lat="42.3152141" lon="14.009502"><ele>107.0</ele><time>2026-05-02T08:19:35.753Z</time></trkpt><trkpt lat="42.3150465" lon="14.009641"><ele>107.0</ele><time>2026-05-02T08:19:36.747Z</time></trkpt><trkpt lat="42.3148668" lon="14.0097917"><ele>107.0</ele><time>2026-05-02T08:19:37.75Z</time></trkpt><trkpt lat="42.3146929" lon="14.0099399"><ele>106.0</ele><time>2026-05-02T08:19:38.749Z</time></trkpt><trkpt lat="42.3145383" lon="14.0100693"><ele>105.0</ele><time>2026-05-02T08:19:39.749Z</time></trkpt><trkpt lat="42.3143909" lon="14.0101903"><ele>104.0</ele><time>2026-05-02T08:19:40.746Z</time></trkpt><trkpt lat="42.3142533" lon="14.0103023"><ele>104.0</ele><time>2026-05-02T08:19:41.749Z</time></trkpt><trkpt lat="42.3141221" lon="14.0104058"><ele>104.0</ele><time>2026-05-02T08:19:42.749Z</time></trkpt><trkpt lat="42.3140011" lon="14.0105012"><ele>104.0</ele><time>2026-05-02T08:19:43.748Z</time></trkpt><trkpt lat="42.3138903" lon="14.0105922"><ele>104.0</ele><time>2026-05-02T08:19:44.748Z</time></trkpt><trkpt lat="42.3137738" lon="14.0106878"><ele>104.0</ele><time>2026-05-02T08:19:45.748Z</time></trkpt><trkpt lat="42.3136465" lon="14.0107886"><ele>104.0</ele><time>2026-05-02T08:19:46.751Z</time></trkpt><trkpt lat="42.3135114" lon="14.0108841"><ele>104.0</ele><time>2026-05-02T08:19:47.749Z</time></trkpt><trkpt lat="42.3133653" lon="14.0109615"><ele>103.33333333333333</ele><time>2026-05-02T08:19:48.75Z</time></trkpt><trkpt lat="42.3132098" lon="14.0110214"><ele>102.66666666666666</ele><time>2026-05-02T08:19:49.75Z</time></trkpt><trkpt lat="42.3130441" lon="14.0110577"><ele>102.0</ele><time>2026-05-02T08:19:50.748Z</time></trkpt><trkpt lat="42.3128638" lon="14.0110907"><ele>102.0</ele><time>2026-05-02T08:19:51.75Z</time></trkpt><trkpt lat="42.3126795" lon="14.0111231"><ele>102.0</ele><time>2026-05-02T08:19:52.748Z</time></trkpt><trkpt lat="42.3124891" lon="14.0111503"><ele>102.0</ele><time>2026-05-02T08:19:53.75Z</time></trkpt><trkpt lat="42.3122926" lon="14.0111598"><ele>102.33333333333334</ele><time>2026-05-02T08:19:54.75Z</time></trkpt><trkpt lat="42.3120916" lon="14.0111529"><ele>102.66666666666667</ele><time>2026-05-02T08:19:55.751Z</time></trkpt><trkpt lat="42.3118895" lon="14.0111297"><ele>103.0</ele><time>2026-05-02T08:19:56.75Z</time></trkpt><trkpt lat="42.3116825" lon="14.0110962"><ele>103.0</ele><time>2026-05-02T08:19:57.748Z</time></trkpt><trkpt lat="42.311472" lon="14.0110579"><ele>103.0</ele><time>2026-05-02T08:19:58.749Z</time></trkpt><trkpt lat="42.3112561" lon="14.0110177"><ele>103.0</ele><time>2026-05-02T08:19:59.749Z</time></trkpt><trkpt lat="42.3110377" lon="14.0109791"><ele>102.33333333333334</ele><time>2026-05-02T08:20:00.75Z</time></trkpt><trkpt lat="42.31083" lon="14.0109403"><ele>101.66666666666666</ele><time>2026-05-02T08:20:01.749Z</time></trkpt><trkpt lat="42.310634" lon="14.0109012"><ele>101.0</ele><time>2026-05-02T08:20:02.747Z</time></trkpt><trkpt lat="42.3104485" lon="14.0108669"><ele>101.0</ele><time>2026-05-02T08:20:03.747Z</time></trkpt><trkpt lat="42.310274" lon="14.0108354"><ele>101.0</ele><time>2026-05-02T08:20:04.751Z</time></trkpt><trkpt lat="42.3101121" lon="14.0108055"><ele>101.0</ele><time>2026-05-02T08:20:05.749Z</time></trkpt><trkpt lat="42.3099609" lon="14.0107758"><ele>101.25</ele><time>2026-05-02T08:20:06.752Z</time></trkpt><trkpt lat="42.3098208" lon="14.0107477"><ele>101.5</ele><time>2026-05-02T08:20:07.749Z</time></trkpt><trkpt lat="42.3096795" lon="14.0107224"><ele>101.75</ele><time>2026-05-02T08:20:08.75Z</time></trkpt><trkpt lat="42.3095276" lon="14.0106944"><ele>102.0</ele><time>2026-05-02T08:20:09.748Z</time></trkpt><trkpt lat="42.3093591" lon="14.010662"><ele>102.33333333333334</ele><time>2026-05-02T08:20:10.747Z</time></trkpt><trkpt lat="42.3091696" lon="14.0106206"><ele>102.66666666666667</ele><time>2026-05-02T08:20:11.751Z</time></trkpt><trkpt lat="42.3089666" lon="14.0105735"><ele>103.0</ele><time>2026-05-02T08:20:12.748Z</time></trkpt><trkpt lat="42.3087671" lon="14.0105329"><ele>105.33333333333334</ele><time>2026-05-02T08:20:13.749Z</time></trkpt><trkpt lat="42.3085873" lon="14.0105039"><ele>107.66666666666666</ele><time>2026-05-02T08:20:14.749Z</time></trkpt><trkpt lat="42.3084276" lon="14.0105111"><ele>110.0</ele><time>2026-05-02T08:20:15.747Z</time></trkpt><trkpt lat="42.3082709" lon="14.0105824"><ele>110.0</ele><time>2026-05-02T08:20:16.751Z</time></trkpt><trkpt lat="42.3081238" lon="14.0106967"><ele>110.0</ele><time>2026-05-02T08:20:17.75Z</time></trkpt><trkpt lat="42.3079747" lon="14.0108245"><ele>110.0</ele><time>2026-05-02T08:20:18.749Z</time></trkpt><trkpt lat="42.3078222" lon="14.0109001"><ele>111.33333333333333</ele><time>2026-05-02T08:20:19.749Z</time></trkpt><trkpt lat="42.3076775" lon="14.0109257"><ele>112.66666666666666</ele><time>2026-05-02T08:20:20.752Z</time></trkpt><trkpt lat="42.3075233" lon="14.0108948"><ele>114.0</ele><time>2026-05-02T08:20:21.753Z</time></trkpt><trkpt lat="42.3073572" lon="14.0108624"><ele>117.66666666666666</ele><time>2026-05-02T08:20:22.748Z</time></trkpt><trkpt lat="42.3071946" lon="14.0107401"><ele>121.33333333333333</ele><time>2026-05-02T08:20:23.748Z</time></trkpt><trkpt lat="42.3070554" lon="14.010648"><ele>125.0</ele><time>2026-05-02T08:20:24.747Z</time></trkpt><trkpt lat="42.3069499" lon="14.0105015"><ele>125.0</ele><time>2026-05-02T08:20:25.749Z</time></trkpt><trkpt lat="42.3068681" lon="14.010333"><ele>125.0</ele><time>2026-05-02T08:20:26.749Z</time></trkpt><trkpt lat="42.3068067" lon="14.0101234"><ele>125.0</ele><time>2026-05-02T08:20:27.749Z</time></trkpt><trkpt lat="42.3067398" lon="14.0098835"><ele>126.0</ele><time>2026-05-02T08:20:28.749Z</time></trkpt><trkpt lat="42.3066632" lon="14.0096207"><ele>127.0</ele><time>2026-05-02T08:20:29.749Z</time></trkpt><trkpt lat="42.3065852" lon="14.0093354"><ele>128.0</ele><time>2026-05-02T08:20:30.749Z</time></trkpt><trkpt lat="42.3065094" lon="14.0090446"><ele>130.5</ele><time>2026-05-02T08:20:31.753Z</time></trkpt><trkpt lat="42.306428" lon="14.0087296"><ele>133.0</ele><time>2026-05-02T08:20:32.747Z</time></trkpt><trkpt lat="42.30634" lon="14.008401"><ele>139.5</ele><time>2026-05-02T08:20:33.749Z</time></trkpt><trkpt lat="42.3062538" lon="14.0080761"><ele>146.0</ele><time>2026-05-02T08:20:34.749Z</time></trkpt><trkpt lat="42.3061666" lon="14.0077392"><ele>147.5</ele><time>2026-05-02T08:20:35.749Z</time></trkpt><trkpt lat="42.3060713" lon="14.0074018"><ele>149.0</ele><time>2026-05-02T08:20:36.749Z</time></trkpt><trkpt lat="42.3059592" lon="14.0070706"><ele>149.0</ele><time>2026-05-02T08:20:37.749Z</time></trkpt><trkpt lat="42.3058302" lon="14.0067411"><ele>149.0</ele><time>2026-05-02T08:20:38.749Z</time></trkpt><trkpt lat="42.3056851" lon="14.006433"><ele>157.0</ele><time>2026-05-02T08:20:39.749Z</time></trkpt><trkpt lat="42.3055386" lon="14.0061618"><ele>165.0</ele><time>2026-05-02T08:20:40.748Z</time></trkpt><trkpt lat="42.3053903" lon="14.0059115"><ele>164.0</ele><time>2026-05-02T08:20:41.749Z</time></trkpt><trkpt lat="42.3052454" lon="14.0056543"><ele>163.0</ele><time>2026-05-02T08:20:42.749Z</time></trkpt><trkpt lat="42.3051041" lon="14.0053836"><ele>163.0</ele><time>2026-05-02T08:20:43.748Z</time></trkpt><trkpt lat="42.3049597" lon="14.0050815"><ele>163.0</ele><time>2026-05-02T08:20:44.749Z</time></trkpt><trkpt lat="42.3048234" lon="14.0047747"><ele>167.0</ele><time>2026-05-02T08:20:45.749Z</time></trkpt><trkpt lat="42.3047028" lon="14.004476"><ele>171.0</ele><time>2026-05-02T08:20:46.753Z</time></trkpt><trkpt lat="42.3045891" lon="14.0042336"><ele>170.66666666666666</ele><time>2026-05-02T08:20:47.748Z</time></trkpt><trkpt lat="42.3044766" lon="14.0040517"><ele>170.33333333333331</ele><time>2026-05-02T08:20:48.751Z</time></trkpt><trkpt lat="42.3043707" lon="14.0039358"><ele>170.0</ele><time>2026-05-02T08:20:49.748Z</time></trkpt><trkpt lat="42.3042402" lon="14.0038531"><ele>170.0</ele><time>2026-05-02T08:20:50.747Z</time></trkpt><trkpt lat="42.3040813" lon="14.0037905"><ele>170.0</ele><time>2026-05-02T08:20:51.749Z</time></trkpt><trkpt lat="42.3039135" lon="14.0037266"><ele>170.0</ele><time>2026-05-02T08:20:52.748Z</time></trkpt><trkpt lat="42.3037367" lon="14.0036348"><ele>168.66666666666666</ele><time>2026-05-02T08:20:53.749Z</time></trkpt><trkpt lat="42.3035684" lon="14.0035178"><ele>167.33333333333334</ele><time>2026-05-02T08:20:54.749Z</time></trkpt><trkpt lat="42.3034101" lon="14.0033977"><ele>166.0</ele><time>2026-05-02T08:20:55.75Z</time></trkpt><trkpt lat="42.3032606" lon="14.0033027"><ele>167.0</ele><time>2026-05-02T08:20:56.749Z</time></trkpt><trkpt lat="42.3031233" lon="14.0032335"><ele>168.0</ele><time>2026-05-02T08:20:57.751Z</time></trkpt><trkpt lat="42.3029791" lon="14.0031727"><ele>169.0</ele><time>2026-05-02T08:20:58.757Z</time></trkpt><trkpt lat="42.3028261" lon="14.0031225"><ele>169.0</ele><time>2026-05-02T08:20:59.751Z</time></trkpt><trkpt lat="42.3026759" lon="14.003099"><ele>169.0</ele><time>2026-05-02T08:21:00.757Z</time></trkpt><trkpt lat="42.3025311" lon="14.003091"><ele>169.0</ele><time>2026-05-02T08:21:01.75Z</time></trkpt><trkpt lat="42.3023911" lon="14.0030868"><ele>169.0</ele><time>2026-05-02T08:21:02.749Z</time></trkpt><trkpt lat="42.3022537" lon="14.0030767"><ele>166.5</ele><time>2026-05-02T08:21:03.751Z</time></trkpt><trkpt lat="42.3021206" lon="14.0030645"><ele>164.0</ele><time>2026-05-02T08:21:04.751Z</time></trkpt><trkpt lat="42.3019941" lon="14.0030507"><ele>161.5</ele><time>2026-05-02T08:21:05.751Z</time></trkpt><trkpt lat="42.3018614" lon="14.0030189"><ele>159.0</ele><time>2026-05-02T08:21:06.749Z</time></trkpt><trkpt lat="42.3017447" lon="14.0029548"><ele>159.0</ele><time>2026-05-02T08:21:07.75Z</time></trkpt><trkpt lat="42.301651" lon="14.0028784"><ele>159.0</ele><time>2026-05-02T08:21:08.748Z</time></trkpt><trkpt lat="42.3015795" lon="14.0028052"><ele>159.0</ele><time>2026-05-02T08:21:09.749Z</time></trkpt><trkpt lat="42.3015217" lon="14.0027422"><ele>159.0</ele><time>2026-05-02T08:21:10.757Z</time></trkpt><trkpt lat="42.3014802" lon="14.0026777"><ele>159.0</ele><time>2026-05-02T08:21:11.749Z</time></trkpt><trkpt lat="42.3014358" lon="14.0025774"><ele>159.0</ele><time>2026-05-02T08:21:13.75Z</time></trkpt><trkpt lat="42.3014161" lon="14.0024721"><ele>158.33333333333334</ele><time>2026-05-02T08:21:16.748Z</time></trkpt><trkpt lat="42.3013944" lon="14.0023557"><ele>157.66666666666666</ele><time>2026-05-02T08:21:18.756Z</time></trkpt><trkpt lat="42.3013733" lon="14.0022022"><ele>157.0</ele><time>2026-05-02T08:21:20.749Z</time></trkpt><trkpt lat="42.3013646" lon="14.002114"><ele>156.33333333333331</ele><time>2026-05-02T08:21:21.749Z</time></trkpt><trkpt lat="42.3013534" lon="14.0020191"><ele>155.66666666666666</ele><time>2026-05-02T08:21:22.751Z</time></trkpt><trkpt lat="42.3013322" lon="14.0019194"><ele>155.0</ele><time>2026-05-02T08:21:23.749Z</time></trkpt><trkpt lat="42.3012996" lon="14.0018082"><ele>155.0</ele><time>2026-05-02T08:21:24.749Z</time></trkpt><trkpt lat="42.3012636" lon="14.0016917"><ele>155.0</ele><time>2026-05-02T08:21:25.748Z</time></trkpt><trkpt lat="42.3012224" lon="14.0015694"><ele>155.0</ele><time>2026-05-02T08:21:26.749Z</time></trkpt><trkpt lat="42.3011801" lon="14.0014387"><ele>155.0</ele><time>2026-05-02T08:21:27.75Z</time></trkpt><trkpt lat="42.3011328" lon="14.001301"><ele>155.0</ele><time>2026-05-02T08:21:28.75Z</time></trkpt><trkpt lat="42.3010773" lon="14.0011594"><ele>156.5</ele><time>2026-05-02T08:21:29.749Z</time></trkpt><trkpt lat="42.3010185" lon="14.0010184"><ele>158.0</ele><time>2026-05-02T08:21:30.748Z</time></trkpt><trkpt lat="42.3009559" lon="14.0008812"><ele>159.5</ele><time>2026-05-02T08:21:31.75Z</time></trkpt><trkpt lat="42.3008925" lon="14.0007505"><ele>161.0</ele><time>2026-05-02T08:21:32.75Z</time></trkpt><trkpt lat="42.3008253" lon="14.0006206"><ele>160.25</ele><time>2026-05-02T08:21:33.75Z</time></trkpt><trkpt lat="42.3007497" lon="14.0005034"><ele>159.5</ele><time>2026-05-02T08:21:34.749Z</time></trkpt><trkpt lat="42.3006679" lon="14.0003982"><ele>158.75</ele><time>2026-05-02T08:21:35.749Z</time></trkpt><trkpt lat="42.3005861" lon="14.000292"><ele>158.0</ele><time>2026-05-02T08:21:36.749Z</time></trkpt><trkpt lat="42.3005039" lon="14.0001878"><ele>158.0</ele><time>2026-05-02T08:21:37.749Z</time></trkpt><trkpt lat="42.3004232" lon="14.0000838"><ele>158.0</ele><time>2026-05-02T08:21:38.749Z</time></trkpt><trkpt lat="42.3003505" lon="13.9999678"><ele>158.0</ele><time>2026-05-02T08:21:39.75Z</time></trkpt><trkpt lat="42.3002847" lon="13.9998476"><ele>158.0</ele><time>2026-05-02T08:21:40.749Z</time></trkpt><trkpt lat="42.3002221" lon="13.9997193"><ele>158.0</ele><time>2026-05-02T08:21:41.749Z</time></trkpt><trkpt lat="42.3001654" lon="13.9995837"><ele>158.0</ele><time>2026-05-02T08:21:42.75Z</time></trkpt><trkpt lat="42.3001066" lon="13.9994464"><ele>158.0</ele><time>2026-05-02T08:21:43.75Z</time></trkpt><trkpt lat="42.3000404" lon="13.9993073"><ele>158.0</ele><time>2026-05-02T08:21:44.75Z</time></trkpt><trkpt lat="42.2999694" lon="13.9991665"><ele>158.0</ele><time>2026-05-02T08:21:45.749Z</time></trkpt><trkpt lat="42.2998939" lon="13.9990232"><ele>158.5</ele><time>2026-05-02T08:21:46.748Z</time></trkpt><trkpt lat="42.2998186" lon="13.9988738"><ele>159.0</ele><time>2026-05-02T08:21:47.749Z</time></trkpt><trkpt lat="42.2997425" lon="13.9987224"><ele>159.5</ele><time>2026-05-02T08:21:48.749Z</time></trkpt><trkpt lat="42.2996645" lon="13.9985736"><ele>160.0</ele><time>2026-05-02T08:21:49.75Z</time></trkpt><trkpt lat="42.2995833" lon="13.9984192"><ele>159.5</ele><time>2026-05-02T08:21:50.748Z</time></trkpt><trkpt lat="42.2994982" lon="13.9982648"><ele>159.0</ele><time>2026-05-02T08:21:51.748Z</time></trkpt><trkpt lat="42.2994162" lon="13.9981129"><ele>158.5</ele><time>2026-05-02T08:21:52.748Z</time></trkpt><trkpt lat="42.2993366" lon="13.9979672"><ele>158.0</ele><time>2026-05-02T08:21:53.749Z</time></trkpt><trkpt lat="42.299272" lon="13.9978174"><ele>158.0</ele><time>2026-05-02T08:21:54.748Z</time></trkpt><trkpt lat="42.2992262" lon="13.9976571"><ele>158.0</ele><time>2026-05-02T08:21:55.749Z</time></trkpt><trkpt lat="42.2991965" lon="13.9974851"><ele>158.0</ele><time>2026-05-02T08:21:56.747Z</time></trkpt><trkpt lat="42.2991752" lon="13.9973091"><ele>158.0</ele><time>2026-05-02T08:21:57.749Z</time></trkpt><trkpt lat="42.2991687" lon="13.9971262"><ele>158.0</ele><time>2026-05-02T08:21:58.748Z</time></trkpt><trkpt lat="42.2991679" lon="13.9969426"><ele>158.0</ele><time>2026-05-02T08:21:59.754Z</time></trkpt><trkpt lat="42.2991465" lon="13.9967657"><ele>158.0</ele><time>2026-05-02T08:22:00.746Z</time></trkpt><trkpt lat="42.2990939" lon="13.9965971"><ele>158.0</ele><time>2026-05-02T08:22:01.749Z</time></trkpt><trkpt lat="42.299026" lon="13.9964367"><ele>157.5</ele><time>2026-05-02T08:22:02.747Z</time></trkpt><trkpt lat="42.2989311" lon="13.9962915"><ele>157.0</ele><time>2026-05-02T08:22:03.748Z</time></trkpt><trkpt lat="42.2988324" lon="13.9961522"><ele>156.5</ele><time>2026-05-02T08:22:04.748Z</time></trkpt><trkpt lat="42.2987477" lon="13.9960384"><ele>156.0</ele><time>2026-05-02T08:22:05.748Z</time></trkpt><trkpt lat="42.2986733" lon="13.9959011"><ele>154.5</ele><time>2026-05-02T08:22:06.748Z</time></trkpt><trkpt lat="42.2986126" lon="13.9957541"><ele>153.0</ele><time>2026-05-02T08:22:07.749Z</time></trkpt><trkpt lat="42.298566" lon="13.995623"><ele>151.5</ele><time>2026-05-02T08:22:08.749Z</time></trkpt><trkpt lat="42.2985022" lon="13.9954895"><ele>150.0</ele><time>2026-05-02T08:22:09.748Z</time></trkpt><trkpt lat="42.2984267" lon="13.9953568"><ele>150.0</ele><time>2026-05-02T08:22:10.749Z</time></trkpt><trkpt lat="42.2983505" lon="13.9952063"><ele>150.0</ele><time>2026-05-02T08:22:11.748Z</time></trkpt><trkpt lat="42.2982708" lon="13.995049"><ele>150.0</ele><time>2026-05-02T08:22:12.749Z</time></trkpt><trkpt lat="42.2981845" lon="13.9948909"><ele>150.0</ele><time>2026-05-02T08:22:13.748Z</time></trkpt><trkpt lat="42.2980912" lon="13.9947455"><ele>147.75</ele><time>2026-05-02T08:22:14.748Z</time></trkpt><trkpt lat="42.2979991" lon="13.9946073"><ele>145.5</ele><time>2026-05-02T08:22:15.75Z</time></trkpt><trkpt lat="42.2979184" lon="13.9944553"><ele>143.25</ele><time>2026-05-02T08:22:16.747Z</time></trkpt><trkpt lat="42.2978459" lon="13.9942933"><ele>141.0</ele><time>2026-05-02T08:22:17.749Z</time></trkpt><trkpt lat="42.2977744" lon="13.9941219"><ele>141.0</ele><time>2026-05-02T08:22:18.748Z</time></trkpt><trkpt lat="42.2977036" lon="13.9939441"><ele>141.0</ele><time>2026-05-02T08:22:19.75Z</time></trkpt><trkpt lat="42.297624" lon="13.9937694"><ele>141.0</ele><time>2026-05-02T08:22:20.747Z</time></trkpt><trkpt lat="42.2975349" lon="13.993592"><ele>141.0</ele><time>2026-05-02T08:22:21.752Z</time></trkpt><trkpt lat="42.2974452" lon="13.993427"><ele>141.0</ele><time>2026-05-02T08:22:22.748Z</time></trkpt><trkpt lat="42.297362" lon="13.9932682"><ele>141.0</ele><time>2026-05-02T08:22:23.749Z</time></trkpt><trkpt lat="42.2972823" lon="13.9931107"><ele>141.0</ele><time>2026-05-02T08:22:24.747Z</time></trkpt><trkpt lat="42.2972073" lon="13.9929496"><ele>140.0</ele><time>2026-05-02T08:22:25.749Z</time></trkpt><trkpt lat="42.2971334" lon="13.992791"><ele>139.0</ele><time>2026-05-02T08:22:26.747Z</time></trkpt><trkpt lat="42.2970539" lon="13.9926316"><ele>138.0</ele><time>2026-05-02T08:22:27.751Z</time></trkpt><trkpt lat="42.2969762" lon="13.9924709"><ele>137.0</ele><time>2026-05-02T08:22:28.748Z</time></trkpt><trkpt lat="42.2969106" lon="13.9922981"><ele>137.0</ele><time>2026-05-02T08:22:29.75Z</time></trkpt><trkpt lat="42.2968597" lon="13.9921141"><ele>137.0</ele><time>2026-05-02T08:22:30.748Z</time></trkpt><trkpt lat="42.2968113" lon="13.9919382"><ele>137.0</ele><time>2026-05-02T08:22:31.749Z</time></trkpt><trkpt lat="42.2967641" lon="13.9917673"><ele>137.0</ele><time>2026-05-02T08:22:32.75Z</time></trkpt><trkpt lat="42.2967244" lon="13.9916052"><ele>137.5</ele><time>2026-05-02T08:22:33.75Z</time></trkpt><trkpt lat="42.2966902" lon="13.9914482"><ele>138.0</ele><time>2026-05-02T08:22:34.749Z</time></trkpt><trkpt lat="42.2966636" lon="13.9912943"><ele>138.5</ele><time>2026-05-02T08:22:35.751Z</time></trkpt><trkpt lat="42.29665" lon="13.9911354"><ele>139.0</ele><time>2026-05-02T08:22:36.75Z</time></trkpt><trkpt lat="42.2966467" lon="13.9909749"><ele>138.8</ele><time>2026-05-02T08:22:37.749Z</time></trkpt><trkpt lat="42.2966429" lon="13.990818"><ele>138.60000000000002</ele><time>2026-05-02T08:22:38.748Z</time></trkpt><trkpt lat="42.2966386" lon="13.9906653"><ele>138.4</ele><time>2026-05-02T08:22:39.749Z</time></trkpt><trkpt lat="42.2966274" lon="13.9905223"><ele>138.20000000000002</ele><time>2026-05-02T08:22:40.748Z</time></trkpt><trkpt lat="42.2966014" lon="13.9903857"><ele>138.0</ele><time>2026-05-02T08:22:41.749Z</time></trkpt><trkpt lat="42.2965558" lon="13.9902539"><ele>138.0</ele><time>2026-05-02T08:22:42.748Z</time></trkpt><trkpt lat="42.2964926" lon="13.9901289"><ele>138.0</ele><time>2026-05-02T08:22:43.747Z</time></trkpt><trkpt lat="42.2964164" lon="13.9900227"><ele>138.0</ele><time>2026-05-02T08:22:44.748Z</time></trkpt><trkpt lat="42.2963273" lon="13.9899446"><ele>138.0</ele><time>2026-05-02T08:22:45.749Z</time></trkpt><trkpt lat="42.2962295" lon="13.9898988"><ele>138.0</ele><time>2026-05-02T08:22:46.748Z</time></trkpt><trkpt lat="42.2961288" lon="13.9898648"><ele>136.0</ele><time>2026-05-02T08:22:47.751Z</time></trkpt><trkpt lat="42.2960274" lon="13.9898285"><ele>134.0</ele><time>2026-05-02T08:22:48.75Z</time></trkpt><trkpt lat="42.2959338" lon="13.9897743"><ele>132.0</ele><time>2026-05-02T08:22:49.749Z</time></trkpt><trkpt lat="42.2958444" lon="13.9897131"><ele>130.0</ele><time>2026-05-02T08:22:50.747Z</time></trkpt><trkpt lat="42.2957595" lon="13.989645"><ele>128.0</ele><time>2026-05-02T08:22:51.749Z</time></trkpt><trkpt lat="42.295673" lon="13.9895763"><ele>127.99999999999999</ele><time>2026-05-02T08:22:52.749Z</time></trkpt><trkpt lat="42.2955979" lon="13.9895155"><ele>128.0</ele><time>2026-05-02T08:22:53.75Z</time></trkpt><trkpt lat="42.2955259" lon="13.9894622"><ele>128.0</ele><time>2026-05-02T08:22:54.749Z</time></trkpt><trkpt lat="42.2954601" lon="13.9894163"><ele>128.0</ele><time>2026-05-02T08:22:55.748Z</time></trkpt><trkpt lat="42.2953994" lon="13.9893813"><ele>127.99999999999999</ele><time>2026-05-02T08:22:56.748Z</time></trkpt><trkpt lat="42.2953314" lon="13.9893406"><ele>128.0</ele><time>2026-05-02T08:22:58.747Z</time></trkpt><trkpt lat="42.2952544" lon="13.9893016"><ele>127.66666666666666</ele><time>2026-05-02T08:23:01.75Z</time></trkpt><trkpt lat="42.2951899" lon="13.9892931"><ele>127.33333333333333</ele><time>2026-05-02T08:23:03.75Z</time></trkpt><trkpt lat="42.2951089" lon="13.9893207"><ele>127.0</ele><time>2026-05-02T08:23:05.751Z</time></trkpt><trkpt lat="42.2950228" lon="13.9893477"><ele>126.66666666666666</ele><time>2026-05-02T08:23:07.75Z</time></trkpt><trkpt lat="42.2949554" lon="13.9892308"><ele>126.33333333333333</ele><time>2026-05-02T08:23:10.753Z</time></trkpt><trkpt lat="42.29494" lon="13.9891255"><ele>126.0</ele><time>2026-05-02T08:23:11.748Z</time></trkpt><trkpt lat="42.2949225" lon="13.9889932"><ele>127.0</ele><time>2026-05-02T08:23:12.75Z</time></trkpt><trkpt lat="42.2948984" lon="13.9888501"><ele>128.0</ele><time>2026-05-02T08:23:13.749Z</time></trkpt><trkpt lat="42.2948668" lon="13.988702"><ele>129.0</ele><time>2026-05-02T08:23:14.749Z</time></trkpt><trkpt lat="42.2948246" lon="13.9885439"><ele>130.0</ele><time>2026-05-02T08:23:15.75Z</time></trkpt><trkpt lat="42.294779" lon="13.9883705"><ele>130.75</ele><time>2026-05-02T08:23:16.75Z</time></trkpt><trkpt lat="42.2947333" lon="13.9881949"><ele>131.5</ele><time>2026-05-02T08:23:17.75Z</time></trkpt><trkpt lat="42.2946846" lon="13.9880196"><ele>132.25</ele><time>2026-05-02T08:23:18.749Z</time></trkpt><trkpt lat="42.2946367" lon="13.9878443"><ele>133.0</ele><time>2026-05-02T08:23:19.749Z</time></trkpt><trkpt lat="42.294586" lon="13.9876704"><ele>133.5</ele><time>2026-05-02T08:23:20.747Z</time></trkpt><trkpt lat="42.2945357" lon="13.987501"><ele>134.0</ele><time>2026-05-02T08:23:21.749Z</time></trkpt><trkpt lat="42.2944857" lon="13.9873375"><ele>134.5</ele><time>2026-05-02T08:23:22.748Z</time></trkpt><trkpt lat="42.2944379" lon="13.9871835"><ele>135.0</ele><time>2026-05-02T08:23:23.747Z</time></trkpt><trkpt lat="42.2943958" lon="13.9870435"><ele>135.0</ele><time>2026-05-02T08:23:24.751Z</time></trkpt><trkpt lat="42.2943735" lon="13.9869098"><ele>135.0</ele><time>2026-05-02T08:23:25.751Z</time></trkpt><trkpt lat="42.2943932" lon="13.986769"><ele>135.0</ele><time>2026-05-02T08:23:27.75Z</time></trkpt><trkpt lat="42.2944063" lon="13.9866853"><ele>135.0</ele><time>2026-05-02T08:23:29.747Z</time></trkpt><trkpt lat="42.2943577" lon="13.9865616"><ele>135.0</ele><time>2026-05-02T08:23:32.751Z</time></trkpt><trkpt lat="42.2942937" lon="13.9863991"><ele>135.6</ele><time>2026-05-02T08:23:34.748Z</time></trkpt><trkpt lat="42.2942592" lon="13.9862938"><ele>136.2</ele><time>2026-05-02T08:23:35.749Z</time></trkpt><trkpt lat="42.294224" lon="13.9861762"><ele>136.8</ele><time>2026-05-02T08:23:36.748Z</time></trkpt><trkpt lat="42.2941896" lon="13.9860513"><ele>137.4</ele><time>2026-05-02T08:23:37.748Z</time></trkpt><trkpt lat="42.2941539" lon="13.9859171"><ele>138.0</ele><time>2026-05-02T08:23:38.752Z</time></trkpt><trkpt lat="42.2941162" lon="13.9857807"><ele>138.75</ele><time>2026-05-02T08:23:39.75Z</time></trkpt><trkpt lat="42.2940793" lon="13.9856448"><ele>139.5</ele><time>2026-05-02T08:23:40.748Z</time></trkpt><trkpt lat="42.2940431" lon="13.9854988"><ele>140.25</ele><time>2026-05-02T08:23:41.748Z</time></trkpt><trkpt lat="42.2940008" lon="13.9853517"><ele>141.0</ele><time>2026-05-02T08:23:42.748Z</time></trkpt><trkpt lat="42.293956" lon="13.9852029"><ele>142.5</ele><time>2026-05-02T08:23:43.75Z</time></trkpt><trkpt lat="42.2939115" lon="13.985052"><ele>144.0</ele><time>2026-05-02T08:23:44.75Z</time></trkpt><trkpt lat="42.2938664" lon="13.9849083"><ele>145.5</ele><time>2026-05-02T08:23:45.749Z</time></trkpt><trkpt lat="42.2938183" lon="13.9847776"><ele>147.0</ele><time>2026-05-02T08:23:46.749Z</time></trkpt><trkpt lat="42.2937617" lon="13.9846538"><ele>147.2</ele><time>2026-05-02T08:23:47.747Z</time></trkpt><trkpt lat="42.2936949" lon="13.9845313"><ele>147.39999999999998</ele><time>2026-05-02T08:23:48.748Z</time></trkpt><trkpt lat="42.2936213" lon="13.984414"><ele>147.60000000000002</ele><time>2026-05-02T08:23:49.749Z</time></trkpt><trkpt lat="42.2935504" lon="13.9842979"><ele>147.8</ele><time>2026-05-02T08:23:50.746Z</time></trkpt><trkpt lat="42.2934822" lon="13.9841845"><ele>148.0</ele><time>2026-05-02T08:23:51.751Z</time></trkpt><trkpt lat="42.2934064" lon="13.9840799"><ele>148.4</ele><time>2026-05-02T08:23:52.747Z</time></trkpt><trkpt lat="42.2933242" lon="13.9839849"><ele>148.8</ele><time>2026-05-02T08:23:53.753Z</time></trkpt><trkpt lat="42.2932323" lon="13.9839029"><ele>149.2</ele><time>2026-05-02T08:23:54.749Z</time></trkpt><trkpt lat="42.293137" lon="13.9838311"><ele>149.6</ele><time>2026-05-02T08:23:55.748Z</time></trkpt><trkpt lat="42.2930513" lon="13.9837505"><ele>150.0</ele><time>2026-05-02T08:23:56.748Z</time></trkpt><trkpt lat="42.2929737" lon="13.9836439"><ele>152.5</ele><time>2026-05-02T08:23:57.753Z</time></trkpt><trkpt lat="42.2928999" lon="13.9835171"><ele>155.0</ele><time>2026-05-02T08:23:58.749Z</time></trkpt><trkpt lat="42.2928295" lon="13.9833747"><ele>157.5</ele><time>2026-05-02T08:23:59.75Z</time></trkpt><trkpt lat="42.2927607" lon="13.9832245"><ele>160.0</ele><time>2026-05-02T08:24:00.748Z</time></trkpt><trkpt lat="42.2926866" lon="13.983075"><ele>160.0</ele><time>2026-05-02T08:24:01.753Z</time></trkpt><trkpt lat="42.2926101" lon="13.9829389"><ele>160.0</ele><time>2026-05-02T08:24:02.748Z</time></trkpt><trkpt lat="42.2925407" lon="13.9828168"><ele>160.0</ele><time>2026-05-02T08:24:03.749Z</time></trkpt><trkpt lat="42.2924741" lon="13.9826989"><ele>160.0</ele><time>2026-05-02T08:24:04.751Z</time></trkpt><trkpt lat="42.2924034" lon="13.9825717"><ele>159.2</ele><time>2026-05-02T08:24:05.749Z</time></trkpt><trkpt lat="42.2923318" lon="13.9824496"><ele>158.4</ele><time>2026-05-02T08:24:06.749Z</time></trkpt><trkpt lat="42.2922636" lon="13.9823383"><ele>157.6</ele><time>2026-05-02T08:24:07.75Z</time></trkpt><trkpt lat="42.2922028" lon="13.9822364"><ele>156.8</ele><time>2026-05-02T08:24:08.749Z</time></trkpt><trkpt lat="42.2921398" lon="13.9821336"><ele>156.0</ele><time>2026-05-02T08:24:09.749Z</time></trkpt><trkpt lat="42.2920784" lon="13.9820326"><ele>157.83333333333334</ele><time>2026-05-02T08:24:10.747Z</time></trkpt><trkpt lat="42.2920312" lon="13.9819547"><ele>159.66666666666666</ele><time>2026-05-02T08:24:11.748Z</time></trkpt><trkpt lat="42.291959" lon="13.9818356"><ele>161.5</ele><time>2026-05-02T08:24:13.747Z</time></trkpt><trkpt lat="42.2918892" lon="13.9817539"><ele>163.33333333333331</ele><time>2026-05-02T08:24:15.752Z</time></trkpt><trkpt lat="42.2918431" lon="13.9816897"><ele>165.16666666666666</ele><time>2026-05-02T08:24:16.75Z</time></trkpt><trkpt lat="42.2917883" lon="13.98161"><ele>167.0</ele><time>2026-05-02T08:24:17.75Z</time></trkpt><trkpt lat="42.2917262" lon="13.9815246"><ele>167.0</ele><time>2026-05-02T08:24:18.75Z</time></trkpt><trkpt lat="42.2916586" lon="13.9814298"><ele>167.0</ele><time>2026-05-02T08:24:19.75Z</time></trkpt><trkpt lat="42.2915937" lon="13.9813333"><ele>167.0</ele><time>2026-05-02T08:24:20.749Z</time></trkpt><trkpt lat="42.2915347" lon="13.9812469"><ele>167.0</ele><time>2026-05-02T08:24:21.751Z</time></trkpt><trkpt lat="42.2914807" lon="13.9811814"><ele>167.0</ele><time>2026-05-02T08:24:22.749Z</time></trkpt><trkpt lat="42.2913911" lon="13.9811237"><ele>168.5</ele><time>2026-05-02T08:24:24.751Z</time></trkpt><trkpt lat="42.2913079" lon="13.9811078"><ele>170.0</ele><time>2026-05-02T08:24:26.754Z</time></trkpt><trkpt lat="42.291195" lon="13.9811037"><ele>171.5</ele><time>2026-05-02T08:24:28.75Z</time></trkpt><trkpt lat="42.2911314" lon="13.9810961"><ele>173.0</ele><time>2026-05-02T08:24:29.75Z</time></trkpt><trkpt lat="42.2910221" lon="13.9810438"><ele>174.5</ele><time>2026-05-02T08:24:31.75Z</time></trkpt><trkpt lat="42.2909664" lon="13.9809893"><ele>176.0</ele><time>2026-05-02T08:24:32.747Z</time></trkpt><trkpt lat="42.2909103" lon="13.9808834"><ele>174.83333333333331</ele><time>2026-05-02T08:24:34.748Z</time></trkpt><trkpt lat="42.2908822" lon="13.9807746"><ele>173.66666666666666</ele><time>2026-05-02T08:24:37.751Z</time></trkpt><trkpt lat="42.2908733" lon="13.9806546"><ele>172.5</ele><time>2026-05-02T08:24:40.75Z</time></trkpt><trkpt lat="42.2908773" lon="13.9805675"><ele>171.33333333333334</ele><time>2026-05-02T08:24:42.747Z</time></trkpt><trkpt lat="42.2908761" lon="13.980412"><ele>170.16666666666669</ele><time>2026-05-02T08:24:44.75Z</time></trkpt><trkpt lat="42.2908695" lon="13.9803179"><ele>169.0</ele><time>2026-05-02T08:24:45.748Z</time></trkpt><trkpt lat="42.2908456" lon="13.9801739"><ele>169.0</ele><time>2026-05-02T08:24:47.749Z</time></trkpt><trkpt lat="42.290813" lon="13.980086"><ele>169.0</ele><time>2026-05-02T08:24:49.749Z</time></trkpt><trkpt lat="42.2907603" lon="13.9799547"><ele>169.0</ele><time>2026-05-02T08:24:51.75Z</time></trkpt><trkpt lat="42.290715" lon="13.9798777"><ele>169.0</ele><time>2026-05-02T08:24:52.747Z</time></trkpt><trkpt lat="42.2906608" lon="13.9798008"><ele>169.0</ele><time>2026-05-02T08:24:53.747Z</time></trkpt><trkpt lat="42.2905897" lon="13.9797209"><ele>169.0</ele><time>2026-05-02T08:24:54.752Z</time></trkpt><trkpt lat="42.2904988" lon="13.9796404"><ele>172.2</ele><time>2026-05-02T08:24:55.75Z</time></trkpt><trkpt lat="42.2904061" lon="13.9795673"><ele>175.39999999999998</ele><time>2026-05-02T08:24:56.749Z</time></trkpt><trkpt lat="42.2903408" lon="13.9794833"><ele>178.6</ele><time>2026-05-02T08:24:57.749Z</time></trkpt><trkpt lat="42.2903036" lon="13.9793827"><ele>181.8</ele><time>2026-05-02T08:24:58.752Z</time></trkpt><trkpt lat="42.290298" lon="13.9792785"><ele>185.0</ele><time>2026-05-02T08:24:59.749Z</time></trkpt><trkpt lat="42.2903201" lon="13.9791524"><ele>185.0</ele><time>2026-05-02T08:25:00.752Z</time></trkpt><trkpt lat="42.2903664" lon="13.9790133"><ele>185.0</ele><time>2026-05-02T08:25:01.749Z</time></trkpt><trkpt lat="42.2904038" lon="13.9788879"><ele>185.0</ele><time>2026-05-02T08:25:02.751Z</time></trkpt><trkpt lat="42.2904145" lon="13.9787828"><ele>185.0</ele><time>2026-05-02T08:25:03.747Z</time></trkpt><trkpt lat="42.2904" lon="13.9786917"><ele>185.0</ele><time>2026-05-02T08:25:04.752Z</time></trkpt><trkpt lat="42.2903579" lon="13.9786255"><ele>185.0</ele><time>2026-05-02T08:25:05.749Z</time></trkpt><trkpt lat="42.2902414" lon="13.9786253"><ele>185.0</ele><time>2026-05-02T08:25:07.749Z</time></trkpt><trkpt lat="42.2901691" lon="13.9786703"><ele>185.0</ele><time>2026-05-02T08:25:08.752Z</time></trkpt><trkpt lat="42.2900959" lon="13.9787286"><ele>185.0</ele><time>2026-05-02T08:25:09.749Z</time></trkpt><trkpt lat="42.2900128" lon="13.9787839"><ele>185.0</ele><time>2026-05-02T08:25:10.753Z</time></trkpt><trkpt lat="42.2899359" lon="13.9788272"><ele>185.0</ele><time>2026-05-02T08:25:11.749Z</time></trkpt><trkpt lat="42.2898509" lon="13.9788758"><ele>185.0</ele><time>2026-05-02T08:25:12.752Z</time></trkpt><trkpt lat="42.2897685" lon="13.9789102"><ele>187.16666666666666</ele><time>2026-05-02T08:25:13.75Z</time></trkpt><trkpt lat="42.2897054" lon="13.978913"><ele>189.33333333333331</ele><time>2026-05-02T08:25:14.752Z</time></trkpt><trkpt lat="42.2895996" lon="13.9788263"><ele>191.5</ele><time>2026-05-02T08:25:16.752Z</time></trkpt><trkpt lat="42.2895561" lon="13.978738"><ele>193.66666666666666</ele><time>2026-05-02T08:25:17.749Z</time></trkpt><trkpt lat="42.2895257" lon="13.9786334"><ele>195.83333333333334</ele><time>2026-05-02T08:25:18.753Z</time></trkpt><trkpt lat="42.2895055" lon="13.978513"><ele>198.0</ele><time>2026-05-02T08:25:19.749Z</time></trkpt><trkpt lat="42.2894913" lon="13.9783869"><ele>198.5</ele><time>2026-05-02T08:25:20.752Z</time></trkpt><trkpt lat="42.2894808" lon="13.9782704"><ele>199.0</ele><time>2026-05-02T08:25:21.751Z</time></trkpt><trkpt lat="42.2894649" lon="13.978187"><ele>199.5</ele><time>2026-05-02T08:25:22.752Z</time></trkpt><trkpt lat="42.2894459" lon="13.9781051"><ele>200.0</ele><time>2026-05-02T08:25:23.749Z</time></trkpt><trkpt lat="42.2893982" lon="13.9779812"><ele>200.5</ele><time>2026-05-02T08:25:25.752Z</time></trkpt><trkpt lat="42.28935" lon="13.9779213"><ele>201.0</ele><time>2026-05-02T08:25:27.749Z</time></trkpt><trkpt lat="42.2892823" lon="13.9778908"><ele>201.0</ele><time>2026-05-02T08:25:29.748Z</time></trkpt><trkpt lat="42.2891938" lon="13.9778911"><ele>201.0</ele><time>2026-05-02T08:25:31.749Z</time></trkpt><trkpt lat="42.2891306" lon="13.9779278"><ele>201.0</ele><time>2026-05-02T08:25:48.752Z</time></trkpt><trkpt lat="42.2890498" lon="13.9779544"><ele>201.0</ele><time>2026-05-02T08:25:52.752Z</time></trkpt><trkpt lat="42.2889493" lon="13.9780263"><ele>201.0</ele><time>2026-05-02T08:25:54.751Z</time></trkpt><trkpt lat="42.2888972" lon="13.9780792"><ele>201.0</ele><time>2026-05-02T08:25:55.751Z</time></trkpt><trkpt lat="42.288842" lon="13.9781469"><ele>203.16666666666666</ele><time>2026-05-02T08:25:56.753Z</time></trkpt><trkpt lat="42.2887946" lon="13.9782259"><ele>205.33333333333331</ele><time>2026-05-02T08:25:57.748Z</time></trkpt><trkpt lat="42.2887543" lon="13.978313"><ele>207.5</ele><time>2026-05-02T08:25:58.752Z</time></trkpt><trkpt lat="42.2887209" lon="13.978395"><ele>209.66666666666666</ele><time>2026-05-02T08:25:59.75Z</time></trkpt><trkpt lat="42.2887011" lon="13.9784805"><ele>211.83333333333331</ele><time>2026-05-02T08:26:01.748Z</time></trkpt><trkpt lat="42.2886461" lon="13.9785992"><ele>214.0</ele><time>2026-05-02T08:26:03.754Z</time></trkpt><trkpt lat="42.2885962" lon="13.9786872"><ele>213.99999999999997</ele><time>2026-05-02T08:26:04.751Z</time></trkpt><trkpt lat="42.2885447" lon="13.9787824"><ele>214.0</ele><time>2026-05-02T08:26:05.75Z</time></trkpt><trkpt lat="42.2884937" lon="13.9788739"><ele>214.0</ele><time>2026-05-02T08:26:06.751Z</time></trkpt><trkpt lat="42.2884509" lon="13.9789504"><ele>214.0</ele><time>2026-05-02T08:26:07.75Z</time></trkpt><trkpt lat="42.2884091" lon="13.9790593"><ele>213.99999999999997</ele><time>2026-05-02T08:26:09.755Z</time></trkpt><trkpt lat="42.2884009" lon="13.9791502"><ele>214.0</ele><time>2026-05-02T08:26:11.751Z</time></trkpt><trkpt lat="42.2883856" lon="13.9793057"><ele>214.57142857142858</ele><time>2026-05-02T08:26:13.75Z</time></trkpt><trkpt lat="42.2883756" lon="13.9794012"><ele>215.14285714285714</ele><time>2026-05-02T08:26:14.75Z</time></trkpt><trkpt lat="42.2883675" lon="13.979497"><ele>215.71428571428572</ele><time>2026-05-02T08:26:15.749Z</time></trkpt><trkpt lat="42.2883637" lon="13.9795919"><ele>216.28571428571428</ele><time>2026-05-02T08:26:16.75Z</time></trkpt><trkpt lat="42.2883585" lon="13.9796845"><ele>216.85714285714286</ele><time>2026-05-02T08:26:17.75Z</time></trkpt><trkpt lat="42.2883515" lon="13.9797749"><ele>217.42857142857144</ele><time>2026-05-02T08:26:18.751Z</time></trkpt><trkpt lat="42.2883429" lon="13.9798637"><ele>218.0</ele><time>2026-05-02T08:26:19.75Z</time></trkpt><trkpt lat="42.2883348" lon="13.9800239"><ele>218.75</ele><time>2026-05-02T08:26:21.75Z</time></trkpt><trkpt lat="42.2883525" lon="13.9801836"><ele>219.5</ele><time>2026-05-02T08:26:23.751Z</time></trkpt><trkpt lat="42.2884114" lon="13.9803342"><ele>220.25</ele><time>2026-05-02T08:26:25.75Z</time></trkpt><trkpt lat="42.2884673" lon="13.9804845"><ele>221.0</ele><time>2026-05-02T08:26:27.75Z</time></trkpt><trkpt lat="42.2884783" lon="13.9806505"><ele>221.00000000000003</ele><time>2026-05-02T08:26:29.749Z</time></trkpt><trkpt lat="42.2884575" lon="13.9807328"><ele>221.0</ele><time>2026-05-02T08:26:30.753Z</time></trkpt><trkpt lat="42.2883659" lon="13.9808302"><ele>221.0</ele><time>2026-05-02T08:26:32.752Z</time></trkpt><trkpt lat="42.288242" lon="13.9808165"><ele>221.0</ele><time>2026-05-02T08:26:34.753Z</time></trkpt><trkpt lat="42.2881873" lon="13.9807583"><ele>221.00000000000003</ele><time>2026-05-02T08:26:35.75Z</time></trkpt><trkpt lat="42.2881544" lon="13.9806841"><ele>221.0</ele><time>2026-05-02T08:26:36.752Z</time></trkpt><trkpt lat="42.2881169" lon="13.9805716"><ele>225.8</ele><time>2026-05-02T08:26:38.749Z</time></trkpt><trkpt lat="42.288029" lon="13.9805203"><ele>230.60000000000002</ele><time>2026-05-02T08:26:40.749Z</time></trkpt><trkpt lat="42.2879449" lon="13.9805733"><ele>235.4</ele><time>2026-05-02T08:26:42.751Z</time></trkpt><trkpt lat="42.287905" lon="13.9806816"><ele>240.2</ele><time>2026-05-02T08:26:44.753Z</time></trkpt><trkpt lat="42.2879214" lon="13.9808133"><ele>245.0</ele><time>2026-05-02T08:26:46.749Z</time></trkpt><trkpt lat="42.2879472" lon="13.9809927"><ele>246.33333333333334</ele><time>2026-05-02T08:26:48.753Z</time></trkpt><trkpt lat="42.2879602" lon="13.9810936"><ele>247.66666666666669</ele><time>2026-05-02T08:26:49.75Z</time></trkpt><trkpt lat="42.2879894" lon="13.9812559"><ele>249.0</ele><time>2026-05-02T08:26:51.75Z</time></trkpt><trkpt lat="42.287998" lon="13.9813425"><ele>250.33333333333331</ele><time>2026-05-02T08:26:52.752Z</time></trkpt><trkpt lat="42.2879615" lon="13.9814675"><ele>251.66666666666666</ele><time>2026-05-02T08:26:54.752Z</time></trkpt><trkpt lat="42.28788" lon="13.981489"><ele>253.0</ele><time>2026-05-02T08:26:56.751Z</time></trkpt><trkpt lat="42.287805" lon="13.9814006"><ele>253.0</ele><time>2026-05-02T08:26:58.752Z</time></trkpt><trkpt lat="42.2877789" lon="13.9812594"><ele>253.0</ele><time>2026-05-02T08:27:00.753Z</time></trkpt><trkpt lat="42.2877187" lon="13.9811442"><ele>253.0</ele><time>2026-05-02T08:27:02.752Z</time></trkpt><trkpt lat="42.2876301" lon="13.9810907"><ele>253.0</ele><time>2026-05-02T08:27:04.75Z</time></trkpt><trkpt lat="42.287528" lon="13.9810632"><ele>253.0</ele><time>2026-05-02T08:27:06.754Z</time></trkpt><trkpt lat="42.287411" lon="13.9810298"><ele>252.99999999999997</ele><time>2026-05-02T08:27:08.752Z</time></trkpt><trkpt lat="42.2872932" lon="13.9809919"><ele>253.0</ele><time>2026-05-02T08:27:10.752Z</time></trkpt><trkpt lat="42.2872296" lon="13.980973"><ele>253.0</ele><time>2026-05-02T08:27:11.748Z</time></trkpt><trkpt lat="42.2871585" lon="13.9809499"><ele>253.0</ele><time>2026-05-02T08:27:12.751Z</time></trkpt><trkpt lat="42.2870849" lon="13.9809169"><ele>252.99999999999997</ele><time>2026-05-02T08:27:13.748Z</time></trkpt><trkpt lat="42.2870236" lon="13.9808745"><ele>253.0</ele><time>2026-05-02T08:27:14.752Z</time></trkpt><trkpt lat="42.2869619" lon="13.9807642"><ele>253.66666666666666</ele><time>2026-05-02T08:27:16.748Z</time></trkpt><trkpt lat="42.2869521" lon="13.98059"><ele>254.33333333333331</ele><time>2026-05-02T08:27:18.752Z</time></trkpt><trkpt lat="42.2869585" lon="13.9804971"><ele>255.0</ele><time>2026-05-02T08:27:19.751Z</time></trkpt><trkpt lat="42.2869669" lon="13.9804045"><ele>255.66666666666669</ele><time>2026-05-02T08:27:20.751Z</time></trkpt><trkpt lat="42.2869725" lon="13.9803109"><ele>256.33333333333337</ele><time>2026-05-02T08:27:21.75Z</time></trkpt><trkpt lat="42.2869748" lon="13.9802049"><ele>257.0</ele><time>2026-05-02T08:27:22.751Z</time></trkpt><trkpt lat="42.2869761" lon="13.98009"><ele>257.1666666666667</ele><time>2026-05-02T08:27:23.75Z</time></trkpt><trkpt lat="42.2869684" lon="13.9799836"><ele>257.33333333333337</ele><time>2026-05-02T08:27:24.752Z</time></trkpt><trkpt lat="42.2869502" lon="13.9798926"><ele>257.5</ele><time>2026-05-02T08:27:25.75Z</time></trkpt><trkpt lat="42.2869259" lon="13.9798016"><ele>257.6666666666667</ele><time>2026-05-02T08:27:26.752Z</time></trkpt><trkpt lat="42.2868939" lon="13.9797007"><ele>257.8333333333333</ele><time>2026-05-02T08:27:27.752Z</time></trkpt><trkpt lat="42.2868635" lon="13.9795994"><ele>258.0</ele><time>2026-05-02T08:27:28.752Z</time></trkpt><trkpt lat="42.2868475" lon="13.9794986"><ele>258.0</ele><time>2026-05-02T08:27:29.75Z</time></trkpt><trkpt lat="42.286843" lon="13.9793849"><ele>258.0</ele><time>2026-05-02T08:27:30.754Z</time></trkpt><trkpt lat="42.2868383" lon="13.9792648"><ele>258.0</ele><time>2026-05-02T08:27:31.751Z</time></trkpt><trkpt lat="42.2868317" lon="13.9791416"><ele>258.0</ele><time>2026-05-02T08:27:32.752Z</time></trkpt><trkpt lat="42.2868196" lon="13.9790297"><ele>258.0</ele><time>2026-05-02T08:27:33.751Z</time></trkpt><trkpt lat="42.2868012" lon="13.9789279"><ele>258.0</ele><time>2026-05-02T08:27:34.752Z</time></trkpt><trkpt lat="42.2867809" lon="13.9788251"><ele>257.8333333333333</ele><time>2026-05-02T08:27:35.751Z</time></trkpt><trkpt lat="42.2867587" lon="13.9787186"><ele>257.6666666666667</ele><time>2026-05-02T08:27:36.751Z</time></trkpt><trkpt lat="42.2867281" lon="13.9786091"><ele>257.5</ele><time>2026-05-02T08:27:37.75Z</time></trkpt><trkpt lat="42.2866897" lon="13.978502"><ele>257.33333333333337</ele><time>2026-05-02T08:27:38.751Z</time></trkpt><trkpt lat="42.2866444" lon="13.9783995"><ele>257.1666666666667</ele><time>2026-05-02T08:27:39.749Z</time></trkpt><trkpt lat="42.2865919" lon="13.9783031"><ele>257.0</ele><time>2026-05-02T08:27:40.75Z</time></trkpt><trkpt lat="42.2865333" lon="13.9782172"><ele>257.0</ele><time>2026-05-02T08:27:41.75Z</time></trkpt><trkpt lat="42.2864699" lon="13.9781418"><ele>257.0</ele><time>2026-05-02T08:27:42.752Z</time></trkpt><trkpt lat="42.2864022" lon="13.9780702"><ele>257.0</ele><time>2026-05-02T08:27:43.749Z</time></trkpt><trkpt lat="42.2863329" lon="13.977998"><ele>257.0</ele><time>2026-05-02T08:27:44.754Z</time></trkpt><trkpt lat="42.2862665" lon="13.9779212"><ele>257.0</ele><time>2026-05-02T08:27:45.749Z</time></trkpt><trkpt lat="42.2862031" lon="13.9778363"><ele>257.0</ele><time>2026-05-02T08:27:46.748Z</time></trkpt><trkpt lat="42.2861478" lon="13.9777512"><ele>258.1666666666667</ele><time>2026-05-02T08:27:47.752Z</time></trkpt><trkpt lat="42.2861064" lon="13.9776725"><ele>259.33333333333337</ele><time>2026-05-02T08:27:48.749Z</time></trkpt><trkpt lat="42.2860715" lon="13.9775931"><ele>260.5</ele><time>2026-05-02T08:27:49.749Z</time></trkpt><trkpt lat="42.2860354" lon="13.9775019"><ele>261.6666666666667</ele><time>2026-05-02T08:27:50.748Z</time></trkpt><trkpt lat="42.2859903" lon="13.9774114"><ele>262.8333333333333</ele><time>2026-05-02T08:27:51.747Z</time></trkpt><trkpt lat="42.2859345" lon="13.9773281"><ele>264.0</ele><time>2026-05-02T08:27:52.749Z</time></trkpt><trkpt lat="42.2858695" lon="13.9772474"><ele>264.0</ele><time>2026-05-02T08:27:53.749Z</time></trkpt><trkpt lat="42.2857995" lon="13.9771769"><ele>264.0</ele><time>2026-05-02T08:27:54.751Z</time></trkpt><trkpt lat="42.2857332" lon="13.9771167"><ele>264.0</ele><time>2026-05-02T08:27:55.748Z</time></trkpt><trkpt lat="42.2856733" lon="13.9770668"><ele>264.0</ele><time>2026-05-02T08:27:56.749Z</time></trkpt><trkpt lat="42.2856154" lon="13.977025"><ele>264.0</ele><time>2026-05-02T08:27:57.748Z</time></trkpt><trkpt lat="42.285519" lon="13.9769537"><ele>264.0</ele><time>2026-05-02T08:27:59.748Z</time></trkpt><trkpt lat="42.2854515" lon="13.976881"><ele>265.0</ele><time>2026-05-02T08:28:01.748Z</time></trkpt><trkpt lat="42.2853772" lon="13.9767613"><ele>266.0</ele><time>2026-05-02T08:28:03.747Z</time></trkpt><trkpt lat="42.2853515" lon="13.9765973"><ele>267.0</ele><time>2026-05-02T08:28:05.748Z</time></trkpt><trkpt lat="42.2853619" lon="13.9765078"><ele>268.0</ele><time>2026-05-02T08:28:06.749Z</time></trkpt><trkpt lat="42.2853777" lon="13.9764095"><ele>269.0</ele><time>2026-05-02T08:28:07.749Z</time></trkpt><trkpt lat="42.2853952" lon="13.9763035"><ele>269.0</ele><time>2026-05-02T08:28:08.749Z</time></trkpt><trkpt lat="42.2854085" lon="13.9761927"><ele>269.0</ele><time>2026-05-02T08:28:09.747Z</time></trkpt><trkpt lat="42.2854193" lon="13.9760754"><ele>269.0</ele><time>2026-05-02T08:28:10.748Z</time></trkpt><trkpt lat="42.285426" lon="13.9759519"><ele>269.0</ele><time>2026-05-02T08:28:11.749Z</time></trkpt><trkpt lat="42.2854236" lon="13.9758244"><ele>269.0</ele><time>2026-05-02T08:28:12.75Z</time></trkpt><trkpt lat="42.2854093" lon="13.9756961"><ele>270.0</ele><time>2026-05-02T08:28:13.748Z</time></trkpt><trkpt lat="42.2853881" lon="13.9755598"><ele>271.0</ele><time>2026-05-02T08:28:14.75Z</time></trkpt><trkpt lat="42.2853652" lon="13.9754321"><ele>272.0</ele><time>2026-05-02T08:28:15.749Z</time></trkpt><trkpt lat="42.2853468" lon="13.9753057"><ele>273.0</ele><time>2026-05-02T08:28:16.75Z</time></trkpt><trkpt lat="42.2853277" lon="13.9751736"><ele>274.0</ele><time>2026-05-02T08:28:17.748Z</time></trkpt><trkpt lat="42.2852972" lon="13.9750377"><ele>274.5</ele><time>2026-05-02T08:28:18.749Z</time></trkpt><trkpt lat="42.285247" lon="13.974904"><ele>275.0</ele><time>2026-05-02T08:28:19.75Z</time></trkpt><trkpt lat="42.2851829" lon="13.9747747"><ele>275.5</ele><time>2026-05-02T08:28:20.75Z</time></trkpt><trkpt lat="42.2851172" lon="13.9746416"><ele>276.0</ele><time>2026-05-02T08:28:21.751Z</time></trkpt><trkpt lat="42.2850507" lon="13.9745047"><ele>276.0</ele><time>2026-05-02T08:28:22.747Z</time></trkpt><trkpt lat="42.284984" lon="13.9743608"><ele>276.0</ele><time>2026-05-02T08:28:23.752Z</time></trkpt><trkpt lat="42.2849167" lon="13.9742098"><ele>276.0</ele><time>2026-05-02T08:28:24.748Z</time></trkpt><trkpt lat="42.2848503" lon="13.9740587"><ele>276.0</ele><time>2026-05-02T08:28:25.748Z</time></trkpt><trkpt lat="42.2847879" lon="13.9739114"><ele>278.40000000000003</ele><time>2026-05-02T08:28:26.751Z</time></trkpt><trkpt lat="42.2847343" lon="13.9737632"><ele>280.8</ele><time>2026-05-02T08:28:27.749Z</time></trkpt><trkpt lat="42.2846807" lon="13.9736263"><ele>283.20000000000005</ele><time>2026-05-02T08:28:28.75Z</time></trkpt><trkpt lat="42.2846304" lon="13.9734974"><ele>285.6</ele><time>2026-05-02T08:28:29.748Z</time></trkpt><trkpt lat="42.2845809" lon="13.9733727"><ele>288.0</ele><time>2026-05-02T08:28:30.747Z</time></trkpt><trkpt lat="42.2845215" lon="13.9732503"><ele>288.75</ele><time>2026-05-02T08:28:31.749Z</time></trkpt><trkpt lat="42.2844436" lon="13.9731424"><ele>289.5</ele><time>2026-05-02T08:28:32.748Z</time></trkpt><trkpt lat="42.2843478" lon="13.9730515"><ele>290.25</ele><time>2026-05-02T08:28:33.748Z</time></trkpt><trkpt lat="42.2842362" lon="13.9729706"><ele>291.0</ele><time>2026-05-02T08:28:34.748Z</time></trkpt><trkpt lat="42.2841174" lon="13.9728906"><ele>291.0</ele><time>2026-05-02T08:28:35.749Z</time></trkpt><trkpt lat="42.2839953" lon="13.9728167"><ele>291.0</ele><time>2026-05-02T08:28:36.75Z</time></trkpt><trkpt lat="42.2838831" lon="13.9727534"><ele>291.0</ele><time>2026-05-02T08:28:37.747Z</time></trkpt><trkpt lat="42.2837831" lon="13.9727011"><ele>291.0</ele><time>2026-05-02T08:28:38.752Z</time></trkpt><trkpt lat="42.2836868" lon="13.9726459"><ele>291.40000000000003</ele><time>2026-05-02T08:28:39.749Z</time></trkpt><trkpt lat="42.2835812" lon="13.9725923"><ele>291.8</ele><time>2026-05-02T08:28:40.748Z</time></trkpt><trkpt lat="42.2834777" lon="13.9725455"><ele>292.20000000000005</ele><time>2026-05-02T08:28:41.749Z</time></trkpt><trkpt lat="42.2833795" lon="13.9725259"><ele>292.6</ele><time>2026-05-02T08:28:42.749Z</time></trkpt><trkpt lat="42.2832896" lon="13.9725275"><ele>293.0</ele><time>2026-05-02T08:28:43.748Z</time></trkpt><trkpt lat="42.2832095" lon="13.9725205"><ele>293.0</ele><time>2026-05-02T08:28:44.749Z</time></trkpt><trkpt lat="42.2831399" lon="13.9724803"><ele>293.0</ele><time>2026-05-02T08:28:45.749Z</time></trkpt><trkpt lat="42.28308" lon="13.9724147"><ele>293.0</ele><time>2026-05-02T08:28:46.748Z</time></trkpt><trkpt lat="42.2830349" lon="13.9723387"><ele>293.0</ele><time>2026-05-02T08:28:47.748Z</time></trkpt><trkpt lat="42.2829977" lon="13.9722656"><ele>293.0</ele><time>2026-05-02T08:28:48.752Z</time></trkpt><trkpt lat="42.2829463" lon="13.9721639"><ele>293.0</ele><time>2026-05-02T08:28:50.75Z</time></trkpt><trkpt lat="42.2828863" lon="13.9720915"><ele>292.6666666666667</ele><time>2026-05-02T08:28:53.75Z</time></trkpt><trkpt lat="42.2828719" lon="13.9719973"><ele>292.33333333333337</ele><time>2026-05-02T08:29:06.747Z</time></trkpt><trkpt lat="42.2829348" lon="13.9719022"><ele>292.0</ele><time>2026-05-02T08:29:08.75Z</time></trkpt><trkpt lat="42.2829768" lon="13.9718248"><ele>291.6666666666667</ele><time>2026-05-02T08:29:09.75Z</time></trkpt><trkpt lat="42.2830249" lon="13.9717333"><ele>291.3333333333333</ele><time>2026-05-02T08:29:10.752Z</time></trkpt><trkpt lat="42.2830696" lon="13.9716297"><ele>291.0</ele><time>2026-05-02T08:29:11.75Z</time></trkpt><trkpt lat="42.2831075" lon="13.9715219"><ele>291.0</ele><time>2026-05-02T08:29:12.749Z</time></trkpt><trkpt lat="42.2831348" lon="13.9714084"><ele>291.0</ele><time>2026-05-02T08:29:13.75Z</time></trkpt><trkpt lat="42.2831648" lon="13.9713002"><ele>291.0</ele><time>2026-05-02T08:29:14.748Z</time></trkpt><trkpt lat="42.2832135" lon="13.9711877"><ele>291.0</ele><time>2026-05-02T08:29:15.747Z</time></trkpt><trkpt lat="42.2832767" lon="13.9710922"><ele>291.0</ele><time>2026-05-02T08:29:16.748Z</time></trkpt><trkpt lat="42.2833514" lon="13.9709978"><ele>291.0</ele><time>2026-05-02T08:29:17.75Z</time></trkpt><trkpt lat="42.2834332" lon="13.9709035"><ele>291.0</ele><time>2026-05-02T08:29:18.749Z</time></trkpt><trkpt lat="42.2835113" lon="13.9708131"><ele>291.0</ele><time>2026-05-02T08:29:19.749Z</time></trkpt><trkpt lat="42.2835891" lon="13.970723"><ele>291.0</ele><time>2026-05-02T08:29:20.748Z</time></trkpt><trkpt lat="42.2836668" lon="13.9706379"><ele>291.0</ele><time>2026-05-02T08:29:21.749Z</time></trkpt><trkpt lat="42.2837542" lon="13.9705768"><ele>290.8</ele><time>2026-05-02T08:29:22.749Z</time></trkpt><trkpt lat="42.283851" lon="13.9705442"><ele>290.6</ele><time>2026-05-02T08:29:23.751Z</time></trkpt><trkpt lat="42.2839545" lon="13.9705301"><ele>290.4</ele><time>2026-05-02T08:29:24.749Z</time></trkpt><trkpt lat="42.2840574" lon="13.970527"><ele>290.2</ele><time>2026-05-02T08:29:25.749Z</time></trkpt><trkpt lat="42.2841633" lon="13.9705273"><ele>290.0</ele><time>2026-05-02T08:29:26.747Z</time></trkpt><trkpt lat="42.2842657" lon="13.9705196"><ele>289.6</ele><time>2026-05-02T08:29:27.748Z</time></trkpt><trkpt lat="42.2843706" lon="13.9704953"><ele>289.2</ele><time>2026-05-02T08:29:28.747Z</time></trkpt><trkpt lat="42.2844855" lon="13.9704653"><ele>288.8</ele><time>2026-05-02T08:29:29.748Z</time></trkpt><trkpt lat="42.2845894" lon="13.9704352"><ele>288.4</ele><time>2026-05-02T08:29:30.749Z</time></trkpt><trkpt lat="42.2846997" lon="13.9704081"><ele>288.0</ele><time>2026-05-02T08:29:31.749Z</time></trkpt><trkpt lat="42.2847947" lon="13.9703798"><ele>288.0</ele><time>2026-05-02T08:29:32.751Z</time></trkpt><trkpt lat="42.2848793" lon="13.9703471"><ele>288.0</ele><time>2026-05-02T08:29:33.755Z</time></trkpt><trkpt lat="42.2849708" lon="13.9703091"><ele>288.0</ele><time>2026-05-02T08:29:34.751Z</time></trkpt><trkpt lat="42.2850577" lon="13.9702804"><ele>288.0</ele><time>2026-05-02T08:29:35.751Z</time></trkpt><trkpt lat="42.2851346" lon="13.970252"><ele>288.0</ele><time>2026-05-02T08:29:36.751Z</time></trkpt><trkpt lat="42.2852009" lon="13.9702198"><ele>288.0</ele><time>2026-05-02T08:29:37.751Z</time></trkpt><trkpt lat="42.2852579" lon="13.9701726"><ele>288.0</ele><time>2026-05-02T08:29:38.747Z</time></trkpt><trkpt lat="42.2853422" lon="13.970053"><ele>288.0</ele><time>2026-05-02T08:29:40.748Z</time></trkpt><trkpt lat="42.2853882" lon="13.969965"><ele>288.0</ele><time>2026-05-02T08:29:41.749Z</time></trkpt><trkpt lat="42.2854378" lon="13.9698606"><ele>288.0</ele><time>2026-05-02T08:29:42.75Z</time></trkpt><trkpt lat="42.2854894" lon="13.9697405"><ele>288.0</ele><time>2026-05-02T08:29:43.75Z</time></trkpt><trkpt lat="42.2855422" lon="13.96961"><ele>288.0</ele><time>2026-05-02T08:29:44.747Z</time></trkpt><trkpt lat="42.2855938" lon="13.9694796"><ele>288.0</ele><time>2026-05-02T08:29:45.749Z</time></trkpt><trkpt lat="42.2856409" lon="13.9693593"><ele>288.0</ele><time>2026-05-02T08:29:46.747Z</time></trkpt><trkpt lat="42.2856868" lon="13.9692494"><ele>288.0</ele><time>2026-05-02T08:29:47.75Z</time></trkpt><trkpt lat="42.2857272" lon="13.9691407"><ele>288.0</ele><time>2026-05-02T08:29:48.748Z</time></trkpt><trkpt lat="42.2857611" lon="13.9690396"><ele>289.3333333333333</ele><time>2026-05-02T08:29:49.747Z</time></trkpt><trkpt lat="42.2857978" lon="13.9689352"><ele>290.6666666666667</ele><time>2026-05-02T08:29:50.749Z</time></trkpt><trkpt lat="42.2858376" lon="13.9688338"><ele>292.0</ele><time>2026-05-02T08:29:51.749Z</time></trkpt><trkpt lat="42.285883" lon="13.9687391"><ele>293.33333333333337</ele><time>2026-05-02T08:29:52.75Z</time></trkpt><trkpt lat="42.2859433" lon="13.968661"><ele>294.6666666666667</ele><time>2026-05-02T08:29:53.748Z</time></trkpt><trkpt lat="42.2860155" lon="13.968575"><ele>296.0</ele><time>2026-05-02T08:29:54.747Z</time></trkpt><trkpt lat="42.2860922" lon="13.9684835"><ele>296.0</ele><time>2026-05-02T08:29:55.747Z</time></trkpt><trkpt lat="42.286167" lon="13.9683728"><ele>296.0</ele><time>2026-05-02T08:29:56.748Z</time></trkpt><trkpt lat="42.2862242" lon="13.9682676"><ele>296.0</ele><time>2026-05-02T08:29:57.75Z</time></trkpt><trkpt lat="42.2862865" lon="13.9681641"><ele>296.0</ele><time>2026-05-02T08:29:58.748Z</time></trkpt><trkpt lat="42.2863484" lon="13.9680569"><ele>296.0</ele><time>2026-05-02T08:29:59.748Z</time></trkpt><trkpt lat="42.2864098" lon="13.9679403"><ele>296.0</ele><time>2026-05-02T08:30:00.748Z</time></trkpt><trkpt lat="42.2864677" lon="13.9678199"><ele>296.0</ele><time>2026-05-02T08:30:01.748Z</time></trkpt><trkpt lat="42.2865211" lon="13.9677019"><ele>296.0</ele><time>2026-05-02T08:30:02.746Z</time></trkpt><trkpt lat="42.2865827" lon="13.9675931"><ele>296.0</ele><time>2026-05-02T08:30:03.75Z</time></trkpt><trkpt lat="42.2866396" lon="13.9674882"><ele>296.0</ele><time>2026-05-02T08:30:04.747Z</time></trkpt><trkpt lat="42.2866969" lon="13.967391"><ele>296.0</ele><time>2026-05-02T08:30:05.749Z</time></trkpt><trkpt lat="42.2867618" lon="13.9672994"><ele>296.0</ele><time>2026-05-02T08:30:06.749Z</time></trkpt><trkpt lat="42.2868295" lon="13.9672071"><ele>296.0</ele><time>2026-05-02T08:30:07.748Z</time></trkpt><trkpt lat="42.2868906" lon="13.9671046"><ele>296.0</ele><time>2026-05-02T08:30:08.748Z</time></trkpt><trkpt lat="42.2869379" lon="13.9670011"><ele>296.0</ele><time>2026-05-02T08:30:09.75Z</time></trkpt><trkpt lat="42.2869778" lon="13.9668868"><ele>296.0</ele><time>2026-05-02T08:30:10.749Z</time></trkpt><trkpt lat="42.2869906" lon="13.9667587"><ele>296.0</ele><time>2026-05-02T08:30:11.75Z</time></trkpt><trkpt lat="42.2869753" lon="13.9666282"><ele>296.0</ele><time>2026-05-02T08:30:12.749Z</time></trkpt><trkpt lat="42.2869434" lon="13.9664881"><ele>296.0</ele><time>2026-05-02T08:30:13.749Z</time></trkpt><trkpt lat="42.2869003" lon="13.9663395"><ele>296.0</ele><time>2026-05-02T08:30:14.75Z</time></trkpt><trkpt lat="42.2868561" lon="13.966186"><ele>298.75</ele><time>2026-05-02T08:30:15.749Z</time></trkpt><trkpt lat="42.2868112" lon="13.9660306"><ele>301.5</ele><time>2026-05-02T08:30:16.749Z</time></trkpt><trkpt lat="42.2867672" lon="13.9658755"><ele>304.25</ele><time>2026-05-02T08:30:17.749Z</time></trkpt><trkpt lat="42.286726" lon="13.9657254"><ele>307.0</ele><time>2026-05-02T08:30:18.749Z</time></trkpt><trkpt lat="42.2866814" lon="13.9655756"><ele>308.25</ele><time>2026-05-02T08:30:19.748Z</time></trkpt><trkpt lat="42.2866383" lon="13.9654231"><ele>309.5</ele><time>2026-05-02T08:30:20.749Z</time></trkpt><trkpt lat="42.2865967" lon="13.9652772"><ele>310.75</ele><time>2026-05-02T08:30:21.75Z</time></trkpt><trkpt lat="42.2865663" lon="13.9651395"><ele>312.0</ele><time>2026-05-02T08:30:22.748Z</time></trkpt><trkpt lat="42.2865518" lon="13.9649922"><ele>312.2</ele><time>2026-05-02T08:30:23.749Z</time></trkpt><trkpt lat="42.2865483" lon="13.9648329"><ele>312.4</ele><time>2026-05-02T08:30:24.748Z</time></trkpt><trkpt lat="42.2865527" lon="13.9646914"><ele>312.6</ele><time>2026-05-02T08:30:25.75Z</time></trkpt><trkpt lat="42.2865625" lon="13.9645688"><ele>312.8</ele><time>2026-05-02T08:30:26.748Z</time></trkpt><trkpt lat="42.2865762" lon="13.9644497"><ele>313.0</ele><time>2026-05-02T08:30:27.749Z</time></trkpt><trkpt lat="42.2866003" lon="13.9643402"><ele>313.0</ele><time>2026-05-02T08:30:28.753Z</time></trkpt><trkpt lat="42.2866374" lon="13.964231"><ele>313.0</ele><time>2026-05-02T08:30:29.748Z</time></trkpt><trkpt lat="42.2866875" lon="13.9641233"><ele>313.0</ele><time>2026-05-02T08:30:30.749Z</time></trkpt><trkpt lat="42.2867478" lon="13.9640298"><ele>313.0</ele><time>2026-05-02T08:30:31.747Z</time></trkpt><trkpt lat="42.2868091" lon="13.9639389"><ele>313.0</ele><time>2026-05-02T08:30:32.748Z</time></trkpt><trkpt lat="42.2868652" lon="13.9638432"><ele>313.4</ele><time>2026-05-02T08:30:33.748Z</time></trkpt><trkpt lat="42.286921" lon="13.9637378"><ele>313.8</ele><time>2026-05-02T08:30:34.749Z</time></trkpt><trkpt lat="42.2869465" lon="13.9636199"><ele>314.2</ele><time>2026-05-02T08:30:35.748Z</time></trkpt><trkpt lat="42.2868882" lon="13.9634758"><ele>314.6</ele><time>2026-05-02T08:30:36.749Z</time></trkpt><trkpt lat="42.2868617" lon="13.9633702"><ele>315.0</ele><time>2026-05-02T08:30:37.749Z</time></trkpt><trkpt lat="42.2868141" lon="13.9632637"><ele>313.75</ele><time>2026-05-02T08:30:38.749Z</time></trkpt><trkpt lat="42.2867625" lon="13.9631466"><ele>312.5</ele><time>2026-05-02T08:30:39.751Z</time></trkpt><trkpt lat="42.2867107" lon="13.9630131"><ele>311.25</ele><time>2026-05-02T08:30:40.746Z</time></trkpt><trkpt lat="42.2866594" lon="13.9628643"><ele>310.0</ele><time>2026-05-02T08:30:41.749Z</time></trkpt><trkpt lat="42.2866074" lon="13.9627061"><ele>310.0</ele><time>2026-05-02T08:30:42.748Z</time></trkpt><trkpt lat="42.2865525" lon="13.9625439"><ele>310.0</ele><time>2026-05-02T08:30:43.75Z</time></trkpt><trkpt lat="42.2864951" lon="13.9623797"><ele>310.0</ele><time>2026-05-02T08:30:44.75Z</time></trkpt><trkpt lat="42.2864401" lon="13.9622154"><ele>310.0</ele><time>2026-05-02T08:30:45.751Z</time></trkpt><trkpt lat="42.286386" lon="13.9620532"><ele>310.0</ele><time>2026-05-02T08:30:46.748Z</time></trkpt><trkpt lat="42.2863355" lon="13.9619004"><ele>310.0</ele><time>2026-05-02T08:30:47.748Z</time></trkpt><trkpt lat="42.2862885" lon="13.9617551"><ele>310.0</ele><time>2026-05-02T08:30:48.748Z</time></trkpt><trkpt lat="42.2862414" lon="13.9616154"><ele>310.0</ele><time>2026-05-02T08:30:49.747Z</time></trkpt><trkpt lat="42.2861986" lon="13.9614876"><ele>309.2</ele><time>2026-05-02T08:30:50.748Z</time></trkpt><trkpt lat="42.2861665" lon="13.9613627"><ele>308.4</ele><time>2026-05-02T08:30:51.75Z</time></trkpt><trkpt lat="42.286146" lon="13.9612422"><ele>307.6</ele><time>2026-05-02T08:30:52.748Z</time></trkpt><trkpt lat="42.2861295" lon="13.9611192"><ele>306.8</ele><time>2026-05-02T08:30:53.751Z</time></trkpt><trkpt lat="42.2861197" lon="13.9609891"><ele>306.0</ele><time>2026-05-02T08:30:54.748Z</time></trkpt><trkpt lat="42.2861189" lon="13.9608447"><ele>305.5</ele><time>2026-05-02T08:30:55.751Z</time></trkpt><trkpt lat="42.2861286" lon="13.9606907"><ele>305.0</ele><time>2026-05-02T08:30:56.747Z</time></trkpt><trkpt lat="42.2861536" lon="13.960533"><ele>304.5</ele><time>2026-05-02T08:30:57.753Z</time></trkpt><trkpt lat="42.2861802" lon="13.9603702"><ele>304.0</ele><time>2026-05-02T08:30:58.747Z</time></trkpt><trkpt lat="42.2862085" lon="13.9602058"><ele>304.0</ele><time>2026-05-02T08:30:59.75Z</time></trkpt><trkpt lat="42.2862337" lon="13.9600469"><ele>304.0</ele><time>2026-05-02T08:31:00.748Z</time></trkpt><trkpt lat="42.2862485" lon="13.9599143"><ele>304.0</ele><time>2026-05-02T08:31:01.749Z</time></trkpt><trkpt lat="42.2862598" lon="13.9597942"><ele>304.0</ele><time>2026-05-02T08:31:02.748Z</time></trkpt><trkpt lat="42.2862699" lon="13.9596786"><ele>304.0</ele><time>2026-05-02T08:31:03.749Z</time></trkpt><trkpt lat="42.2862729" lon="13.9595629"><ele>304.0</ele><time>2026-05-02T08:31:04.75Z</time></trkpt><trkpt lat="42.2862643" lon="13.9594416"><ele>304.0</ele><time>2026-05-02T08:31:05.748Z</time></trkpt><trkpt lat="42.2862416" lon="13.9593201"><ele>304.0</ele><time>2026-05-02T08:31:06.749Z</time></trkpt><trkpt lat="42.2862046" lon="13.9592086"><ele>304.0</ele><time>2026-05-02T08:31:07.751Z</time></trkpt><trkpt lat="42.286151" lon="13.9591041"><ele>304.0</ele><time>2026-05-02T08:31:08.752Z</time></trkpt><trkpt lat="42.2860846" lon="13.9590056"><ele>302.66666666666663</ele><time>2026-05-02T08:31:09.75Z</time></trkpt><trkpt lat="42.2860108" lon="13.9589161"><ele>301.3333333333333</ele><time>2026-05-02T08:31:10.756Z</time></trkpt><trkpt lat="42.2859436" lon="13.9588221"><ele>300.0</ele><time>2026-05-02T08:31:11.751Z</time></trkpt><trkpt lat="42.2858772" lon="13.9587441"><ele>298.6666666666667</ele><time>2026-05-02T08:31:12.755Z</time></trkpt><trkpt lat="42.285816" lon="13.9586717"><ele>297.33333333333337</ele><time>2026-05-02T08:31:13.749Z</time></trkpt><trkpt lat="42.2857606" lon="13.9586022"><ele>296.0</ele><time>2026-05-02T08:31:14.75Z</time></trkpt><trkpt lat="42.2857114" lon="13.9585372"><ele>296.0</ele><time>2026-05-02T08:31:15.748Z</time></trkpt><trkpt lat="42.2856678" lon="13.9584733"><ele>296.0</ele><time>2026-05-02T08:31:16.753Z</time></trkpt><trkpt lat="42.2856239" lon="13.9583661"><ele>296.0</ele><time>2026-05-02T08:31:18.751Z</time></trkpt><trkpt lat="42.28557" lon="13.9582503"><ele>296.0</ele><time>2026-05-02T08:31:21.751Z</time></trkpt><trkpt lat="42.285452" lon="13.9581357"><ele>296.0</ele><time>2026-05-02T08:31:23.748Z</time></trkpt><trkpt lat="42.2853716" lon="13.9580941"><ele>295.40000000000003</ele><time>2026-05-02T08:31:24.748Z</time></trkpt><trkpt lat="42.2853017" lon="13.9580657"><ele>294.8</ele><time>2026-05-02T08:31:25.749Z</time></trkpt><trkpt lat="42.2851938" lon="13.9580122"><ele>294.20000000000005</ele><time>2026-05-02T08:31:27.748Z</time></trkpt><trkpt lat="42.2850882" lon="13.9579557"><ele>293.6</ele><time>2026-05-02T08:31:29.75Z</time></trkpt><trkpt lat="42.284964" lon="13.957879"><ele>293.0</ele><time>2026-05-02T08:31:31.75Z</time></trkpt><trkpt lat="42.2848843" lon="13.9578278"><ele>293.0</ele><time>2026-05-02T08:31:32.752Z</time></trkpt><trkpt lat="42.2847967" lon="13.9577743"><ele>293.0</ele><time>2026-05-02T08:31:33.749Z</time></trkpt><trkpt lat="42.2847063" lon="13.9577208"><ele>293.0</ele><time>2026-05-02T08:31:34.749Z</time></trkpt><trkpt lat="42.2846163" lon="13.9576628"><ele>293.0</ele><time>2026-05-02T08:31:35.749Z</time></trkpt><trkpt lat="42.2845296" lon="13.957604"><ele>293.0</ele><time>2026-05-02T08:31:36.751Z</time></trkpt><trkpt lat="42.2844403" lon="13.9575378"><ele>291.4</ele><time>2026-05-02T08:31:37.75Z</time></trkpt><trkpt lat="42.2843517" lon="13.9574719"><ele>289.8</ele><time>2026-05-02T08:31:38.748Z</time></trkpt><trkpt lat="42.2842667" lon="13.9574026"><ele>288.2</ele><time>2026-05-02T08:31:39.75Z</time></trkpt><trkpt lat="42.2841899" lon="13.9573268"><ele>286.6</ele><time>2026-05-02T08:31:40.75Z</time></trkpt><trkpt lat="42.2841181" lon="13.9572444"><ele>285.0</ele><time>2026-05-02T08:31:41.748Z</time></trkpt><trkpt lat="42.2840538" lon="13.9571608"><ele>285.0</ele><time>2026-05-02T08:31:42.751Z</time></trkpt><trkpt lat="42.2840036" lon="13.9570908"><ele>285.0</ele><time>2026-05-02T08:31:43.748Z</time></trkpt><trkpt lat="42.2839533" lon="13.9570242"><ele>285.0</ele><time>2026-05-02T08:31:44.749Z</time></trkpt><trkpt lat="42.2839023" lon="13.95696"><ele>285.0</ele><time>2026-05-02T08:31:45.749Z</time></trkpt><trkpt lat="42.2838524" lon="13.9568945"><ele>285.0</ele><time>2026-05-02T08:31:46.753Z</time></trkpt><trkpt lat="42.2838014" lon="13.9568218"><ele>285.0</ele><time>2026-05-02T08:31:47.748Z</time></trkpt><trkpt lat="42.2837516" lon="13.9567506"><ele>285.0</ele><time>2026-05-02T08:31:48.75Z</time></trkpt><trkpt lat="42.2837016" lon="13.9566832"><ele>283.4</ele><time>2026-05-02T08:31:49.749Z</time></trkpt><trkpt lat="42.2836509" lon="13.9566153"><ele>281.8</ele><time>2026-05-02T08:31:50.752Z</time></trkpt><trkpt lat="42.2835938" lon="13.9565358"><ele>280.2</ele><time>2026-05-02T08:31:51.749Z</time></trkpt><trkpt lat="42.2835291" lon="13.9564403"><ele>278.6</ele><time>2026-05-02T08:31:52.749Z</time></trkpt><trkpt lat="42.2834612" lon="13.9563304"><ele>277.0</ele><time>2026-05-02T08:31:53.747Z</time></trkpt><trkpt lat="42.2833873" lon="13.956219"><ele>277.0</ele><time>2026-05-02T08:31:54.748Z</time></trkpt><trkpt lat="42.2833065" lon="13.9561097"><ele>277.0</ele><time>2026-05-02T08:31:55.748Z</time></trkpt><trkpt lat="42.2832117" lon="13.9559962"><ele>277.0</ele><time>2026-05-02T08:31:56.746Z</time></trkpt><trkpt lat="42.2831116" lon="13.9558809"><ele>277.0</ele><time>2026-05-02T08:31:57.747Z</time></trkpt><trkpt lat="42.2830081" lon="13.9557669"><ele>274.3333333333333</ele><time>2026-05-02T08:31:58.747Z</time></trkpt><trkpt lat="42.2828938" lon="13.9556407"><ele>271.6666666666667</ele><time>2026-05-02T08:31:59.747Z</time></trkpt><trkpt lat="42.2827727" lon="13.955497"><ele>269.0</ele><time>2026-05-02T08:32:00.748Z</time></trkpt><trkpt lat="42.2826625" lon="13.9553506"><ele>269.0</ele><time>2026-05-02T08:32:01.747Z</time></trkpt><trkpt lat="42.2825633" lon="13.9552154"><ele>269.0</ele><time>2026-05-02T08:32:02.749Z</time></trkpt><trkpt lat="42.2824713" lon="13.955106"><ele>269.0</ele><time>2026-05-02T08:32:03.747Z</time></trkpt><trkpt lat="42.282374" lon="13.9550242"><ele>269.0</ele><time>2026-05-02T08:32:04.746Z</time></trkpt><trkpt lat="42.2822663" lon="13.9549674"><ele>267.0</ele><time>2026-05-02T08:32:05.747Z</time></trkpt><trkpt lat="42.2821497" lon="13.9549321"><ele>265.0</ele><time>2026-05-02T08:32:06.749Z</time></trkpt><trkpt lat="42.2820255" lon="13.9549213"><ele>263.0</ele><time>2026-05-02T08:32:07.748Z</time></trkpt><trkpt lat="42.2819043" lon="13.9549266"><ele>261.0</ele><time>2026-05-02T08:32:08.748Z</time></trkpt><trkpt lat="42.2817825" lon="13.954935"><ele>261.0</ele><time>2026-05-02T08:32:09.748Z</time></trkpt><trkpt lat="42.281667" lon="13.9549296"><ele>261.0</ele><time>2026-05-02T08:32:10.749Z</time></trkpt><trkpt lat="42.2815576" lon="13.9549096"><ele>261.0</ele><time>2026-05-02T08:32:11.75Z</time></trkpt><trkpt lat="42.2814551" lon="13.9548646"><ele>261.0</ele><time>2026-05-02T08:32:12.748Z</time></trkpt><trkpt lat="42.2813626" lon="13.9547951"><ele>261.0</ele><time>2026-05-02T08:32:13.748Z</time></trkpt><trkpt lat="42.2812703" lon="13.9546995"><ele>260.25</ele><time>2026-05-02T08:32:14.749Z</time></trkpt><trkpt lat="42.2811751" lon="13.9545949"><ele>259.5</ele><time>2026-05-02T08:32:15.748Z</time></trkpt><trkpt lat="42.2810723" lon="13.9544954"><ele>258.75</ele><time>2026-05-02T08:32:16.749Z</time></trkpt><trkpt lat="42.2809617" lon="13.9544175"><ele>258.0</ele><time>2026-05-02T08:32:17.749Z</time></trkpt><trkpt lat="42.2808429" lon="13.95436"><ele>258.0</ele><time>2026-05-02T08:32:18.753Z</time></trkpt><trkpt lat="42.2807252" lon="13.9542966"><ele>258.0</ele><time>2026-05-02T08:32:19.748Z</time></trkpt><trkpt lat="42.2806109" lon="13.9542253"><ele>258.0</ele><time>2026-05-02T08:32:20.749Z</time></trkpt><trkpt lat="42.2805039" lon="13.9541454"><ele>258.0</ele><time>2026-05-02T08:32:21.748Z</time></trkpt><trkpt lat="42.2803953" lon="13.9540701"><ele>255.2</ele><time>2026-05-02T08:32:22.748Z</time></trkpt><trkpt lat="42.2802847" lon="13.9540116"><ele>252.4</ele><time>2026-05-02T08:32:23.748Z</time></trkpt><trkpt lat="42.2801781" lon="13.953965"><ele>249.59999999999997</ele><time>2026-05-02T08:32:24.749Z</time></trkpt><trkpt lat="42.2800787" lon="13.9539311"><ele>246.79999999999998</ele><time>2026-05-02T08:32:25.746Z</time></trkpt><trkpt lat="42.2799797" lon="13.9539191"><ele>244.0</ele><time>2026-05-02T08:32:26.749Z</time></trkpt><trkpt lat="42.2798848" lon="13.95392"><ele>244.0</ele><time>2026-05-02T08:32:27.75Z</time></trkpt><trkpt lat="42.2797928" lon="13.9539155"><ele>243.99999999999997</ele><time>2026-05-02T08:32:28.749Z</time></trkpt><trkpt lat="42.2797013" lon="13.9538851"><ele>243.99999999999997</ele><time>2026-05-02T08:32:29.747Z</time></trkpt><trkpt lat="42.2796039" lon="13.9538409"><ele>244.0</ele><time>2026-05-02T08:32:30.748Z</time></trkpt><trkpt lat="42.2795003" lon="13.9537913"><ele>244.0</ele><time>2026-05-02T08:32:31.747Z</time></trkpt><trkpt lat="42.2793864" lon="13.9537395"><ele>243.75</ele><time>2026-05-02T08:32:32.747Z</time></trkpt><trkpt lat="42.27927" lon="13.953697"><ele>243.5</ele><time>2026-05-02T08:32:33.748Z</time></trkpt><trkpt lat="42.2791567" lon="13.9536597"><ele>243.25</ele><time>2026-05-02T08:32:34.751Z</time></trkpt><trkpt lat="42.2790479" lon="13.9536255"><ele>243.0</ele><time>2026-05-02T08:32:35.747Z</time></trkpt><trkpt lat="42.2789376" lon="13.9535911"><ele>244.25</ele><time>2026-05-02T08:32:36.749Z</time></trkpt><trkpt lat="42.2788192" lon="13.9535528"><ele>245.5</ele><time>2026-05-02T08:32:37.746Z</time></trkpt><trkpt lat="42.2787065" lon="13.9535139"><ele>246.75</ele><time>2026-05-02T08:32:38.748Z</time></trkpt><trkpt lat="42.2785899" lon="13.9534743"><ele>248.0</ele><time>2026-05-02T08:32:39.746Z</time></trkpt><trkpt lat="42.2784872" lon="13.9534487"><ele>248.0</ele><time>2026-05-02T08:32:40.749Z</time></trkpt><trkpt lat="42.2783724" lon="13.9534012"><ele>248.0</ele><time>2026-05-02T08:32:41.748Z</time></trkpt><trkpt lat="42.2782563" lon="13.9533647"><ele>248.0</ele><time>2026-05-02T08:32:42.75Z</time></trkpt><trkpt lat="42.2781349" lon="13.9533271"><ele>248.0</ele><time>2026-05-02T08:32:43.749Z</time></trkpt><trkpt lat="42.2780133" lon="13.953283"><ele>245.25</ele><time>2026-05-02T08:32:44.748Z</time></trkpt><trkpt lat="42.2778857" lon="13.9532499"><ele>242.5</ele><time>2026-05-02T08:32:45.747Z</time></trkpt><trkpt lat="42.2777626" lon="13.9532176"><ele>239.75</ele><time>2026-05-02T08:32:46.748Z</time></trkpt><trkpt lat="42.2776491" lon="13.953191"><ele>237.0</ele><time>2026-05-02T08:32:47.75Z</time></trkpt><trkpt lat="42.2775561" lon="13.9531672"><ele>237.0</ele><time>2026-05-02T08:32:48.748Z</time></trkpt><trkpt lat="42.2774732" lon="13.9531444"><ele>237.0</ele><time>2026-05-02T08:32:49.747Z</time></trkpt><trkpt lat="42.277391" lon="13.9531208"><ele>237.0</ele><time>2026-05-02T08:32:50.749Z</time></trkpt><trkpt lat="42.2773271" lon="13.9530951"><ele>237.0</ele><time>2026-05-02T08:32:51.747Z</time></trkpt><trkpt lat="42.2772485" lon="13.9530598"><ele>237.0</ele><time>2026-05-02T08:32:53.747Z</time></trkpt><trkpt lat="42.2771939" lon="13.9530011"><ele>237.0</ele><time>2026-05-02T08:32:57.746Z</time></trkpt><trkpt lat="42.2772327" lon="13.952924"><ele>237.0</ele><time>2026-05-02T08:33:01.747Z</time></trkpt><trkpt lat="42.2773222" lon="13.9529509"><ele>237.0</ele><time>2026-05-02T08:33:03.755Z</time></trkpt><trkpt lat="42.2773952" lon="13.9529793"><ele>237.0</ele><time>2026-05-02T08:33:04.747Z</time></trkpt><trkpt lat="42.2774665" lon="13.9530007"><ele>237.0</ele><time>2026-05-02T08:33:05.749Z</time></trkpt><trkpt lat="42.2775312" lon="13.953013"><ele>237.0</ele><time>2026-05-02T08:33:06.747Z</time></trkpt><trkpt lat="42.2776466" lon="13.9529902"><ele>237.0</ele><time>2026-05-02T08:33:08.749Z</time></trkpt><trkpt lat="42.2777493" lon="13.9529223"><ele>237.0</ele><time>2026-05-02T08:33:10.748Z</time></trkpt><trkpt lat="42.2778215" lon="13.9528072"><ele>237.0</ele><time>2026-05-02T08:33:12.748Z</time></trkpt><trkpt lat="42.2778379" lon="13.9526475"><ele>237.0</ele><time>2026-05-02T08:33:14.749Z</time></trkpt><trkpt lat="42.2778062" lon="13.9524972"><ele>237.0</ele><time>2026-05-02T08:33:16.747Z</time></trkpt><trkpt lat="42.2777376" lon="13.9523799"><ele>235.0</ele><time>2026-05-02T08:33:18.747Z</time></trkpt><trkpt lat="42.277686" lon="13.9523281"><ele>233.0</ele><time>2026-05-02T08:33:19.748Z</time></trkpt><trkpt lat="42.277592" lon="13.9522696"><ele>231.0</ele><time>2026-05-02T08:33:21.747Z</time></trkpt><trkpt lat="42.2775058" lon="13.9522124"><ele>229.0</ele><time>2026-05-02T08:33:23.747Z</time></trkpt><trkpt lat="42.2774356" lon="13.9521616"><ele>227.0</ele><time>2026-05-02T08:33:25.746Z</time></trkpt><trkpt lat="42.2773759" lon="13.9521101"><ele>225.0</ele><time>2026-05-02T08:33:27.748Z</time></trkpt><trkpt lat="42.2773407" lon="13.9520375"><ele>225.0</ele><time>2026-05-02T08:33:29.748Z</time></trkpt><trkpt lat="42.2773456" lon="13.9519427"><ele>225.0</ele><time>2026-05-02T08:33:31.746Z</time></trkpt><trkpt lat="42.2773478" lon="13.9518152"><ele>225.0</ele><time>2026-05-02T08:33:33.746Z</time></trkpt><trkpt lat="42.2773698" lon="13.9517075"><ele>225.0</ele><time>2026-05-02T08:33:35.746Z</time></trkpt><trkpt lat="42.2773806" lon="13.9516236"><ele>225.0</ele><time>2026-05-02T08:33:37.747Z</time></trkpt><trkpt lat="42.2774056" lon="13.9515413"><ele>225.0</ele><time>2026-05-02T08:33:39.748Z</time></trkpt><trkpt lat="42.2774583" lon="13.9514601"><ele>223.0</ele><time>2026-05-02T08:33:41.747Z</time></trkpt><trkpt lat="42.2775457" lon="13.951464"><ele>221.0</ele><time>2026-05-02T08:33:43.746Z</time></trkpt><trkpt lat="42.2776288" lon="13.9515178"><ele>219.0</ele><time>2026-05-02T08:33:45.748Z</time></trkpt><trkpt lat="42.2777089" lon="13.9515322"><ele>217.0</ele><time>2026-05-02T08:33:47.748Z</time></trkpt><trkpt lat="42.2777721" lon="13.9514436"><ele>215.0</ele><time>2026-05-02T08:33:50.746Z</time></trkpt><trkpt lat="42.2777556" lon="13.9513315"><ele>213.0</ele><time>2026-05-02T08:33:52.747Z</time></trkpt><trkpt lat="42.2776853" lon="13.9512393"><ele>213.0</ele><time>2026-05-02T08:33:54.751Z</time></trkpt><trkpt lat="42.2776459" lon="13.9511672"><ele>213.0</ele><time>2026-05-02T08:33:55.748Z</time></trkpt><trkpt lat="42.2776024" lon="13.9510734"><ele>213.0</ele><time>2026-05-02T08:33:56.748Z</time></trkpt><trkpt lat="42.2775572" lon="13.9509707"><ele>213.0</ele><time>2026-05-02T08:33:57.748Z</time></trkpt><trkpt lat="42.2775111" lon="13.9508647"><ele>213.0</ele><time>2026-05-02T08:33:58.749Z</time></trkpt><trkpt lat="42.277458" lon="13.9507567"><ele>213.0</ele><time>2026-05-02T08:33:59.751Z</time></trkpt><trkpt lat="42.2774043" lon="13.9506465"><ele>210.60000000000002</ele><time>2026-05-02T08:34:00.75Z</time></trkpt><trkpt lat="42.2773549" lon="13.9505422"><ele>208.20000000000002</ele><time>2026-05-02T08:34:01.748Z</time></trkpt><trkpt lat="42.2773017" lon="13.9504389"><ele>205.8</ele><time>2026-05-02T08:34:02.748Z</time></trkpt><trkpt lat="42.2772447" lon="13.950335"><ele>203.4</ele><time>2026-05-02T08:34:03.748Z</time></trkpt><trkpt lat="42.2771856" lon="13.9502433"><ele>201.0</ele><time>2026-05-02T08:34:04.746Z</time></trkpt><trkpt lat="42.2771241" lon="13.9501627"><ele>201.0</ele><time>2026-05-02T08:34:05.75Z</time></trkpt><trkpt lat="42.277065" lon="13.9500998"><ele>201.0</ele><time>2026-05-02T08:34:06.748Z</time></trkpt><trkpt lat="42.277008" lon="13.9500515"><ele>201.0</ele><time>2026-05-02T08:34:07.746Z</time></trkpt><trkpt lat="42.2769266" lon="13.9499565"><ele>201.0</ele><time>2026-05-02T08:34:09.747Z</time></trkpt><trkpt lat="42.2769289" lon="13.9498607"><ele>201.0</ele><time>2026-05-02T08:34:12.747Z</time></trkpt><trkpt lat="42.2770177" lon="13.9498345"><ele>201.0</ele><time>2026-05-02T08:34:15.748Z</time></trkpt><trkpt lat="42.2771389" lon="13.9498581"><ele>199.4</ele><time>2026-05-02T08:34:17.746Z</time></trkpt><trkpt lat="42.2772086" lon="13.9498671"><ele>197.8</ele><time>2026-05-02T08:34:18.746Z</time></trkpt><trkpt lat="42.2772761" lon="13.9498538"><ele>196.20000000000002</ele><time>2026-05-02T08:34:19.749Z</time></trkpt><trkpt lat="42.2773726" lon="13.9497587"><ele>194.60000000000002</ele><time>2026-05-02T08:34:21.746Z</time></trkpt><trkpt lat="42.2773994" lon="13.9495835"><ele>193.0</ele><time>2026-05-02T08:34:23.752Z</time></trkpt><trkpt lat="42.27739" lon="13.9494904"><ele>193.0</ele><time>2026-05-02T08:34:24.748Z</time></trkpt><trkpt lat="42.277305" lon="13.949371"><ele>193.0</ele><time>2026-05-02T08:34:26.746Z</time></trkpt><trkpt lat="42.2772379" lon="13.9493385"><ele>193.0</ele><time>2026-05-02T08:34:27.749Z</time></trkpt><trkpt lat="42.2771637" lon="13.9493159"><ele>193.0</ele><time>2026-05-02T08:34:28.755Z</time></trkpt><trkpt lat="42.2771" lon="13.9492951"><ele>193.0</ele><time>2026-05-02T08:34:29.749Z</time></trkpt><trkpt lat="42.2769966" lon="13.9492242"><ele>191.83333333333331</ele><time>2026-05-02T08:34:31.751Z</time></trkpt><trkpt lat="42.2769318" lon="13.9491613"><ele>190.66666666666666</ele><time>2026-05-02T08:34:32.757Z</time></trkpt><trkpt lat="42.2768679" lon="13.9490956"><ele>189.5</ele><time>2026-05-02T08:34:33.747Z</time></trkpt><trkpt lat="42.2768059" lon="13.9490263"><ele>188.33333333333331</ele><time>2026-05-02T08:34:34.756Z</time></trkpt><trkpt lat="42.2767479" lon="13.948948"><ele>187.16666666666666</ele><time>2026-05-02T08:34:35.749Z</time></trkpt><trkpt lat="42.2766929" lon="13.9488577"><ele>186.0</ele><time>2026-05-02T08:34:36.746Z</time></trkpt><trkpt lat="42.2766474" lon="13.9487547"><ele>186.0</ele><time>2026-05-02T08:34:37.748Z</time></trkpt><trkpt lat="42.2766139" lon="13.9486301"><ele>186.0</ele><time>2026-05-02T08:34:38.749Z</time></trkpt><trkpt lat="42.276579" lon="13.9484825"><ele>186.0</ele><time>2026-05-02T08:34:39.748Z</time></trkpt><trkpt lat="42.2765451" lon="13.9483262"><ele>186.0</ele><time>2026-05-02T08:34:40.75Z</time></trkpt><trkpt lat="42.276522" lon="13.9481683"><ele>187.0</ele><time>2026-05-02T08:34:41.75Z</time></trkpt><trkpt lat="42.2765021" lon="13.9480144"><ele>188.0</ele><time>2026-05-02T08:34:42.747Z</time></trkpt><trkpt lat="42.2764802" lon="13.9478712"><ele>189.0</ele><time>2026-05-02T08:34:43.752Z</time></trkpt><trkpt lat="42.2764614" lon="13.947734"><ele>190.0</ele><time>2026-05-02T08:34:44.748Z</time></trkpt><trkpt lat="42.2764426" lon="13.9475972"><ele>191.0</ele><time>2026-05-02T08:34:45.748Z</time></trkpt><trkpt lat="42.2764205" lon="13.9474582"><ele>188.25</ele><time>2026-05-02T08:34:46.749Z</time></trkpt><trkpt lat="42.2763969" lon="13.9473095"><ele>185.5</ele><time>2026-05-02T08:34:47.749Z</time></trkpt><trkpt lat="42.2763778" lon="13.9471562"><ele>182.75</ele><time>2026-05-02T08:34:48.755Z</time></trkpt><trkpt lat="42.2763594" lon="13.9470042"><ele>180.0</ele><time>2026-05-02T08:34:49.75Z</time></trkpt><trkpt lat="42.2763336" lon="13.9468606"><ele>180.0</ele><time>2026-05-02T08:34:50.757Z</time></trkpt><trkpt lat="42.2763058" lon="13.946728"><ele>180.0</ele><time>2026-05-02T08:34:51.753Z</time></trkpt><trkpt lat="42.2762825" lon="13.9466047"><ele>180.0</ele><time>2026-05-02T08:34:52.756Z</time></trkpt><trkpt lat="42.2762611" lon="13.9464897"><ele>180.0</ele><time>2026-05-02T08:34:53.75Z</time></trkpt><trkpt lat="42.2762355" lon="13.9463872"><ele>180.0</ele><time>2026-05-02T08:34:54.755Z</time></trkpt><trkpt lat="42.2761999" lon="13.9462975"><ele>180.0</ele><time>2026-05-02T08:34:55.752Z</time></trkpt><trkpt lat="42.2761545" lon="13.946225"><ele>182.8</ele><time>2026-05-02T08:34:56.757Z</time></trkpt><trkpt lat="42.2760558" lon="13.9461411"><ele>185.6</ele><time>2026-05-02T08:34:58.748Z</time></trkpt><trkpt lat="42.2759968" lon="13.9460988"><ele>188.39999999999998</ele><time>2026-05-02T08:34:59.75Z</time></trkpt><trkpt lat="42.2759289" lon="13.9460483"><ele>191.2</ele><time>2026-05-02T08:35:00.751Z</time></trkpt><trkpt lat="42.2758475" lon="13.94599"><ele>194.0</ele><time>2026-05-02T08:35:01.751Z</time></trkpt><trkpt lat="42.2757535" lon="13.9459267"><ele>193.79999999999998</ele><time>2026-05-02T08:35:02.75Z</time></trkpt><trkpt lat="42.2756599" lon="13.9458583"><ele>193.6</ele><time>2026-05-02T08:35:03.75Z</time></trkpt><trkpt lat="42.2755873" lon="13.9457906"><ele>193.4</ele><time>2026-05-02T08:35:04.75Z</time></trkpt><trkpt lat="42.2755324" lon="13.9457281"><ele>193.2</ele><time>2026-05-02T08:35:05.751Z</time></trkpt><trkpt lat="42.2754745" lon="13.945604"><ele>193.0</ele><time>2026-05-02T08:35:07.748Z</time></trkpt><trkpt lat="42.2754752" lon="13.9454826"><ele>192.99999999999997</ele><time>2026-05-02T08:35:09.753Z</time></trkpt><trkpt lat="42.2755246" lon="13.9453875"><ele>193.0</ele><time>2026-05-02T08:35:11.748Z</time></trkpt><trkpt lat="42.2756201" lon="13.9453706"><ele>193.0</ele><time>2026-05-02T08:35:13.754Z</time></trkpt><trkpt lat="42.2756847" lon="13.9453591"><ele>193.0</ele><time>2026-05-02T08:35:14.748Z</time></trkpt><trkpt lat="42.2757615" lon="13.9453398"><ele>192.99999999999997</ele><time>2026-05-02T08:35:15.752Z</time></trkpt><trkpt lat="42.2758415" lon="13.9453203"><ele>193.0</ele><time>2026-05-02T08:35:16.749Z</time></trkpt><trkpt lat="42.2759263" lon="13.9453013"><ele>196.2</ele><time>2026-05-02T08:35:17.75Z</time></trkpt><trkpt lat="42.2760176" lon="13.9452803"><ele>199.4</ele><time>2026-05-02T08:35:18.751Z</time></trkpt><trkpt lat="42.2761142" lon="13.9452554"><ele>202.6</ele><time>2026-05-02T08:35:19.749Z</time></trkpt><trkpt lat="42.2762123" lon="13.9452324"><ele>205.79999999999998</ele><time>2026-05-02T08:35:20.749Z</time></trkpt><trkpt lat="42.2763153" lon="13.9452127"><ele>209.0</ele><time>2026-05-02T08:35:21.753Z</time></trkpt><trkpt lat="42.2764198" lon="13.9451896"><ele>210.6</ele><time>2026-05-02T08:35:22.756Z</time></trkpt><trkpt lat="42.276523" lon="13.9451663"><ele>212.2</ele><time>2026-05-02T08:35:23.747Z</time></trkpt><trkpt lat="42.2766244" lon="13.9451457"><ele>213.79999999999998</ele><time>2026-05-02T08:35:24.749Z</time></trkpt><trkpt lat="42.2767215" lon="13.9451259"><ele>215.39999999999998</ele><time>2026-05-02T08:35:25.75Z</time></trkpt><trkpt lat="42.2768148" lon="13.9450952"><ele>217.0</ele><time>2026-05-02T08:35:26.748Z</time></trkpt><trkpt lat="42.2768966" lon="13.9450494"><ele>218.0</ele><time>2026-05-02T08:35:27.749Z</time></trkpt><trkpt lat="42.2769563" lon="13.9449879"><ele>219.0</ele><time>2026-05-02T08:35:28.757Z</time></trkpt><trkpt lat="42.2770087" lon="13.9448422"><ele>220.0</ele><time>2026-05-02T08:35:30.748Z</time></trkpt><trkpt lat="42.2770305" lon="13.9447384"><ele>221.0</ele><time>2026-05-02T08:35:31.75Z</time></trkpt><trkpt lat="42.277052" lon="13.9446159"><ele>222.0</ele><time>2026-05-02T08:35:32.75Z</time></trkpt><trkpt lat="42.2770732" lon="13.9445009"><ele>222.0</ele><time>2026-05-02T08:35:33.749Z</time></trkpt><trkpt lat="42.2770911" lon="13.9444128"><ele>222.0</ele><time>2026-05-02T08:35:34.753Z</time></trkpt><trkpt lat="42.2771193" lon="13.9442797"><ele>222.0</ele><time>2026-05-02T08:35:36.75Z</time></trkpt><trkpt lat="42.2771472" lon="13.9441133"><ele>222.0</ele><time>2026-05-02T08:35:38.747Z</time></trkpt><trkpt lat="42.277161" lon="13.9440115"><ele>222.0</ele><time>2026-05-02T08:35:39.749Z</time></trkpt><trkpt lat="42.2771737" lon="13.9439024"><ele>222.16666666666666</ele><time>2026-05-02T08:35:40.752Z</time></trkpt><trkpt lat="42.2771789" lon="13.9437911"><ele>222.33333333333331</ele><time>2026-05-02T08:35:41.75Z</time></trkpt><trkpt lat="42.2771741" lon="13.9436755"><ele>222.5</ele><time>2026-05-02T08:35:42.748Z</time></trkpt><trkpt lat="42.2771592" lon="13.9435631"><ele>222.66666666666666</ele><time>2026-05-02T08:35:43.748Z</time></trkpt><trkpt lat="42.2771385" lon="13.9434501"><ele>222.83333333333331</ele><time>2026-05-02T08:35:44.749Z</time></trkpt><trkpt lat="42.2771152" lon="13.9433498"><ele>223.0</ele><time>2026-05-02T08:35:45.748Z</time></trkpt><trkpt lat="42.2770829" lon="13.9432757"><ele>223.85714285714286</ele><time>2026-05-02T08:35:46.749Z</time></trkpt><trkpt lat="42.2770377" lon="13.9432079"><ele>224.71428571428572</ele><time>2026-05-02T08:35:47.75Z</time></trkpt><trkpt lat="42.2769849" lon="13.9431415"><ele>225.57142857142856</ele><time>2026-05-02T08:35:48.749Z</time></trkpt><trkpt lat="42.2769246" lon="13.9430864"><ele>226.42857142857144</ele><time>2026-05-02T08:35:49.751Z</time></trkpt><trkpt lat="42.276853" lon="13.9430414"><ele>227.2857142857143</ele><time>2026-05-02T08:35:50.748Z</time></trkpt><trkpt lat="42.2767765" lon="13.9430068"><ele>228.14285714285714</ele><time>2026-05-02T08:35:51.753Z</time></trkpt><trkpt lat="42.2767089" lon="13.9429795"><ele>229.0</ele><time>2026-05-02T08:35:52.749Z</time></trkpt><trkpt lat="42.276594" lon="13.9429493"><ele>228.99999999999997</ele><time>2026-05-02T08:35:54.751Z</time></trkpt><trkpt lat="42.276473" lon="13.9429265"><ele>229.0</ele><time>2026-05-02T08:35:56.749Z</time></trkpt><trkpt lat="42.2764078" lon="13.9429171"><ele>229.0</ele><time>2026-05-02T08:35:57.749Z</time></trkpt><trkpt lat="42.2763367" lon="13.9429033"><ele>229.0</ele><time>2026-05-02T08:35:58.747Z</time></trkpt><trkpt lat="42.2762608" lon="13.9428781"><ele>228.99999999999997</ele><time>2026-05-02T08:35:59.751Z</time></trkpt><trkpt lat="42.2761908" lon="13.94284"><ele>229.0</ele><time>2026-05-02T08:36:00.75Z</time></trkpt><trkpt lat="42.2761106" lon="13.9427233"><ele>229.6</ele><time>2026-05-02T08:36:02.748Z</time></trkpt><trkpt lat="42.2760785" lon="13.9426381"><ele>230.2</ele><time>2026-05-02T08:36:03.753Z</time></trkpt><trkpt lat="42.2760422" lon="13.9425396"><ele>230.79999999999998</ele><time>2026-05-02T08:36:04.75Z</time></trkpt><trkpt lat="42.2760045" lon="13.9424219"><ele>231.39999999999998</ele><time>2026-05-02T08:36:05.749Z</time></trkpt><trkpt lat="42.2759579" lon="13.9422902"><ele>232.0</ele><time>2026-05-02T08:36:06.754Z</time></trkpt><trkpt lat="42.2759055" lon="13.9421433"><ele>232.0</ele><time>2026-05-02T08:36:07.748Z</time></trkpt><trkpt lat="42.2758541" lon="13.9419909"><ele>232.0</ele><time>2026-05-02T08:36:08.75Z</time></trkpt><trkpt lat="42.2758138" lon="13.9418589"><ele>232.0</ele><time>2026-05-02T08:36:09.749Z</time></trkpt><trkpt lat="42.2757811" lon="13.9417594"><ele>232.0</ele><time>2026-05-02T08:36:10.75Z</time></trkpt><trkpt lat="42.2757463" lon="13.9416798"><ele>232.0</ele><time>2026-05-02T08:36:11.749Z</time></trkpt><trkpt lat="42.2757006" lon="13.9415436"><ele>231.99999999999997</ele><time>2026-05-02T08:36:13.746Z</time></trkpt><trkpt lat="42.2756958" lon="13.9414165"><ele>232.0</ele><time>2026-05-02T08:36:15.749Z</time></trkpt><trkpt lat="42.2756779" lon="13.9413273"><ele>232.0</ele><time>2026-05-02T08:36:16.747Z</time></trkpt><trkpt lat="42.2756506" lon="13.9412169"><ele>232.0</ele><time>2026-05-02T08:36:17.749Z</time></trkpt><trkpt lat="42.2756261" lon="13.9411036"><ele>231.99999999999997</ele><time>2026-05-02T08:36:18.747Z</time></trkpt><trkpt lat="42.2756051" lon="13.9409797"><ele>232.0</ele><time>2026-05-02T08:36:19.748Z</time></trkpt><trkpt lat="42.2755917" lon="13.9408434"><ele>231.99999999999997</ele><time>2026-05-02T08:36:20.747Z</time></trkpt><trkpt lat="42.2755869" lon="13.9407146"><ele>232.0</ele><time>2026-05-02T08:36:21.747Z</time></trkpt><trkpt lat="42.275589" lon="13.9405873"><ele>232.0</ele><time>2026-05-02T08:36:22.747Z</time></trkpt><trkpt lat="42.2755989" lon="13.940468"><ele>232.0</ele><time>2026-05-02T08:36:23.747Z</time></trkpt><trkpt lat="42.2756109" lon="13.940368"><ele>231.99999999999997</ele><time>2026-05-02T08:36:24.747Z</time></trkpt><trkpt lat="42.2756215" lon="13.9402794"><ele>232.0</ele><time>2026-05-02T08:36:25.747Z</time></trkpt><trkpt lat="42.2756391" lon="13.9401362"><ele>234.33333333333331</ele><time>2026-05-02T08:36:27.748Z</time></trkpt><trkpt lat="42.2756733" lon="13.9400604"><ele>236.66666666666666</ele><time>2026-05-02T08:36:29.747Z</time></trkpt><trkpt lat="42.2757129" lon="13.9399937"><ele>239.0</ele><time>2026-05-02T08:36:31.747Z</time></trkpt><trkpt lat="42.2757594" lon="13.9398819"><ele>241.33333333333331</ele><time>2026-05-02T08:36:33.756Z</time></trkpt><trkpt lat="42.2758399" lon="13.9397625"><ele>243.66666666666666</ele><time>2026-05-02T08:36:35.747Z</time></trkpt><trkpt lat="42.2758892" lon="13.9396718"><ele>246.0</ele><time>2026-05-02T08:36:37.748Z</time></trkpt><trkpt lat="42.2758373" lon="13.9397397"><ele>246.0</ele><time>2026-05-02T08:37:39.747Z</time></trkpt><trkpt lat="42.2757946" lon="13.9398193"><ele>246.00000000000003</ele><time>2026-05-02T08:37:41.748Z</time></trkpt><trkpt lat="42.2757311" lon="13.9399182"><ele>246.00000000000003</ele><time>2026-05-02T08:37:43.749Z</time></trkpt><trkpt lat="42.2756565" lon="13.9400029"><ele>246.0</ele><time>2026-05-02T08:37:45.749Z</time></trkpt><trkpt lat="42.2755805" lon="13.9400686"><ele>246.0</ele><time>2026-05-02T08:37:47.749Z</time></trkpt><trkpt lat="42.2754872" lon="13.9401157"><ele>243.66666666666666</ele><time>2026-05-02T08:37:49.748Z</time></trkpt><trkpt lat="42.2754277" lon="13.9401444"><ele>241.33333333333331</ele><time>2026-05-02T08:37:50.749Z</time></trkpt><trkpt lat="42.2753664" lon="13.940177"><ele>239.0</ele><time>2026-05-02T08:37:51.746Z</time></trkpt><trkpt lat="42.2753053" lon="13.9402123"><ele>236.66666666666666</ele><time>2026-05-02T08:37:52.748Z</time></trkpt><trkpt lat="42.2752342" lon="13.9402557"><ele>234.33333333333331</ele><time>2026-05-02T08:37:53.75Z</time></trkpt><trkpt lat="42.2751523" lon="13.9403118"><ele>232.0</ele><time>2026-05-02T08:37:54.746Z</time></trkpt><trkpt lat="42.2750686" lon="13.9403714"><ele>232.0</ele><time>2026-05-02T08:37:55.749Z</time></trkpt><trkpt lat="42.2749852" lon="13.940428"><ele>232.0</ele><time>2026-05-02T08:37:56.748Z</time></trkpt><trkpt lat="42.2749031" lon="13.9404843"><ele>232.0</ele><time>2026-05-02T08:37:57.749Z</time></trkpt><trkpt lat="42.274818" lon="13.9405431"><ele>232.0</ele><time>2026-05-02T08:37:58.748Z</time></trkpt><trkpt lat="42.2747285" lon="13.9405967"><ele>232.0</ele><time>2026-05-02T08:37:59.747Z</time></trkpt><trkpt lat="42.2746309" lon="13.9406454"><ele>230.0</ele><time>2026-05-02T08:38:00.751Z</time></trkpt><trkpt lat="42.2745368" lon="13.9406886"><ele>228.0</ele><time>2026-05-02T08:38:01.748Z</time></trkpt><trkpt lat="42.2744493" lon="13.940725"><ele>226.0</ele><time>2026-05-02T08:38:02.749Z</time></trkpt><trkpt lat="42.274359" lon="13.9407569"><ele>224.0</ele><time>2026-05-02T08:38:03.747Z</time></trkpt><trkpt lat="42.2742694" lon="13.9407854"><ele>222.0</ele><time>2026-05-02T08:38:04.749Z</time></trkpt><trkpt lat="42.2741825" lon="13.9408045"><ele>222.0</ele><time>2026-05-02T08:38:05.748Z</time></trkpt><trkpt lat="42.2740984" lon="13.9408108"><ele>222.0</ele><time>2026-05-02T08:38:06.75Z</time></trkpt><trkpt lat="42.2740153" lon="13.9408055"><ele>222.0</ele><time>2026-05-02T08:38:07.748Z</time></trkpt><trkpt lat="42.2739235" lon="13.9407894"><ele>222.0</ele><time>2026-05-02T08:38:08.748Z</time></trkpt><trkpt lat="42.2738215" lon="13.9407651"><ele>222.0</ele><time>2026-05-02T08:38:09.748Z</time></trkpt><trkpt lat="42.2737163" lon="13.9407346"><ele>218.5</ele><time>2026-05-02T08:38:10.748Z</time></trkpt><trkpt lat="42.2736058" lon="13.9407032"><ele>215.0</ele><time>2026-05-02T08:38:11.748Z</time></trkpt><trkpt lat="42.2734885" lon="13.9406727"><ele>211.5</ele><time>2026-05-02T08:38:12.749Z</time></trkpt><trkpt lat="42.2733666" lon="13.9406435"><ele>208.0</ele><time>2026-05-02T08:38:13.749Z</time></trkpt><trkpt lat="42.273239" lon="13.9406173"><ele>208.0</ele><time>2026-05-02T08:38:14.75Z</time></trkpt><trkpt lat="42.2731066" lon="13.9405917"><ele>208.0</ele><time>2026-05-02T08:38:15.749Z</time></trkpt><trkpt lat="42.2729754" lon="13.9405629"><ele>208.0</ele><time>2026-05-02T08:38:16.747Z</time></trkpt><trkpt lat="42.2728541" lon="13.9405367"><ele>208.0</ele><time>2026-05-02T08:38:17.75Z</time></trkpt><trkpt lat="42.2727452" lon="13.9405173"><ele>206.16666666666666</ele><time>2026-05-02T08:38:18.749Z</time></trkpt><trkpt lat="42.272647" lon="13.940502"><ele>204.33333333333331</ele><time>2026-05-02T08:38:19.748Z</time></trkpt><trkpt lat="42.2725584" lon="13.9404888"><ele>202.5</ele><time>2026-05-02T08:38:20.748Z</time></trkpt><trkpt lat="42.2724865" lon="13.940475"><ele>200.66666666666669</ele><time>2026-05-02T08:38:21.75Z</time></trkpt><trkpt lat="42.2723988" lon="13.9404224"><ele>198.83333333333334</ele><time>2026-05-02T08:38:23.751Z</time></trkpt><trkpt lat="42.2723829" lon="13.9403125"><ele>197.0</ele><time>2026-05-02T08:38:25.747Z</time></trkpt><trkpt lat="42.2724465" lon="13.9401901"><ele>197.0</ele><time>2026-05-02T08:38:27.749Z</time></trkpt><trkpt lat="42.2725142" lon="13.9401102"><ele>197.0</ele><time>2026-05-02T08:38:28.749Z</time></trkpt><trkpt lat="42.272595" lon="13.9400144"><ele>197.0</ele><time>2026-05-02T08:38:29.746Z</time></trkpt><trkpt lat="42.272676" lon="13.9399149"><ele>197.0</ele><time>2026-05-02T08:38:30.747Z</time></trkpt><trkpt lat="42.2727512" lon="13.9398268"><ele>197.0</ele><time>2026-05-02T08:38:31.749Z</time></trkpt><trkpt lat="42.2728148" lon="13.9397505"><ele>196.83333333333334</ele><time>2026-05-02T08:38:32.749Z</time></trkpt><trkpt lat="42.27287" lon="13.9396819"><ele>196.66666666666669</ele><time>2026-05-02T08:38:33.747Z</time></trkpt><trkpt lat="42.272915" lon="13.939613"><ele>196.5</ele><time>2026-05-02T08:38:34.747Z</time></trkpt><trkpt lat="42.2729453" lon="13.9395367"><ele>196.33333333333331</ele><time>2026-05-02T08:38:35.749Z</time></trkpt><trkpt lat="42.2729521" lon="13.9393609"><ele>196.16666666666666</ele><time>2026-05-02T08:38:37.746Z</time></trkpt><trkpt lat="42.2729318" lon="13.9392686"><ele>196.0</ele><time>2026-05-02T08:38:38.747Z</time></trkpt><trkpt lat="42.272901" lon="13.9391867"><ele>194.60000000000002</ele><time>2026-05-02T08:38:39.748Z</time></trkpt><trkpt lat="42.2728575" lon="13.9390999"><ele>193.2</ele><time>2026-05-02T08:38:40.755Z</time></trkpt><trkpt lat="42.2727956" lon="13.9390023"><ele>191.8</ele><time>2026-05-02T08:38:41.753Z</time></trkpt><trkpt lat="42.2727213" lon="13.9389022"><ele>190.39999999999998</ele><time>2026-05-02T08:38:42.748Z</time></trkpt><trkpt lat="42.2726515" lon="13.9388084"><ele>189.0</ele><time>2026-05-02T08:38:43.746Z</time></trkpt><trkpt lat="42.2725916" lon="13.9387238"><ele>189.0</ele><time>2026-05-02T08:38:44.753Z</time></trkpt><trkpt lat="42.2725338" lon="13.9386549"><ele>189.0</ele><time>2026-05-02T08:38:45.748Z</time></trkpt><trkpt lat="42.2724747" lon="13.9386097"><ele>189.0</ele><time>2026-05-02T08:38:46.748Z</time></trkpt><trkpt lat="42.2724106" lon="13.9385725"><ele>189.0</ele><time>2026-05-02T08:38:47.748Z</time></trkpt><trkpt lat="42.2723356" lon="13.9385313"><ele>189.0</ele><time>2026-05-02T08:38:48.748Z</time></trkpt><trkpt lat="42.2722519" lon="13.9384883"><ele>189.0</ele><time>2026-05-02T08:38:49.747Z</time></trkpt><trkpt lat="42.2721597" lon="13.9384483"><ele>188.0</ele><time>2026-05-02T08:38:50.748Z</time></trkpt><trkpt lat="42.2720745" lon="13.9384175"><ele>187.0</ele><time>2026-05-02T08:38:51.748Z</time></trkpt><trkpt lat="42.2719927" lon="13.9383998"><ele>186.0</ele><time>2026-05-02T08:38:52.747Z</time></trkpt><trkpt lat="42.2719163" lon="13.9383895"><ele>185.0</ele><time>2026-05-02T08:38:53.749Z</time></trkpt><trkpt lat="42.2718138" lon="13.9383656"><ele>184.0</ele><time>2026-05-02T08:38:55.748Z</time></trkpt><trkpt lat="42.2717618" lon="13.938293"><ele>183.0</ele><time>2026-05-02T08:38:57.748Z</time></trkpt><trkpt lat="42.2717313" lon="13.9381634"><ele>181.5</ele><time>2026-05-02T08:38:59.752Z</time></trkpt><trkpt lat="42.2717135" lon="13.9380661"><ele>180.0</ele><time>2026-05-02T08:39:00.749Z</time></trkpt><trkpt lat="42.2716837" lon="13.9379747"><ele>178.5</ele><time>2026-05-02T08:39:01.748Z</time></trkpt><trkpt lat="42.2716329" lon="13.9379058"><ele>177.0</ele><time>2026-05-02T08:39:02.747Z</time></trkpt><trkpt lat="42.2715615" lon="13.9378614"><ele>175.5</ele><time>2026-05-02T08:39:03.747Z</time></trkpt><trkpt lat="42.2714724" lon="13.9378454"><ele>174.0</ele><time>2026-05-02T08:39:04.749Z</time></trkpt><trkpt lat="42.2713732" lon="13.937846"><ele>173.16666666666666</ele><time>2026-05-02T08:39:05.749Z</time></trkpt><trkpt lat="42.2712758" lon="13.9378594"><ele>172.33333333333334</ele><time>2026-05-02T08:39:06.748Z</time></trkpt><trkpt lat="42.2711882" lon="13.9378916"><ele>171.5</ele><time>2026-05-02T08:39:07.748Z</time></trkpt><trkpt lat="42.2711113" lon="13.937948"><ele>170.66666666666669</ele><time>2026-05-02T08:39:08.751Z</time></trkpt><trkpt lat="42.2710514" lon="13.9380238"><ele>169.83333333333334</ele><time>2026-05-02T08:39:09.748Z</time></trkpt><trkpt lat="42.2709975" lon="13.9381173"><ele>169.0</ele><time>2026-05-02T08:39:10.748Z</time></trkpt><trkpt lat="42.270943" lon="13.9382362"><ele>169.0</ele><time>2026-05-02T08:39:11.746Z</time></trkpt><trkpt lat="42.2708954" lon="13.9383756"><ele>169.0</ele><time>2026-05-02T08:39:12.752Z</time></trkpt><trkpt lat="42.2708578" lon="13.9385186"><ele>169.0</ele><time>2026-05-02T08:39:13.749Z</time></trkpt><trkpt lat="42.2708234" lon="13.9386746"><ele>169.0</ele><time>2026-05-02T08:39:14.749Z</time></trkpt><trkpt lat="42.2707904" lon="13.9388264"><ele>169.5</ele><time>2026-05-02T08:39:15.749Z</time></trkpt><trkpt lat="42.2707506" lon="13.9389644"><ele>170.0</ele><time>2026-05-02T08:39:16.748Z</time></trkpt><trkpt lat="42.2707107" lon="13.9391024"><ele>170.5</ele><time>2026-05-02T08:39:17.75Z</time></trkpt><trkpt lat="42.2706826" lon="13.9392495"><ele>171.0</ele><time>2026-05-02T08:39:18.747Z</time></trkpt><trkpt lat="42.27066" lon="13.9394107"><ele>171.25</ele><time>2026-05-02T08:39:19.749Z</time></trkpt><trkpt lat="42.2706347" lon="13.9395713"><ele>171.5</ele><time>2026-05-02T08:39:20.75Z</time></trkpt><trkpt lat="42.2706004" lon="13.9397225"><ele>171.75</ele><time>2026-05-02T08:39:21.747Z</time></trkpt><trkpt lat="42.2705489" lon="13.9398734"><ele>172.0</ele><time>2026-05-02T08:39:22.747Z</time></trkpt><trkpt lat="42.2704946" lon="13.9400234"><ele>168.25</ele><time>2026-05-02T08:39:23.749Z</time></trkpt><trkpt lat="42.2704393" lon="13.9401591"><ele>164.5</ele><time>2026-05-02T08:39:24.751Z</time></trkpt><trkpt lat="42.2703851" lon="13.9403027"><ele>160.75</ele><time>2026-05-02T08:39:25.749Z</time></trkpt><trkpt lat="42.2703352" lon="13.9404519"><ele>157.0</ele><time>2026-05-02T08:39:26.75Z</time></trkpt><trkpt lat="42.270286" lon="13.9405942"><ele>157.0</ele><time>2026-05-02T08:39:27.75Z</time></trkpt><trkpt lat="42.2702438" lon="13.9407205"><ele>157.0</ele><time>2026-05-02T08:39:28.75Z</time></trkpt><trkpt lat="42.2702076" lon="13.9408326"><ele>157.0</ele><time>2026-05-02T08:39:29.748Z</time></trkpt><trkpt lat="42.2701734" lon="13.9409336"><ele>157.0</ele><time>2026-05-02T08:39:30.746Z</time></trkpt><trkpt lat="42.2701443" lon="13.9410269"><ele>157.0</ele><time>2026-05-02T08:39:31.749Z</time></trkpt><trkpt lat="42.2701167" lon="13.9411077"><ele>157.0</ele><time>2026-05-02T08:39:32.748Z</time></trkpt><trkpt lat="42.2700426" lon="13.9412403"><ele>156.99999999999997</ele><time>2026-05-02T08:39:34.747Z</time></trkpt><trkpt lat="42.2699962" lon="13.9413025"><ele>157.0</ele><time>2026-05-02T08:39:35.748Z</time></trkpt><trkpt lat="42.2699514" lon="13.9413721"><ele>157.0</ele><time>2026-05-02T08:39:36.747Z</time></trkpt><trkpt lat="42.269918" lon="13.9414543"><ele>157.0</ele><time>2026-05-02T08:39:37.748Z</time></trkpt><trkpt lat="42.269898" lon="13.9415407"><ele>157.0</ele><time>2026-05-02T08:39:38.749Z</time></trkpt><trkpt lat="42.2699042" lon="13.9416361"><ele>156.99999999999997</ele><time>2026-05-02T08:39:39.752Z</time></trkpt><trkpt lat="42.2699153" lon="13.9417323"><ele>157.0</ele><time>2026-05-02T08:39:40.749Z</time></trkpt><trkpt lat="42.2699308" lon="13.9418223"><ele>156.0</ele><time>2026-05-02T08:39:41.748Z</time></trkpt><trkpt lat="42.2699431" lon="13.9419842"><ele>155.0</ele><time>2026-05-02T08:39:43.748Z</time></trkpt><trkpt lat="42.2699129" lon="13.9421311"><ele>154.0</ele><time>2026-05-02T08:39:45.749Z</time></trkpt><trkpt lat="42.2698307" lon="13.9422516"><ele>153.0</ele><time>2026-05-02T08:39:47.749Z</time></trkpt><trkpt lat="42.2697404" lon="13.9423224"><ele>152.16666666666666</ele><time>2026-05-02T08:39:49.746Z</time></trkpt><trkpt lat="42.2696548" lon="13.9423654"><ele>151.33333333333334</ele><time>2026-05-02T08:39:51.749Z</time></trkpt><trkpt lat="42.2695481" lon="13.9424124"><ele>150.5</ele><time>2026-05-02T08:39:53.747Z</time></trkpt><trkpt lat="42.2694799" lon="13.9424347"><ele>149.66666666666669</ele><time>2026-05-02T08:39:54.749Z</time></trkpt><trkpt lat="42.2694056" lon="13.942459"><ele>148.83333333333334</ele><time>2026-05-02T08:39:55.748Z</time></trkpt><trkpt lat="42.2693271" lon="13.9424858"><ele>148.0</ele><time>2026-05-02T08:39:56.749Z</time></trkpt><trkpt lat="42.2692485" lon="13.9425092"><ele>148.0</ele><time>2026-05-02T08:39:57.749Z</time></trkpt><trkpt lat="42.2691619" lon="13.9425323"><ele>148.0</ele><time>2026-05-02T08:39:58.749Z</time></trkpt><trkpt lat="42.2690631" lon="13.942564"><ele>148.0</ele><time>2026-05-02T08:39:59.749Z</time></trkpt><trkpt lat="42.2689656" lon="13.9425967"><ele>148.0</ele><time>2026-05-02T08:40:00.748Z</time></trkpt><trkpt lat="42.2688777" lon="13.9426251"><ele>148.0</ele><time>2026-05-02T08:40:01.746Z</time></trkpt><trkpt lat="42.2688014" lon="13.9426498"><ele>147.66666666666669</ele><time>2026-05-02T08:40:02.747Z</time></trkpt><trkpt lat="42.2687277" lon="13.9426742"><ele>147.33333333333334</ele><time>2026-05-02T08:40:03.746Z</time></trkpt><trkpt lat="42.2686632" lon="13.9426872"><ele>147.0</ele><time>2026-05-02T08:40:04.745Z</time></trkpt><trkpt lat="42.2685921" lon="13.942684"><ele>146.66666666666666</ele><time>2026-05-02T08:40:05.746Z</time></trkpt><trkpt lat="42.2685018" lon="13.9426662"><ele>146.33333333333331</ele><time>2026-05-02T08:40:06.749Z</time></trkpt><trkpt lat="42.2684072" lon="13.9426264"><ele>146.0</ele><time>2026-05-02T08:40:07.747Z</time></trkpt><trkpt lat="42.2683287" lon="13.9425743"><ele>146.4</ele><time>2026-05-02T08:40:08.747Z</time></trkpt><trkpt lat="42.2682651" lon="13.942513"><ele>146.8</ele><time>2026-05-02T08:40:09.747Z</time></trkpt><trkpt lat="42.2682088" lon="13.9424455"><ele>147.20000000000002</ele><time>2026-05-02T08:40:10.746Z</time></trkpt><trkpt lat="42.2681211" lon="13.9423432"><ele>147.6</ele><time>2026-05-02T08:40:12.746Z</time></trkpt><trkpt lat="42.2680326" lon="13.9423062"><ele>148.0</ele><time>2026-05-02T08:40:14.748Z</time></trkpt><trkpt lat="42.2679392" lon="13.942329"><ele>150.20000000000002</ele><time>2026-05-02T08:40:16.747Z</time></trkpt><trkpt lat="42.267827" lon="13.9423403"><ele>152.4</ele><time>2026-05-02T08:40:18.748Z</time></trkpt><trkpt lat="42.2677646" lon="13.9423034"><ele>154.60000000000002</ele><time>2026-05-02T08:40:20.748Z</time></trkpt><trkpt lat="42.2677169" lon="13.942191"><ele>156.8</ele><time>2026-05-02T08:40:22.755Z</time></trkpt><trkpt lat="42.2677001" lon="13.9420201"><ele>159.0</ele><time>2026-05-02T08:40:24.748Z</time></trkpt><trkpt lat="42.2676873" lon="13.9419275"><ele>159.0</ele><time>2026-05-02T08:40:25.749Z</time></trkpt><trkpt lat="42.2676687" lon="13.9418399"><ele>159.0</ele><time>2026-05-02T08:40:26.747Z</time></trkpt><trkpt lat="42.2676474" lon="13.9417568"><ele>159.0</ele><time>2026-05-02T08:40:27.747Z</time></trkpt><trkpt lat="42.2676206" lon="13.9416756"><ele>159.0</ele><time>2026-05-02T08:40:28.747Z</time></trkpt><trkpt lat="42.2675738" lon="13.9415358"><ele>159.0</ele><time>2026-05-02T08:40:30.747Z</time></trkpt><trkpt lat="42.267512" lon="13.9413985"><ele>159.0</ele><time>2026-05-02T08:40:32.748Z</time></trkpt><trkpt lat="42.2674663" lon="13.9413225"><ele>158.85714285714286</ele><time>2026-05-02T08:40:33.747Z</time></trkpt><trkpt lat="42.2674198" lon="13.941251"><ele>158.71428571428572</ele><time>2026-05-02T08:40:34.747Z</time></trkpt><trkpt lat="42.2673759" lon="13.9411852"><ele>158.57142857142858</ele><time>2026-05-02T08:40:35.749Z</time></trkpt><trkpt lat="42.2673356" lon="13.9411102"><ele>158.42857142857144</ele><time>2026-05-02T08:40:36.748Z</time></trkpt><trkpt lat="42.2672934" lon="13.9410303"><ele>158.28571428571428</ele><time>2026-05-02T08:40:37.747Z</time></trkpt><trkpt lat="42.2672512" lon="13.9409558"><ele>158.14285714285717</ele><time>2026-05-02T08:40:38.745Z</time></trkpt><trkpt lat="42.2672092" lon="13.9408868"><ele>158.0</ele><time>2026-05-02T08:40:39.746Z</time></trkpt><trkpt lat="42.2671375" lon="13.94075"><ele>160.66666666666666</ele><time>2026-05-02T08:40:41.749Z</time></trkpt><trkpt lat="42.2671034" lon="13.9406751"><ele>163.33333333333331</ele><time>2026-05-02T08:40:42.747Z</time></trkpt><trkpt lat="42.267068" lon="13.9406045"><ele>166.0</ele><time>2026-05-02T08:40:43.747Z</time></trkpt><trkpt lat="42.2669951" lon="13.940463"><ele>168.66666666666666</ele><time>2026-05-02T08:40:45.748Z</time></trkpt><trkpt lat="42.2669666" lon="13.9403807"><ele>171.33333333333334</ele><time>2026-05-02T08:40:46.747Z</time></trkpt><trkpt lat="42.2669105" lon="13.9402404"><ele>174.0</ele><time>2026-05-02T08:40:48.749Z</time></trkpt><trkpt lat="42.2668369" lon="13.9401456"><ele>174.0</ele><time>2026-05-02T08:40:50.748Z</time></trkpt><trkpt lat="42.2667686" lon="13.940168"><ele>174.0</ele><time>2026-05-02T08:40:52.748Z</time></trkpt><trkpt lat="42.2667055" lon="13.9402665"><ele>174.0</ele><time>2026-05-02T08:40:54.754Z</time></trkpt><trkpt lat="42.2666794" lon="13.9403937"><ele>174.0</ele><time>2026-05-02T08:40:56.748Z</time></trkpt><trkpt lat="42.2666612" lon="13.9404783"><ele>174.0</ele><time>2026-05-02T08:40:57.746Z</time></trkpt><trkpt lat="42.2666277" lon="13.9405767"><ele>174.0</ele><time>2026-05-02T08:40:58.749Z</time></trkpt><trkpt lat="42.266589" lon="13.9406732"><ele>174.0</ele><time>2026-05-02T08:40:59.747Z</time></trkpt><trkpt lat="42.2665548" lon="13.9407668"><ele>174.0</ele><time>2026-05-02T08:41:00.747Z</time></trkpt><trkpt lat="42.26652" lon="13.9408733"><ele>174.0</ele><time>2026-05-02T08:41:01.746Z</time></trkpt><trkpt lat="42.2664838" lon="13.9409876"><ele>174.0</ele><time>2026-05-02T08:41:02.746Z</time></trkpt><trkpt lat="42.2664501" lon="13.9411"><ele>174.0</ele><time>2026-05-02T08:41:03.748Z</time></trkpt><trkpt lat="42.2664179" lon="13.9412061"><ele>174.0</ele><time>2026-05-02T08:41:04.746Z</time></trkpt><trkpt lat="42.2663811" lon="13.941314"><ele>177.16666666666666</ele><time>2026-05-02T08:41:05.747Z</time></trkpt><trkpt lat="42.2663472" lon="13.9414281"><ele>180.33333333333331</ele><time>2026-05-02T08:41:06.748Z</time></trkpt><trkpt lat="42.2663251" lon="13.9415411"><ele>183.5</ele><time>2026-05-02T08:41:07.752Z</time></trkpt><trkpt lat="42.2663212" lon="13.9416441"><ele>186.66666666666666</ele><time>2026-05-02T08:41:08.747Z</time></trkpt><trkpt lat="42.2663334" lon="13.9417458"><ele>189.83333333333331</ele><time>2026-05-02T08:41:09.747Z</time></trkpt><trkpt lat="42.2663512" lon="13.9418684"><ele>193.0</ele><time>2026-05-02T08:41:10.747Z</time></trkpt><trkpt lat="42.2663697" lon="13.9419942"><ele>193.60000000000002</ele><time>2026-05-02T08:41:11.748Z</time></trkpt><trkpt lat="42.2663854" lon="13.9421085"><ele>194.20000000000002</ele><time>2026-05-02T08:41:12.748Z</time></trkpt><trkpt lat="42.266399" lon="13.9422296"><ele>194.8</ele><time>2026-05-02T08:41:13.748Z</time></trkpt><trkpt lat="42.266413" lon="13.9423625"><ele>195.4</ele><time>2026-05-02T08:41:14.749Z</time></trkpt><trkpt lat="42.266427" lon="13.9424895"><ele>196.0</ele><time>2026-05-02T08:41:15.749Z</time></trkpt><trkpt lat="42.2664415" lon="13.9425967"><ele>193.16666666666666</ele><time>2026-05-02T08:41:16.75Z</time></trkpt><trkpt lat="42.2664563" lon="13.942692"><ele>190.33333333333331</ele><time>2026-05-02T08:41:17.749Z</time></trkpt><trkpt lat="42.2664711" lon="13.9427888"><ele>187.5</ele><time>2026-05-02T08:41:18.749Z</time></trkpt><trkpt lat="42.2664824" lon="13.9428818"><ele>184.66666666666666</ele><time>2026-05-02T08:41:19.75Z</time></trkpt><trkpt lat="42.2664899" lon="13.9429717"><ele>181.83333333333331</ele><time>2026-05-02T08:41:20.749Z</time></trkpt><trkpt lat="42.2665006" lon="13.9431318"><ele>179.0</ele><time>2026-05-02T08:41:22.747Z</time></trkpt><trkpt lat="42.2665027" lon="13.943239"><ele>182.39999999999998</ele><time>2026-05-02T08:41:24.747Z</time></trkpt><trkpt lat="42.2664258" lon="13.9433112"><ele>185.8</ele><time>2026-05-02T08:41:28.749Z</time></trkpt><trkpt lat="42.2663094" lon="13.9433107"><ele>189.2</ele><time>2026-05-02T08:41:30.747Z</time></trkpt><trkpt lat="42.2662409" lon="13.9433071"><ele>192.60000000000002</ele><time>2026-05-02T08:41:31.748Z</time></trkpt><trkpt lat="42.2661174" lon="13.9433174"><ele>196.0</ele><time>2026-05-02T08:41:33.748Z</time></trkpt><trkpt lat="42.266047" lon="13.9433263"><ele>196.0</ele><time>2026-05-02T08:41:34.749Z</time></trkpt><trkpt lat="42.2659751" lon="13.9433359"><ele>196.0</ele><time>2026-05-02T08:41:35.748Z</time></trkpt><trkpt lat="42.2659097" lon="13.943342"><ele>196.0</ele><time>2026-05-02T08:41:36.75Z</time></trkpt><trkpt lat="42.2658465" lon="13.943349"><ele>196.0</ele><time>2026-05-02T08:41:37.747Z</time></trkpt><trkpt lat="42.2657781" lon="13.9433432"><ele>196.0</ele><time>2026-05-02T08:41:38.749Z</time></trkpt><trkpt lat="42.2657153" lon="13.9433196"><ele>196.0</ele><time>2026-05-02T08:41:39.75Z</time></trkpt><trkpt lat="42.2656569" lon="13.9432829"><ele>196.0</ele><time>2026-05-02T08:41:40.749Z</time></trkpt><trkpt lat="42.2655969" lon="13.943235"><ele>195.42857142857142</ele><time>2026-05-02T08:41:41.749Z</time></trkpt><trkpt lat="42.2655377" lon="13.9431787"><ele>194.85714285714286</ele><time>2026-05-02T08:41:42.748Z</time></trkpt><trkpt lat="42.26548" lon="13.9431183"><ele>194.28571428571428</ele><time>2026-05-02T08:41:43.751Z</time></trkpt><trkpt lat="42.2654232" lon="13.9430598"><ele>193.71428571428572</ele><time>2026-05-02T08:41:44.748Z</time></trkpt><trkpt lat="42.2653737" lon="13.9429975"><ele>193.14285714285714</ele><time>2026-05-02T08:41:45.751Z</time></trkpt><trkpt lat="42.2653289" lon="13.9429359"><ele>192.57142857142856</ele><time>2026-05-02T08:41:46.749Z</time></trkpt><trkpt lat="42.2652988" lon="13.9428461"><ele>192.0</ele><time>2026-05-02T08:41:47.748Z</time></trkpt><trkpt lat="42.2652744" lon="13.9427585"><ele>192.0</ele><time>2026-05-02T08:41:48.75Z</time></trkpt><trkpt lat="42.2652471" lon="13.9426732"><ele>192.0</ele><time>2026-05-02T08:41:49.75Z</time></trkpt><trkpt lat="42.2652127" lon="13.9425869"><ele>192.0</ele><time>2026-05-02T08:41:50.749Z</time></trkpt><trkpt lat="42.2651784" lon="13.9424978"><ele>192.0</ele><time>2026-05-02T08:41:51.75Z</time></trkpt><trkpt lat="42.26514" lon="13.9424092"><ele>192.0</ele><time>2026-05-02T08:41:52.75Z</time></trkpt><trkpt lat="42.2650997" lon="13.9423299"><ele>192.0</ele><time>2026-05-02T08:41:53.749Z</time></trkpt><trkpt lat="42.2650534" lon="13.942202"><ele>194.5</ele><time>2026-05-02T08:41:55.752Z</time></trkpt><trkpt lat="42.2650007" lon="13.9420512"><ele>197.0</ele><time>2026-05-02T08:41:57.749Z</time></trkpt><trkpt lat="42.2649695" lon="13.9419762"><ele>199.5</ele><time>2026-05-02T08:41:58.748Z</time></trkpt><trkpt lat="42.2649394" lon="13.9419007"><ele>202.0</ele><time>2026-05-02T08:41:59.757Z</time></trkpt><trkpt lat="42.2649024" lon="13.9418214"><ele>204.5</ele><time>2026-05-02T08:42:00.747Z</time></trkpt><trkpt lat="42.26486" lon="13.9417341"><ele>207.0</ele><time>2026-05-02T08:42:01.749Z</time></trkpt><trkpt lat="42.2648185" lon="13.9416405"><ele>207.5</ele><time>2026-05-02T08:42:02.747Z</time></trkpt><trkpt lat="42.2647855" lon="13.9415452"><ele>208.0</ele><time>2026-05-02T08:42:03.749Z</time></trkpt><trkpt lat="42.2647604" lon="13.9414427"><ele>208.5</ele><time>2026-05-02T08:42:04.751Z</time></trkpt><trkpt lat="42.2647428" lon="13.9413403"><ele>209.0</ele><time>2026-05-02T08:42:05.75Z</time></trkpt><trkpt lat="42.264735" lon="13.941251"><ele>209.5</ele><time>2026-05-02T08:42:06.75Z</time></trkpt><trkpt lat="42.2647288" lon="13.9410773"><ele>210.0</ele><time>2026-05-02T08:42:08.746Z</time></trkpt><trkpt lat="42.2647242" lon="13.9409829"><ele>210.0</ele><time>2026-05-02T08:42:09.748Z</time></trkpt><trkpt lat="42.2647165" lon="13.9408931"><ele>210.0</ele><time>2026-05-02T08:42:10.751Z</time></trkpt><trkpt lat="42.2647021" lon="13.9407991"><ele>210.0</ele><time>2026-05-02T08:42:11.748Z</time></trkpt><trkpt lat="42.2646844" lon="13.9406961"><ele>210.0</ele><time>2026-05-02T08:42:12.755Z</time></trkpt><trkpt lat="42.2646682" lon="13.9405941"><ele>210.0</ele><time>2026-05-02T08:42:13.748Z</time></trkpt><trkpt lat="42.2646506" lon="13.9404987"><ele>210.0</ele><time>2026-05-02T08:42:14.755Z</time></trkpt><trkpt lat="42.2646272" lon="13.9404076"><ele>210.0</ele><time>2026-05-02T08:42:15.748Z</time></trkpt><trkpt lat="42.2646044" lon="13.9403108"><ele>212.0</ele><time>2026-05-02T08:42:16.755Z</time></trkpt><trkpt lat="42.2645849" lon="13.9401974"><ele>214.0</ele><time>2026-05-02T08:42:17.75Z</time></trkpt><trkpt lat="42.2645676" lon="13.9400738"><ele>216.0</ele><time>2026-05-02T08:42:18.752Z</time></trkpt><trkpt lat="42.264554" lon="13.9399524"><ele>218.0</ele><time>2026-05-02T08:42:19.748Z</time></trkpt><trkpt lat="42.2645384" lon="13.9398348"><ele>220.0</ele><time>2026-05-02T08:42:20.754Z</time></trkpt><trkpt lat="42.2645239" lon="13.9397196"><ele>222.0</ele><time>2026-05-02T08:42:21.747Z</time></trkpt><trkpt lat="42.2645091" lon="13.939606"><ele>222.83333333333334</ele><time>2026-05-02T08:42:22.746Z</time></trkpt><trkpt lat="42.2644891" lon="13.9395002"><ele>223.66666666666669</ele><time>2026-05-02T08:42:23.746Z</time></trkpt><trkpt lat="42.2644596" lon="13.9394036"><ele>224.5</ele><time>2026-05-02T08:42:24.755Z</time></trkpt><trkpt lat="42.2644275" lon="13.9393079"><ele>225.33333333333334</ele><time>2026-05-02T08:42:25.748Z</time></trkpt><trkpt lat="42.2643958" lon="13.9392092"><ele>226.16666666666669</ele><time>2026-05-02T08:42:26.748Z</time></trkpt><trkpt lat="42.2643615" lon="13.9391141"><ele>227.0</ele><time>2026-05-02T08:42:27.747Z</time></trkpt><trkpt lat="42.2643211" lon="13.9390318"><ele>228.66666666666669</ele><time>2026-05-02T08:42:28.754Z</time></trkpt><trkpt lat="42.2642711" lon="13.9389627"><ele>230.33333333333334</ele><time>2026-05-02T08:42:29.747Z</time></trkpt><trkpt lat="42.2642157" lon="13.9388972"><ele>232.0</ele><time>2026-05-02T08:42:30.754Z</time></trkpt><trkpt lat="42.2641638" lon="13.9388278"><ele>233.66666666666669</ele><time>2026-05-02T08:42:31.747Z</time></trkpt><trkpt lat="42.264114" lon="13.9387484"><ele>235.33333333333334</ele><time>2026-05-02T08:42:32.749Z</time></trkpt><trkpt lat="42.2640601" lon="13.9386606"><ele>237.0</ele><time>2026-05-02T08:42:33.748Z</time></trkpt><trkpt lat="42.2639948" lon="13.9385684"><ele>237.39999999999998</ele><time>2026-05-02T08:42:34.747Z</time></trkpt><trkpt lat="42.2639224" lon="13.9384814"><ele>237.79999999999998</ele><time>2026-05-02T08:42:35.746Z</time></trkpt><trkpt lat="42.263848" lon="13.9383949"><ele>238.2</ele><time>2026-05-02T08:42:36.747Z</time></trkpt><trkpt lat="42.2637803" lon="13.9383045"><ele>238.6</ele><time>2026-05-02T08:42:37.747Z</time></trkpt><trkpt lat="42.2637238" lon="13.9382209"><ele>239.0</ele><time>2026-05-02T08:42:38.751Z</time></trkpt><trkpt lat="42.2636707" lon="13.9381367"><ele>239.00000000000003</ele><time>2026-05-02T08:42:39.747Z</time></trkpt><trkpt lat="42.2636189" lon="13.9380443"><ele>239.0</ele><time>2026-05-02T08:42:40.75Z</time></trkpt><trkpt lat="42.2635694" lon="13.9379488"><ele>239.0</ele><time>2026-05-02T08:42:41.747Z</time></trkpt><trkpt lat="42.2635254" lon="13.9378557"><ele>239.0</ele><time>2026-05-02T08:42:42.747Z</time></trkpt><trkpt lat="42.263489" lon="13.9377629"><ele>239.00000000000003</ele><time>2026-05-02T08:42:43.747Z</time></trkpt><trkpt lat="42.2634568" lon="13.9376731"><ele>239.0</ele><time>2026-05-02T08:42:44.75Z</time></trkpt><trkpt lat="42.2634256" lon="13.937583"><ele>242.16666666666669</ele><time>2026-05-02T08:42:45.747Z</time></trkpt><trkpt lat="42.263395" lon="13.9374866"><ele>245.33333333333334</ele><time>2026-05-02T08:42:46.749Z</time></trkpt><trkpt lat="42.2633646" lon="13.937382"><ele>248.5</ele><time>2026-05-02T08:42:47.749Z</time></trkpt><trkpt lat="42.2633384" lon="13.9372665"><ele>251.66666666666669</ele><time>2026-05-02T08:42:48.751Z</time></trkpt><trkpt lat="42.2633212" lon="13.937151"><ele>254.83333333333334</ele><time>2026-05-02T08:42:49.747Z</time></trkpt><trkpt lat="42.2633055" lon="13.9370372"><ele>258.0</ele><time>2026-05-02T08:42:50.751Z</time></trkpt><trkpt lat="42.2632858" lon="13.9369191"><ele>258.0</ele><time>2026-05-02T08:42:51.75Z</time></trkpt><trkpt lat="42.2632622" lon="13.9368015"><ele>258.0</ele><time>2026-05-02T08:42:52.75Z</time></trkpt><trkpt lat="42.2632317" lon="13.9366969"><ele>258.0</ele><time>2026-05-02T08:42:53.748Z</time></trkpt><trkpt lat="42.2631994" lon="13.9366202"><ele>258.0</ele><time>2026-05-02T08:42:54.749Z</time></trkpt><trkpt lat="42.2631169" lon="13.9365077"><ele>258.0</ele><time>2026-05-02T08:42:56.753Z</time></trkpt><trkpt lat="42.2629888" lon="13.9364557"><ele>259.1666666666667</ele><time>2026-05-02T08:42:58.749Z</time></trkpt><trkpt lat="42.262906" lon="13.9364454"><ele>260.3333333333333</ele><time>2026-05-02T08:42:59.749Z</time></trkpt><trkpt lat="42.2628232" lon="13.9364311"><ele>261.5</ele><time>2026-05-02T08:43:00.747Z</time></trkpt><trkpt lat="42.26275" lon="13.9364029"><ele>262.66666666666663</ele><time>2026-05-02T08:43:01.747Z</time></trkpt><trkpt lat="42.2626451" lon="13.9363079"><ele>263.8333333333333</ele><time>2026-05-02T08:43:03.746Z</time></trkpt><trkpt lat="42.2625901" lon="13.9362374"><ele>265.0</ele><time>2026-05-02T08:43:04.748Z</time></trkpt><trkpt lat="42.2625362" lon="13.9361611"><ele>265.0</ele><time>2026-05-02T08:43:05.749Z</time></trkpt><trkpt lat="42.2624805" lon="13.9360798"><ele>265.0</ele><time>2026-05-02T08:43:06.751Z</time></trkpt><trkpt lat="42.2624185" lon="13.9359976"><ele>265.0</ele><time>2026-05-02T08:43:07.75Z</time></trkpt><trkpt lat="42.2623561" lon="13.9359212"><ele>265.0</ele><time>2026-05-02T08:43:08.75Z</time></trkpt><trkpt lat="42.2622941" lon="13.9358478"><ele>265.0</ele><time>2026-05-02T08:43:09.749Z</time></trkpt><trkpt lat="42.2622343" lon="13.9357783"><ele>265.0</ele><time>2026-05-02T08:43:10.75Z</time></trkpt><trkpt lat="42.2621772" lon="13.9357089"><ele>267.0</ele><time>2026-05-02T08:43:11.747Z</time></trkpt><trkpt lat="42.2621336" lon="13.9356411"><ele>269.0</ele><time>2026-05-02T08:43:12.749Z</time></trkpt><trkpt lat="42.2620947" lon="13.9355145"><ele>271.0</ele><time>2026-05-02T08:43:14.754Z</time></trkpt><trkpt lat="42.2620967" lon="13.935343"><ele>273.0</ele><time>2026-05-02T08:43:16.751Z</time></trkpt><trkpt lat="42.2620979" lon="13.9352135"><ele>275.0</ele><time>2026-05-02T08:43:17.748Z</time></trkpt><trkpt lat="42.2620964" lon="13.9350785"><ele>276.1666666666667</ele><time>2026-05-02T08:43:18.748Z</time></trkpt><trkpt lat="42.2620947" lon="13.9349389"><ele>277.33333333333337</ele><time>2026-05-02T08:43:19.749Z</time></trkpt><trkpt lat="42.2620963" lon="13.9348087"><ele>278.5</ele><time>2026-05-02T08:43:20.748Z</time></trkpt><trkpt lat="42.2620974" lon="13.9346927"><ele>279.6666666666667</ele><time>2026-05-02T08:43:21.748Z</time></trkpt><trkpt lat="42.2620959" lon="13.9345894"><ele>280.8333333333333</ele><time>2026-05-02T08:43:22.749Z</time></trkpt><trkpt lat="42.2620952" lon="13.9344974"><ele>282.0</ele><time>2026-05-02T08:43:23.748Z</time></trkpt><trkpt lat="42.2620963" lon="13.9344058"><ele>282.0</ele><time>2026-05-02T08:43:24.749Z</time></trkpt><trkpt lat="42.2620964" lon="13.9343158"><ele>282.0</ele><time>2026-05-02T08:43:25.748Z</time></trkpt><trkpt lat="42.2620843" lon="13.934181"><ele>282.0</ele><time>2026-05-02T08:43:27.746Z</time></trkpt><trkpt lat="42.2620039" lon="13.9341046"><ele>282.0</ele><time>2026-05-02T08:43:30.746Z</time></trkpt><trkpt lat="42.2619124" lon="13.9340949"><ele>282.0</ele><time>2026-05-02T08:43:32.756Z</time></trkpt><trkpt lat="42.2618163" lon="13.9341137"><ele>282.0</ele><time>2026-05-02T08:43:34.752Z</time></trkpt><trkpt lat="42.2617499" lon="13.9340967"><ele>282.0</ele><time>2026-05-02T08:43:36.75Z</time></trkpt><trkpt lat="42.2616798" lon="13.9340666"><ele>282.0</ele><time>2026-05-02T08:43:39.748Z</time></trkpt><trkpt lat="42.2615754" lon="13.9340361"><ele>282.0</ele><time>2026-05-02T08:43:42.748Z</time></trkpt><trkpt lat="42.2614457" lon="13.9339823"><ele>282.0</ele><time>2026-05-02T08:43:44.748Z</time></trkpt><trkpt lat="42.2613682" lon="13.9339482"><ele>282.0</ele><time>2026-05-02T08:43:45.749Z</time></trkpt><trkpt lat="42.2612852" lon="13.9339118"><ele>282.0</ele><time>2026-05-02T08:43:46.748Z</time></trkpt><trkpt lat="42.261198" lon="13.9338714"><ele>282.0</ele><time>2026-05-02T08:43:47.748Z</time></trkpt><trkpt lat="42.2611089" lon="13.9338293"><ele>282.0</ele><time>2026-05-02T08:43:48.748Z</time></trkpt><trkpt lat="42.2610294" lon="13.9337906"><ele>282.0</ele><time>2026-05-02T08:43:49.748Z</time></trkpt><trkpt lat="42.2609614" lon="13.9337589"><ele>282.0</ele><time>2026-05-02T08:43:50.748Z</time></trkpt><trkpt lat="42.2608648" lon="13.9337096"><ele>282.0</ele><time>2026-05-02T08:43:52.746Z</time></trkpt><trkpt lat="42.2608017" lon="13.9336824"><ele>282.0</ele><time>2026-05-02T08:43:55.751Z</time></trkpt><trkpt lat="42.2607149" lon="13.933643"><ele>282.0</ele><time>2026-05-02T08:43:57.757Z</time></trkpt><trkpt lat="42.260652" lon="13.933614"><ele>282.0</ele><time>2026-05-02T08:43:58.747Z</time></trkpt><trkpt lat="42.2605798" lon="13.9335815"><ele>282.0</ele><time>2026-05-02T08:43:59.751Z</time></trkpt><trkpt lat="42.2604996" lon="13.9335507"><ele>282.0</ele><time>2026-05-02T08:44:00.746Z</time></trkpt><trkpt lat="42.2604104" lon="13.9335339"><ele>282.4</ele><time>2026-05-02T08:44:01.749Z</time></trkpt><trkpt lat="42.2603127" lon="13.9335364"><ele>282.79999999999995</ele><time>2026-05-02T08:44:02.747Z</time></trkpt><trkpt lat="42.2602248" lon="13.9335453"><ele>283.2</ele><time>2026-05-02T08:44:03.748Z</time></trkpt><trkpt lat="42.260135" lon="13.9335586"><ele>283.59999999999997</ele><time>2026-05-02T08:44:04.748Z</time></trkpt><trkpt lat="42.2600403" lon="13.9335736"><ele>284.0</ele><time>2026-05-02T08:44:05.749Z</time></trkpt><trkpt lat="42.2599493" lon="13.9335822"><ele>284.0</ele><time>2026-05-02T08:44:06.746Z</time></trkpt><trkpt lat="42.2598548" lon="13.9335858"><ele>284.0</ele><time>2026-05-02T08:44:07.747Z</time></trkpt><trkpt lat="42.2597567" lon="13.9335852"><ele>284.0</ele><time>2026-05-02T08:44:08.753Z</time></trkpt><trkpt lat="42.2596542" lon="13.9335742"><ele>284.0</ele><time>2026-05-02T08:44:09.746Z</time></trkpt><trkpt lat="42.2595472" lon="13.9335462"><ele>284.0</ele><time>2026-05-02T08:44:10.753Z</time></trkpt><trkpt lat="42.2594448" lon="13.9334948"><ele>283.0</ele><time>2026-05-02T08:44:11.749Z</time></trkpt><trkpt lat="42.2593531" lon="13.9334269"><ele>282.0</ele><time>2026-05-02T08:44:12.748Z</time></trkpt><trkpt lat="42.259262" lon="13.9333627"><ele>281.0</ele><time>2026-05-02T08:44:13.747Z</time></trkpt><trkpt lat="42.259168" lon="13.9332995"><ele>280.0</ele><time>2026-05-02T08:44:14.749Z</time></trkpt><trkpt lat="42.2590728" lon="13.9332355"><ele>279.0</ele><time>2026-05-02T08:44:15.747Z</time></trkpt><trkpt lat="42.258974" lon="13.9331801"><ele>282.0</ele><time>2026-05-02T08:44:16.75Z</time></trkpt><trkpt lat="42.2588735" lon="13.9331349"><ele>285.0</ele><time>2026-05-02T08:44:17.747Z</time></trkpt><trkpt lat="42.2587655" lon="13.9331034"><ele>288.0</ele><time>2026-05-02T08:44:18.747Z</time></trkpt><trkpt lat="42.258655" lon="13.9330895"><ele>291.0</ele><time>2026-05-02T08:44:19.748Z</time></trkpt><trkpt lat="42.2585435" lon="13.9330888"><ele>294.0</ele><time>2026-05-02T08:44:20.749Z</time></trkpt><trkpt lat="42.2584287" lon="13.9331044"><ele>294.0</ele><time>2026-05-02T08:44:21.748Z</time></trkpt><trkpt lat="42.258337" lon="13.9331158"><ele>294.0</ele><time>2026-05-02T08:44:22.747Z</time></trkpt><trkpt lat="42.2582554" lon="13.9331265"><ele>294.0</ele><time>2026-05-02T08:44:23.747Z</time></trkpt><trkpt lat="42.2581607" lon="13.9331376"><ele>294.0</ele><time>2026-05-02T08:44:24.747Z</time></trkpt><trkpt lat="42.2580564" lon="13.9331424"><ele>294.0</ele><time>2026-05-02T08:44:25.747Z</time></trkpt><trkpt lat="42.2579458" lon="13.9331343"><ele>295.0</ele><time>2026-05-02T08:44:26.747Z</time></trkpt><trkpt lat="42.2578406" lon="13.9331149"><ele>296.0</ele><time>2026-05-02T08:44:27.747Z</time></trkpt><trkpt lat="42.2577374" lon="13.9330991"><ele>297.0</ele><time>2026-05-02T08:44:28.748Z</time></trkpt><trkpt lat="42.2576389" lon="13.9331087"><ele>298.0</ele><time>2026-05-02T08:44:29.747Z</time></trkpt><trkpt lat="42.2575346" lon="13.9331399"><ele>299.0</ele><time>2026-05-02T08:44:30.748Z</time></trkpt><trkpt lat="42.2574211" lon="13.9331714"><ele>299.0</ele><time>2026-05-02T08:44:31.747Z</time></trkpt><trkpt lat="42.2572991" lon="13.9331982"><ele>299.0</ele><time>2026-05-02T08:44:32.749Z</time></trkpt><trkpt lat="42.2571797" lon="13.9332212"><ele>299.0</ele><time>2026-05-02T08:44:33.748Z</time></trkpt><trkpt lat="42.257062" lon="13.9332518"><ele>299.0</ele><time>2026-05-02T08:44:34.746Z</time></trkpt><trkpt lat="42.2569503" lon="13.9332991"><ele>300.25</ele><time>2026-05-02T08:44:35.747Z</time></trkpt><trkpt lat="42.2568393" lon="13.9333363"><ele>301.5</ele><time>2026-05-02T08:44:36.747Z</time></trkpt><trkpt lat="42.2567232" lon="13.933349"><ele>302.75</ele><time>2026-05-02T08:44:37.748Z</time></trkpt><trkpt lat="42.2566082" lon="13.933339"><ele>304.0</ele><time>2026-05-02T08:44:38.748Z</time></trkpt><trkpt lat="42.256495" lon="13.9333151"><ele>303.75</ele><time>2026-05-02T08:44:39.747Z</time></trkpt><trkpt lat="42.2563785" lon="13.9332783"><ele>303.5</ele><time>2026-05-02T08:44:40.75Z</time></trkpt><trkpt lat="42.2562642" lon="13.9332335"><ele>303.25</ele><time>2026-05-02T08:44:41.746Z</time></trkpt><trkpt lat="42.2561447" lon="13.9331854"><ele>303.0</ele><time>2026-05-02T08:44:42.747Z</time></trkpt><trkpt lat="42.2560312" lon="13.9331412"><ele>303.0</ele><time>2026-05-02T08:44:43.746Z</time></trkpt><trkpt lat="42.2559213" lon="13.933101"><ele>303.0</ele><time>2026-05-02T08:44:44.748Z</time></trkpt><trkpt lat="42.2558232" lon="13.9330584"><ele>303.0</ele><time>2026-05-02T08:44:45.747Z</time></trkpt><trkpt lat="42.2557465" lon="13.9330003"><ele>303.0</ele><time>2026-05-02T08:44:46.748Z</time></trkpt><trkpt lat="42.2556902" lon="13.9329253"><ele>303.0</ele><time>2026-05-02T08:44:47.749Z</time></trkpt><trkpt lat="42.2556571" lon="13.9328245"><ele>303.0</ele><time>2026-05-02T08:44:48.749Z</time></trkpt><trkpt lat="42.2556428" lon="13.9326942"><ele>303.0</ele><time>2026-05-02T08:44:49.748Z</time></trkpt><trkpt lat="42.2556434" lon="13.9325553"><ele>303.0</ele><time>2026-05-02T08:44:50.747Z</time></trkpt><trkpt lat="42.2556341" lon="13.9324266"><ele>303.0</ele><time>2026-05-02T08:44:51.749Z</time></trkpt><trkpt lat="42.2556053" lon="13.9322934"><ele>303.0</ele><time>2026-05-02T08:44:52.75Z</time></trkpt><trkpt lat="42.2555548" lon="13.9321751"><ele>300.0</ele><time>2026-05-02T08:44:53.754Z</time></trkpt><trkpt lat="42.2554903" lon="13.9320593"><ele>297.0</ele><time>2026-05-02T08:44:54.748Z</time></trkpt><trkpt lat="42.2554199" lon="13.9319505"><ele>294.0</ele><time>2026-05-02T08:44:55.749Z</time></trkpt><trkpt lat="42.255337" lon="13.9318555"><ele>291.0</ele><time>2026-05-02T08:44:56.748Z</time></trkpt><trkpt lat="42.2552427" lon="13.9317839"><ele>288.0</ele><time>2026-05-02T08:44:57.748Z</time></trkpt><trkpt lat="42.2551381" lon="13.9317382"><ele>288.6</ele><time>2026-05-02T08:44:58.746Z</time></trkpt><trkpt lat="42.2550295" lon="13.9317097"><ele>289.20000000000005</ele><time>2026-05-02T08:44:59.749Z</time></trkpt><trkpt lat="42.2549292" lon="13.9316728"><ele>289.8</ele><time>2026-05-02T08:45:00.753Z</time></trkpt><trkpt lat="42.2548447" lon="13.931597"><ele>290.40000000000003</ele><time>2026-05-02T08:45:01.756Z</time></trkpt><trkpt lat="42.2547739" lon="13.931513"><ele>291.0</ele><time>2026-05-02T08:45:02.751Z</time></trkpt><trkpt lat="42.2546966" lon="13.9314626"><ele>291.0</ele><time>2026-05-02T08:45:03.748Z</time></trkpt><trkpt lat="42.2546088" lon="13.9314556"><ele>291.0</ele><time>2026-05-02T08:45:04.746Z</time></trkpt><trkpt lat="42.2545161" lon="13.9314855"><ele>291.0</ele><time>2026-05-02T08:45:05.746Z</time></trkpt><trkpt lat="42.2544071" lon="13.931528"><ele>291.0</ele><time>2026-05-02T08:45:06.748Z</time></trkpt><trkpt lat="42.2542862" lon="13.931561"><ele>291.0</ele><time>2026-05-02T08:45:07.749Z</time></trkpt><trkpt lat="42.254159" lon="13.9315902"><ele>291.0</ele><time>2026-05-02T08:45:08.748Z</time></trkpt><trkpt lat="42.2540235" lon="13.9316145"><ele>291.0</ele><time>2026-05-02T08:45:09.747Z</time></trkpt><trkpt lat="42.2538839" lon="13.9316259"><ele>291.0</ele><time>2026-05-02T08:45:10.747Z</time></trkpt><trkpt lat="42.2537476" lon="13.9316195"><ele>291.0</ele><time>2026-05-02T08:45:11.747Z</time></trkpt><trkpt lat="42.2536278" lon="13.9315808"><ele>290.25</ele><time>2026-05-02T08:45:12.748Z</time></trkpt><trkpt lat="42.2535152" lon="13.9315122"><ele>289.5</ele><time>2026-05-02T08:45:13.746Z</time></trkpt><trkpt lat="42.2534086" lon="13.9314273"><ele>288.75</ele><time>2026-05-02T08:45:14.748Z</time></trkpt><trkpt lat="42.2532982" lon="13.9313561"><ele>288.0</ele><time>2026-05-02T08:45:15.748Z</time></trkpt><trkpt lat="42.2531774" lon="13.9312939"><ele>286.5</ele><time>2026-05-02T08:45:16.747Z</time></trkpt><trkpt lat="42.2530534" lon="13.9312512"><ele>285.0</ele><time>2026-05-02T08:45:17.747Z</time></trkpt><trkpt lat="42.2529379" lon="13.9312154"><ele>283.5</ele><time>2026-05-02T08:45:18.747Z</time></trkpt><trkpt lat="42.2528332" lon="13.9311844"><ele>282.0</ele><time>2026-05-02T08:45:19.746Z</time></trkpt><trkpt lat="42.2527385" lon="13.9311558"><ele>282.0</ele><time>2026-05-02T08:45:20.748Z</time></trkpt><trkpt lat="42.2526549" lon="13.931137"><ele>282.0</ele><time>2026-05-02T08:45:21.746Z</time></trkpt><trkpt lat="42.2525927" lon="13.9311193"><ele>282.0</ele><time>2026-05-02T08:45:22.746Z</time></trkpt><trkpt lat="42.2525226" lon="13.9311149"><ele>282.0</ele><time>2026-05-02T08:45:24.748Z</time></trkpt><trkpt lat="42.2524756" lon="13.9311742"><ele>282.0</ele><time>2026-05-02T08:45:57.749Z</time></trkpt><trkpt lat="42.2524111" lon="13.9312318"><ele>282.0</ele><time>2026-05-02T08:46:00.751Z</time></trkpt><trkpt lat="42.2523462" lon="13.9312453"><ele>282.0</ele><time>2026-05-02T08:46:03.748Z</time></trkpt><trkpt lat="42.2522658" lon="13.9312573"><ele>280.6</ele><time>2026-05-02T08:46:07.747Z</time></trkpt><trkpt lat="42.2521771" lon="13.931279"><ele>279.2</ele><time>2026-05-02T08:49:09.747Z</time></trkpt><trkpt lat="42.2520803" lon="13.9313474"><ele>277.8</ele><time>2026-05-02T08:49:11.746Z</time></trkpt><trkpt lat="42.2519996" lon="13.9314081"><ele>276.4</ele><time>2026-05-02T08:49:13.746Z</time></trkpt><trkpt lat="42.2519154" lon="13.9314457"><ele>275.0</ele><time>2026-05-02T08:49:16.659Z</time></trkpt><trkpt lat="42.2518722" lon="13.9315278"><ele>275.0</ele><time>2026-05-02T08:49:23.75Z</time></trkpt><trkpt lat="42.2517923" lon="13.9316187"><ele>275.0</ele><time>2026-05-02T08:49:25.746Z</time></trkpt><trkpt lat="42.251721" lon="13.931706"><ele>275.0</ele><time>2026-05-02T08:49:27.748Z</time></trkpt><trkpt lat="42.2518079" lon="13.9316148"><ele>275.0</ele><time>2026-05-02T08:49:39.747Z</time></trkpt><trkpt lat="42.2519059" lon="13.9315086"><ele>275.0</ele><time>2026-05-02T08:49:41.745Z</time></trkpt><trkpt lat="42.2519642" lon="13.9314556"><ele>275.0</ele><time>2026-05-02T08:49:42.745Z</time></trkpt><trkpt lat="42.2520314" lon="13.9314039"><ele>275.0</ele><time>2026-05-02T08:49:43.748Z</time></trkpt><trkpt lat="42.2521011" lon="13.9313512"><ele>275.0</ele><time>2026-05-02T08:49:44.745Z</time></trkpt><trkpt lat="42.2521664" lon="13.9313086"><ele>275.0</ele><time>2026-05-02T08:49:45.747Z</time></trkpt><trkpt lat="42.252233" lon="13.9312783"><ele>275.0</ele><time>2026-05-02T08:49:46.745Z</time></trkpt><trkpt lat="42.2523021" lon="13.9312543"><ele>275.0</ele><time>2026-05-02T08:49:47.747Z</time></trkpt><trkpt lat="42.2523721" lon="13.9312346"><ele>275.0</ele><time>2026-05-02T08:49:48.746Z</time></trkpt><trkpt lat="42.2524597" lon="13.9311895"><ele>275.0</ele><time>2026-05-02T08:49:50.749Z</time></trkpt><trkpt lat="42.2525167" lon="13.931137"><ele>275.0</ele><time>2026-05-02T08:49:52.747Z</time></trkpt><trkpt lat="42.2524527" lon="13.9310683"><ele>275.0</ele><time>2026-05-02T08:49:59.745Z</time></trkpt><trkpt lat="42.2523905" lon="13.9310249"><ele>275.0</ele><time>2026-05-02T08:50:00.745Z</time></trkpt><trkpt lat="42.2523423" lon="13.9309503"><ele>275.0</ele><time>2026-05-02T08:50:01.746Z</time></trkpt><trkpt lat="42.2523054" lon="13.9308295"><ele>275.0</ele><time>2026-05-02T08:50:02.746Z</time></trkpt><trkpt lat="42.2522821" lon="13.9306875"><ele>275.0</ele><time>2026-05-02T08:50:03.746Z</time></trkpt><trkpt lat="42.25226" lon="13.9305393"><ele>275.0</ele><time>2026-05-02T08:50:04.751Z</time></trkpt><trkpt lat="42.2522217" lon="13.9304068"><ele>275.0</ele><time>2026-05-02T08:50:05.747Z</time></trkpt><trkpt lat="42.2521629" lon="13.93028"><ele>275.0</ele><time>2026-05-02T08:50:06.75Z</time></trkpt><trkpt lat="42.2520881" lon="13.9301593"><ele>275.0</ele><time>2026-05-02T08:50:07.747Z</time></trkpt><trkpt lat="42.2520124" lon="13.9300549"><ele>275.0</ele><time>2026-05-02T08:50:08.745Z</time></trkpt><trkpt lat="42.2519271" lon="13.9299789"><ele>275.0</ele><time>2026-05-02T08:50:09.747Z</time></trkpt><trkpt lat="42.2518233" lon="13.9299301"><ele>275.0</ele><time>2026-05-02T08:50:10.748Z</time></trkpt><trkpt lat="42.2517098" lon="13.9299031"><ele>275.0</ele><time>2026-05-02T08:50:11.747Z</time></trkpt><trkpt lat="42.2515886" lon="13.929872"><ele>275.0</ele><time>2026-05-02T08:50:12.751Z</time></trkpt><trkpt lat="42.25148" lon="13.9298321"><ele>275.0</ele><time>2026-05-02T08:50:13.747Z</time></trkpt><trkpt lat="42.2513911" lon="13.9297715"><ele>275.0</ele><time>2026-05-02T08:50:14.75Z</time></trkpt><trkpt lat="42.2513165" lon="13.9296984"><ele>275.0</ele><time>2026-05-02T08:50:15.747Z</time></trkpt><trkpt lat="42.2512469" lon="13.929666"><ele>275.0</ele><time>2026-05-02T08:50:16.75Z</time></trkpt><trkpt lat="42.2511805" lon="13.9296759"><ele>275.0</ele><time>2026-05-02T08:50:17.749Z</time></trkpt><trkpt lat="42.2511182" lon="13.9297235"><ele>271.83333333333337</ele><time>2026-05-02T08:50:18.752Z</time></trkpt><trkpt lat="42.2510664" lon="13.929793"><ele>268.6666666666667</ele><time>2026-05-02T08:50:19.747Z</time></trkpt><trkpt lat="42.2509664" lon="13.929845"><ele>265.5</ele><time>2026-05-02T08:50:21.747Z</time></trkpt><trkpt lat="42.2509043" lon="13.929766"><ele>262.3333333333333</ele><time>2026-05-02T08:50:23.748Z</time></trkpt><trkpt lat="42.2509255" lon="13.9296333"><ele>259.16666666666663</ele><time>2026-05-02T08:50:25.744Z</time></trkpt><trkpt lat="42.2509701" lon="13.9295502"><ele>256.0</ele><time>2026-05-02T08:50:26.747Z</time></trkpt><trkpt lat="42.251019" lon="13.9294527"><ele>255.99999999999997</ele><time>2026-05-02T08:50:27.747Z</time></trkpt><trkpt lat="42.2510672" lon="13.9293313"><ele>256.0</ele><time>2026-05-02T08:50:28.75Z</time></trkpt><trkpt lat="42.251111" lon="13.9291858"><ele>256.0</ele><time>2026-05-02T08:50:29.745Z</time></trkpt><trkpt lat="42.2511416" lon="13.929061"><ele>256.0</ele><time>2026-05-02T08:50:30.751Z</time></trkpt><trkpt lat="42.2511547" lon="13.9289709"><ele>255.99999999999997</ele><time>2026-05-02T08:50:31.747Z</time></trkpt><trkpt lat="42.2511231" lon="13.9288948"><ele>256.0</ele><time>2026-05-02T08:50:33.745Z</time></trkpt><trkpt lat="42.2510458" lon="13.9289992"><ele>256.0</ele><time>2026-05-02T08:50:36.754Z</time></trkpt><trkpt lat="42.2510098" lon="13.9290983"><ele>256.0</ele><time>2026-05-02T08:50:37.748Z</time></trkpt><trkpt lat="42.2509522" lon="13.9292073"><ele>256.0</ele><time>2026-05-02T08:50:38.746Z</time></trkpt><trkpt lat="42.2508664" lon="13.9293075"><ele>256.0</ele><time>2026-05-02T08:50:39.746Z</time></trkpt><trkpt lat="42.2507593" lon="13.9294085"><ele>256.0</ele><time>2026-05-02T08:50:40.749Z</time></trkpt><trkpt lat="42.2506636" lon="13.9295241"><ele>250.25</ele><time>2026-05-02T08:50:41.747Z</time></trkpt><trkpt lat="42.2505978" lon="13.9296666"><ele>244.5</ele><time>2026-05-02T08:50:42.745Z</time></trkpt><trkpt lat="42.2505469" lon="13.9298323"><ele>238.75</ele><time>2026-05-02T08:50:43.746Z</time></trkpt><trkpt lat="42.2505267" lon="13.9299943"><ele>233.0</ele><time>2026-05-02T08:50:44.747Z</time></trkpt><trkpt lat="42.2505462" lon="13.930152"><ele>232.4</ele><time>2026-05-02T08:50:45.746Z</time></trkpt><trkpt lat="42.2505901" lon="13.9302955"><ele>231.8</ele><time>2026-05-02T08:50:46.749Z</time></trkpt><trkpt lat="42.2506499" lon="13.9304269"><ele>231.2</ele><time>2026-05-02T08:50:47.745Z</time></trkpt><trkpt lat="42.2507115" lon="13.9305449"><ele>230.6</ele><time>2026-05-02T08:50:48.75Z</time></trkpt><trkpt lat="42.2507567" lon="13.9306644"><ele>230.0</ele><time>2026-05-02T08:50:49.747Z</time></trkpt><trkpt lat="42.2507825" lon="13.9308002"><ele>235.0</ele><time>2026-05-02T08:50:50.75Z</time></trkpt><trkpt lat="42.2507917" lon="13.9309501"><ele>240.0</ele><time>2026-05-02T08:50:51.747Z</time></trkpt><trkpt lat="42.2507838" lon="13.9311137"><ele>245.0</ele><time>2026-05-02T08:50:52.746Z</time></trkpt><trkpt lat="42.2507604" lon="13.9313039"><ele>250.0</ele><time>2026-05-02T08:50:53.745Z</time></trkpt><trkpt lat="42.2507095" lon="13.9315017"><ele>250.0</ele><time>2026-05-02T08:50:54.748Z</time></trkpt><trkpt lat="42.2506293" lon="13.9316924"><ele>250.0</ele><time>2026-05-02T08:50:55.746Z</time></trkpt><trkpt lat="42.2505375" lon="13.9318858"><ele>250.0</ele><time>2026-05-02T08:50:56.746Z</time></trkpt><trkpt lat="42.2504542" lon="13.932085"><ele>243.75</ele><time>2026-05-02T08:50:57.746Z</time></trkpt><trkpt lat="42.2503924" lon="13.9322635"><ele>237.5</ele><time>2026-05-02T08:50:58.746Z</time></trkpt><trkpt lat="42.2503513" lon="13.9324189"><ele>231.25</ele><time>2026-05-02T08:50:59.747Z</time></trkpt><trkpt lat="42.2503208" lon="13.9325592"><ele>225.0</ele><time>2026-05-02T08:51:00.75Z</time></trkpt><trkpt lat="42.2502972" lon="13.9326792"><ele>223.8</ele><time>2026-05-02T08:51:01.745Z</time></trkpt><trkpt lat="42.2502824" lon="13.9327735"><ele>222.6</ele><time>2026-05-02T08:51:02.75Z</time></trkpt><trkpt lat="42.2503138" lon="13.9328882"><ele>221.39999999999998</ele><time>2026-05-02T08:51:04.749Z</time></trkpt><trkpt lat="42.2504169" lon="13.9330142"><ele>220.2</ele><time>2026-05-02T08:51:06.745Z</time></trkpt><trkpt lat="42.2505066" lon="13.933094"><ele>219.0</ele><time>2026-05-02T08:51:07.746Z</time></trkpt><trkpt lat="42.2506102" lon="13.9331815"><ele>218.0</ele><time>2026-05-02T08:51:08.748Z</time></trkpt><trkpt lat="42.2507096" lon="13.9332611"><ele>216.99999999999997</ele><time>2026-05-02T08:51:09.746Z</time></trkpt><trkpt lat="42.2507865" lon="13.9333193"><ele>215.99999999999997</ele><time>2026-05-02T08:51:10.749Z</time></trkpt><trkpt lat="42.2508829" lon="13.9333726"><ele>215.0</ele><time>2026-05-02T08:51:12.747Z</time></trkpt><trkpt lat="42.2510042" lon="13.9334194"><ele>214.0</ele><time>2026-05-02T08:53:46.749Z</time></trkpt><trkpt lat="42.2510958" lon="13.933451"><ele>214.0</ele><time>2026-05-02T08:53:47.747Z</time></trkpt><trkpt lat="42.2512126" lon="13.9335033"><ele>214.0</ele><time>2026-05-02T08:53:48.745Z</time></trkpt><trkpt lat="42.2513267" lon="13.9335761"><ele>214.0</ele><time>2026-05-02T08:53:49.747Z</time></trkpt><trkpt lat="42.2514456" lon="13.9336565"><ele>214.0</ele><time>2026-05-02T08:53:50.746Z</time></trkpt><trkpt lat="42.2515658" lon="13.9337389"><ele>217.5</ele><time>2026-05-02T08:53:51.746Z</time></trkpt><trkpt lat="42.2516895" lon="13.9338111"><ele>221.0</ele><time>2026-05-02T08:53:52.75Z</time></trkpt><trkpt lat="42.2518094" lon="13.9338745"><ele>224.5</ele><time>2026-05-02T08:53:53.747Z</time></trkpt><trkpt lat="42.2519245" lon="13.9339395"><ele>228.0</ele><time>2026-05-02T08:53:54.749Z</time></trkpt><trkpt lat="42.2520353" lon="13.9340013"><ele>228.0</ele><time>2026-05-02T08:53:55.748Z</time></trkpt><trkpt lat="42.2521384" lon="13.9340587"><ele>228.0</ele><time>2026-05-02T08:53:56.748Z</time></trkpt><trkpt lat="42.2522277" lon="13.9341058"><ele>228.0</ele><time>2026-05-02T08:53:57.747Z</time></trkpt><trkpt lat="42.2523159" lon="13.934157"><ele>228.0</ele><time>2026-05-02T08:53:58.748Z</time></trkpt><trkpt lat="42.2523958" lon="13.9342135"><ele>228.0</ele><time>2026-05-02T08:53:59.745Z</time></trkpt><trkpt lat="42.2524544" lon="13.9342858"><ele>230.83333333333334</ele><time>2026-05-02T08:54:00.746Z</time></trkpt><trkpt lat="42.2524892" lon="13.9343742"><ele>233.66666666666669</ele><time>2026-05-02T08:54:01.747Z</time></trkpt><trkpt lat="42.2524956" lon="13.9344648"><ele>236.5</ele><time>2026-05-02T08:54:02.747Z</time></trkpt><trkpt lat="42.2524786" lon="13.9346093"><ele>239.33333333333334</ele><time>2026-05-02T08:54:04.746Z</time></trkpt><trkpt lat="42.2524584" lon="13.9347129"><ele>242.16666666666669</ele><time>2026-05-02T08:54:19.747Z</time></trkpt><trkpt lat="42.252377" lon="13.9347379"><ele>245.0</ele><time>2026-05-02T08:54:26.748Z</time></trkpt><trkpt lat="42.2523042" lon="13.9347403"><ele>242.28571428571428</ele><time>2026-05-02T08:54:29.745Z</time></trkpt><trkpt lat="42.2522264" lon="13.934746"><ele>239.57142857142856</ele><time>2026-05-02T08:54:33.746Z</time></trkpt><trkpt lat="42.2521607" lon="13.9347542"><ele>236.85714285714286</ele><time>2026-05-02T08:54:35.747Z</time></trkpt><trkpt lat="42.2520881" lon="13.9347689"><ele>234.14285714285714</ele><time>2026-05-02T08:54:37.747Z</time></trkpt><trkpt lat="42.2520158" lon="13.9347843"><ele>231.42857142857142</ele><time>2026-05-02T08:54:39.746Z</time></trkpt><trkpt lat="42.2519458" lon="13.9347905"><ele>228.71428571428572</ele><time>2026-05-02T08:54:41.748Z</time></trkpt><trkpt lat="42.2518752" lon="13.9347978"><ele>226.0</ele><time>2026-05-02T08:54:43.745Z</time></trkpt><trkpt lat="42.2518017" lon="13.9348028"><ele>225.99999999999997</ele><time>2026-05-02T08:54:45.746Z</time></trkpt><trkpt lat="42.2517258" lon="13.9348061"><ele>226.0</ele><time>2026-05-02T08:54:47.747Z</time></trkpt><trkpt lat="42.251642" lon="13.9348014"><ele>226.0</ele><time>2026-05-02T08:54:49.746Z</time></trkpt><trkpt lat="42.2515536" lon="13.9348067"><ele>226.0</ele><time>2026-05-02T08:54:51.757Z</time></trkpt><trkpt lat="42.2514557" lon="13.9348218"><ele>225.99999999999997</ele><time>2026-05-02T08:54:53.746Z</time></trkpt><trkpt lat="42.2513606" lon="13.9348207"><ele>226.0</ele><time>2026-05-02T08:54:55.746Z</time></trkpt><trkpt lat="42.2512634" lon="13.9348297"><ele>222.20000000000002</ele><time>2026-05-02T08:54:57.745Z</time></trkpt><trkpt lat="42.2511639" lon="13.9348623"><ele>218.40000000000003</ele><time>2026-05-02T08:54:59.746Z</time></trkpt><trkpt lat="42.251062" lon="13.9349026"><ele>214.6</ele><time>2026-05-02T08:55:01.747Z</time></trkpt><trkpt lat="42.2509566" lon="13.9349351"><ele>210.8</ele><time>2026-05-02T08:55:03.746Z</time></trkpt><trkpt lat="42.2508453" lon="13.9349353"><ele>207.0</ele><time>2026-05-02T08:55:05.747Z</time></trkpt><trkpt lat="42.250781" lon="13.9349354"><ele>207.0</ele><time>2026-05-02T08:55:06.749Z</time></trkpt><trkpt lat="42.2507154" lon="13.9349339"><ele>207.0</ele><time>2026-05-02T08:55:07.748Z</time></trkpt><trkpt lat="42.2506503" lon="13.9349279"><ele>207.0</ele><time>2026-05-02T08:55:08.747Z</time></trkpt><trkpt lat="42.2505865" lon="13.9349163"><ele>207.0</ele><time>2026-05-02T08:55:09.746Z</time></trkpt><trkpt lat="42.2505194" lon="13.9349046"><ele>207.0</ele><time>2026-05-02T08:55:10.747Z</time></trkpt><trkpt lat="42.2504521" lon="13.9348963"><ele>207.0</ele><time>2026-05-02T08:55:11.747Z</time></trkpt><trkpt lat="42.2503306" lon="13.9349111"><ele>204.2</ele><time>2026-05-02T08:55:13.746Z</time></trkpt><trkpt lat="42.2502081" lon="13.9349611"><ele>201.39999999999998</ele><time>2026-05-02T08:55:15.745Z</time></trkpt><trkpt lat="42.2501433" lon="13.934977"><ele>198.60000000000002</ele><time>2026-05-02T08:55:16.747Z</time></trkpt><trkpt lat="42.2500792" lon="13.9349777"><ele>195.8</ele><time>2026-05-02T08:55:17.748Z</time></trkpt><trkpt lat="42.2499678" lon="13.934958"><ele>193.0</ele><time>2026-05-02T08:55:19.747Z</time></trkpt><trkpt lat="42.2498746" lon="13.9349259"><ele>190.4</ele><time>2026-05-02T08:55:21.745Z</time></trkpt><trkpt lat="42.2497828" lon="13.9348861"><ele>187.8</ele><time>2026-05-02T08:55:23.746Z</time></trkpt><trkpt lat="42.2496913" lon="13.9348724"><ele>185.2</ele><time>2026-05-02T08:55:25.745Z</time></trkpt><trkpt lat="42.2495949" lon="13.9348996"><ele>182.6</ele><time>2026-05-02T08:55:27.747Z</time></trkpt><trkpt lat="42.249488" lon="13.9349486"><ele>180.0</ele><time>2026-05-02T08:55:29.746Z</time></trkpt><trkpt lat="42.2493725" lon="13.9349907"><ele>180.0</ele><time>2026-05-02T08:55:31.746Z</time></trkpt><trkpt lat="42.2492553" lon="13.9350089"><ele>180.0</ele><time>2026-05-02T08:55:33.747Z</time></trkpt><trkpt lat="42.2491483" lon="13.9350198"><ele>180.0</ele><time>2026-05-02T08:55:35.745Z</time></trkpt><trkpt lat="42.2490664" lon="13.9350128"><ele>180.0</ele><time>2026-05-02T08:55:37.746Z</time></trkpt><trkpt lat="42.2490064" lon="13.9349714"><ele>180.0</ele><time>2026-05-02T08:55:39.744Z</time></trkpt><trkpt lat="42.2489453" lon="13.9349286"><ele>180.0</ele><time>2026-05-02T08:55:41.746Z</time></trkpt><trkpt lat="42.2488745" lon="13.9349444"><ele>178.5</ele><time>2026-05-02T08:55:43.745Z</time></trkpt><trkpt lat="42.2487894" lon="13.9349807"><ele>177.0</ele><time>2026-05-02T08:55:45.745Z</time></trkpt><trkpt lat="42.2487069" lon="13.9350132"><ele>175.5</ele><time>2026-05-02T08:55:47.745Z</time></trkpt><trkpt lat="42.2486346" lon="13.9350789"><ele>174.0</ele><time>2026-05-02T08:55:49.747Z</time></trkpt><trkpt lat="42.2485823" lon="13.9351807"><ele>172.5</ele><time>2026-05-02T08:55:51.747Z</time></trkpt><trkpt lat="42.2485313" lon="13.9352771"><ele>171.0</ele><time>2026-05-02T08:55:53.747Z</time></trkpt><trkpt lat="42.2484652" lon="13.9353587"><ele>168.8</ele><time>2026-05-02T08:55:55.747Z</time></trkpt><trkpt lat="42.2483823" lon="13.9354185"><ele>166.60000000000002</ele><time>2026-05-02T08:55:57.745Z</time></trkpt><trkpt lat="42.2482919" lon="13.9354533"><ele>164.4</ele><time>2026-05-02T08:55:59.746Z</time></trkpt><trkpt lat="42.2482026" lon="13.9354991"><ele>162.2</ele><time>2026-05-02T08:56:01.748Z</time></trkpt><trkpt lat="42.2481527" lon="13.9356019"><ele>160.0</ele><time>2026-05-02T08:56:03.749Z</time></trkpt><trkpt lat="42.2481585" lon="13.9357435"><ele>159.25</ele><time>2026-05-02T08:56:05.747Z</time></trkpt><trkpt lat="42.2481848" lon="13.9358885"><ele>158.5</ele><time>2026-05-02T08:56:07.747Z</time></trkpt><trkpt lat="42.2482045" lon="13.9360371"><ele>157.75</ele><time>2026-05-02T08:56:09.75Z</time></trkpt><trkpt lat="42.2482171" lon="13.9361943"><ele>157.0</ele><time>2026-05-02T08:56:11.747Z</time></trkpt><trkpt lat="42.2482122" lon="13.9363455"><ele>157.0</ele><time>2026-05-02T08:56:13.746Z</time></trkpt><trkpt lat="42.2481758" lon="13.9364808"><ele>157.0</ele><time>2026-05-02T08:56:15.748Z</time></trkpt><trkpt lat="42.2481328" lon="13.9366232"><ele>157.0</ele><time>2026-05-02T08:56:17.751Z</time></trkpt><trkpt lat="42.248079" lon="13.9367574"><ele>157.0</ele><time>2026-05-02T08:56:19.746Z</time></trkpt><trkpt lat="42.2480085" lon="13.9368655"><ele>157.0</ele><time>2026-05-02T08:56:21.751Z</time></trkpt><trkpt lat="42.2479207" lon="13.9369673"><ele>153.0</ele><time>2026-05-02T08:56:23.75Z</time></trkpt><trkpt lat="42.2478353" lon="13.9370369"><ele>149.0</ele><time>2026-05-02T08:56:25.752Z</time></trkpt><trkpt lat="42.2477414" lon="13.9371034"><ele>145.0</ele><time>2026-05-02T08:56:27.748Z</time></trkpt><trkpt lat="42.2476326" lon="13.9371841"><ele>141.0</ele><time>2026-05-02T08:56:29.745Z</time></trkpt><trkpt lat="42.2475237" lon="13.9372646"><ele>141.0</ele><time>2026-05-02T08:56:31.754Z</time></trkpt><trkpt lat="42.2474184" lon="13.9372938"><ele>141.0</ele><time>2026-05-02T08:56:33.748Z</time></trkpt><trkpt lat="42.2473072" lon="13.9372787"><ele>141.0</ele><time>2026-05-02T08:56:35.745Z</time></trkpt><trkpt lat="42.2471976" lon="13.9372046"><ele>141.0</ele><time>2026-05-02T08:56:37.749Z</time></trkpt><trkpt lat="42.2471268" lon="13.9370897"><ele>141.16666666666666</ele><time>2026-05-02T08:56:39.746Z</time></trkpt><trkpt lat="42.2470703" lon="13.9369389"><ele>141.33333333333334</ele><time>2026-05-02T08:56:41.749Z</time></trkpt><trkpt lat="42.2470408" lon="13.9368608"><ele>141.5</ele><time>2026-05-02T08:56:42.744Z</time></trkpt><trkpt lat="42.2470168" lon="13.9367801"><ele>141.66666666666669</ele><time>2026-05-02T08:56:43.744Z</time></trkpt><trkpt lat="42.2469976" lon="13.9366963"><ele>141.83333333333334</ele><time>2026-05-02T08:56:44.747Z</time></trkpt><trkpt lat="42.2469832" lon="13.9366077"><ele>142.0</ele><time>2026-05-02T08:56:45.745Z</time></trkpt><trkpt lat="42.2469728" lon="13.9365204"><ele>142.0</ele><time>2026-05-02T08:56:46.744Z</time></trkpt><trkpt lat="42.2469662" lon="13.9364358"><ele>142.0</ele><time>2026-05-02T08:56:47.746Z</time></trkpt><trkpt lat="42.2469592" lon="13.936351"><ele>142.0</ele><time>2026-05-02T08:56:48.745Z</time></trkpt><trkpt lat="42.2469452" lon="13.936189"><ele>142.0</ele><time>2026-05-02T08:56:50.747Z</time></trkpt><trkpt lat="42.2469128" lon="13.9360498"><ele>142.0</ele><time>2026-05-02T08:56:52.745Z</time></trkpt><trkpt lat="42.2469193" lon="13.9359516"><ele>142.0</ele><time>2026-05-02T08:56:55.747Z</time></trkpt><trkpt lat="42.2469437" lon="13.9358713"><ele>142.0</ele><time>2026-05-02T08:56:57.745Z</time></trkpt><trkpt lat="42.2469174" lon="13.935989"><ele>142.0</ele><time>2026-05-02T08:57:42.745Z</time></trkpt><trkpt lat="42.2469077" lon="13.9361049"><ele>142.0</ele><time>2026-05-02T08:57:45.746Z</time></trkpt><trkpt lat="42.2469394" lon="13.9362346"><ele>142.0</ele><time>2026-05-02T08:57:47.744Z</time></trkpt><trkpt lat="42.246963" lon="13.9363735"><ele>142.0</ele><time>2026-05-02T08:57:49.746Z</time></trkpt><trkpt lat="42.2469753" lon="13.9364999"><ele>142.0</ele><time>2026-05-02T08:57:51.744Z</time></trkpt><trkpt lat="42.2469814" lon="13.9366248"><ele>142.0</ele><time>2026-05-02T08:57:53.748Z</time></trkpt><trkpt lat="42.2470101" lon="13.9367735"><ele>142.0</ele><time>2026-05-02T08:57:55.746Z</time></trkpt><trkpt lat="42.2470587" lon="13.9369167"><ele>142.0</ele><time>2026-05-02T08:57:57.746Z</time></trkpt><trkpt lat="42.2471025" lon="13.9370242"><ele>142.0</ele><time>2026-05-02T08:57:59.745Z</time></trkpt><trkpt lat="42.2470525" lon="13.9370875"><ele>142.0</ele><time>2026-05-02T08:58:04.745Z</time></trkpt><trkpt lat="42.2469808" lon="13.9370615"><ele>142.0</ele><time>2026-05-02T08:58:18.745Z</time></trkpt><trkpt lat="42.2469255" lon="13.9370107"><ele>142.0</ele><time>2026-05-02T08:58:52.745Z</time></trkpt><trkpt lat="42.2468584" lon="13.936954"><ele>142.0</ele><time>2026-05-02T08:58:55.746Z</time></trkpt><trkpt lat="42.2468481" lon="13.9368575"><ele>142.0</ele><time>2026-05-02T09:04:42.744Z</time></trkpt><trkpt lat="42.2468224" lon="13.9367227"><ele>142.0</ele><time>2026-05-02T09:04:45.743Z</time></trkpt><trkpt lat="42.2467839" lon="13.9366513"><ele>142.0</ele><time>2026-05-02T09:10:00.745Z</time></trkpt><trkpt lat="42.2467496" lon="13.9365697"><ele>142.0</ele><time>2026-05-02T09:10:03.745Z</time></trkpt><trkpt lat="42.2467134" lon="13.9364723"><ele>142.0</ele><time>2026-05-02T09:10:05.749Z</time></trkpt><trkpt lat="42.2466645" lon="13.9363699"><ele>142.0</ele><time>2026-05-02T09:10:07.744Z</time></trkpt><trkpt lat="42.2466138" lon="13.9362845"><ele>142.0</ele><time>2026-05-02T09:10:09.747Z</time></trkpt><trkpt lat="42.2465453" lon="13.9362318"><ele>142.0</ele><time>2026-05-02T09:10:11.747Z</time></trkpt><trkpt lat="42.2464736" lon="13.9362467"><ele>143.66666666666669</ele><time>2026-05-02T09:10:13.744Z</time></trkpt><trkpt lat="42.246413" lon="13.9363346"><ele>145.33333333333334</ele><time>2026-05-02T09:10:15.744Z</time></trkpt><trkpt lat="42.2463723" lon="13.9364421"><ele>147.0</ele><time>2026-05-02T09:10:17.746Z</time></trkpt><trkpt lat="42.2463169" lon="13.9365369"><ele>148.66666666666666</ele><time>2026-05-02T09:10:19.746Z</time></trkpt><trkpt lat="42.2462551" lon="13.9366071"><ele>150.33333333333331</ele><time>2026-05-02T09:10:21.746Z</time></trkpt><trkpt lat="42.2462133" lon="13.9367101"><ele>152.0</ele><time>2026-05-02T09:10:23.756Z</time></trkpt><trkpt lat="42.2462199" lon="13.9368624"><ele>152.33333333333331</ele><time>2026-05-02T09:10:25.746Z</time></trkpt><trkpt lat="42.24624" lon="13.9369491"><ele>152.66666666666666</ele><time>2026-05-02T09:10:26.746Z</time></trkpt><trkpt lat="42.2462563" lon="13.9370464"><ele>153.0</ele><time>2026-05-02T09:10:27.745Z</time></trkpt><trkpt lat="42.2462504" lon="13.9371452"><ele>153.33333333333334</ele><time>2026-05-02T09:10:28.747Z</time></trkpt><trkpt lat="42.2462325" lon="13.9372424"><ele>153.66666666666669</ele><time>2026-05-02T09:10:29.748Z</time></trkpt><trkpt lat="42.246198" lon="13.9373377"><ele>154.0</ele><time>2026-05-02T09:10:30.745Z</time></trkpt><trkpt lat="42.2461481" lon="13.9374334"><ele>154.0</ele><time>2026-05-02T09:10:31.745Z</time></trkpt><trkpt lat="42.2460868" lon="13.9375218"><ele>154.0</ele><time>2026-05-02T09:10:32.748Z</time></trkpt><trkpt lat="42.2460274" lon="13.937602"><ele>154.0</ele><time>2026-05-02T09:10:33.75Z</time></trkpt><trkpt lat="42.2459764" lon="13.9376663"><ele>154.0</ele><time>2026-05-02T09:10:34.747Z</time></trkpt><trkpt lat="42.2459063" lon="13.9377493"><ele>154.0</ele><time>2026-05-02T09:10:36.747Z</time></trkpt><trkpt lat="42.2458392" lon="13.9377679"><ele>154.0</ele><time>2026-05-02T09:10:39.746Z</time></trkpt><trkpt lat="42.2457963" lon="13.9376821"><ele>154.0</ele><time>2026-05-02T09:10:41.747Z</time></trkpt><trkpt lat="42.2457482" lon="13.9375301"><ele>154.0</ele><time>2026-05-02T09:10:43.746Z</time></trkpt><trkpt lat="42.2457211" lon="13.937436"><ele>154.0</ele><time>2026-05-02T09:10:44.745Z</time></trkpt><trkpt lat="42.2456881" lon="13.9373327"><ele>154.0</ele><time>2026-05-02T09:10:45.744Z</time></trkpt><trkpt lat="42.2456508" lon="13.9372187"><ele>154.0</ele><time>2026-05-02T09:10:46.751Z</time></trkpt><trkpt lat="42.2456102" lon="13.9370991"><ele>154.2</ele><time>2026-05-02T09:10:47.749Z</time></trkpt><trkpt lat="42.2455654" lon="13.9369738"><ele>154.4</ele><time>2026-05-02T09:10:48.747Z</time></trkpt><trkpt lat="42.2455237" lon="13.9368422"><ele>154.6</ele><time>2026-05-02T09:10:49.746Z</time></trkpt><trkpt lat="42.2454823" lon="13.9367113"><ele>154.8</ele><time>2026-05-02T09:10:50.748Z</time></trkpt><trkpt lat="42.2454422" lon="13.9365822"><ele>155.0</ele><time>2026-05-02T09:10:51.746Z</time></trkpt><trkpt lat="42.2453934" lon="13.9364459"><ele>155.5</ele><time>2026-05-02T09:10:52.746Z</time></trkpt><trkpt lat="42.245341" lon="13.9362993"><ele>156.0</ele><time>2026-05-02T09:10:53.745Z</time></trkpt><trkpt lat="42.2452883" lon="13.9361458"><ele>156.5</ele><time>2026-05-02T09:10:54.746Z</time></trkpt><trkpt lat="42.2452412" lon="13.935987"><ele>157.0</ele><time>2026-05-02T09:10:55.746Z</time></trkpt><trkpt lat="42.2451907" lon="13.935839"><ele>157.6</ele><time>2026-05-02T09:10:56.747Z</time></trkpt><trkpt lat="42.2451442" lon="13.9356899"><ele>158.2</ele><time>2026-05-02T09:10:57.745Z</time></trkpt><trkpt lat="42.2451027" lon="13.9355601"><ele>158.8</ele><time>2026-05-02T09:10:58.745Z</time></trkpt><trkpt lat="42.2450589" lon="13.9354446"><ele>159.4</ele><time>2026-05-02T09:10:59.747Z</time></trkpt><trkpt lat="42.2450224" lon="13.9353389"><ele>160.0</ele><time>2026-05-02T09:11:00.746Z</time></trkpt><trkpt lat="42.2449864" lon="13.935244"><ele>160.0</ele><time>2026-05-02T09:11:01.745Z</time></trkpt><trkpt lat="42.2449353" lon="13.9351607"><ele>160.0</ele><time>2026-05-02T09:11:02.745Z</time></trkpt><trkpt lat="42.2448676" lon="13.9351105"><ele>160.0</ele><time>2026-05-02T09:11:03.746Z</time></trkpt><trkpt lat="42.2448014" lon="13.9350817"><ele>160.0</ele><time>2026-05-02T09:11:04.747Z</time></trkpt><trkpt lat="42.2446979" lon="13.9350764"><ele>160.0</ele><time>2026-05-02T09:11:06.747Z</time></trkpt><trkpt lat="42.2446467" lon="13.9351511"><ele>160.0</ele><time>2026-05-02T09:11:07.746Z</time></trkpt><trkpt lat="42.244548" lon="13.9353652"><ele>160.5</ele><time>2026-05-02T09:11:09.745Z</time></trkpt><trkpt lat="42.2444918" lon="13.9356059"><ele>161.0</ele><time>2026-05-02T09:11:10.745Z</time></trkpt><trkpt lat="42.2444896" lon="13.9357761"><ele>161.5</ele><time>2026-05-02T09:11:11.746Z</time></trkpt><trkpt lat="42.2444583" lon="13.9358997"><ele>162.0</ele><time>2026-05-02T09:11:12.745Z</time></trkpt><trkpt lat="42.2444277" lon="13.936016"><ele>162.0</ele><time>2026-05-02T09:11:13.745Z</time></trkpt><trkpt lat="42.2443841" lon="13.9361246"><ele>162.0</ele><time>2026-05-02T09:11:14.746Z</time></trkpt><trkpt lat="42.2443501" lon="13.936225"><ele>162.0</ele><time>2026-05-02T09:11:15.744Z</time></trkpt><trkpt lat="42.2443165" lon="13.9363177"><ele>162.0</ele><time>2026-05-02T09:11:16.745Z</time></trkpt><trkpt lat="42.2442815" lon="13.9364053"><ele>162.0</ele><time>2026-05-02T09:11:17.747Z</time></trkpt><trkpt lat="42.2442436" lon="13.9364999"><ele>162.0</ele><time>2026-05-02T09:11:18.745Z</time></trkpt><trkpt lat="42.244199" lon="13.936598"><ele>162.0</ele><time>2026-05-02T09:11:19.746Z</time></trkpt><trkpt lat="42.2441571" lon="13.9366907"><ele>162.0</ele><time>2026-05-02T09:11:20.745Z</time></trkpt><trkpt lat="42.2441188" lon="13.9367739"><ele>162.0</ele><time>2026-05-02T09:11:21.755Z</time></trkpt><trkpt lat="42.2440381" lon="13.9368928"><ele>162.0</ele><time>2026-05-02T09:11:23.747Z</time></trkpt><trkpt lat="42.2439401" lon="13.9368969"><ele>162.0</ele><time>2026-05-02T09:11:25.747Z</time></trkpt><trkpt lat="42.2438591" lon="13.9367822"><ele>162.6</ele><time>2026-05-02T09:11:27.747Z</time></trkpt><trkpt lat="42.2438294" lon="13.9366847"><ele>163.2</ele><time>2026-05-02T09:11:28.746Z</time></trkpt><trkpt lat="42.2437965" lon="13.9365572"><ele>163.8</ele><time>2026-05-02T09:11:29.746Z</time></trkpt><trkpt lat="42.2437648" lon="13.9364177"><ele>164.4</ele><time>2026-05-02T09:11:30.744Z</time></trkpt><trkpt lat="42.2437283" lon="13.9362762"><ele>165.0</ele><time>2026-05-02T09:11:31.744Z</time></trkpt><trkpt lat="42.2436923" lon="13.9361272"><ele>165.0</ele><time>2026-05-02T09:11:32.745Z</time></trkpt><trkpt lat="42.243656" lon="13.9359693"><ele>165.0</ele><time>2026-05-02T09:11:33.746Z</time></trkpt><trkpt lat="42.2436179" lon="13.9358027"><ele>165.0</ele><time>2026-05-02T09:11:34.743Z</time></trkpt><trkpt lat="42.2435765" lon="13.9356328"><ele>165.0</ele><time>2026-05-02T09:11:35.748Z</time></trkpt><trkpt lat="42.2435323" lon="13.935462"><ele>165.5</ele><time>2026-05-02T09:11:36.744Z</time></trkpt><trkpt lat="42.2434877" lon="13.9352962"><ele>166.0</ele><time>2026-05-02T09:11:37.744Z</time></trkpt><trkpt lat="42.243443" lon="13.9351206"><ele>166.5</ele><time>2026-05-02T09:11:38.746Z</time></trkpt><trkpt lat="42.2433994" lon="13.9349472"><ele>167.0</ele><time>2026-05-02T09:11:39.747Z</time></trkpt><trkpt lat="42.2433559" lon="13.9347761"><ele>167.5</ele><time>2026-05-02T09:11:40.746Z</time></trkpt><trkpt lat="42.2433163" lon="13.9346107"><ele>168.0</ele><time>2026-05-02T09:11:41.746Z</time></trkpt><trkpt lat="42.2432761" lon="13.9344476"><ele>168.5</ele><time>2026-05-02T09:11:42.745Z</time></trkpt><trkpt lat="42.2432393" lon="13.9342897"><ele>169.0</ele><time>2026-05-02T09:11:43.745Z</time></trkpt><trkpt lat="42.2431994" lon="13.9341293"><ele>169.25</ele><time>2026-05-02T09:11:44.745Z</time></trkpt><trkpt lat="42.2431604" lon="13.9339722"><ele>169.5</ele><time>2026-05-02T09:11:45.75Z</time></trkpt><trkpt lat="42.2431193" lon="13.9338204"><ele>169.75</ele><time>2026-05-02T09:11:46.747Z</time></trkpt><trkpt lat="42.2430809" lon="13.9336737"><ele>170.0</ele><time>2026-05-02T09:11:47.745Z</time></trkpt><trkpt lat="42.2430441" lon="13.9335301"><ele>171.75</ele><time>2026-05-02T09:11:48.746Z</time></trkpt><trkpt lat="42.2430068" lon="13.9333874"><ele>173.5</ele><time>2026-05-02T09:11:49.747Z</time></trkpt><trkpt lat="42.2429693" lon="13.9332419"><ele>175.25</ele><time>2026-05-02T09:11:50.743Z</time></trkpt><trkpt lat="42.2429301" lon="13.9330949"><ele>177.0</ele><time>2026-05-02T09:11:51.746Z</time></trkpt><trkpt lat="42.2428948" lon="13.93295"><ele>177.0</ele><time>2026-05-02T09:11:52.748Z</time></trkpt><trkpt lat="42.2428587" lon="13.9328024"><ele>177.0</ele><time>2026-05-02T09:11:53.745Z</time></trkpt><trkpt lat="42.2428227" lon="13.9326608"><ele>177.0</ele><time>2026-05-02T09:11:54.747Z</time></trkpt><trkpt lat="42.2427846" lon="13.9325152"><ele>177.0</ele><time>2026-05-02T09:11:55.746Z</time></trkpt><trkpt lat="42.242747" lon="13.9323674"><ele>177.5</ele><time>2026-05-02T09:11:56.745Z</time></trkpt><trkpt lat="42.2427108" lon="13.932218"><ele>178.0</ele><time>2026-05-02T09:11:57.747Z</time></trkpt><trkpt lat="42.2426785" lon="13.9320657"><ele>178.5</ele><time>2026-05-02T09:11:58.746Z</time></trkpt><trkpt lat="42.2426394" lon="13.931919"><ele>179.0</ele><time>2026-05-02T09:11:59.746Z</time></trkpt><trkpt lat="42.2425993" lon="13.9317742"><ele>179.39999999999998</ele><time>2026-05-02T09:12:00.746Z</time></trkpt><trkpt lat="42.2425653" lon="13.9316347"><ele>179.8</ele><time>2026-05-02T09:12:01.746Z</time></trkpt><trkpt lat="42.2425349" lon="13.9315075"><ele>180.2</ele><time>2026-05-02T09:12:02.743Z</time></trkpt><trkpt lat="42.2425039" lon="13.9313788"><ele>180.60000000000002</ele><time>2026-05-02T09:12:03.745Z</time></trkpt><trkpt lat="42.2424729" lon="13.9312464"><ele>181.0</ele><time>2026-05-02T09:12:04.745Z</time></trkpt><trkpt lat="42.2424421" lon="13.931111"><ele>181.0</ele><time>2026-05-02T09:12:05.747Z</time></trkpt><trkpt lat="42.2424101" lon="13.9309794"><ele>181.0</ele><time>2026-05-02T09:12:06.745Z</time></trkpt><trkpt lat="42.2423799" lon="13.9308502"><ele>181.0</ele><time>2026-05-02T09:12:07.743Z</time></trkpt><trkpt lat="42.2423508" lon="13.9307239"><ele>181.0</ele><time>2026-05-02T09:12:08.746Z</time></trkpt><trkpt lat="42.2423194" lon="13.9305927"><ele>181.0</ele><time>2026-05-02T09:12:09.745Z</time></trkpt><trkpt lat="42.2422835" lon="13.9304597"><ele>181.25</ele><time>2026-05-02T09:12:10.745Z</time></trkpt><trkpt lat="42.2422492" lon="13.9303226"><ele>181.5</ele><time>2026-05-02T09:12:11.745Z</time></trkpt><trkpt lat="42.2422114" lon="13.9301777"><ele>181.75</ele><time>2026-05-02T09:12:12.745Z</time></trkpt><trkpt lat="42.2421724" lon="13.9300334"><ele>182.0</ele><time>2026-05-02T09:12:13.746Z</time></trkpt><trkpt lat="42.2421341" lon="13.9298841"><ele>182.0</ele><time>2026-05-02T09:12:14.744Z</time></trkpt><trkpt lat="42.2420947" lon="13.9297354"><ele>182.0</ele><time>2026-05-02T09:12:15.745Z</time></trkpt><trkpt lat="42.2420558" lon="13.929593"><ele>182.0</ele><time>2026-05-02T09:12:16.745Z</time></trkpt><trkpt lat="42.2420185" lon="13.9294564"><ele>182.0</ele><time>2026-05-02T09:12:17.745Z</time></trkpt><trkpt lat="42.2419843" lon="13.929327"><ele>182.0</ele><time>2026-05-02T09:12:18.744Z</time></trkpt><trkpt lat="42.2419526" lon="13.9292125"><ele>182.0</ele><time>2026-05-02T09:12:19.745Z</time></trkpt><trkpt lat="42.2419243" lon="13.9291171"><ele>182.0</ele><time>2026-05-02T09:12:20.743Z</time></trkpt><trkpt lat="42.2418846" lon="13.9289745"><ele>182.0</ele><time>2026-05-02T09:12:22.745Z</time></trkpt><trkpt lat="42.2418546" lon="13.9288533"><ele>182.0</ele><time>2026-05-02T09:12:24.745Z</time></trkpt><trkpt lat="42.2418237" lon="13.9287012"><ele>182.0</ele><time>2026-05-02T09:12:26.745Z</time></trkpt><trkpt lat="42.2417986" lon="13.928605"><ele>182.0</ele><time>2026-05-02T09:12:27.744Z</time></trkpt><trkpt lat="42.2417721" lon="13.9284942"><ele>182.0</ele><time>2026-05-02T09:12:28.746Z</time></trkpt><trkpt lat="42.2417394" lon="13.9283728"><ele>182.0</ele><time>2026-05-02T09:12:29.747Z</time></trkpt><trkpt lat="42.2417028" lon="13.9282329"><ele>182.0</ele><time>2026-05-02T09:12:30.746Z</time></trkpt><trkpt lat="42.241665" lon="13.9280935"><ele>182.0</ele><time>2026-05-02T09:12:31.752Z</time></trkpt><trkpt lat="42.2416282" lon="13.9279471"><ele>182.8</ele><time>2026-05-02T09:12:32.75Z</time></trkpt><trkpt lat="42.2415959" lon="13.9278066"><ele>183.6</ele><time>2026-05-02T09:12:33.747Z</time></trkpt><trkpt lat="42.241565" lon="13.9276692"><ele>184.4</ele><time>2026-05-02T09:12:34.745Z</time></trkpt><trkpt lat="42.2415367" lon="13.9275458"><ele>185.20000000000002</ele><time>2026-05-02T09:12:35.744Z</time></trkpt><trkpt lat="42.241511" lon="13.9274301"><ele>186.0</ele><time>2026-05-02T09:12:36.746Z</time></trkpt><trkpt lat="42.2414864" lon="13.9273226"><ele>186.0</ele><time>2026-05-02T09:12:37.745Z</time></trkpt><trkpt lat="42.2414613" lon="13.9272272"><ele>186.0</ele><time>2026-05-02T09:12:38.745Z</time></trkpt><trkpt lat="42.2414397" lon="13.927138"><ele>186.0</ele><time>2026-05-02T09:12:39.746Z</time></trkpt><trkpt lat="42.24142" lon="13.9270547"><ele>186.0</ele><time>2026-05-02T09:12:40.746Z</time></trkpt><trkpt lat="42.2413872" lon="13.9269109"><ele>186.0</ele><time>2026-05-02T09:12:42.745Z</time></trkpt><trkpt lat="42.2413635" lon="13.9267961"><ele>186.0</ele><time>2026-05-02T09:12:44.745Z</time></trkpt><trkpt lat="42.2413485" lon="13.9267054"><ele>186.16666666666666</ele><time>2026-05-02T09:12:46.744Z</time></trkpt><trkpt lat="42.2413344" lon="13.9265975"><ele>186.33333333333334</ele><time>2026-05-02T09:12:49.746Z</time></trkpt><trkpt lat="42.2413186" lon="13.9264964"><ele>186.5</ele><time>2026-05-02T09:13:21.745Z</time></trkpt><trkpt lat="42.241313" lon="13.926385"><ele>186.66666666666669</ele><time>2026-05-02T09:13:23.745Z</time></trkpt><trkpt lat="42.2413799" lon="13.9263254"><ele>186.83333333333334</ele><time>2026-05-02T09:13:25.745Z</time></trkpt><trkpt lat="42.2414999" lon="13.9263344"><ele>187.0</ele><time>2026-05-02T09:13:27.745Z</time></trkpt><trkpt lat="42.2415712" lon="13.9263405"><ele>187.0</ele><time>2026-05-02T09:13:28.746Z</time></trkpt><trkpt lat="42.2416557" lon="13.9263519"><ele>187.0</ele><time>2026-05-02T09:13:29.745Z</time></trkpt><trkpt lat="42.241751" lon="13.9263634"><ele>187.0</ele><time>2026-05-02T09:13:30.747Z</time></trkpt><trkpt lat="42.2418557" lon="13.9263841"><ele>187.0</ele><time>2026-05-02T09:13:31.75Z</time></trkpt><trkpt lat="42.241964" lon="13.9264159"><ele>187.0</ele><time>2026-05-02T09:13:32.748Z</time></trkpt><trkpt lat="42.2420648" lon="13.9264618"><ele>187.0</ele><time>2026-05-02T09:13:33.746Z</time></trkpt><trkpt lat="42.2421624" lon="13.9265247"><ele>187.0</ele><time>2026-05-02T09:13:34.744Z</time></trkpt><trkpt lat="42.2422548" lon="13.9266024"><ele>187.0</ele><time>2026-05-02T09:13:35.746Z</time></trkpt><trkpt lat="42.2423446" lon="13.9266925"><ele>187.0</ele><time>2026-05-02T09:13:36.748Z</time></trkpt><trkpt lat="42.2424337" lon="13.926791"><ele>187.0</ele><time>2026-05-02T09:13:37.746Z</time></trkpt><trkpt lat="42.2425228" lon="13.9268965"><ele>186.5</ele><time>2026-05-02T09:13:38.748Z</time></trkpt><trkpt lat="42.2426103" lon="13.9270105"><ele>186.0</ele><time>2026-05-02T09:13:39.746Z</time></trkpt><trkpt lat="42.2426969" lon="13.9271321"><ele>185.5</ele><time>2026-05-02T09:13:40.746Z</time></trkpt><trkpt lat="42.2427862" lon="13.9272539"><ele>185.0</ele><time>2026-05-02T09:13:41.744Z</time></trkpt><trkpt lat="42.2428742" lon="13.9273753"><ele>185.0</ele><time>2026-05-02T09:13:42.746Z</time></trkpt><trkpt lat="42.2429627" lon="13.9274919"><ele>185.0</ele><time>2026-05-02T09:13:43.745Z</time></trkpt><trkpt lat="42.2430454" lon="13.9276027"><ele>185.0</ele><time>2026-05-02T09:13:44.745Z</time></trkpt><trkpt lat="42.243117" lon="13.927701"><ele>185.0</ele><time>2026-05-02T09:13:45.751Z</time></trkpt><trkpt lat="42.2431743" lon="13.9277818"><ele>185.0</ele><time>2026-05-02T09:13:46.745Z</time></trkpt><trkpt lat="42.2432187" lon="13.9278455"><ele>184.2</ele><time>2026-05-02T09:13:47.746Z</time></trkpt><trkpt lat="42.2432748" lon="13.9279258"><ele>183.4</ele><time>2026-05-02T09:13:49.748Z</time></trkpt><trkpt lat="42.2433329" lon="13.9279839"><ele>182.60000000000002</ele><time>2026-05-02T09:13:51.745Z</time></trkpt><trkpt lat="42.2434079" lon="13.9280643"><ele>181.8</ele><time>2026-05-02T09:13:53.753Z</time></trkpt><trkpt lat="42.2434878" lon="13.928183"><ele>181.0</ele><time>2026-05-02T09:13:55.754Z</time></trkpt><trkpt lat="42.2435742" lon="13.9282847"><ele>181.0</ele><time>2026-05-02T09:13:57.746Z</time></trkpt><trkpt lat="42.2436764" lon="13.9283636"><ele>181.0</ele><time>2026-05-02T09:13:59.743Z</time></trkpt><trkpt lat="42.2437979" lon="13.9284011"><ele>181.0</ele><time>2026-05-02T09:14:01.744Z</time></trkpt><trkpt lat="42.2438649" lon="13.9283991"><ele>181.0</ele><time>2026-05-02T09:14:02.746Z</time></trkpt><trkpt lat="42.2439825" lon="13.928377"><ele>181.0</ele><time>2026-05-02T09:14:04.745Z</time></trkpt><trkpt lat="42.2440959" lon="13.9283323"><ele>180.4</ele><time>2026-05-02T09:14:06.747Z</time></trkpt><trkpt lat="42.2441858" lon="13.9282946"><ele>179.8</ele><time>2026-05-02T09:14:08.748Z</time></trkpt><trkpt lat="42.2442562" lon="13.9282382"><ele>179.20000000000002</ele><time>2026-05-02T09:14:10.749Z</time></trkpt><trkpt lat="42.2443187" lon="13.9281433"><ele>178.60000000000002</ele><time>2026-05-02T09:14:12.745Z</time></trkpt><trkpt lat="42.2443901" lon="13.9280274"><ele>178.0</ele><time>2026-05-02T09:14:14.746Z</time></trkpt><trkpt lat="42.2444394" lon="13.9278662"><ele>177.99999999999997</ele><time>2026-05-02T09:14:16.744Z</time></trkpt><trkpt lat="42.2444545" lon="13.927776"><ele>178.0</ele><time>2026-05-02T09:14:17.746Z</time></trkpt><trkpt lat="42.2444639" lon="13.92768"><ele>178.0</ele><time>2026-05-02T09:14:18.746Z</time></trkpt><trkpt lat="42.244474" lon="13.9275949"><ele>178.0</ele><time>2026-05-02T09:14:19.745Z</time></trkpt><trkpt lat="42.2444823" lon="13.9275069"><ele>178.0</ele><time>2026-05-02T09:14:20.744Z</time></trkpt><trkpt lat="42.2444883" lon="13.9274107"><ele>177.99999999999997</ele><time>2026-05-02T09:14:21.746Z</time></trkpt><trkpt lat="42.2444984" lon="13.9273171"><ele>178.0</ele><time>2026-05-02T09:14:22.744Z</time></trkpt><trkpt lat="42.2445048" lon="13.9272297"><ele>179.16666666666669</ele><time>2026-05-02T09:14:23.744Z</time></trkpt><trkpt lat="42.2445284" lon="13.927087"><ele>180.33333333333334</ele><time>2026-05-02T09:14:25.743Z</time></trkpt><trkpt lat="42.2445566" lon="13.9269728"><ele>181.5</ele><time>2026-05-02T09:14:27.746Z</time></trkpt><trkpt lat="42.244583" lon="13.926888"><ele>182.66666666666666</ele><time>2026-05-02T09:14:29.747Z</time></trkpt><trkpt lat="42.2446148" lon="13.9268013"><ele>183.83333333333331</ele><time>2026-05-02T09:14:53.744Z</time></trkpt><trkpt lat="42.2446617" lon="13.926741"><ele>185.0</ele><time>2026-05-02T09:14:55.747Z</time></trkpt><trkpt lat="42.2446184" lon="13.9268159"><ele>184.99999999999997</ele><time>2026-05-02T09:17:55.697Z</time></trkpt><trkpt lat="42.2445951" lon="13.9269041"><ele>185.0</ele><time>2026-05-02T09:18:02.735Z</time></trkpt><trkpt lat="42.2445834" lon="13.9270026"><ele>185.0</ele><time>2026-05-02T09:18:08.732Z</time></trkpt><trkpt lat="42.2445831" lon="13.9270951"><ele>185.0</ele><time>2026-05-02T09:18:13.739Z</time></trkpt><trkpt lat="42.2445624" lon="13.9271875"><ele>185.0</ele><time>2026-05-02T09:18:19.735Z</time></trkpt><trkpt lat="42.2445393" lon="13.9272681"><ele>184.99999999999997</ele><time>2026-05-02T09:18:24.733Z</time></trkpt><trkpt lat="42.2445485" lon="13.9273562"><ele>185.0</ele><time>2026-05-02T09:18:31.739Z</time></trkpt><trkpt lat="42.2445466" lon="13.9274564"><ele>184.99999999999997</ele><time>2026-05-02T09:18:37.731Z</time></trkpt><trkpt lat="42.2445443" lon="13.9275429"><ele>185.0</ele><time>2026-05-02T09:18:43.73Z</time></trkpt><trkpt lat="42.2445366" lon="13.9276304"><ele>185.0</ele><time>2026-05-02T09:18:50.734Z</time></trkpt><trkpt lat="42.2445335" lon="13.9277199"><ele>185.0</ele><time>2026-05-02T09:18:55.739Z</time></trkpt><trkpt lat="42.244559" lon="13.9278028"><ele>185.0</ele><time>2026-05-02T09:19:17.741Z</time></trkpt><trkpt lat="42.2444975" lon="13.9278285"><ele>184.99999999999997</ele><time>2026-05-02T09:19:47.741Z</time></trkpt><trkpt lat="42.2444451" lon="13.9278869"><ele>185.0</ele><time>2026-05-02T09:20:15.741Z</time></trkpt><trkpt lat="42.2444279" lon="13.9279739"><ele>183.99999999999997</ele><time>2026-05-02T09:20:24.74Z</time></trkpt><trkpt lat="42.2443885" lon="13.9280429"><ele>183.0</ele><time>2026-05-02T09:20:31.741Z</time></trkpt><trkpt lat="42.2443672" lon="13.9281282"><ele>182.0</ele><time>2026-05-02T09:20:37.74Z</time></trkpt><trkpt lat="42.2443884" lon="13.9282179"><ele>181.0</ele><time>2026-05-02T09:20:43.741Z</time></trkpt><trkpt lat="42.2444091" lon="13.9282984"><ele>180.0</ele><time>2026-05-02T09:20:49.741Z</time></trkpt><trkpt lat="42.2444369" lon="13.9283868"><ele>178.99999999999997</ele><time>2026-05-02T09:20:54.661Z</time></trkpt><trkpt lat="42.2444753" lon="13.9284766"><ele>178.0</ele><time>2026-05-02T09:20:59.72Z</time></trkpt><trkpt lat="42.2445127" lon="13.9285478"><ele>177.7142857142857</ele><time>2026-05-02T09:21:07.74Z</time></trkpt><trkpt lat="42.2445169" lon="13.9286408"><ele>177.42857142857142</ele><time>2026-05-02T09:21:12.74Z</time></trkpt><trkpt lat="42.2445228" lon="13.9287403"><ele>177.14285714285714</ele><time>2026-05-02T09:21:21.74Z</time></trkpt><trkpt lat="42.2445465" lon="13.9288345"><ele>176.85714285714283</ele><time>2026-05-02T09:21:26.74Z</time></trkpt><trkpt lat="42.2445344" lon="13.9289181"><ele>176.57142857142856</ele><time>2026-05-02T09:21:31.741Z</time></trkpt><trkpt lat="42.2444948" lon="13.9288444"><ele>176.28571428571428</ele><time>2026-05-02T09:23:25.741Z</time></trkpt><trkpt lat="42.2445557" lon="13.9288684"><ele>176.0</ele><time>2026-05-02T09:25:06.741Z</time></trkpt><trkpt lat="42.2445835" lon="13.9287876"><ele>176.0</ele><time>2026-05-02T09:25:14.741Z</time></trkpt><trkpt lat="42.2446249" lon="13.928721"><ele>176.0</ele><time>2026-05-02T09:25:19.74Z</time></trkpt><trkpt lat="42.2446515" lon="13.9287986"><ele>176.0</ele><time>2026-05-02T09:25:52.741Z</time></trkpt><trkpt lat="42.2446358" lon="13.9288821"><ele>176.0</ele><time>2026-05-02T09:26:51.74Z</time></trkpt><trkpt lat="42.244582" lon="13.9288352"><ele>176.0</ele><time>2026-05-02T09:27:51.741Z</time></trkpt><trkpt lat="42.244639" lon="13.9287954"><ele>176.0</ele><time>2026-05-02T09:29:01.74Z</time></trkpt><trkpt lat="42.2445859" lon="13.9287242"><ele>176.0</ele><time>2026-05-02T09:29:39.741Z</time></trkpt><trkpt lat="42.2445457" lon="13.9286493"><ele>176.0</ele><time>2026-05-02T09:29:45.74Z</time></trkpt><trkpt lat="42.2444909" lon="13.9285851"><ele>176.0</ele><time>2026-05-02T09:29:52.74Z</time></trkpt><trkpt lat="42.2444513" lon="13.9285096"><ele>176.0</ele><time>2026-05-02T09:29:58.741Z</time></trkpt><trkpt lat="42.2444298" lon="13.9284284"><ele>176.0</ele><time>2026-05-02T09:30:03.74Z</time></trkpt><trkpt lat="42.2443973" lon="13.9283513"><ele>176.0</ele><time>2026-05-02T09:30:08.741Z</time></trkpt><trkpt lat="42.2443706" lon="13.9282691"><ele>176.0</ele><time>2026-05-02T09:30:14.741Z</time></trkpt><trkpt lat="42.2443872" lon="13.9281769"><ele>176.0</ele><time>2026-05-02T09:30:20.734Z</time></trkpt><trkpt lat="42.2444365" lon="13.9281126"><ele>176.28571428571428</ele><time>2026-05-02T09:30:25.741Z</time></trkpt><trkpt lat="42.2444587" lon="13.9280165"><ele>176.57142857142856</ele><time>2026-05-02T09:30:33.74Z</time></trkpt><trkpt lat="42.2444783" lon="13.9279103"><ele>176.85714285714283</ele><time>2026-05-02T09:30:39.741Z</time></trkpt><trkpt lat="42.244489" lon="13.9278115"><ele>177.14285714285714</ele><time>2026-05-02T09:30:45.74Z</time></trkpt><trkpt lat="42.2444949" lon="13.9277206"><ele>177.42857142857142</ele><time>2026-05-02T09:30:51.741Z</time></trkpt><trkpt lat="42.2444941" lon="13.9276295"><ele>177.7142857142857</ele><time>2026-05-02T09:30:56.74Z</time></trkpt><trkpt lat="42.2444996" lon="13.9275327"><ele>178.0</ele><time>2026-05-02T09:31:02.741Z</time></trkpt><trkpt lat="42.2445054" lon="13.9274427"><ele>178.99999999999997</ele><time>2026-05-02T09:31:07.74Z</time></trkpt><trkpt lat="42.2445146" lon="13.927348"><ele>180.0</ele><time>2026-05-02T09:31:12.689Z</time></trkpt><trkpt lat="42.2445201" lon="13.9272536"><ele>181.0</ele><time>2026-05-02T09:31:18.741Z</time></trkpt><trkpt lat="42.2445376" lon="13.9271665"><ele>182.0</ele><time>2026-05-02T09:31:25.74Z</time></trkpt><trkpt lat="42.2445667" lon="13.9270825"><ele>183.0</ele><time>2026-05-02T09:31:32.741Z</time></trkpt><trkpt lat="42.2446067" lon="13.927009"><ele>183.99999999999997</ele><time>2026-05-02T09:31:38.671Z</time></trkpt><trkpt lat="42.2445957" lon="13.9269108"><ele>185.0</ele><time>2026-05-02T09:31:43.74Z</time></trkpt><trkpt lat="42.2446171" lon="13.9268306"><ele>185.0</ele><time>2026-05-02T09:31:50.741Z</time></trkpt><trkpt lat="42.2446367" lon="13.9267339"><ele>185.0</ele><time>2026-05-02T09:31:57.741Z</time></trkpt><trkpt lat="42.2446873" lon="13.9266791"><ele>193.0</ele><time>2026-05-02T09:32:03.734Z</time></trkpt></trkseg></trk></gpx>